<?xml version="1.0" encoding="UTF-8"?>
<gpx
  version="1.0"
  creator="pymavlink"
  xmlns:xsi="http://www.w3.org/2001/XMLSchema-instance"
  xmlns="http://www.topografix.com/GPX/1/0"
  xsi:schemaLocation="http://www.topografix.com/GPX/1/0 http://www.topografix.com/GPX/1/0/gpx.xsd">
<trk>
<trkseg>
<trkpt lat="-27.274439" lon="151.290064">
  <ele>343.0</ele>
  <time>2026-09-01T01:10:58Z</time>
  <course>264.85</course>
  <speed>0.16401219466856726</speed>
  <fix>3d</fix>
</trkpt>
<trkpt lat="-27.274439" lon="151.290064">
  <ele>343.0</ele>
  <time>2026-09-01T01:10:58Z</time>
  <course>0.0</course>
  <speed>0.0</speed>
  <fix>3d</fix>
</trkpt>
<trkpt lat="-27.274439" lon="151.290064">
  <ele>343.0</ele>
  <time>2026-09-01T01:10:58Z</time>
  <course>258.75</course>
  <speed>0.1664331697709324</speed>
  <fix>3d</fix>
</trkpt>
<trkpt lat="-27.274439" lon="151.290064">
  <ele>343.0</ele>
  <time>2026-09-01T01:10:58Z</time>
  <course>0.0</course>
  <speed>0.0</speed>
  <fix>3d</fix>
</trkpt>
<trkpt lat="-27.274439" lon="151.290064">
  <ele>343.0</ele>
  <time>2026-09-01T01:10:58Z</time>
  <course>325.88</course>
  <speed>0.0</speed>
  <fix>3d</fix>
</trkpt>
<trkpt lat="-27.274439" lon="151.290064">
  <ele>343.0</ele>
  <time>2026-09-01T01:10:58Z</time>
  <course>324.43</course>
  <speed>0.0</speed>
  <fix>3d</fix>
</trkpt>
<trkpt lat="-27.274439" lon="151.290064">
  <ele>343.0</ele>
  <time>2026-09-01T01:10:58Z</time>
  <course>321.86</course>
  <speed>0.0</speed>
  <fix>3d</fix>
</trkpt>
<trkpt lat="-27.274439" lon="151.290064">
  <ele>343.0</ele>
  <time>2026-09-01T01:10:58Z</time>
  <course>295.0</course>
  <speed>0.0</speed>
  <fix>3d</fix>
</trkpt>
<trkpt lat="-27.274439" lon="151.290064">
  <ele>343.0</ele>
  <time>2026-09-01T01:10:58Z</time>
  <course>290.72</course>
  <speed>0.0</speed>
  <fix>3d</fix>
</trkpt>
<trkpt lat="-27.274439" lon="151.290064">
  <ele>343.0</ele>
  <time>2026-09-01T01:10:58Z</time>
  <course>284.84</course>
  <speed>0.0</speed>
  <fix>3d</fix>
</trkpt>
<trkpt lat="-27.274439" lon="151.290064">
  <ele>343.0</ele>
  <time>2026-09-01T01:10:58Z</time>
  <course>277.79</course>
  <speed>0.0</speed>
  <fix>3d</fix>
</trkpt>
<trkpt lat="-27.274439" lon="151.290064">
  <ele>343.0</ele>
  <time>2026-09-01T01:10:58Z</time>
  <course>269.55</course>
  <speed>0.0</speed>
  <fix>3d</fix>
</trkpt>
<trkpt lat="-27.274439" lon="151.290064">
  <ele>343.0</ele>
  <time>2026-09-01T01:10:58Z</time>
  <course>262.16</course>
  <speed>0.9176055797563569</speed>
  <fix>3d</fix>
</trkpt>
<trkpt lat="-27.274439" lon="151.290064">
  <ele>343.0</ele>
  <time>2026-09-01T01:10:58Z</time>
  <course>0.0</course>
  <speed>0.0</speed>
  <fix>3d</fix>
</trkpt>
<trkpt lat="-27.274439" lon="151.290064">
  <ele>343.0</ele>
  <time>2026-09-01T01:10:58Z</time>
  <course>256.4</course>
  <speed>0.9403190947758107</speed>
  <fix>3d</fix>
</trkpt>
<trkpt lat="-27.274439" lon="151.290064">
  <ele>343.0</ele>
  <time>2026-09-01T01:10:58Z</time>
  <course>0.0</course>
  <speed>0.0</speed>
  <fix>3d</fix>
</trkpt>
<trkpt lat="-27.274439" lon="151.290064">
  <ele>343.0</ele>
  <time>2026-09-01T01:10:58Z</time>
  <course>249.45</course>
  <speed>0.756042326857432</speed>
  <fix>3d</fix>
</trkpt>
<trkpt lat="-27.274439" lon="151.290064">
  <ele>343.0</ele>
  <time>2026-09-01T01:10:58Z</time>
  <course>0.0</course>
  <speed>0.0</speed>
  <fix>3d</fix>
</trkpt>
<trkpt lat="-27.274439" lon="151.290064">
  <ele>343.0</ele>
  <time>2026-09-01T01:10:58Z</time>
  <course>241.79</course>
  <speed>0.6596969000988256</speed>
  <fix>3d</fix>
</trkpt>
<trkpt lat="-27.274439" lon="151.290064">
  <ele>343.0</ele>
  <time>2026-09-01T01:10:58Z</time>
  <course>0.0</course>
  <speed>0.0</speed>
  <fix>3d</fix>
</trkpt>
<trkpt lat="-27.274439" lon="151.290064">
  <ele>343.0</ele>
  <time>2026-09-01T01:10:58Z</time>
  <course>233.59</course>
  <speed>0.6618912297349165</speed>
  <fix>3d</fix>
</trkpt>
<trkpt lat="-27.274439" lon="151.290064">
  <ele>343.0</ele>
  <time>2026-09-01T01:10:58Z</time>
  <course>0.0</course>
  <speed>0.0</speed>
  <fix>3d</fix>
</trkpt>
<trkpt lat="-27.274439" lon="151.290064">
  <ele>343.0</ele>
  <time>2026-09-01T01:10:58Z</time>
  <course>225.02</course>
  <speed>0.7034202158027589</speed>
  <fix>3d</fix>
</trkpt>
<trkpt lat="-27.274439" lon="151.290064">
  <ele>343.0</ele>
  <time>2026-09-01T01:10:58Z</time>
  <course>0.0</course>
  <speed>0.0</speed>
  <fix>3d</fix>
</trkpt>
<trkpt lat="-27.274439" lon="151.290064">
  <ele>343.0</ele>
  <time>2026-09-01T01:10:58Z</time>
  <course>216.17</course>
  <speed>0.7539230729988305</speed>
  <fix>3d</fix>
</trkpt>
<trkpt lat="-27.274439" lon="151.290064">
  <ele>343.0</ele>
  <time>2026-09-01T01:10:58Z</time>
  <course>0.0</course>
  <speed>0.0</speed>
  <fix>3d</fix>
</trkpt>
<trkpt lat="-27.274439" lon="151.290064">
  <ele>343.0</ele>
  <time>2026-09-01T01:10:58Z</time>
  <course>207.13</course>
  <speed>0.8052949770115296</speed>
  <fix>3d</fix>
</trkpt>
<trkpt lat="-27.274439" lon="151.290064">
  <ele>343.0</ele>
  <time>2026-09-01T01:10:58Z</time>
  <course>197.95</course>
  <speed>0.8453401682163222</speed>
  <fix>3d</fix>
</trkpt>
<trkpt lat="-27.274439" lon="151.290064">
  <ele>343.0</ele>
  <time>2026-09-01T01:10:58Z</time>
  <course>0.0</course>
  <speed>0.0</speed>
  <fix>3d</fix>
</trkpt>
<trkpt lat="-27.274439" lon="151.290064">
  <ele>343.0</ele>
  <time>2026-09-01T01:10:58Z</time>
  <course>188.67</course>
  <speed>0.878179936004006</speed>
  <fix>3d</fix>
</trkpt>
<trkpt lat="-27.274439" lon="151.290064">
  <ele>343.0</ele>
  <time>2026-09-01T01:10:58Z</time>
  <course>0.0</course>
  <speed>0.0</speed>
  <fix>3d</fix>
</trkpt>
<trkpt lat="-27.274439" lon="151.290064">
  <ele>343.0</ele>
  <time>2026-09-01T01:10:58Z</time>
  <course>179.31</course>
  <speed>0.8848163651289458</speed>
  <fix>3d</fix>
</trkpt>
<trkpt lat="-27.274439" lon="151.290064">
  <ele>343.0</ele>
  <time>2026-09-01T01:10:58Z</time>
  <course>0.0</course>
  <speed>0.0</speed>
  <fix>3d</fix>
</trkpt>
<trkpt lat="-27.274439" lon="151.290064">
  <ele>343.0</ele>
  <time>2026-09-01T01:10:58Z</time>
  <course>169.93</course>
  <speed>0.9140021881811882</speed>
  <fix>3d</fix>
</trkpt>
<trkpt lat="-27.274439" lon="151.290064">
  <ele>343.0</ele>
  <time>2026-09-01T01:10:58Z</time>
  <course>0.0</course>
  <speed>0.0</speed>
  <fix>3d</fix>
</trkpt>
<trkpt lat="-27.274439" lon="151.290064">
  <ele>343.0</ele>
  <time>2026-09-01T01:10:58Z</time>
  <course>161.9</course>
  <speed>0.9219544457292888</speed>
  <fix>3d</fix>
</trkpt>
<trkpt lat="-27.274439" lon="151.290064">
  <ele>343.0</ele>
  <time>2026-09-01T01:10:58Z</time>
  <course>0.0</course>
  <speed>0.0</speed>
  <fix>3d</fix>
</trkpt>
<trkpt lat="-27.274439" lon="151.290064">
  <ele>343.0</ele>
  <time>2026-09-01T01:10:58Z</time>
  <course>158.55</course>
  <speed>0.9411163583744573</speed>
  <fix>3d</fix>
</trkpt>
<trkpt lat="-27.274439" lon="151.290064">
  <ele>343.0</ele>
  <time>2026-09-01T01:10:58Z</time>
  <course>0.0</course>
  <speed>0.0</speed>
  <fix>3d</fix>
</trkpt>
<trkpt lat="-27.274439" lon="151.290064">
  <ele>343.0</ele>
  <time>2026-09-01T01:10:58Z</time>
  <course>157.2</course>
  <speed>0.9546203433826455</speed>
  <fix>3d</fix>
</trkpt>
<trkpt lat="-27.274439" lon="151.290064">
  <ele>343.0</ele>
  <time>2026-09-01T01:10:58Z</time>
  <course>0.0</course>
  <speed>0.0</speed>
  <fix>3d</fix>
</trkpt>
<trkpt lat="-27.274439" lon="151.290064">
  <ele>343.0</ele>
  <time>2026-09-01T01:10:58Z</time>
  <course>156.57</course>
  <speed>0.9642613753542137</speed>
  <fix>3d</fix>
</trkpt>
<trkpt lat="-27.274439" lon="151.290064">
  <ele>343.0</ele>
  <time>2026-09-01T01:10:58Z</time>
  <course>0.0</course>
  <speed>0.0</speed>
  <fix>3d</fix>
</trkpt>
<trkpt lat="-27.274439" lon="151.290064">
  <ele>343.0</ele>
  <time>2026-09-01T01:10:58Z</time>
  <course>156.21</course>
  <speed>0.9602083107326242</speed>
  <fix>3d</fix>
</trkpt>
<trkpt lat="-27.274439" lon="151.290064">
  <ele>343.0</ele>
  <time>2026-09-01T01:10:58Z</time>
  <course>0.0</course>
  <speed>0.0</speed>
  <fix>3d</fix>
</trkpt>
<trkpt lat="-27.274439" lon="151.290064">
  <ele>343.0</ele>
  <time>2026-09-01T01:10:58Z</time>
  <course>155.95</course>
  <speed>0.9689685237405805</speed>
  <fix>3d</fix>
</trkpt>
<trkpt lat="-27.274439" lon="151.290064">
  <ele>343.0</ele>
  <time>2026-09-01T01:10:58Z</time>
  <course>0.0</course>
  <speed>0.0</speed>
  <fix>3d</fix>
</trkpt>
<trkpt lat="-27.274439" lon="151.290064">
  <ele>343.0</ele>
  <time>2026-09-01T01:10:58Z</time>
  <course>155.71</course>
  <speed>0.9800510190801294</speed>
  <fix>3d</fix>
</trkpt>
<trkpt lat="-27.274439" lon="151.290064">
  <ele>343.0</ele>
  <time>2026-09-01T01:10:58Z</time>
  <course>0.0</course>
  <speed>0.0</speed>
  <fix>3d</fix>
</trkpt>
<trkpt lat="-27.274439" lon="151.290064">
  <ele>343.0</ele>
  <time>2026-09-01T01:10:58Z</time>
  <course>155.49</course>
  <speed>0.9972963451251589</speed>
  <fix>3d</fix>
</trkpt>
<trkpt lat="-27.274439" lon="151.290064">
  <ele>343.0</ele>
  <time>2026-09-01T01:10:58Z</time>
  <course>0.0</course>
  <speed>0.0</speed>
  <fix>3d</fix>
</trkpt>
<trkpt lat="-27.274439" lon="151.290064">
  <ele>343.0</ele>
  <time>2026-09-01T01:10:58Z</time>
  <course>155.27</course>
  <speed>1.0113357503816425</speed>
  <fix>3d</fix>
</trkpt>
<trkpt lat="-27.274439" lon="151.290064">
  <ele>343.0</ele>
  <time>2026-09-01T01:10:58Z</time>
  <course>0.0</course>
  <speed>0.0</speed>
  <fix>3d</fix>
</trkpt>
<trkpt lat="-27.274439" lon="151.290064">
  <ele>343.0</ele>
  <time>2026-09-01T01:10:58Z</time>
  <course>155.07</course>
  <speed>1.010198000393982</speed>
  <fix>3d</fix>
</trkpt>
<trkpt lat="-27.274439" lon="151.290064">
  <ele>343.0</ele>
  <time>2026-09-01T01:10:58Z</time>
  <course>0.0</course>
  <speed>0.0</speed>
  <fix>3d</fix>
</trkpt>
<trkpt lat="-27.274439" lon="151.290064">
  <ele>343.0</ele>
  <time>2026-09-01T01:10:59Z</time>
  <course>154.88</course>
  <speed>0.9962429422585637</speed>
  <fix>3d</fix>
</trkpt>
<trkpt lat="-27.274439" lon="151.290064">
  <ele>343.0</ele>
  <time>2026-09-01T01:10:59Z</time>
  <course>0.0</course>
  <speed>0.0</speed>
  <fix>3d</fix>
</trkpt>
<trkpt lat="-27.274439" lon="151.290064">
  <ele>343.0</ele>
  <time>2026-09-01T01:10:59Z</time>
  <course>154.68</course>
  <speed>0.9751410154434076</speed>
  <fix>3d</fix>
</trkpt>
<trkpt lat="-27.274439" lon="151.290064">
  <ele>343.0</ele>
  <time>2026-09-01T01:10:59Z</time>
  <course>0.0</course>
  <speed>0.0</speed>
  <fix>3d</fix>
</trkpt>
<trkpt lat="-27.274439" lon="151.290064">
  <ele>343.0</ele>
  <time>2026-09-01T01:10:59Z</time>
  <course>154.49</course>
  <speed>0.951892851112981</speed>
  <fix>3d</fix>
</trkpt>
<trkpt lat="-27.274439" lon="151.290064">
  <ele>343.0</ele>
  <time>2026-09-01T01:10:59Z</time>
  <course>0.0</course>
  <speed>0.0</speed>
  <fix>3d</fix>
</trkpt>
<trkpt lat="-27.274439" lon="151.290064">
  <ele>343.0</ele>
  <time>2026-09-01T01:10:59Z</time>
  <course>154.29</course>
  <speed>0.9243916918709297</speed>
  <fix>3d</fix>
</trkpt>
<trkpt lat="-27.274439" lon="151.290064">
  <ele>343.0</ele>
  <time>2026-09-01T01:10:59Z</time>
  <course>0.0</course>
  <speed>0.0</speed>
  <fix>3d</fix>
</trkpt>
<trkpt lat="-27.274439" lon="151.290064">
  <ele>343.0</ele>
  <time>2026-09-01T01:10:59Z</time>
  <course>154.09</course>
  <speed>0.8900561780022652</speed>
  <fix>3d</fix>
</trkpt>
<trkpt lat="-27.274439" lon="151.290064">
  <ele>343.0</ele>
  <time>2026-09-01T01:10:59Z</time>
  <course>0.0</course>
  <speed>0.0</speed>
  <fix>3d</fix>
</trkpt>
<trkpt lat="-27.274439" lon="151.290064">
  <ele>343.0</ele>
  <time>2026-09-01T01:10:59Z</time>
  <course>153.88</course>
  <speed>0.8514693182963201</speed>
  <fix>3d</fix>
</trkpt>
<trkpt lat="-27.274439" lon="151.290064">
  <ele>343.0</ele>
  <time>2026-09-01T01:10:59Z</time>
  <course>0.0</course>
  <speed>0.0</speed>
  <fix>3d</fix>
</trkpt>
<trkpt lat="-27.274439" lon="151.290064">
  <ele>343.0</ele>
  <time>2026-09-01T01:10:59Z</time>
  <course>153.67</course>
  <speed>0.8174350127074322</speed>
  <fix>3d</fix>
</trkpt>
<trkpt lat="-27.274439" lon="151.290064">
  <ele>343.0</ele>
  <time>2026-09-01T01:10:59Z</time>
  <course>0.0</course>
  <speed>0.0</speed>
  <fix>3d</fix>
</trkpt>
<trkpt lat="-27.274439" lon="151.290064">
  <ele>343.0</ele>
  <time>2026-09-01T01:10:59Z</time>
  <course>153.46</course>
  <speed>0.7962411694957753</speed>
  <fix>3d</fix>
</trkpt>
<trkpt lat="-27.274439" lon="151.290064">
  <ele>343.0</ele>
  <time>2026-09-01T01:10:59Z</time>
  <course>0.0</course>
  <speed>0.0</speed>
  <fix>3d</fix>
</trkpt>
<trkpt lat="-27.274439" lon="151.290064">
  <ele>343.0</ele>
  <time>2026-09-01T01:10:59Z</time>
  <course>153.24</course>
  <speed>0.7569015788066504</speed>
  <fix>3d</fix>
</trkpt>
<trkpt lat="-27.274439" lon="151.290064">
  <ele>343.0</ele>
  <time>2026-09-01T01:10:59Z</time>
  <course>0.0</course>
  <speed>0.0</speed>
  <fix>3d</fix>
</trkpt>
<trkpt lat="-27.274439" lon="151.2900646">
  <ele>343.04</ele>
  <time>2026-09-01T01:10:59Z</time>
  <course>153.03</course>
  <speed>0.0</speed>
  <fix>3d</fix>
</trkpt>
<trkpt lat="-27.274439" lon="151.290064">
  <ele>343.0</ele>
  <time>2026-09-01T01:10:59Z</time>
  <course>0.0</course>
  <speed>0.0</speed>
  <fix>3d</fix>
</trkpt>
<trkpt lat="-27.2744392" lon="151.2900653">
  <ele>343.03</ele>
  <time>2026-09-01T01:10:59Z</time>
  <course>152.83</course>
  <speed>0.0848528137423857</speed>
  <fix>3d</fix>
</trkpt>
<trkpt lat="-27.274439" lon="151.290064">
  <ele>343.0</ele>
  <time>2026-09-01T01:10:59Z</time>
  <course>0.0</course>
  <speed>0.0</speed>
  <fix>3d</fix>
</trkpt>
<trkpt lat="-27.2744393" lon="151.2900645">
  <ele>343.02</ele>
  <time>2026-09-01T01:10:59Z</time>
  <course>152.57</course>
  <speed>0.08602325267042626</speed>
  <fix>3d</fix>
</trkpt>
<trkpt lat="-27.274439" lon="151.290064">
  <ele>343.0</ele>
  <time>2026-09-01T01:10:59Z</time>
  <course>0.0</course>
  <speed>0.0</speed>
  <fix>3d</fix>
</trkpt>
<trkpt lat="-27.2744392" lon="151.2900642">
  <ele>343.03</ele>
  <time>2026-09-01T01:10:59Z</time>
  <course>152.29</course>
  <speed>0.05830951894845301</speed>
  <fix>3d</fix>
</trkpt>
<trkpt lat="-27.274439" lon="151.290064">
  <ele>343.0</ele>
  <time>2026-09-01T01:10:59Z</time>
  <course>0.0</course>
  <speed>0.0</speed>
  <fix>3d</fix>
</trkpt>
<trkpt lat="-27.2744391" lon="151.2900641">
  <ele>343.06</ele>
  <time>2026-09-01T01:10:59Z</time>
  <course>152.03</course>
  <speed>0.02</speed>
  <fix>3d</fix>
</trkpt>
<trkpt lat="-27.274439" lon="151.290064">
  <ele>343.0</ele>
  <time>2026-09-01T01:10:59Z</time>
  <course>0.0</course>
  <speed>0.0</speed>
  <fix>3d</fix>
</trkpt>
<trkpt lat="-27.274439" lon="151.290064">
  <ele>343.05</ele>
  <time>2026-09-01T01:10:59Z</time>
  <course>151.79</course>
  <speed>0.01</speed>
  <fix>3d</fix>
</trkpt>
<trkpt lat="-27.274439" lon="151.290064">
  <ele>343.0</ele>
  <time>2026-09-01T01:10:59Z</time>
  <course>0.0</course>
  <speed>0.0</speed>
  <fix>3d</fix>
</trkpt>
<trkpt lat="-27.274439" lon="151.290064">
  <ele>343.04</ele>
  <time>2026-09-01T01:10:59Z</time>
  <course>151.57</course>
  <speed>0.01414213562373095</speed>
  <fix>3d</fix>
</trkpt>
<trkpt lat="-27.274439" lon="151.290064">
  <ele>343.0</ele>
  <time>2026-09-01T01:10:59Z</time>
  <course>0.0</course>
  <speed>0.0</speed>
  <fix>3d</fix>
</trkpt>
<trkpt lat="-27.2744389" lon="151.2900639">
  <ele>343.04</ele>
  <time>2026-09-01T01:10:59Z</time>
  <course>151.37</course>
  <speed>0.01414213562373095</speed>
  <fix>3d</fix>
</trkpt>
<trkpt lat="-27.274439" lon="151.290064">
  <ele>343.0</ele>
  <time>2026-09-01T01:10:59Z</time>
  <course>0.0</course>
  <speed>0.0</speed>
  <fix>3d</fix>
</trkpt>
<trkpt lat="-27.2744389" lon="151.2900638">
  <ele>343.05</ele>
  <time>2026-09-01T01:10:59Z</time>
  <course>151.18</course>
  <speed>0.0282842712474619</speed>
  <fix>3d</fix>
</trkpt>
<trkpt lat="-27.274439" lon="151.290064">
  <ele>343.0</ele>
  <time>2026-09-01T01:10:59Z</time>
  <course>0.0</course>
  <speed>0.0</speed>
  <fix>3d</fix>
</trkpt>
<trkpt lat="-27.2744389" lon="151.2900638">
  <ele>343.06</ele>
  <time>2026-09-01T01:10:59Z</time>
  <course>151.01</course>
  <speed>0.0282842712474619</speed>
  <fix>3d</fix>
</trkpt>
<trkpt lat="-27.274439" lon="151.290064">
  <ele>343.0</ele>
  <time>2026-09-01T01:10:59Z</time>
  <course>0.0</course>
  <speed>0.0</speed>
  <fix>3d</fix>
</trkpt>
<trkpt lat="-27.2744389" lon="151.2900638">
  <ele>343.03</ele>
  <time>2026-09-01T01:10:59Z</time>
  <course>150.84</course>
  <speed>0.0282842712474619</speed>
  <fix>3d</fix>
</trkpt>
<trkpt lat="-27.274439" lon="151.290064">
  <ele>343.0</ele>
  <time>2026-09-01T01:10:59Z</time>
  <course>0.0</course>
  <speed>0.0</speed>
  <fix>3d</fix>
</trkpt>
<trkpt lat="-27.2744389" lon="151.2900638">
  <ele>343.04</ele>
  <time>2026-09-01T01:10:59Z</time>
  <course>150.68</course>
  <speed>0.0282842712474619</speed>
  <fix>3d</fix>
</trkpt>
<trkpt lat="-27.274439" lon="151.290064">
  <ele>343.0</ele>
  <time>2026-09-01T01:10:59Z</time>
  <course>0.0</course>
  <speed>0.0</speed>
  <fix>3d</fix>
</trkpt>
<trkpt lat="-27.2744389" lon="151.2900638">
  <ele>343.03</ele>
  <time>2026-09-01T01:10:59Z</time>
  <course>150.52</course>
  <speed>0.022360679774997897</speed>
  <fix>3d</fix>
</trkpt>
<trkpt lat="-27.274439" lon="151.290064">
  <ele>343.0</ele>
  <time>2026-09-01T01:10:59Z</time>
  <course>0.0</course>
  <speed>0.0</speed>
  <fix>3d</fix>
</trkpt>
<trkpt lat="-27.2744389" lon="151.2900638">
  <ele>343.04</ele>
  <time>2026-09-01T01:10:59Z</time>
  <course>150.38</course>
  <speed>0.022360679774997897</speed>
  <fix>3d</fix>
</trkpt>
<trkpt lat="-27.274439" lon="151.290064">
  <ele>343.0</ele>
  <time>2026-09-01T01:10:59Z</time>
  <course>0.0</course>
  <speed>0.0</speed>
  <fix>3d</fix>
</trkpt>
<trkpt lat="-27.2744389" lon="151.2900638">
  <ele>343.03</ele>
  <time>2026-09-01T01:10:59Z</time>
  <course>150.24</course>
  <speed>0.022360679774997897</speed>
  <fix>3d</fix>
</trkpt>
<trkpt lat="-27.274439" lon="151.290064">
  <ele>343.0</ele>
  <time>2026-09-01T01:10:59Z</time>
  <course>0.0</course>
  <speed>0.0</speed>
  <fix>3d</fix>
</trkpt>
<trkpt lat="-27.2744389" lon="151.2900638">
  <ele>343.02</ele>
  <time>2026-09-01T01:10:59Z</time>
  <course>150.11</course>
  <speed>0.022360679774997897</speed>
  <fix>3d</fix>
</trkpt>
<trkpt lat="-27.274439" lon="151.290064">
  <ele>343.0</ele>
  <time>2026-09-01T01:10:59Z</time>
  <course>0.0</course>
  <speed>0.0</speed>
  <fix>3d</fix>
</trkpt>
<trkpt lat="-27.2744389" lon="151.2900638">
  <ele>343.0</ele>
  <time>2026-09-01T01:10:59Z</time>
  <course>149.98</course>
  <speed>0.022360679774997897</speed>
  <fix>3d</fix>
</trkpt>
<trkpt lat="-27.274439" lon="151.290064">
  <ele>343.0</ele>
  <time>2026-09-01T01:10:59Z</time>
  <course>0.0</course>
  <speed>0.0</speed>
  <fix>3d</fix>
</trkpt>
<trkpt lat="-27.2744389" lon="151.2900638">
  <ele>343.01</ele>
  <time>2026-09-01T01:10:59Z</time>
  <course>149.86</course>
  <speed>0.022360679774997897</speed>
  <fix>3d</fix>
</trkpt>
<trkpt lat="-27.274439" lon="151.290064">
  <ele>343.0</ele>
  <time>2026-09-01T01:10:59Z</time>
  <course>0.0</course>
  <speed>0.0</speed>
  <fix>3d</fix>
</trkpt>
<trkpt lat="-27.2744389" lon="151.2900638">
  <ele>343.04</ele>
  <time>2026-09-01T01:10:59Z</time>
  <course>149.75</course>
  <speed>0.022360679774997897</speed>
  <fix>3d</fix>
</trkpt>
<trkpt lat="-27.274439" lon="151.290064">
  <ele>343.0</ele>
  <time>2026-09-01T01:10:59Z</time>
  <course>0.0</course>
  <speed>0.0</speed>
  <fix>3d</fix>
</trkpt>
<trkpt lat="-27.2744389" lon="151.2900638">
  <ele>343.04</ele>
  <time>2026-09-01T01:10:59Z</time>
  <course>149.64</course>
  <speed>0.022360679774997897</speed>
  <fix>3d</fix>
</trkpt>
<trkpt lat="-27.274439" lon="151.290064">
  <ele>343.0</ele>
  <time>2026-09-01T01:10:59Z</time>
  <course>0.0</course>
  <speed>0.0</speed>
  <fix>3d</fix>
</trkpt>
<trkpt lat="-27.2744389" lon="151.2900638">
  <ele>343.04</ele>
  <time>2026-09-01T01:10:59Z</time>
  <course>149.53</course>
  <speed>0.022360679774997897</speed>
  <fix>3d</fix>
</trkpt>
<trkpt lat="-27.274439" lon="151.290064">
  <ele>343.0</ele>
  <time>2026-09-01T01:10:59Z</time>
  <course>0.0</course>
  <speed>0.0</speed>
  <fix>3d</fix>
</trkpt>
<trkpt lat="-27.2744389" lon="151.2900638">
  <ele>343.04</ele>
  <time>2026-09-01T01:10:59Z</time>
  <course>149.44</course>
  <speed>0.022360679774997897</speed>
  <fix>3d</fix>
</trkpt>
<trkpt lat="-27.274439" lon="151.290064">
  <ele>343.0</ele>
  <time>2026-09-01T01:10:59Z</time>
  <course>0.0</course>
  <speed>0.0</speed>
  <fix>3d</fix>
</trkpt>
<trkpt lat="-27.2744389" lon="151.2900638">
  <ele>343.03</ele>
  <time>2026-09-01T01:10:59Z</time>
  <course>149.34</course>
  <speed>0.022360679774997897</speed>
  <fix>3d</fix>
</trkpt>
<trkpt lat="-27.274439" lon="151.290064">
  <ele>343.0</ele>
  <time>2026-09-01T01:10:59Z</time>
  <course>0.0</course>
  <speed>0.0</speed>
  <fix>3d</fix>
</trkpt>
<trkpt lat="-27.2744389" lon="151.2900638">
  <ele>343.02</ele>
  <time>2026-09-01T01:10:59Z</time>
  <course>149.25</course>
  <speed>0.022360679774997897</speed>
  <fix>3d</fix>
</trkpt>
<trkpt lat="-27.274439" lon="151.290064">
  <ele>343.0</ele>
  <time>2026-09-01T01:10:59Z</time>
  <course>0.0</course>
  <speed>0.0</speed>
  <fix>3d</fix>
</trkpt>
<trkpt lat="-27.2744389" lon="151.2900638">
  <ele>343.05</ele>
  <time>2026-09-01T01:10:59Z</time>
  <course>149.17</course>
  <speed>0.022360679774997897</speed>
  <fix>3d</fix>
</trkpt>
<trkpt lat="-27.274439" lon="151.290064">
  <ele>343.0</ele>
  <time>2026-09-01T01:10:59Z</time>
  <course>0.0</course>
  <speed>0.0</speed>
  <fix>3d</fix>
</trkpt>
<trkpt lat="-27.2744389" lon="151.2900638">
  <ele>343.04</ele>
  <time>2026-09-01T01:10:59Z</time>
  <course>149.09</course>
  <speed>0.02</speed>
  <fix>3d</fix>
</trkpt>
<trkpt lat="-27.274439" lon="151.290064">
  <ele>343.0</ele>
  <time>2026-09-01T01:10:59Z</time>
  <course>0.0</course>
  <speed>0.0</speed>
  <fix>3d</fix>
</trkpt>
<trkpt lat="-27.2744389" lon="151.2900638">
  <ele>343.05</ele>
  <time>2026-09-01T01:10:59Z</time>
  <course>149.01</course>
  <speed>0.022360679774997897</speed>
  <fix>3d</fix>
</trkpt>
<trkpt lat="-27.274439" lon="151.290064">
  <ele>343.0</ele>
  <time>2026-09-01T01:10:59Z</time>
  <course>0.0</course>
  <speed>0.0</speed>
  <fix>3d</fix>
</trkpt>
<trkpt lat="-27.2744389" lon="151.2900638">
  <ele>343.03</ele>
  <time>2026-09-01T01:10:59Z</time>
  <course>148.94</course>
  <speed>0.02</speed>
  <fix>3d</fix>
</trkpt>
<trkpt lat="-27.274439" lon="151.290064">
  <ele>343.0</ele>
  <time>2026-09-01T01:10:59Z</time>
  <course>0.0</course>
  <speed>0.0</speed>
  <fix>3d</fix>
</trkpt>
<trkpt lat="-27.2744389" lon="151.2900638">
  <ele>343.02</ele>
  <time>2026-09-01T01:10:59Z</time>
  <course>148.87</course>
  <speed>0.022360679774997897</speed>
  <fix>3d</fix>
</trkpt>
<trkpt lat="-27.274439" lon="151.290064">
  <ele>343.0</ele>
  <time>2026-09-01T01:10:59Z</time>
  <course>0.0</course>
  <speed>0.0</speed>
  <fix>3d</fix>
</trkpt>
<trkpt lat="-27.2744389" lon="151.2900638">
  <ele>343.02</ele>
  <time>2026-09-01T01:10:59Z</time>
  <course>148.8</course>
  <speed>0.02</speed>
  <fix>3d</fix>
</trkpt>
<trkpt lat="-27.274439" lon="151.290064">
  <ele>343.0</ele>
  <time>2026-09-01T01:10:59Z</time>
  <course>0.0</course>
  <speed>0.0</speed>
  <fix>3d</fix>
</trkpt>
<trkpt lat="-27.2744389" lon="151.2900638">
  <ele>343.02</ele>
  <time>2026-09-01T01:10:59Z</time>
  <course>148.74</course>
  <speed>0.02</speed>
  <fix>3d</fix>
</trkpt>
<trkpt lat="-27.274439" lon="151.290064">
  <ele>343.0</ele>
  <time>2026-09-01T01:10:59Z</time>
  <course>0.0</course>
  <speed>0.0</speed>
  <fix>3d</fix>
</trkpt>
<trkpt lat="-27.2744389" lon="151.2900638">
  <ele>343.0</ele>
  <time>2026-09-01T01:10:59Z</time>
  <course>148.67</course>
  <speed>0.02</speed>
  <fix>3d</fix>
</trkpt>
<trkpt lat="-27.274439" lon="151.290064">
  <ele>343.0</ele>
  <time>2026-09-01T01:10:59Z</time>
  <course>0.0</course>
  <speed>0.0</speed>
  <fix>3d</fix>
</trkpt>
<trkpt lat="-27.2744389" lon="151.2900638">
  <ele>343.0</ele>
  <time>2026-09-01T01:10:59Z</time>
  <course>148.62</course>
  <speed>0.02</speed>
  <fix>3d</fix>
</trkpt>
<trkpt lat="-27.274439" lon="151.290064">
  <ele>343.0</ele>
  <time>2026-09-01T01:10:59Z</time>
  <course>0.0</course>
  <speed>0.0</speed>
  <fix>3d</fix>
</trkpt>
<trkpt lat="-27.2744389" lon="151.2900638">
  <ele>343.01</ele>
  <time>2026-09-01T01:10:59Z</time>
  <course>148.56</course>
  <speed>0.02</speed>
  <fix>3d</fix>
</trkpt>
<trkpt lat="-27.274439" lon="151.290064">
  <ele>343.0</ele>
  <time>2026-09-01T01:10:59Z</time>
  <course>0.0</course>
  <speed>0.0</speed>
  <fix>3d</fix>
</trkpt>
<trkpt lat="-27.2744389" lon="151.2900638">
  <ele>342.99</ele>
  <time>2026-09-01T01:10:59Z</time>
  <course>148.51</course>
  <speed>0.02</speed>
  <fix>3d</fix>
</trkpt>
<trkpt lat="-27.274439" lon="151.290064">
  <ele>343.0</ele>
  <time>2026-09-01T01:10:59Z</time>
  <course>0.0</course>
  <speed>0.0</speed>
  <fix>3d</fix>
</trkpt>
<trkpt lat="-27.2744389" lon="151.2900638">
  <ele>342.99</ele>
  <time>2026-09-01T01:10:59Z</time>
  <course>148.46</course>
  <speed>0.02</speed>
  <fix>3d</fix>
</trkpt>
<trkpt lat="-27.274439" lon="151.290064">
  <ele>343.0</ele>
  <time>2026-09-01T01:10:59Z</time>
  <course>0.0</course>
  <speed>0.0</speed>
  <fix>3d</fix>
</trkpt>
<trkpt lat="-27.2744389" lon="151.2900638">
  <ele>342.99</ele>
  <time>2026-09-01T01:10:59Z</time>
  <course>148.41</course>
  <speed>0.02</speed>
  <fix>3d</fix>
</trkpt>
<trkpt lat="-27.274439" lon="151.290064">
  <ele>343.0</ele>
  <time>2026-09-01T01:10:59Z</time>
  <course>0.0</course>
  <speed>0.0</speed>
  <fix>3d</fix>
</trkpt>
<trkpt lat="-27.2744389" lon="151.2900638">
  <ele>343.01</ele>
  <time>2026-09-01T01:10:59Z</time>
  <course>148.36</course>
  <speed>0.02</speed>
  <fix>3d</fix>
</trkpt>
<trkpt lat="-27.274439" lon="151.290064">
  <ele>343.0</ele>
  <time>2026-09-01T01:10:59Z</time>
  <course>0.0</course>
  <speed>0.0</speed>
  <fix>3d</fix>
</trkpt>
<trkpt lat="-27.2744389" lon="151.2900638">
  <ele>343.01</ele>
  <time>2026-09-01T01:10:59Z</time>
  <course>148.32</course>
  <speed>0.02</speed>
  <fix>3d</fix>
</trkpt>
<trkpt lat="-27.274439" lon="151.290064">
  <ele>343.0</ele>
  <time>2026-09-01T01:10:59Z</time>
  <course>0.0</course>
  <speed>0.0</speed>
  <fix>3d</fix>
</trkpt>
<trkpt lat="-27.2744389" lon="151.2900638">
  <ele>343.02</ele>
  <time>2026-09-01T01:10:59Z</time>
  <course>148.27</course>
  <speed>0.02</speed>
  <fix>3d</fix>
</trkpt>
<trkpt lat="-27.274439" lon="151.290064">
  <ele>343.0</ele>
  <time>2026-09-01T01:10:59Z</time>
  <course>0.0</course>
  <speed>0.0</speed>
  <fix>3d</fix>
</trkpt>
<trkpt lat="-27.2744389" lon="151.2900638">
  <ele>343.01</ele>
  <time>2026-09-01T01:10:59Z</time>
  <course>148.23</course>
  <speed>0.02</speed>
  <fix>3d</fix>
</trkpt>
<trkpt lat="-27.274439" lon="151.290064">
  <ele>343.0</ele>
  <time>2026-09-01T01:10:59Z</time>
  <course>0.0</course>
  <speed>0.0</speed>
  <fix>3d</fix>
</trkpt>
<trkpt lat="-27.2744389" lon="151.2900638">
  <ele>343.02</ele>
  <time>2026-09-01T01:10:59Z</time>
  <course>148.19</course>
  <speed>0.02</speed>
  <fix>3d</fix>
</trkpt>
<trkpt lat="-27.274439" lon="151.290064">
  <ele>343.0</ele>
  <time>2026-09-01T01:10:59Z</time>
  <course>0.0</course>
  <speed>0.0</speed>
  <fix>3d</fix>
</trkpt>
<trkpt lat="-27.2744389" lon="151.2900638">
  <ele>343.05</ele>
  <time>2026-09-01T01:10:59Z</time>
  <course>148.15</course>
  <speed>0.02</speed>
  <fix>3d</fix>
</trkpt>
<trkpt lat="-27.274439" lon="151.290064">
  <ele>343.0</ele>
  <time>2026-09-01T01:10:59Z</time>
  <course>0.0</course>
  <speed>0.0</speed>
  <fix>3d</fix>
</trkpt>
<trkpt lat="-27.2744389" lon="151.2900638">
  <ele>343.03</ele>
  <time>2026-09-01T01:10:59Z</time>
  <course>148.12</course>
  <speed>0.02</speed>
  <fix>3d</fix>
</trkpt>
<trkpt lat="-27.274439" lon="151.290064">
  <ele>343.0</ele>
  <time>2026-09-01T01:10:59Z</time>
  <course>0.0</course>
  <speed>0.0</speed>
  <fix>3d</fix>
</trkpt>
<trkpt lat="-27.2744389" lon="151.2900638">
  <ele>343.04</ele>
  <time>2026-09-01T01:10:59Z</time>
  <course>148.08</course>
  <speed>0.02</speed>
  <fix>3d</fix>
</trkpt>
<trkpt lat="-27.274439" lon="151.290064">
  <ele>343.0</ele>
  <time>2026-09-01T01:10:59Z</time>
  <course>0.0</course>
  <speed>0.0</speed>
  <fix>3d</fix>
</trkpt>
<trkpt lat="-27.2744389" lon="151.2900638">
  <ele>343.03</ele>
  <time>2026-09-01T01:10:59Z</time>
  <course>148.05</course>
  <speed>0.02</speed>
  <fix>3d</fix>
</trkpt>
<trkpt lat="-27.274439" lon="151.290064">
  <ele>343.0</ele>
  <time>2026-09-01T01:10:59Z</time>
  <course>0.0</course>
  <speed>0.0</speed>
  <fix>3d</fix>
</trkpt>
<trkpt lat="-27.2744389" lon="151.2900638">
  <ele>343.03</ele>
  <time>2026-09-01T01:10:59Z</time>
  <course>148.02</course>
  <speed>0.02</speed>
  <fix>3d</fix>
</trkpt>
<trkpt lat="-27.274439" lon="151.290064">
  <ele>343.0</ele>
  <time>2026-09-01T01:10:59Z</time>
  <course>0.0</course>
  <speed>0.0</speed>
  <fix>3d</fix>
</trkpt>
<trkpt lat="-27.2744389" lon="151.2900638">
  <ele>343.03</ele>
  <time>2026-09-01T01:10:59Z</time>
  <course>147.98</course>
  <speed>0.02</speed>
  <fix>3d</fix>
</trkpt>
<trkpt lat="-27.274439" lon="151.290064">
  <ele>343.0</ele>
  <time>2026-09-01T01:10:59Z</time>
  <course>0.0</course>
  <speed>0.0</speed>
  <fix>3d</fix>
</trkpt>
<trkpt lat="-27.2744389" lon="151.2900638">
  <ele>343.02</ele>
  <time>2026-09-01T01:10:59Z</time>
  <course>147.95</course>
  <speed>0.02</speed>
  <fix>3d</fix>
</trkpt>
<trkpt lat="-27.274439" lon="151.290064">
  <ele>343.0</ele>
  <time>2026-09-01T01:10:59Z</time>
  <course>0.0</course>
  <speed>0.0</speed>
  <fix>3d</fix>
</trkpt>
<trkpt lat="-27.2744389" lon="151.2900638">
  <ele>343.03</ele>
  <time>2026-09-01T01:10:59Z</time>
  <course>147.93</course>
  <speed>0.02</speed>
  <fix>3d</fix>
</trkpt>
<trkpt lat="-27.274439" lon="151.290064">
  <ele>343.0</ele>
  <time>2026-09-01T01:10:59Z</time>
  <course>0.0</course>
  <speed>0.0</speed>
  <fix>3d</fix>
</trkpt>
<trkpt lat="-27.2744389" lon="151.2900638">
  <ele>343.03</ele>
  <time>2026-09-01T01:10:59Z</time>
  <course>147.89</course>
  <speed>0.02</speed>
  <fix>3d</fix>
</trkpt>
<trkpt lat="-27.274439" lon="151.290064">
  <ele>343.0</ele>
  <time>2026-09-01T01:10:59Z</time>
  <course>0.0</course>
  <speed>0.0</speed>
  <fix>3d</fix>
</trkpt>
<trkpt lat="-27.2744389" lon="151.2900638">
  <ele>343.02</ele>
  <time>2026-09-01T01:10:59Z</time>
  <course>147.87</course>
  <speed>0.02</speed>
  <fix>3d</fix>
</trkpt>
<trkpt lat="-27.274439" lon="151.290064">
  <ele>343.0</ele>
  <time>2026-09-01T01:10:59Z</time>
  <course>0.0</course>
  <speed>0.0</speed>
  <fix>3d</fix>
</trkpt>
<trkpt lat="-27.2744389" lon="151.2900638">
  <ele>343.05</ele>
  <time>2026-09-01T01:10:59Z</time>
  <course>147.84</course>
  <speed>0.02</speed>
  <fix>3d</fix>
</trkpt>
<trkpt lat="-27.274439" lon="151.290064">
  <ele>343.0</ele>
  <time>2026-09-01T01:10:59Z</time>
  <course>0.0</course>
  <speed>0.0</speed>
  <fix>3d</fix>
</trkpt>
<trkpt lat="-27.2744389" lon="151.2900638">
  <ele>343.03</ele>
  <time>2026-09-01T01:10:59Z</time>
  <course>147.82</course>
  <speed>0.02</speed>
  <fix>3d</fix>
</trkpt>
<trkpt lat="-27.274439" lon="151.290064">
  <ele>343.0</ele>
  <time>2026-09-01T01:10:59Z</time>
  <course>0.0</course>
  <speed>0.0</speed>
  <fix>3d</fix>
</trkpt>
<trkpt lat="-27.2744389" lon="151.2900638">
  <ele>343.02</ele>
  <time>2026-09-01T01:10:59Z</time>
  <course>147.79</course>
  <speed>0.02</speed>
  <fix>3d</fix>
</trkpt>
<trkpt lat="-27.274439" lon="151.290064">
  <ele>343.0</ele>
  <time>2026-09-01T01:10:59Z</time>
  <course>0.0</course>
  <speed>0.0</speed>
  <fix>3d</fix>
</trkpt>
<trkpt lat="-27.2744389" lon="151.2900638">
  <ele>343.01</ele>
  <time>2026-09-01T01:10:59Z</time>
  <course>147.77</course>
  <speed>0.02</speed>
  <fix>3d</fix>
</trkpt>
<trkpt lat="-27.274439" lon="151.290064">
  <ele>343.0</ele>
  <time>2026-09-01T01:10:59Z</time>
  <course>0.0</course>
  <speed>0.0</speed>
  <fix>3d</fix>
</trkpt>
<trkpt lat="-27.2744389" lon="151.2900638">
  <ele>343.0</ele>
  <time>2026-09-01T01:11:00Z</time>
  <course>147.74</course>
  <speed>0.02</speed>
  <fix>3d</fix>
</trkpt>
<trkpt lat="-27.274439" lon="151.290064">
  <ele>343.0</ele>
  <time>2026-09-01T01:11:00Z</time>
  <course>0.0</course>
  <speed>0.0</speed>
  <fix>3d</fix>
</trkpt>
<trkpt lat="-27.2744389" lon="151.2900638">
  <ele>343.01</ele>
  <time>2026-09-01T01:11:00Z</time>
  <course>147.73</course>
  <speed>0.02</speed>
  <fix>3d</fix>
</trkpt>
<trkpt lat="-27.274439" lon="151.290064">
  <ele>343.0</ele>
  <time>2026-09-01T01:11:00Z</time>
  <course>0.0</course>
  <speed>0.0</speed>
  <fix>3d</fix>
</trkpt>
<trkpt lat="-27.2744389" lon="151.2900638">
  <ele>343.0</ele>
  <time>2026-09-01T01:11:00Z</time>
  <course>147.7</course>
  <speed>0.02</speed>
  <fix>3d</fix>
</trkpt>
<trkpt lat="-27.274439" lon="151.290064">
  <ele>343.0</ele>
  <time>2026-09-01T01:11:00Z</time>
  <course>0.0</course>
  <speed>0.0</speed>
  <fix>3d</fix>
</trkpt>
<trkpt lat="-27.2744389" lon="151.2900638">
  <ele>342.99</ele>
  <time>2026-09-01T01:11:00Z</time>
  <course>147.69</course>
  <speed>0.02</speed>
  <fix>3d</fix>
</trkpt>
<trkpt lat="-27.274439" lon="151.290064">
  <ele>343.0</ele>
  <time>2026-09-01T01:11:00Z</time>
  <course>0.0</course>
  <speed>0.0</speed>
  <fix>3d</fix>
</trkpt>
<trkpt lat="-27.2744389" lon="151.2900638">
  <ele>342.99</ele>
  <time>2026-09-01T01:11:00Z</time>
  <course>147.66</course>
  <speed>0.02</speed>
  <fix>3d</fix>
</trkpt>
<trkpt lat="-27.274439" lon="151.290064">
  <ele>343.0</ele>
  <time>2026-09-01T01:11:00Z</time>
  <course>0.0</course>
  <speed>0.0</speed>
  <fix>3d</fix>
</trkpt>
<trkpt lat="-27.2744389" lon="151.2900638">
  <ele>343.0</ele>
  <time>2026-09-01T01:11:00Z</time>
  <course>147.65</course>
  <speed>0.02</speed>
  <fix>3d</fix>
</trkpt>
<trkpt lat="-27.274439" lon="151.290064">
  <ele>343.0</ele>
  <time>2026-09-01T01:11:00Z</time>
  <course>0.0</course>
  <speed>0.0</speed>
  <fix>3d</fix>
</trkpt>
<trkpt lat="-27.2744389" lon="151.2900638">
  <ele>343.01</ele>
  <time>2026-09-01T01:11:00Z</time>
  <course>147.63</course>
  <speed>0.02</speed>
  <fix>3d</fix>
</trkpt>
<trkpt lat="-27.274439" lon="151.290064">
  <ele>343.0</ele>
  <time>2026-09-01T01:11:00Z</time>
  <course>0.0</course>
  <speed>0.0</speed>
  <fix>3d</fix>
</trkpt>
<trkpt lat="-27.2744389" lon="151.2900638">
  <ele>343.0</ele>
  <time>2026-09-01T01:11:00Z</time>
  <course>147.61</course>
  <speed>0.02</speed>
  <fix>3d</fix>
</trkpt>
<trkpt lat="-27.274439" lon="151.290064">
  <ele>343.0</ele>
  <time>2026-09-01T01:11:00Z</time>
  <course>0.0</course>
  <speed>0.0</speed>
  <fix>3d</fix>
</trkpt>
<trkpt lat="-27.2744389" lon="151.2900638">
  <ele>342.99</ele>
  <time>2026-09-01T01:11:00Z</time>
  <course>147.6</course>
  <speed>0.02</speed>
  <fix>3d</fix>
</trkpt>
<trkpt lat="-27.274439" lon="151.290064">
  <ele>343.0</ele>
  <time>2026-09-01T01:11:00Z</time>
  <course>0.0</course>
  <speed>0.0</speed>
  <fix>3d</fix>
</trkpt>
<trkpt lat="-27.2744389" lon="151.2900638">
  <ele>342.99</ele>
  <time>2026-09-01T01:11:00Z</time>
  <course>147.58</course>
  <speed>0.02</speed>
  <fix>3d</fix>
</trkpt>
<trkpt lat="-27.274439" lon="151.290064">
  <ele>343.0</ele>
  <time>2026-09-01T01:11:00Z</time>
  <course>0.0</course>
  <speed>0.0</speed>
  <fix>3d</fix>
</trkpt>
<trkpt lat="-27.2744389" lon="151.2900638">
  <ele>343.0</ele>
  <time>2026-09-01T01:11:00Z</time>
  <course>147.56</course>
  <speed>0.02</speed>
  <fix>3d</fix>
</trkpt>
<trkpt lat="-27.274439" lon="151.290064">
  <ele>343.0</ele>
  <time>2026-09-01T01:11:00Z</time>
  <course>0.0</course>
  <speed>0.0</speed>
  <fix>3d</fix>
</trkpt>
<trkpt lat="-27.2744389" lon="151.2900638">
  <ele>343.02</ele>
  <time>2026-09-01T01:11:00Z</time>
  <course>147.55</course>
  <speed>0.02</speed>
  <fix>3d</fix>
</trkpt>
<trkpt lat="-27.274439" lon="151.290064">
  <ele>343.0</ele>
  <time>2026-09-01T01:11:00Z</time>
  <course>0.0</course>
  <speed>0.0</speed>
  <fix>3d</fix>
</trkpt>
<trkpt lat="-27.2744389" lon="151.2900638">
  <ele>343.01</ele>
  <time>2026-09-01T01:11:00Z</time>
  <course>147.53</course>
  <speed>0.02</speed>
  <fix>3d</fix>
</trkpt>
<trkpt lat="-27.274439" lon="151.290064">
  <ele>343.0</ele>
  <time>2026-09-01T01:11:00Z</time>
  <course>0.0</course>
  <speed>0.0</speed>
  <fix>3d</fix>
</trkpt>
<trkpt lat="-27.2744389" lon="151.2900638">
  <ele>343.01</ele>
  <time>2026-09-01T01:11:00Z</time>
  <course>147.52</course>
  <speed>0.02</speed>
  <fix>3d</fix>
</trkpt>
<trkpt lat="-27.274439" lon="151.290064">
  <ele>343.0</ele>
  <time>2026-09-01T01:11:00Z</time>
  <course>0.0</course>
  <speed>0.0</speed>
  <fix>3d</fix>
</trkpt>
<trkpt lat="-27.2744389" lon="151.2900638">
  <ele>343.02</ele>
  <time>2026-09-01T01:11:00Z</time>
  <course>147.51</course>
  <speed>0.02</speed>
  <fix>3d</fix>
</trkpt>
<trkpt lat="-27.274439" lon="151.290064">
  <ele>343.0</ele>
  <time>2026-09-01T01:11:00Z</time>
  <course>0.0</course>
  <speed>0.0</speed>
  <fix>3d</fix>
</trkpt>
<trkpt lat="-27.2744389" lon="151.2900638">
  <ele>343.01</ele>
  <time>2026-09-01T01:11:00Z</time>
  <course>147.49</course>
  <speed>0.02</speed>
  <fix>3d</fix>
</trkpt>
<trkpt lat="-27.274439" lon="151.290064">
  <ele>343.0</ele>
  <time>2026-09-01T01:11:00Z</time>
  <course>0.0</course>
  <speed>0.0</speed>
  <fix>3d</fix>
</trkpt>
<trkpt lat="-27.2744389" lon="151.2900638">
  <ele>343.0</ele>
  <time>2026-09-01T01:11:00Z</time>
  <course>147.48</course>
  <speed>0.02</speed>
  <fix>3d</fix>
</trkpt>
<trkpt lat="-27.274439" lon="151.290064">
  <ele>343.0</ele>
  <time>2026-09-01T01:11:00Z</time>
  <course>0.0</course>
  <speed>0.0</speed>
  <fix>3d</fix>
</trkpt>
<trkpt lat="-27.2744389" lon="151.2900638">
  <ele>343.04</ele>
  <time>2026-09-01T01:11:00Z</time>
  <course>147.47</course>
  <speed>0.02</speed>
  <fix>3d</fix>
</trkpt>
<trkpt lat="-27.274439" lon="151.290064">
  <ele>343.0</ele>
  <time>2026-09-01T01:11:00Z</time>
  <course>0.0</course>
  <speed>0.0</speed>
  <fix>3d</fix>
</trkpt>
<trkpt lat="-27.2744389" lon="151.2900638">
  <ele>343.04</ele>
  <time>2026-09-01T01:11:00Z</time>
  <course>147.46</course>
  <speed>0.02</speed>
  <fix>3d</fix>
</trkpt>
<trkpt lat="-27.274439" lon="151.290064">
  <ele>343.0</ele>
  <time>2026-09-01T01:11:00Z</time>
  <course>0.0</course>
  <speed>0.0</speed>
  <fix>3d</fix>
</trkpt>
<trkpt lat="-27.2744389" lon="151.2900638">
  <ele>343.01</ele>
  <time>2026-09-01T01:11:00Z</time>
  <course>147.44</course>
  <speed>0.02</speed>
  <fix>3d</fix>
</trkpt>
<trkpt lat="-27.274439" lon="151.290064">
  <ele>343.0</ele>
  <time>2026-09-01T01:11:00Z</time>
  <course>0.0</course>
  <speed>0.0</speed>
  <fix>3d</fix>
</trkpt>
<trkpt lat="-27.2744389" lon="151.2900638">
  <ele>343.01</ele>
  <time>2026-09-01T01:11:00Z</time>
  <course>147.43</course>
  <speed>0.02</speed>
  <fix>3d</fix>
</trkpt>
<trkpt lat="-27.274439" lon="151.290064">
  <ele>343.0</ele>
  <time>2026-09-01T01:11:00Z</time>
  <course>0.0</course>
  <speed>0.0</speed>
  <fix>3d</fix>
</trkpt>
<trkpt lat="-27.2744389" lon="151.2900638">
  <ele>343.02</ele>
  <time>2026-09-01T01:11:00Z</time>
  <course>147.42</course>
  <speed>0.02</speed>
  <fix>3d</fix>
</trkpt>
<trkpt lat="-27.274439" lon="151.290064">
  <ele>343.0</ele>
  <time>2026-09-01T01:11:00Z</time>
  <course>0.0</course>
  <speed>0.0</speed>
  <fix>3d</fix>
</trkpt>
<trkpt lat="-27.2744389" lon="151.2900638">
  <ele>343.04</ele>
  <time>2026-09-01T01:11:00Z</time>
  <course>147.41</course>
  <speed>0.02</speed>
  <fix>3d</fix>
</trkpt>
<trkpt lat="-27.274439" lon="151.290064">
  <ele>343.0</ele>
  <time>2026-09-01T01:11:00Z</time>
  <course>0.0</course>
  <speed>0.0</speed>
  <fix>3d</fix>
</trkpt>
<trkpt lat="-27.2744389" lon="151.2900638">
  <ele>343.03</ele>
  <time>2026-09-01T01:11:00Z</time>
  <course>147.4</course>
  <speed>0.02</speed>
  <fix>3d</fix>
</trkpt>
<trkpt lat="-27.274439" lon="151.290064">
  <ele>343.0</ele>
  <time>2026-09-01T01:11:00Z</time>
  <course>0.0</course>
  <speed>0.0</speed>
  <fix>3d</fix>
</trkpt>
<trkpt lat="-27.2744389" lon="151.2900638">
  <ele>343.01</ele>
  <time>2026-09-01T01:11:00Z</time>
  <course>147.39</course>
  <speed>0.02</speed>
  <fix>3d</fix>
</trkpt>
<trkpt lat="-27.274439" lon="151.290064">
  <ele>343.0</ele>
  <time>2026-09-01T01:11:00Z</time>
  <course>0.0</course>
  <speed>0.0</speed>
  <fix>3d</fix>
</trkpt>
<trkpt lat="-27.2744389" lon="151.2900638">
  <ele>343.02</ele>
  <time>2026-09-01T01:11:00Z</time>
  <course>147.38</course>
  <speed>0.02</speed>
  <fix>3d</fix>
</trkpt>
<trkpt lat="-27.274439" lon="151.290064">
  <ele>343.0</ele>
  <time>2026-09-01T01:11:00Z</time>
  <course>0.0</course>
  <speed>0.0</speed>
  <fix>3d</fix>
</trkpt>
<trkpt lat="-27.2744389" lon="151.2900638">
  <ele>343.01</ele>
  <time>2026-09-01T01:11:00Z</time>
  <course>147.38</course>
  <speed>0.02</speed>
  <fix>3d</fix>
</trkpt>
<trkpt lat="-27.274439" lon="151.290064">
  <ele>343.0</ele>
  <time>2026-09-01T01:11:00Z</time>
  <course>0.0</course>
  <speed>0.0</speed>
  <fix>3d</fix>
</trkpt>
<trkpt lat="-27.2744389" lon="151.2900638">
  <ele>343.01</ele>
  <time>2026-09-01T01:11:00Z</time>
  <course>147.36</course>
  <speed>0.02</speed>
  <fix>3d</fix>
</trkpt>
<trkpt lat="-27.274439" lon="151.290064">
  <ele>343.0</ele>
  <time>2026-09-01T01:11:00Z</time>
  <course>0.0</course>
  <speed>0.0</speed>
  <fix>3d</fix>
</trkpt>
<trkpt lat="-27.2744389" lon="151.2900638">
  <ele>343.01</ele>
  <time>2026-09-01T01:11:00Z</time>
  <course>147.36</course>
  <speed>0.02</speed>
  <fix>3d</fix>
</trkpt>
<trkpt lat="-27.274439" lon="151.290064">
  <ele>343.0</ele>
  <time>2026-09-01T01:11:00Z</time>
  <course>0.0</course>
  <speed>0.0</speed>
  <fix>3d</fix>
</trkpt>
<trkpt lat="-27.2744389" lon="151.2900638">
  <ele>343.01</ele>
  <time>2026-09-01T01:11:00Z</time>
  <course>147.35</course>
  <speed>0.02</speed>
  <fix>3d</fix>
</trkpt>
<trkpt lat="-27.274439" lon="151.290064">
  <ele>343.0</ele>
  <time>2026-09-01T01:11:00Z</time>
  <course>0.0</course>
  <speed>0.0</speed>
  <fix>3d</fix>
</trkpt>
<trkpt lat="-27.2744389" lon="151.2900638">
  <ele>343.03</ele>
  <time>2026-09-01T01:11:00Z</time>
  <course>147.34</course>
  <speed>0.02</speed>
  <fix>3d</fix>
</trkpt>
<trkpt lat="-27.274439" lon="151.290064">
  <ele>343.0</ele>
  <time>2026-09-01T01:11:00Z</time>
  <course>0.0</course>
  <speed>0.0</speed>
  <fix>3d</fix>
</trkpt>
<trkpt lat="-27.2744389" lon="151.2900638">
  <ele>343.03</ele>
  <time>2026-09-01T01:11:00Z</time>
  <course>147.33</course>
  <speed>0.02</speed>
  <fix>3d</fix>
</trkpt>
<trkpt lat="-27.274439" lon="151.290064">
  <ele>343.0</ele>
  <time>2026-09-01T01:11:00Z</time>
  <course>0.0</course>
  <speed>0.0</speed>
  <fix>3d</fix>
</trkpt>
<trkpt lat="-27.2744389" lon="151.2900638">
  <ele>343.04</ele>
  <time>2026-09-01T01:11:00Z</time>
  <course>147.32</course>
  <speed>0.02</speed>
  <fix>3d</fix>
</trkpt>
<trkpt lat="-27.274439" lon="151.290064">
  <ele>343.0</ele>
  <time>2026-09-01T01:11:00Z</time>
  <course>0.0</course>
  <speed>0.0</speed>
  <fix>3d</fix>
</trkpt>
<trkpt lat="-27.2744389" lon="151.2900638">
  <ele>343.03</ele>
  <time>2026-09-01T01:11:00Z</time>
  <course>147.32</course>
  <speed>0.02</speed>
  <fix>3d</fix>
</trkpt>
<trkpt lat="-27.274439" lon="151.290064">
  <ele>343.0</ele>
  <time>2026-09-01T01:11:00Z</time>
  <course>0.0</course>
  <speed>0.0</speed>
  <fix>3d</fix>
</trkpt>
<trkpt lat="-27.2744389" lon="151.2900638">
  <ele>343.01</ele>
  <time>2026-09-01T01:11:00Z</time>
  <course>147.31</course>
  <speed>0.02</speed>
  <fix>3d</fix>
</trkpt>
<trkpt lat="-27.274439" lon="151.290064">
  <ele>343.0</ele>
  <time>2026-09-01T01:11:00Z</time>
  <course>0.0</course>
  <speed>0.0</speed>
  <fix>3d</fix>
</trkpt>
<trkpt lat="-27.2744389" lon="151.2900638">
  <ele>343.01</ele>
  <time>2026-09-01T01:11:00Z</time>
  <course>147.3</course>
  <speed>0.02</speed>
  <fix>3d</fix>
</trkpt>
<trkpt lat="-27.274439" lon="151.290064">
  <ele>343.0</ele>
  <time>2026-09-01T01:11:00Z</time>
  <course>0.0</course>
  <speed>0.0</speed>
  <fix>3d</fix>
</trkpt>
<trkpt lat="-27.2744389" lon="151.2900638">
  <ele>343.03</ele>
  <time>2026-09-01T01:11:00Z</time>
  <course>147.3</course>
  <speed>0.02</speed>
  <fix>3d</fix>
</trkpt>
<trkpt lat="-27.274439" lon="151.290064">
  <ele>343.0</ele>
  <time>2026-09-01T01:11:00Z</time>
  <course>0.0</course>
  <speed>0.0</speed>
  <fix>3d</fix>
</trkpt>
<trkpt lat="-27.2744389" lon="151.2900638">
  <ele>343.02</ele>
  <time>2026-09-01T01:11:00Z</time>
  <course>147.29</course>
  <speed>0.02</speed>
  <fix>3d</fix>
</trkpt>
<trkpt lat="-27.274439" lon="151.290064">
  <ele>343.0</ele>
  <time>2026-09-01T01:11:00Z</time>
  <course>0.0</course>
  <speed>0.0</speed>
  <fix>3d</fix>
</trkpt>
<trkpt lat="-27.2744389" lon="151.2900638">
  <ele>343.02</ele>
  <time>2026-09-01T01:11:00Z</time>
  <course>147.28</course>
  <speed>0.02</speed>
  <fix>3d</fix>
</trkpt>
<trkpt lat="-27.274439" lon="151.290064">
  <ele>343.0</ele>
  <time>2026-09-01T01:11:00Z</time>
  <course>0.0</course>
  <speed>0.0</speed>
  <fix>3d</fix>
</trkpt>
<trkpt lat="-27.2744389" lon="151.2900638">
  <ele>343.01</ele>
  <time>2026-09-01T01:11:00Z</time>
  <course>147.28</course>
  <speed>0.02</speed>
  <fix>3d</fix>
</trkpt>
<trkpt lat="-27.274439" lon="151.290064">
  <ele>343.0</ele>
  <time>2026-09-01T01:11:00Z</time>
  <course>0.0</course>
  <speed>0.0</speed>
  <fix>3d</fix>
</trkpt>
<trkpt lat="-27.2744389" lon="151.2900638">
  <ele>343.02</ele>
  <time>2026-09-01T01:11:00Z</time>
  <course>147.27</course>
  <speed>0.02</speed>
  <fix>3d</fix>
</trkpt>
<trkpt lat="-27.274439" lon="151.290064">
  <ele>343.0</ele>
  <time>2026-09-01T01:11:00Z</time>
  <course>0.0</course>
  <speed>0.0</speed>
  <fix>3d</fix>
</trkpt>
<trkpt lat="-27.2744389" lon="151.2900638">
  <ele>343.02</ele>
  <time>2026-09-01T01:11:00Z</time>
  <course>147.27</course>
  <speed>0.02</speed>
  <fix>3d</fix>
</trkpt>
<trkpt lat="-27.274439" lon="151.290064">
  <ele>343.0</ele>
  <time>2026-09-01T01:11:00Z</time>
  <course>0.0</course>
  <speed>0.0</speed>
  <fix>3d</fix>
</trkpt>
<trkpt lat="-27.2744389" lon="151.2900638">
  <ele>343.04</ele>
  <time>2026-09-01T01:11:00Z</time>
  <course>147.26</course>
  <speed>0.02</speed>
  <fix>3d</fix>
</trkpt>
<trkpt lat="-27.274439" lon="151.290064">
  <ele>343.0</ele>
  <time>2026-09-01T01:11:00Z</time>
  <course>0.0</course>
  <speed>0.0</speed>
  <fix>3d</fix>
</trkpt>
<trkpt lat="-27.2744389" lon="151.2900638">
  <ele>343.04</ele>
  <time>2026-09-01T01:11:00Z</time>
  <course>147.25</course>
  <speed>0.02</speed>
  <fix>3d</fix>
</trkpt>
<trkpt lat="-27.274439" lon="151.290064">
  <ele>343.0</ele>
  <time>2026-09-01T01:11:00Z</time>
  <course>0.0</course>
  <speed>0.0</speed>
  <fix>3d</fix>
</trkpt>
<trkpt lat="-27.2744389" lon="151.2900638">
  <ele>343.01</ele>
  <time>2026-09-01T01:11:00Z</time>
  <course>147.25</course>
  <speed>0.02</speed>
  <fix>3d</fix>
</trkpt>
<trkpt lat="-27.274439" lon="151.290064">
  <ele>343.0</ele>
  <time>2026-09-01T01:11:00Z</time>
  <course>0.0</course>
  <speed>0.0</speed>
  <fix>3d</fix>
</trkpt>
<trkpt lat="-27.2744389" lon="151.2900638">
  <ele>343.01</ele>
  <time>2026-09-01T01:11:00Z</time>
  <course>147.24</course>
  <speed>0.02</speed>
  <fix>3d</fix>
</trkpt>
<trkpt lat="-27.274439" lon="151.290064">
  <ele>343.0</ele>
  <time>2026-09-01T01:11:00Z</time>
  <course>0.0</course>
  <speed>0.0</speed>
  <fix>3d</fix>
</trkpt>
<trkpt lat="-27.2744389" lon="151.2900638">
  <ele>343.04</ele>
  <time>2026-09-01T01:11:00Z</time>
  <course>147.24</course>
  <speed>0.02</speed>
  <fix>3d</fix>
</trkpt>
<trkpt lat="-27.274439" lon="151.290064">
  <ele>343.0</ele>
  <time>2026-09-01T01:11:00Z</time>
  <course>0.0</course>
  <speed>0.0</speed>
  <fix>3d</fix>
</trkpt>
<trkpt lat="-27.2744389" lon="151.2900638">
  <ele>343.03</ele>
  <time>2026-09-01T01:11:00Z</time>
  <course>147.24</course>
  <speed>0.02</speed>
  <fix>3d</fix>
</trkpt>
<trkpt lat="-27.274439" lon="151.290064">
  <ele>343.0</ele>
  <time>2026-09-01T01:11:00Z</time>
  <course>0.0</course>
  <speed>0.0</speed>
  <fix>3d</fix>
</trkpt>
<trkpt lat="-27.2744389" lon="151.2900638">
  <ele>343.02</ele>
  <time>2026-09-01T01:11:00Z</time>
  <course>147.23</course>
  <speed>0.02</speed>
  <fix>3d</fix>
</trkpt>
<trkpt lat="-27.274439" lon="151.290064">
  <ele>343.0</ele>
  <time>2026-09-01T01:11:00Z</time>
  <course>0.0</course>
  <speed>0.0</speed>
  <fix>3d</fix>
</trkpt>
<trkpt lat="-27.2744389" lon="151.2900638">
  <ele>343.02</ele>
  <time>2026-09-01T01:11:00Z</time>
  <course>147.23</course>
  <speed>0.02</speed>
  <fix>3d</fix>
</trkpt>
<trkpt lat="-27.274439" lon="151.290064">
  <ele>343.0</ele>
  <time>2026-09-01T01:11:00Z</time>
  <course>0.0</course>
  <speed>0.0</speed>
  <fix>3d</fix>
</trkpt>
<trkpt lat="-27.2744389" lon="151.2900638">
  <ele>343.02</ele>
  <time>2026-09-01T01:11:00Z</time>
  <course>147.22</course>
  <speed>0.02</speed>
  <fix>3d</fix>
</trkpt>
<trkpt lat="-27.274439" lon="151.290064">
  <ele>343.0</ele>
  <time>2026-09-01T01:11:00Z</time>
  <course>0.0</course>
  <speed>0.0</speed>
  <fix>3d</fix>
</trkpt>
<trkpt lat="-27.2744389" lon="151.2900638">
  <ele>343.03</ele>
  <time>2026-09-01T01:11:00Z</time>
  <course>147.22</course>
  <speed>0.02</speed>
  <fix>3d</fix>
</trkpt>
<trkpt lat="-27.274439" lon="151.290064">
  <ele>343.0</ele>
  <time>2026-09-01T01:11:00Z</time>
  <course>0.0</course>
  <speed>0.0</speed>
  <fix>3d</fix>
</trkpt>
<trkpt lat="-27.2744389" lon="151.2900638">
  <ele>343.03</ele>
  <time>2026-09-01T01:11:00Z</time>
  <course>147.21</course>
  <speed>0.02</speed>
  <fix>3d</fix>
</trkpt>
<trkpt lat="-27.274439" lon="151.290064">
  <ele>343.0</ele>
  <time>2026-09-01T01:11:00Z</time>
  <course>0.0</course>
  <speed>0.0</speed>
  <fix>3d</fix>
</trkpt>
<trkpt lat="-27.2744389" lon="151.2900638">
  <ele>343.05</ele>
  <time>2026-09-01T01:11:00Z</time>
  <course>147.21</course>
  <speed>0.02</speed>
  <fix>3d</fix>
</trkpt>
<trkpt lat="-27.274439" lon="151.290064">
  <ele>343.0</ele>
  <time>2026-09-01T01:11:00Z</time>
  <course>0.0</course>
  <speed>0.0</speed>
  <fix>3d</fix>
</trkpt>
<trkpt lat="-27.2744389" lon="151.2900638">
  <ele>343.06</ele>
  <time>2026-09-01T01:11:00Z</time>
  <course>147.21</course>
  <speed>0.02</speed>
  <fix>3d</fix>
</trkpt>
<trkpt lat="-27.274439" lon="151.290064">
  <ele>343.0</ele>
  <time>2026-09-01T01:11:00Z</time>
  <course>0.0</course>
  <speed>0.0</speed>
  <fix>3d</fix>
</trkpt>
<trkpt lat="-27.2744389" lon="151.2900638">
  <ele>343.04</ele>
  <time>2026-09-01T01:11:00Z</time>
  <course>147.2</course>
  <speed>0.02</speed>
  <fix>3d</fix>
</trkpt>
<trkpt lat="-27.274439" lon="151.290064">
  <ele>343.0</ele>
  <time>2026-09-01T01:11:00Z</time>
  <course>0.0</course>
  <speed>0.0</speed>
  <fix>3d</fix>
</trkpt>
<trkpt lat="-27.2744389" lon="151.2900638">
  <ele>343.03</ele>
  <time>2026-09-01T01:11:00Z</time>
  <course>147.2</course>
  <speed>0.02</speed>
  <fix>3d</fix>
</trkpt>
<trkpt lat="-27.274439" lon="151.290064">
  <ele>343.0</ele>
  <time>2026-09-01T01:11:00Z</time>
  <course>0.0</course>
  <speed>0.0</speed>
  <fix>3d</fix>
</trkpt>
<trkpt lat="-27.2744389" lon="151.2900638">
  <ele>343.02</ele>
  <time>2026-09-01T01:11:00Z</time>
  <course>147.2</course>
  <speed>0.02</speed>
  <fix>3d</fix>
</trkpt>
<trkpt lat="-27.274439" lon="151.290064">
  <ele>343.0</ele>
  <time>2026-09-01T01:11:00Z</time>
  <course>0.0</course>
  <speed>0.0</speed>
  <fix>3d</fix>
</trkpt>
<trkpt lat="-27.2744389" lon="151.2900638">
  <ele>343.01</ele>
  <time>2026-09-01T01:11:00Z</time>
  <course>147.19</course>
  <speed>0.02</speed>
  <fix>3d</fix>
</trkpt>
<trkpt lat="-27.274439" lon="151.290064">
  <ele>343.0</ele>
  <time>2026-09-01T01:11:00Z</time>
  <course>0.0</course>
  <speed>0.0</speed>
  <fix>3d</fix>
</trkpt>
<trkpt lat="-27.2744389" lon="151.2900638">
  <ele>342.99</ele>
  <time>2026-09-01T01:11:00Z</time>
  <course>147.19</course>
  <speed>0.02</speed>
  <fix>3d</fix>
</trkpt>
<trkpt lat="-27.274439" lon="151.290064">
  <ele>343.0</ele>
  <time>2026-09-01T01:11:00Z</time>
  <course>0.0</course>
  <speed>0.0</speed>
  <fix>3d</fix>
</trkpt>
<trkpt lat="-27.2744389" lon="151.2900638">
  <ele>342.98</ele>
  <time>2026-09-01T01:11:00Z</time>
  <course>147.19</course>
  <speed>0.02</speed>
  <fix>3d</fix>
</trkpt>
<trkpt lat="-27.274439" lon="151.290064">
  <ele>343.0</ele>
  <time>2026-09-01T01:11:00Z</time>
  <course>0.0</course>
  <speed>0.0</speed>
  <fix>3d</fix>
</trkpt>
<trkpt lat="-27.2744389" lon="151.2900638">
  <ele>342.99</ele>
  <time>2026-09-01T01:11:00Z</time>
  <course>147.19</course>
  <speed>0.02</speed>
  <fix>3d</fix>
</trkpt>
<trkpt lat="-27.274439" lon="151.290064">
  <ele>343.0</ele>
  <time>2026-09-01T01:11:00Z</time>
  <course>0.0</course>
  <speed>0.0</speed>
  <fix>3d</fix>
</trkpt>
<trkpt lat="-27.2744389" lon="151.2900638">
  <ele>343.0</ele>
  <time>2026-09-01T01:11:00Z</time>
  <course>147.18</course>
  <speed>0.02</speed>
  <fix>3d</fix>
</trkpt>
<trkpt lat="-27.274439" lon="151.290064">
  <ele>343.0</ele>
  <time>2026-09-01T01:11:00Z</time>
  <course>0.0</course>
  <speed>0.0</speed>
  <fix>3d</fix>
</trkpt>
<trkpt lat="-27.2744389" lon="151.2900638">
  <ele>343.01</ele>
  <time>2026-09-01T01:11:00Z</time>
  <course>147.18</course>
  <speed>0.02</speed>
  <fix>3d</fix>
</trkpt>
<trkpt lat="-27.274439" lon="151.290064">
  <ele>343.0</ele>
  <time>2026-09-01T01:11:00Z</time>
  <course>0.0</course>
  <speed>0.0</speed>
  <fix>3d</fix>
</trkpt>
<trkpt lat="-27.2744389" lon="151.2900638">
  <ele>343.03</ele>
  <time>2026-09-01T01:11:00Z</time>
  <course>147.18</course>
  <speed>0.02</speed>
  <fix>3d</fix>
</trkpt>
<trkpt lat="-27.274439" lon="151.290064">
  <ele>343.0</ele>
  <time>2026-09-01T01:11:00Z</time>
  <course>0.0</course>
  <speed>0.0</speed>
  <fix>3d</fix>
</trkpt>
<trkpt lat="-27.2744389" lon="151.2900638">
  <ele>343.02</ele>
  <time>2026-09-01T01:11:00Z</time>
  <course>147.17</course>
  <speed>0.02</speed>
  <fix>3d</fix>
</trkpt>
<trkpt lat="-27.274439" lon="151.290064">
  <ele>343.0</ele>
  <time>2026-09-01T01:11:00Z</time>
  <course>0.0</course>
  <speed>0.0</speed>
  <fix>3d</fix>
</trkpt>
<trkpt lat="-27.2744389" lon="151.2900638">
  <ele>343.02</ele>
  <time>2026-09-01T01:11:01Z</time>
  <course>147.17</course>
  <speed>0.02</speed>
  <fix>3d</fix>
</trkpt>
<trkpt lat="-27.274439" lon="151.290064">
  <ele>343.0</ele>
  <time>2026-09-01T01:11:01Z</time>
  <course>0.0</course>
  <speed>0.0</speed>
  <fix>3d</fix>
</trkpt>
<trkpt lat="-27.2744389" lon="151.2900638">
  <ele>343.01</ele>
  <time>2026-09-01T01:11:01Z</time>
  <course>147.17</course>
  <speed>0.02</speed>
  <fix>3d</fix>
</trkpt>
<trkpt lat="-27.274439" lon="151.290064">
  <ele>343.0</ele>
  <time>2026-09-01T01:11:01Z</time>
  <course>0.0</course>
  <speed>0.0</speed>
  <fix>3d</fix>
</trkpt>
<trkpt lat="-27.2744389" lon="151.2900638">
  <ele>343.0</ele>
  <time>2026-09-01T01:11:01Z</time>
  <course>147.17</course>
  <speed>0.02</speed>
  <fix>3d</fix>
</trkpt>
<trkpt lat="-27.274439" lon="151.290064">
  <ele>343.0</ele>
  <time>2026-09-01T01:11:01Z</time>
  <course>0.0</course>
  <speed>0.0</speed>
  <fix>3d</fix>
</trkpt>
<trkpt lat="-27.2744389" lon="151.2900638">
  <ele>343.01</ele>
  <time>2026-09-01T01:11:01Z</time>
  <course>147.16</course>
  <speed>0.02</speed>
  <fix>3d</fix>
</trkpt>
<trkpt lat="-27.274439" lon="151.290064">
  <ele>343.0</ele>
  <time>2026-09-01T01:11:01Z</time>
  <course>0.0</course>
  <speed>0.0</speed>
  <fix>3d</fix>
</trkpt>
<trkpt lat="-27.2744389" lon="151.2900638">
  <ele>343.01</ele>
  <time>2026-09-01T01:11:01Z</time>
  <course>147.16</course>
  <speed>0.02</speed>
  <fix>3d</fix>
</trkpt>
<trkpt lat="-27.274439" lon="151.290064">
  <ele>343.0</ele>
  <time>2026-09-01T01:11:01Z</time>
  <course>0.0</course>
  <speed>0.0</speed>
  <fix>3d</fix>
</trkpt>
<trkpt lat="-27.2744389" lon="151.2900638">
  <ele>343.03</ele>
  <time>2026-09-01T01:11:01Z</time>
  <course>147.16</course>
  <speed>0.02</speed>
  <fix>3d</fix>
</trkpt>
<trkpt lat="-27.274439" lon="151.290064">
  <ele>343.0</ele>
  <time>2026-09-01T01:11:01Z</time>
  <course>0.0</course>
  <speed>0.0</speed>
  <fix>3d</fix>
</trkpt>
<trkpt lat="-27.2744389" lon="151.2900638">
  <ele>343.05</ele>
  <time>2026-09-01T01:11:01Z</time>
  <course>147.16</course>
  <speed>0.02</speed>
  <fix>3d</fix>
</trkpt>
<trkpt lat="-27.274439" lon="151.290064">
  <ele>343.0</ele>
  <time>2026-09-01T01:11:01Z</time>
  <course>0.0</course>
  <speed>0.0</speed>
  <fix>3d</fix>
</trkpt>
<trkpt lat="-27.2744389" lon="151.2900638">
  <ele>343.05</ele>
  <time>2026-09-01T01:11:01Z</time>
  <course>147.16</course>
  <speed>0.02</speed>
  <fix>3d</fix>
</trkpt>
<trkpt lat="-27.274439" lon="151.290064">
  <ele>343.0</ele>
  <time>2026-09-01T01:11:01Z</time>
  <course>0.0</course>
  <speed>0.0</speed>
  <fix>3d</fix>
</trkpt>
<trkpt lat="-27.2744389" lon="151.2900638">
  <ele>343.04</ele>
  <time>2026-09-01T01:11:01Z</time>
  <course>147.16</course>
  <speed>0.02</speed>
  <fix>3d</fix>
</trkpt>
<trkpt lat="-27.274439" lon="151.290064">
  <ele>343.0</ele>
  <time>2026-09-01T01:11:01Z</time>
  <course>0.0</course>
  <speed>0.0</speed>
  <fix>3d</fix>
</trkpt>
<trkpt lat="-27.2744389" lon="151.2900638">
  <ele>343.02</ele>
  <time>2026-09-01T01:11:01Z</time>
  <course>147.15</course>
  <speed>0.02</speed>
  <fix>3d</fix>
</trkpt>
<trkpt lat="-27.274439" lon="151.290064">
  <ele>343.0</ele>
  <time>2026-09-01T01:11:01Z</time>
  <course>0.0</course>
  <speed>0.0</speed>
  <fix>3d</fix>
</trkpt>
<trkpt lat="-27.2744389" lon="151.2900638">
  <ele>343.01</ele>
  <time>2026-09-01T01:11:01Z</time>
  <course>147.15</course>
  <speed>0.02</speed>
  <fix>3d</fix>
</trkpt>
<trkpt lat="-27.274439" lon="151.290064">
  <ele>343.0</ele>
  <time>2026-09-01T01:11:01Z</time>
  <course>0.0</course>
  <speed>0.0</speed>
  <fix>3d</fix>
</trkpt>
<trkpt lat="-27.2744389" lon="151.2900638">
  <ele>343.0</ele>
  <time>2026-09-01T01:11:01Z</time>
  <course>147.15</course>
  <speed>0.02</speed>
  <fix>3d</fix>
</trkpt>
<trkpt lat="-27.274439" lon="151.290064">
  <ele>343.0</ele>
  <time>2026-09-01T01:11:01Z</time>
  <course>0.0</course>
  <speed>0.0</speed>
  <fix>3d</fix>
</trkpt>
<trkpt lat="-27.2744389" lon="151.2900638">
  <ele>342.99</ele>
  <time>2026-09-01T01:11:01Z</time>
  <course>147.15</course>
  <speed>0.02</speed>
  <fix>3d</fix>
</trkpt>
<trkpt lat="-27.274439" lon="151.290064">
  <ele>343.0</ele>
  <time>2026-09-01T01:11:01Z</time>
  <course>0.0</course>
  <speed>0.0</speed>
  <fix>3d</fix>
</trkpt>
<trkpt lat="-27.2744389" lon="151.2900638">
  <ele>343.0</ele>
  <time>2026-09-01T01:11:01Z</time>
  <course>147.15</course>
  <speed>0.02</speed>
  <fix>3d</fix>
</trkpt>
<trkpt lat="-27.274439" lon="151.290064">
  <ele>343.0</ele>
  <time>2026-09-01T01:11:01Z</time>
  <course>0.0</course>
  <speed>0.0</speed>
  <fix>3d</fix>
</trkpt>
<trkpt lat="-27.2744389" lon="151.2900638">
  <ele>343.03</ele>
  <time>2026-09-01T01:11:01Z</time>
  <course>147.15</course>
  <speed>0.02</speed>
  <fix>3d</fix>
</trkpt>
<trkpt lat="-27.274439" lon="151.290064">
  <ele>343.0</ele>
  <time>2026-09-01T01:11:01Z</time>
  <course>0.0</course>
  <speed>0.0</speed>
  <fix>3d</fix>
</trkpt>
<trkpt lat="-27.2744389" lon="151.2900638">
  <ele>343.01</ele>
  <time>2026-09-01T01:11:01Z</time>
  <course>147.14</course>
  <speed>0.02</speed>
  <fix>3d</fix>
</trkpt>
<trkpt lat="-27.274439" lon="151.290064">
  <ele>343.0</ele>
  <time>2026-09-01T01:11:01Z</time>
  <course>0.0</course>
  <speed>0.0</speed>
  <fix>3d</fix>
</trkpt>
<trkpt lat="-27.2744389" lon="151.2900638">
  <ele>343.02</ele>
  <time>2026-09-01T01:11:01Z</time>
  <course>147.14</course>
  <speed>0.02</speed>
  <fix>3d</fix>
</trkpt>
<trkpt lat="-27.274439" lon="151.290064">
  <ele>343.0</ele>
  <time>2026-09-01T01:11:01Z</time>
  <course>0.0</course>
  <speed>0.0</speed>
  <fix>3d</fix>
</trkpt>
<trkpt lat="-27.2744389" lon="151.2900638">
  <ele>343.02</ele>
  <time>2026-09-01T01:11:01Z</time>
  <course>147.14</course>
  <speed>0.02</speed>
  <fix>3d</fix>
</trkpt>
<trkpt lat="-27.274439" lon="151.290064">
  <ele>343.0</ele>
  <time>2026-09-01T01:11:01Z</time>
  <course>0.0</course>
  <speed>0.0</speed>
  <fix>3d</fix>
</trkpt>
<trkpt lat="-27.2744389" lon="151.2900638">
  <ele>343.03</ele>
  <time>2026-09-01T01:11:01Z</time>
  <course>147.14</course>
  <speed>0.02</speed>
  <fix>3d</fix>
</trkpt>
<trkpt lat="-27.274439" lon="151.290064">
  <ele>343.0</ele>
  <time>2026-09-01T01:11:01Z</time>
  <course>0.0</course>
  <speed>0.0</speed>
  <fix>3d</fix>
</trkpt>
<trkpt lat="-27.2744389" lon="151.2900638">
  <ele>343.02</ele>
  <time>2026-09-01T01:11:01Z</time>
  <course>147.14</course>
  <speed>0.02</speed>
  <fix>3d</fix>
</trkpt>
<trkpt lat="-27.274439" lon="151.290064">
  <ele>343.0</ele>
  <time>2026-09-01T01:11:01Z</time>
  <course>0.0</course>
  <speed>0.0</speed>
  <fix>3d</fix>
</trkpt>
<trkpt lat="-27.2744389" lon="151.2900638">
  <ele>343.04</ele>
  <time>2026-09-01T01:11:01Z</time>
  <course>147.14</course>
  <speed>0.02</speed>
  <fix>3d</fix>
</trkpt>
<trkpt lat="-27.274439" lon="151.290064">
  <ele>343.0</ele>
  <time>2026-09-01T01:11:01Z</time>
  <course>0.0</course>
  <speed>0.0</speed>
  <fix>3d</fix>
</trkpt>
<trkpt lat="-27.2744389" lon="151.2900638">
  <ele>343.04</ele>
  <time>2026-09-01T01:11:01Z</time>
  <course>147.14</course>
  <speed>0.02</speed>
  <fix>3d</fix>
</trkpt>
<trkpt lat="-27.274439" lon="151.290064">
  <ele>343.0</ele>
  <time>2026-09-01T01:11:01Z</time>
  <course>0.0</course>
  <speed>0.0</speed>
  <fix>3d</fix>
</trkpt>
<trkpt lat="-27.2744389" lon="151.2900638">
  <ele>343.02</ele>
  <time>2026-09-01T01:11:01Z</time>
  <course>147.14</course>
  <speed>0.02</speed>
  <fix>3d</fix>
</trkpt>
<trkpt lat="-27.274439" lon="151.290064">
  <ele>343.0</ele>
  <time>2026-09-01T01:11:01Z</time>
  <course>0.0</course>
  <speed>0.0</speed>
  <fix>3d</fix>
</trkpt>
<trkpt lat="-27.2744389" lon="151.2900638">
  <ele>343.01</ele>
  <time>2026-09-01T01:11:01Z</time>
  <course>147.14</course>
  <speed>0.02</speed>
  <fix>3d</fix>
</trkpt>
<trkpt lat="-27.274439" lon="151.290064">
  <ele>343.0</ele>
  <time>2026-09-01T01:11:01Z</time>
  <course>0.0</course>
  <speed>0.0</speed>
  <fix>3d</fix>
</trkpt>
<trkpt lat="-27.2744389" lon="151.2900638">
  <ele>343.01</ele>
  <time>2026-09-01T01:11:01Z</time>
  <course>147.13</course>
  <speed>0.02</speed>
  <fix>3d</fix>
</trkpt>
<trkpt lat="-27.274439" lon="151.290064">
  <ele>343.0</ele>
  <time>2026-09-01T01:11:01Z</time>
  <course>0.0</course>
  <speed>0.0</speed>
  <fix>3d</fix>
</trkpt>
<trkpt lat="-27.2744389" lon="151.2900638">
  <ele>343.02</ele>
  <time>2026-09-01T01:11:01Z</time>
  <course>147.13</course>
  <speed>0.02</speed>
  <fix>3d</fix>
</trkpt>
<trkpt lat="-27.274439" lon="151.290064">
  <ele>343.0</ele>
  <time>2026-09-01T01:11:01Z</time>
  <course>0.0</course>
  <speed>0.0</speed>
  <fix>3d</fix>
</trkpt>
<trkpt lat="-27.2744389" lon="151.2900638">
  <ele>343.03</ele>
  <time>2026-09-01T01:11:01Z</time>
  <course>147.13</course>
  <speed>0.02</speed>
  <fix>3d</fix>
</trkpt>
<trkpt lat="-27.274439" lon="151.290064">
  <ele>343.0</ele>
  <time>2026-09-01T01:11:01Z</time>
  <course>0.0</course>
  <speed>0.0</speed>
  <fix>3d</fix>
</trkpt>
<trkpt lat="-27.2744389" lon="151.2900638">
  <ele>343.04</ele>
  <time>2026-09-01T01:11:01Z</time>
  <course>147.13</course>
  <speed>0.02</speed>
  <fix>3d</fix>
</trkpt>
<trkpt lat="-27.274439" lon="151.290064">
  <ele>343.0</ele>
  <time>2026-09-01T01:11:01Z</time>
  <course>0.0</course>
  <speed>0.0</speed>
  <fix>3d</fix>
</trkpt>
<trkpt lat="-27.2744389" lon="151.2900638">
  <ele>343.06</ele>
  <time>2026-09-01T01:11:01Z</time>
  <course>147.13</course>
  <speed>0.02</speed>
  <fix>3d</fix>
</trkpt>
<trkpt lat="-27.274439" lon="151.290064">
  <ele>343.0</ele>
  <time>2026-09-01T01:11:01Z</time>
  <course>0.0</course>
  <speed>0.0</speed>
  <fix>3d</fix>
</trkpt>
<trkpt lat="-27.2744389" lon="151.2900638">
  <ele>343.06</ele>
  <time>2026-09-01T01:11:01Z</time>
  <course>147.13</course>
  <speed>0.02</speed>
  <fix>3d</fix>
</trkpt>
<trkpt lat="-27.274439" lon="151.290064">
  <ele>343.0</ele>
  <time>2026-09-01T01:11:01Z</time>
  <course>0.0</course>
  <speed>0.0</speed>
  <fix>3d</fix>
</trkpt>
<trkpt lat="-27.2744389" lon="151.2900638">
  <ele>343.06</ele>
  <time>2026-09-01T01:11:01Z</time>
  <course>147.13</course>
  <speed>0.02</speed>
  <fix>3d</fix>
</trkpt>
<trkpt lat="-27.274439" lon="151.290064">
  <ele>343.0</ele>
  <time>2026-09-01T01:11:01Z</time>
  <course>0.0</course>
  <speed>0.0</speed>
  <fix>3d</fix>
</trkpt>
<trkpt lat="-27.2744389" lon="151.2900638">
  <ele>343.04</ele>
  <time>2026-09-01T01:11:01Z</time>
  <course>147.13</course>
  <speed>0.02</speed>
  <fix>3d</fix>
</trkpt>
<trkpt lat="-27.274439" lon="151.290064">
  <ele>343.0</ele>
  <time>2026-09-01T01:11:01Z</time>
  <course>0.0</course>
  <speed>0.0</speed>
  <fix>3d</fix>
</trkpt>
<trkpt lat="-27.2744389" lon="151.2900638">
  <ele>343.03</ele>
  <time>2026-09-01T01:11:01Z</time>
  <course>147.13</course>
  <speed>0.02</speed>
  <fix>3d</fix>
</trkpt>
<trkpt lat="-27.274439" lon="151.290064">
  <ele>343.0</ele>
  <time>2026-09-01T01:11:01Z</time>
  <course>0.0</course>
  <speed>0.0</speed>
  <fix>3d</fix>
</trkpt>
<trkpt lat="-27.2744389" lon="151.2900638">
  <ele>343.02</ele>
  <time>2026-09-01T01:11:01Z</time>
  <course>147.13</course>
  <speed>0.02</speed>
  <fix>3d</fix>
</trkpt>
<trkpt lat="-27.274439" lon="151.290064">
  <ele>343.0</ele>
  <time>2026-09-01T01:11:01Z</time>
  <course>0.0</course>
  <speed>0.0</speed>
  <fix>3d</fix>
</trkpt>
<trkpt lat="-27.2744389" lon="151.2900638">
  <ele>343.03</ele>
  <time>2026-09-01T01:11:01Z</time>
  <course>147.13</course>
  <speed>0.02</speed>
  <fix>3d</fix>
</trkpt>
<trkpt lat="-27.274439" lon="151.290064">
  <ele>343.0</ele>
  <time>2026-09-01T01:11:01Z</time>
  <course>0.0</course>
  <speed>0.0</speed>
  <fix>3d</fix>
</trkpt>
<trkpt lat="-27.2744389" lon="151.2900638">
  <ele>343.01</ele>
  <time>2026-09-01T01:11:01Z</time>
  <course>147.13</course>
  <speed>0.02</speed>
  <fix>3d</fix>
</trkpt>
<trkpt lat="-27.274439" lon="151.290064">
  <ele>343.0</ele>
  <time>2026-09-01T01:11:01Z</time>
  <course>0.0</course>
  <speed>0.0</speed>
  <fix>3d</fix>
</trkpt>
<trkpt lat="-27.2744389" lon="151.2900638">
  <ele>343.01</ele>
  <time>2026-09-01T01:11:01Z</time>
  <course>147.12</course>
  <speed>0.02</speed>
  <fix>3d</fix>
</trkpt>
<trkpt lat="-27.274439" lon="151.290064">
  <ele>343.0</ele>
  <time>2026-09-01T01:11:01Z</time>
  <course>0.0</course>
  <speed>0.0</speed>
  <fix>3d</fix>
</trkpt>
<trkpt lat="-27.2744389" lon="151.2900638">
  <ele>343.02</ele>
  <time>2026-09-01T01:11:01Z</time>
  <course>147.13</course>
  <speed>0.02</speed>
  <fix>3d</fix>
</trkpt>
<trkpt lat="-27.274439" lon="151.290064">
  <ele>343.0</ele>
  <time>2026-09-01T01:11:01Z</time>
  <course>0.0</course>
  <speed>0.0</speed>
  <fix>3d</fix>
</trkpt>
<trkpt lat="-27.2744389" lon="151.2900638">
  <ele>343.01</ele>
  <time>2026-09-01T01:11:01Z</time>
  <course>147.12</course>
  <speed>0.02</speed>
  <fix>3d</fix>
</trkpt>
<trkpt lat="-27.274439" lon="151.290064">
  <ele>343.0</ele>
  <time>2026-09-01T01:11:01Z</time>
  <course>0.0</course>
  <speed>0.0</speed>
  <fix>3d</fix>
</trkpt>
<trkpt lat="-27.2744389" lon="151.2900638">
  <ele>343.0</ele>
  <time>2026-09-01T01:11:01Z</time>
  <course>147.13</course>
  <speed>0.02</speed>
  <fix>3d</fix>
</trkpt>
<trkpt lat="-27.274439" lon="151.290064">
  <ele>343.0</ele>
  <time>2026-09-01T01:11:01Z</time>
  <course>0.0</course>
  <speed>0.0</speed>
  <fix>3d</fix>
</trkpt>
<trkpt lat="-27.2744389" lon="151.2900638">
  <ele>343.02</ele>
  <time>2026-09-01T01:11:01Z</time>
  <course>147.12</course>
  <speed>0.02</speed>
  <fix>3d</fix>
</trkpt>
<trkpt lat="-27.274439" lon="151.290064">
  <ele>343.0</ele>
  <time>2026-09-01T01:11:01Z</time>
  <course>0.0</course>
  <speed>0.0</speed>
  <fix>3d</fix>
</trkpt>
<trkpt lat="-27.2744389" lon="151.2900638">
  <ele>343.02</ele>
  <time>2026-09-01T01:11:01Z</time>
  <course>147.13</course>
  <speed>0.02</speed>
  <fix>3d</fix>
</trkpt>
<trkpt lat="-27.274439" lon="151.290064">
  <ele>343.0</ele>
  <time>2026-09-01T01:11:01Z</time>
  <course>0.0</course>
  <speed>0.0</speed>
  <fix>3d</fix>
</trkpt>
<trkpt lat="-27.2744389" lon="151.2900638">
  <ele>343.01</ele>
  <time>2026-09-01T01:11:01Z</time>
  <course>147.12</course>
  <speed>0.02</speed>
  <fix>3d</fix>
</trkpt>
<trkpt lat="-27.274439" lon="151.290064">
  <ele>343.0</ele>
  <time>2026-09-01T01:11:01Z</time>
  <course>0.0</course>
  <speed>0.0</speed>
  <fix>3d</fix>
</trkpt>
<trkpt lat="-27.2744389" lon="151.2900638">
  <ele>343.04</ele>
  <time>2026-09-01T01:11:01Z</time>
  <course>147.13</course>
  <speed>0.02</speed>
  <fix>3d</fix>
</trkpt>
<trkpt lat="-27.274439" lon="151.290064">
  <ele>343.0</ele>
  <time>2026-09-01T01:11:01Z</time>
  <course>0.0</course>
  <speed>0.0</speed>
  <fix>3d</fix>
</trkpt>
<trkpt lat="-27.2744389" lon="151.2900638">
  <ele>343.05</ele>
  <time>2026-09-01T01:11:01Z</time>
  <course>147.12</course>
  <speed>0.02</speed>
  <fix>3d</fix>
</trkpt>
<trkpt lat="-27.274439" lon="151.290064">
  <ele>343.0</ele>
  <time>2026-09-01T01:11:01Z</time>
  <course>0.0</course>
  <speed>0.0</speed>
  <fix>3d</fix>
</trkpt>
<trkpt lat="-27.2744389" lon="151.2900638">
  <ele>343.05</ele>
  <time>2026-09-01T01:11:01Z</time>
  <course>147.13</course>
  <speed>0.02</speed>
  <fix>3d</fix>
</trkpt>
<trkpt lat="-27.274439" lon="151.290064">
  <ele>343.0</ele>
  <time>2026-09-01T01:11:01Z</time>
  <course>0.0</course>
  <speed>0.0</speed>
  <fix>3d</fix>
</trkpt>
<trkpt lat="-27.2744389" lon="151.2900638">
  <ele>343.04</ele>
  <time>2026-09-01T01:11:01Z</time>
  <course>147.12</course>
  <speed>0.02</speed>
  <fix>3d</fix>
</trkpt>
<trkpt lat="-27.274439" lon="151.290064">
  <ele>343.0</ele>
  <time>2026-09-01T01:11:01Z</time>
  <course>0.0</course>
  <speed>0.0</speed>
  <fix>3d</fix>
</trkpt>
<trkpt lat="-27.2744389" lon="151.2900638">
  <ele>343.03</ele>
  <time>2026-09-01T01:11:01Z</time>
  <course>147.13</course>
  <speed>0.02</speed>
  <fix>3d</fix>
</trkpt>
<trkpt lat="-27.274439" lon="151.290064">
  <ele>343.0</ele>
  <time>2026-09-01T01:11:01Z</time>
  <course>0.0</course>
  <speed>0.0</speed>
  <fix>3d</fix>
</trkpt>
<trkpt lat="-27.2744389" lon="151.2900638">
  <ele>343.03</ele>
  <time>2026-09-01T01:11:01Z</time>
  <course>147.13</course>
  <speed>0.02</speed>
  <fix>3d</fix>
</trkpt>
<trkpt lat="-27.274439" lon="151.290064">
  <ele>343.0</ele>
  <time>2026-09-01T01:11:01Z</time>
  <course>0.0</course>
  <speed>0.0</speed>
  <fix>3d</fix>
</trkpt>
<trkpt lat="-27.2744389" lon="151.2900638">
  <ele>343.03</ele>
  <time>2026-09-01T01:11:01Z</time>
  <course>147.13</course>
  <speed>0.02</speed>
  <fix>3d</fix>
</trkpt>
<trkpt lat="-27.274439" lon="151.290064">
  <ele>343.0</ele>
  <time>2026-09-01T01:11:01Z</time>
  <course>0.0</course>
  <speed>0.0</speed>
  <fix>3d</fix>
</trkpt>
<trkpt lat="-27.2744389" lon="151.2900638">
  <ele>343.01</ele>
  <time>2026-09-01T01:11:01Z</time>
  <course>147.13</course>
  <speed>0.02</speed>
  <fix>3d</fix>
</trkpt>
<trkpt lat="-27.274439" lon="151.290064">
  <ele>343.0</ele>
  <time>2026-09-01T01:11:01Z</time>
  <course>0.0</course>
  <speed>0.0</speed>
  <fix>3d</fix>
</trkpt>
<trkpt lat="-27.2744389" lon="151.2900638">
  <ele>343.01</ele>
  <time>2026-09-01T01:11:01Z</time>
  <course>147.12</course>
  <speed>0.02</speed>
  <fix>3d</fix>
</trkpt>
<trkpt lat="-27.274439" lon="151.290064">
  <ele>343.0</ele>
  <time>2026-09-01T01:11:01Z</time>
  <course>0.0</course>
  <speed>0.0</speed>
  <fix>3d</fix>
</trkpt>
<trkpt lat="-27.2744389" lon="151.2900638">
  <ele>343.01</ele>
  <time>2026-09-01T01:11:01Z</time>
  <course>147.13</course>
  <speed>0.02</speed>
  <fix>3d</fix>
</trkpt>
<trkpt lat="-27.274439" lon="151.290064">
  <ele>343.0</ele>
  <time>2026-09-01T01:11:01Z</time>
  <course>0.0</course>
  <speed>0.0</speed>
  <fix>3d</fix>
</trkpt>
<trkpt lat="-27.2744389" lon="151.2900638">
  <ele>343.03</ele>
  <time>2026-09-01T01:11:01Z</time>
  <course>147.12</course>
  <speed>0.02</speed>
  <fix>3d</fix>
</trkpt>
<trkpt lat="-27.274439" lon="151.290064">
  <ele>343.0</ele>
  <time>2026-09-01T01:11:01Z</time>
  <course>0.0</course>
  <speed>0.0</speed>
  <fix>3d</fix>
</trkpt>
<trkpt lat="-27.2744389" lon="151.2900638">
  <ele>343.03</ele>
  <time>2026-09-01T01:11:01Z</time>
  <course>147.12</course>
  <speed>0.02</speed>
  <fix>3d</fix>
</trkpt>
<trkpt lat="-27.274439" lon="151.290064">
  <ele>343.0</ele>
  <time>2026-09-01T01:11:01Z</time>
  <course>0.0</course>
  <speed>0.0</speed>
  <fix>3d</fix>
</trkpt>
<trkpt lat="-27.2744389" lon="151.2900638">
  <ele>343.03</ele>
  <time>2026-09-01T01:11:01Z</time>
  <course>147.12</course>
  <speed>0.02</speed>
  <fix>3d</fix>
</trkpt>
<trkpt lat="-27.274439" lon="151.290064">
  <ele>343.0</ele>
  <time>2026-09-01T01:11:01Z</time>
  <course>0.0</course>
  <speed>0.0</speed>
  <fix>3d</fix>
</trkpt>
<trkpt lat="-27.2744389" lon="151.2900638">
  <ele>343.03</ele>
  <time>2026-09-01T01:11:01Z</time>
  <course>147.13</course>
  <speed>0.02</speed>
  <fix>3d</fix>
</trkpt>
<trkpt lat="-27.274439" lon="151.290064">
  <ele>343.0</ele>
  <time>2026-09-01T01:11:01Z</time>
  <course>0.0</course>
  <speed>0.0</speed>
  <fix>3d</fix>
</trkpt>
<trkpt lat="-27.2744389" lon="151.2900638">
  <ele>343.0</ele>
  <time>2026-09-01T01:11:01Z</time>
  <course>147.12</course>
  <speed>0.02</speed>
  <fix>3d</fix>
</trkpt>
<trkpt lat="-27.274439" lon="151.290064">
  <ele>343.0</ele>
  <time>2026-09-01T01:11:01Z</time>
  <course>0.0</course>
  <speed>0.0</speed>
  <fix>3d</fix>
</trkpt>
<trkpt lat="-27.2744389" lon="151.2900638">
  <ele>343.03</ele>
  <time>2026-09-01T01:11:01Z</time>
  <course>147.13</course>
  <speed>0.02</speed>
  <fix>3d</fix>
</trkpt>
<trkpt lat="-27.274439" lon="151.290064">
  <ele>343.0</ele>
  <time>2026-09-01T01:11:01Z</time>
  <course>0.0</course>
  <speed>0.0</speed>
  <fix>3d</fix>
</trkpt>
<trkpt lat="-27.2744389" lon="151.2900638">
  <ele>343.03</ele>
  <time>2026-09-01T01:11:01Z</time>
  <course>147.12</course>
  <speed>0.02</speed>
  <fix>3d</fix>
</trkpt>
<trkpt lat="-27.274439" lon="151.290064">
  <ele>343.0</ele>
  <time>2026-09-01T01:11:01Z</time>
  <course>0.0</course>
  <speed>0.0</speed>
  <fix>3d</fix>
</trkpt>
<trkpt lat="-27.2744389" lon="151.2900638">
  <ele>343.01</ele>
  <time>2026-09-01T01:11:01Z</time>
  <course>147.13</course>
  <speed>0.02</speed>
  <fix>3d</fix>
</trkpt>
<trkpt lat="-27.274439" lon="151.290064">
  <ele>343.0</ele>
  <time>2026-09-01T01:11:01Z</time>
  <course>0.0</course>
  <speed>0.0</speed>
  <fix>3d</fix>
</trkpt>
<trkpt lat="-27.2744389" lon="151.2900638">
  <ele>343.0</ele>
  <time>2026-09-01T01:11:01Z</time>
  <course>147.12</course>
  <speed>0.02</speed>
  <fix>3d</fix>
</trkpt>
<trkpt lat="-27.274439" lon="151.290064">
  <ele>343.0</ele>
  <time>2026-09-01T01:11:01Z</time>
  <course>0.0</course>
  <speed>0.0</speed>
  <fix>3d</fix>
</trkpt>
<trkpt lat="-27.2744389" lon="151.2900638">
  <ele>343.0</ele>
  <time>2026-09-01T01:11:01Z</time>
  <course>147.13</course>
  <speed>0.02</speed>
  <fix>3d</fix>
</trkpt>
<trkpt lat="-27.274439" lon="151.290064">
  <ele>343.0</ele>
  <time>2026-09-01T01:11:01Z</time>
  <course>0.0</course>
  <speed>0.0</speed>
  <fix>3d</fix>
</trkpt>
<trkpt lat="-27.2744389" lon="151.2900638">
  <ele>342.99</ele>
  <time>2026-09-01T01:11:01Z</time>
  <course>147.12</course>
  <speed>0.02</speed>
  <fix>3d</fix>
</trkpt>
<trkpt lat="-27.274439" lon="151.290064">
  <ele>343.0</ele>
  <time>2026-09-01T01:11:01Z</time>
  <course>0.0</course>
  <speed>0.0</speed>
  <fix>3d</fix>
</trkpt>
<trkpt lat="-27.2744389" lon="151.2900638">
  <ele>342.99</ele>
  <time>2026-09-01T01:11:01Z</time>
  <course>147.13</course>
  <speed>0.02</speed>
  <fix>3d</fix>
</trkpt>
<trkpt lat="-27.274439" lon="151.290064">
  <ele>343.0</ele>
  <time>2026-09-01T01:11:01Z</time>
  <course>0.0</course>
  <speed>0.0</speed>
  <fix>3d</fix>
</trkpt>
<trkpt lat="-27.2744389" lon="151.2900638">
  <ele>343.01</ele>
  <time>2026-09-01T01:11:01Z</time>
  <course>147.13</course>
  <speed>0.02</speed>
  <fix>3d</fix>
</trkpt>
<trkpt lat="-27.274439" lon="151.290064">
  <ele>343.0</ele>
  <time>2026-09-01T01:11:01Z</time>
  <course>0.0</course>
  <speed>0.0</speed>
  <fix>3d</fix>
</trkpt>
<trkpt lat="-27.2744389" lon="151.2900638">
  <ele>343.02</ele>
  <time>2026-09-01T01:11:01Z</time>
  <course>147.13</course>
  <speed>0.02</speed>
  <fix>3d</fix>
</trkpt>
<trkpt lat="-27.274439" lon="151.290064">
  <ele>343.0</ele>
  <time>2026-09-01T01:11:01Z</time>
  <course>0.0</course>
  <speed>0.0</speed>
  <fix>3d</fix>
</trkpt>
<trkpt lat="-27.2744389" lon="151.2900638">
  <ele>343.02</ele>
  <time>2026-09-01T01:11:01Z</time>
  <course>147.13</course>
  <speed>0.02</speed>
  <fix>3d</fix>
</trkpt>
<trkpt lat="-27.274439" lon="151.290064">
  <ele>343.0</ele>
  <time>2026-09-01T01:11:01Z</time>
  <course>0.0</course>
  <speed>0.0</speed>
  <fix>3d</fix>
</trkpt>
<trkpt lat="-27.2744389" lon="151.2900638">
  <ele>343.03</ele>
  <time>2026-09-01T01:11:01Z</time>
  <course>147.13</course>
  <speed>0.02</speed>
  <fix>3d</fix>
</trkpt>
<trkpt lat="-27.274439" lon="151.290064">
  <ele>343.0</ele>
  <time>2026-09-01T01:11:01Z</time>
  <course>0.0</course>
  <speed>0.0</speed>
  <fix>3d</fix>
</trkpt>
<trkpt lat="-27.2744389" lon="151.2900638">
  <ele>342.99</ele>
  <time>2026-09-01T01:11:01Z</time>
  <course>147.13</course>
  <speed>0.02</speed>
  <fix>3d</fix>
</trkpt>
<trkpt lat="-27.274439" lon="151.290064">
  <ele>343.0</ele>
  <time>2026-09-01T01:11:01Z</time>
  <course>0.0</course>
  <speed>0.0</speed>
  <fix>3d</fix>
</trkpt>
<trkpt lat="-27.2744389" lon="151.2900638">
  <ele>342.96</ele>
  <time>2026-09-01T01:11:01Z</time>
  <course>147.13</course>
  <speed>0.02</speed>
  <fix>3d</fix>
</trkpt>
<trkpt lat="-27.274439" lon="151.290064">
  <ele>343.0</ele>
  <time>2026-09-01T01:11:02Z</time>
  <course>0.0</course>
  <speed>0.0</speed>
  <fix>3d</fix>
</trkpt>
<trkpt lat="-27.2744389" lon="151.2900638">
  <ele>342.97</ele>
  <time>2026-09-01T01:11:02Z</time>
  <course>147.13</course>
  <speed>0.02</speed>
  <fix>3d</fix>
</trkpt>
<trkpt lat="-27.274439" lon="151.290064">
  <ele>343.0</ele>
  <time>2026-09-01T01:11:02Z</time>
  <course>0.0</course>
  <speed>0.0</speed>
  <fix>3d</fix>
</trkpt>
<trkpt lat="-27.2744389" lon="151.2900638">
  <ele>342.96</ele>
  <time>2026-09-01T01:11:02Z</time>
  <course>147.13</course>
  <speed>0.02</speed>
  <fix>3d</fix>
</trkpt>
<trkpt lat="-27.274439" lon="151.290064">
  <ele>343.0</ele>
  <time>2026-09-01T01:11:02Z</time>
  <course>0.0</course>
  <speed>0.0</speed>
  <fix>3d</fix>
</trkpt>
<trkpt lat="-27.2744389" lon="151.2900638">
  <ele>342.97</ele>
  <time>2026-09-01T01:11:02Z</time>
  <course>147.13</course>
  <speed>0.02</speed>
  <fix>3d</fix>
</trkpt>
<trkpt lat="-27.274439" lon="151.290064">
  <ele>343.0</ele>
  <time>2026-09-01T01:11:02Z</time>
  <course>0.0</course>
  <speed>0.0</speed>
  <fix>3d</fix>
</trkpt>
<trkpt lat="-27.2744389" lon="151.2900638">
  <ele>342.99</ele>
  <time>2026-09-01T01:11:02Z</time>
  <course>147.13</course>
  <speed>0.02</speed>
  <fix>3d</fix>
</trkpt>
<trkpt lat="-27.274439" lon="151.290064">
  <ele>343.0</ele>
  <time>2026-09-01T01:11:02Z</time>
  <course>0.0</course>
  <speed>0.0</speed>
  <fix>3d</fix>
</trkpt>
<trkpt lat="-27.2744389" lon="151.2900638">
  <ele>342.99</ele>
  <time>2026-09-01T01:11:02Z</time>
  <course>147.13</course>
  <speed>0.02</speed>
  <fix>3d</fix>
</trkpt>
<trkpt lat="-27.274439" lon="151.290064">
  <ele>343.0</ele>
  <time>2026-09-01T01:11:02Z</time>
  <course>0.0</course>
  <speed>0.0</speed>
  <fix>3d</fix>
</trkpt>
<trkpt lat="-27.2744389" lon="151.2900638">
  <ele>342.98</ele>
  <time>2026-09-01T01:11:02Z</time>
  <course>147.13</course>
  <speed>0.02</speed>
  <fix>3d</fix>
</trkpt>
<trkpt lat="-27.274439" lon="151.290064">
  <ele>343.0</ele>
  <time>2026-09-01T01:11:02Z</time>
  <course>0.0</course>
  <speed>0.0</speed>
  <fix>3d</fix>
</trkpt>
<trkpt lat="-27.2744389" lon="151.2900638">
  <ele>343.01</ele>
  <time>2026-09-01T01:11:02Z</time>
  <course>147.13</course>
  <speed>0.02</speed>
  <fix>3d</fix>
</trkpt>
<trkpt lat="-27.274439" lon="151.290064">
  <ele>343.0</ele>
  <time>2026-09-01T01:11:02Z</time>
  <course>0.0</course>
  <speed>0.0</speed>
  <fix>3d</fix>
</trkpt>
<trkpt lat="-27.2744389" lon="151.2900638">
  <ele>343.03</ele>
  <time>2026-09-01T01:11:02Z</time>
  <course>147.13</course>
  <speed>0.02</speed>
  <fix>3d</fix>
</trkpt>
<trkpt lat="-27.274439" lon="151.290064">
  <ele>343.0</ele>
  <time>2026-09-01T01:11:02Z</time>
  <course>0.0</course>
  <speed>0.0</speed>
  <fix>3d</fix>
</trkpt>
<trkpt lat="-27.2744389" lon="151.2900638">
  <ele>343.03</ele>
  <time>2026-09-01T01:11:02Z</time>
  <course>147.13</course>
  <speed>0.02</speed>
  <fix>3d</fix>
</trkpt>
<trkpt lat="-27.274439" lon="151.290064">
  <ele>343.0</ele>
  <time>2026-09-01T01:11:02Z</time>
  <course>0.0</course>
  <speed>0.0</speed>
  <fix>3d</fix>
</trkpt>
<trkpt lat="-27.2744389" lon="151.2900638">
  <ele>343.0</ele>
  <time>2026-09-01T01:11:02Z</time>
  <course>147.13</course>
  <speed>0.02</speed>
  <fix>3d</fix>
</trkpt>
<trkpt lat="-27.274439" lon="151.290064">
  <ele>343.0</ele>
  <time>2026-09-01T01:11:02Z</time>
  <course>0.0</course>
  <speed>0.0</speed>
  <fix>3d</fix>
</trkpt>
<trkpt lat="-27.2744389" lon="151.2900638">
  <ele>342.99</ele>
  <time>2026-09-01T01:11:02Z</time>
  <course>147.13</course>
  <speed>0.02</speed>
  <fix>3d</fix>
</trkpt>
<trkpt lat="-27.274439" lon="151.290064">
  <ele>343.0</ele>
  <time>2026-09-01T01:11:02Z</time>
  <course>0.0</course>
  <speed>0.0</speed>
  <fix>3d</fix>
</trkpt>
<trkpt lat="-27.2744389" lon="151.2900638">
  <ele>343.01</ele>
  <time>2026-09-01T01:11:02Z</time>
  <course>147.13</course>
  <speed>0.02</speed>
  <fix>3d</fix>
</trkpt>
<trkpt lat="-27.274439" lon="151.290064">
  <ele>343.0</ele>
  <time>2026-09-01T01:11:02Z</time>
  <course>0.0</course>
  <speed>0.0</speed>
  <fix>3d</fix>
</trkpt>
<trkpt lat="-27.2744389" lon="151.2900638">
  <ele>343.01</ele>
  <time>2026-09-01T01:11:02Z</time>
  <course>147.13</course>
  <speed>0.02</speed>
  <fix>3d</fix>
</trkpt>
<trkpt lat="-27.274439" lon="151.290064">
  <ele>343.0</ele>
  <time>2026-09-01T01:11:02Z</time>
  <course>0.0</course>
  <speed>0.0</speed>
  <fix>3d</fix>
</trkpt>
<trkpt lat="-27.2744389" lon="151.2900638">
  <ele>343.02</ele>
  <time>2026-09-01T01:11:02Z</time>
  <course>147.13</course>
  <speed>0.02</speed>
  <fix>3d</fix>
</trkpt>
<trkpt lat="-27.274439" lon="151.290064">
  <ele>343.0</ele>
  <time>2026-09-01T01:11:02Z</time>
  <course>0.0</course>
  <speed>0.0</speed>
  <fix>3d</fix>
</trkpt>
<trkpt lat="-27.2744389" lon="151.2900638">
  <ele>343.02</ele>
  <time>2026-09-01T01:11:02Z</time>
  <course>147.13</course>
  <speed>0.02</speed>
  <fix>3d</fix>
</trkpt>
<trkpt lat="-27.274439" lon="151.290064">
  <ele>343.0</ele>
  <time>2026-09-01T01:11:02Z</time>
  <course>0.0</course>
  <speed>0.0</speed>
  <fix>3d</fix>
</trkpt>
<trkpt lat="-27.2744389" lon="151.2900638">
  <ele>343.02</ele>
  <time>2026-09-01T01:11:02Z</time>
  <course>147.13</course>
  <speed>0.02</speed>
  <fix>3d</fix>
</trkpt>
<trkpt lat="-27.274439" lon="151.290064">
  <ele>343.0</ele>
  <time>2026-09-01T01:11:02Z</time>
  <course>0.0</course>
  <speed>0.0</speed>
  <fix>3d</fix>
</trkpt>
<trkpt lat="-27.2744389" lon="151.2900638">
  <ele>343.01</ele>
  <time>2026-09-01T01:11:02Z</time>
  <course>147.13</course>
  <speed>0.02</speed>
  <fix>3d</fix>
</trkpt>
<trkpt lat="-27.274439" lon="151.290064">
  <ele>343.0</ele>
  <time>2026-09-01T01:11:02Z</time>
  <course>0.0</course>
  <speed>0.0</speed>
  <fix>3d</fix>
</trkpt>
<trkpt lat="-27.2744389" lon="151.2900638">
  <ele>343.0</ele>
  <time>2026-09-01T01:11:02Z</time>
  <course>147.13</course>
  <speed>0.02</speed>
  <fix>3d</fix>
</trkpt>
<trkpt lat="-27.274439" lon="151.290064">
  <ele>343.0</ele>
  <time>2026-09-01T01:11:02Z</time>
  <course>0.0</course>
  <speed>0.0</speed>
  <fix>3d</fix>
</trkpt>
<trkpt lat="-27.2744389" lon="151.2900638">
  <ele>343.0</ele>
  <time>2026-09-01T01:11:02Z</time>
  <course>147.13</course>
  <speed>0.02</speed>
  <fix>3d</fix>
</trkpt>
<trkpt lat="-27.274439" lon="151.290064">
  <ele>343.0</ele>
  <time>2026-09-01T01:11:02Z</time>
  <course>0.0</course>
  <speed>0.0</speed>
  <fix>3d</fix>
</trkpt>
<trkpt lat="-27.2744389" lon="151.2900638">
  <ele>343.01</ele>
  <time>2026-09-01T01:11:02Z</time>
  <course>147.13</course>
  <speed>0.02</speed>
  <fix>3d</fix>
</trkpt>
<trkpt lat="-27.274439" lon="151.290064">
  <ele>343.0</ele>
  <time>2026-09-01T01:11:02Z</time>
  <course>0.0</course>
  <speed>0.0</speed>
  <fix>3d</fix>
</trkpt>
<trkpt lat="-27.2744389" lon="151.2900638">
  <ele>343.0</ele>
  <time>2026-09-01T01:11:02Z</time>
  <course>147.14</course>
  <speed>0.02</speed>
  <fix>3d</fix>
</trkpt>
<trkpt lat="-27.274439" lon="151.290064">
  <ele>343.0</ele>
  <time>2026-09-01T01:11:02Z</time>
  <course>0.0</course>
  <speed>0.0</speed>
  <fix>3d</fix>
</trkpt>
<trkpt lat="-27.2744389" lon="151.2900638">
  <ele>343.01</ele>
  <time>2026-09-01T01:11:02Z</time>
  <course>147.13</course>
  <speed>0.02</speed>
  <fix>3d</fix>
</trkpt>
<trkpt lat="-27.274439" lon="151.290064">
  <ele>343.0</ele>
  <time>2026-09-01T01:11:02Z</time>
  <course>0.0</course>
  <speed>0.0</speed>
  <fix>3d</fix>
</trkpt>
<trkpt lat="-27.2744389" lon="151.2900638">
  <ele>343.02</ele>
  <time>2026-09-01T01:11:02Z</time>
  <course>147.14</course>
  <speed>0.02</speed>
  <fix>3d</fix>
</trkpt>
<trkpt lat="-27.274439" lon="151.290064">
  <ele>343.0</ele>
  <time>2026-09-01T01:11:02Z</time>
  <course>0.0</course>
  <speed>0.0</speed>
  <fix>3d</fix>
</trkpt>
<trkpt lat="-27.2744389" lon="151.2900638">
  <ele>343.04</ele>
  <time>2026-09-01T01:11:02Z</time>
  <course>147.13</course>
  <speed>0.02</speed>
  <fix>3d</fix>
</trkpt>
<trkpt lat="-27.274439" lon="151.290064">
  <ele>343.0</ele>
  <time>2026-09-01T01:11:02Z</time>
  <course>0.0</course>
  <speed>0.0</speed>
  <fix>3d</fix>
</trkpt>
<trkpt lat="-27.2744389" lon="151.2900638">
  <ele>343.04</ele>
  <time>2026-09-01T01:11:02Z</time>
  <course>147.14</course>
  <speed>0.02</speed>
  <fix>3d</fix>
</trkpt>
<trkpt lat="-27.274439" lon="151.290064">
  <ele>343.0</ele>
  <time>2026-09-01T01:11:02Z</time>
  <course>0.0</course>
  <speed>0.0</speed>
  <fix>3d</fix>
</trkpt>
<trkpt lat="-27.2744389" lon="151.2900638">
  <ele>343.04</ele>
  <time>2026-09-01T01:11:02Z</time>
  <course>147.13</course>
  <speed>0.02</speed>
  <fix>3d</fix>
</trkpt>
<trkpt lat="-27.274439" lon="151.290064">
  <ele>343.0</ele>
  <time>2026-09-01T01:11:02Z</time>
  <course>0.0</course>
  <speed>0.0</speed>
  <fix>3d</fix>
</trkpt>
<trkpt lat="-27.2744389" lon="151.2900638">
  <ele>343.06</ele>
  <time>2026-09-01T01:11:02Z</time>
  <course>147.13</course>
  <speed>0.02</speed>
  <fix>3d</fix>
</trkpt>
<trkpt lat="-27.274439" lon="151.290064">
  <ele>343.0</ele>
  <time>2026-09-01T01:11:02Z</time>
  <course>0.0</course>
  <speed>0.0</speed>
  <fix>3d</fix>
</trkpt>
<trkpt lat="-27.2744389" lon="151.2900638">
  <ele>343.05</ele>
  <time>2026-09-01T01:11:02Z</time>
  <course>147.13</course>
  <speed>0.02</speed>
  <fix>3d</fix>
</trkpt>
<trkpt lat="-27.274439" lon="151.290064">
  <ele>343.0</ele>
  <time>2026-09-01T01:11:02Z</time>
  <course>0.0</course>
  <speed>0.0</speed>
  <fix>3d</fix>
</trkpt>
<trkpt lat="-27.2744389" lon="151.2900638">
  <ele>343.04</ele>
  <time>2026-09-01T01:11:02Z</time>
  <course>147.14</course>
  <speed>0.02</speed>
  <fix>3d</fix>
</trkpt>
<trkpt lat="-27.274439" lon="151.290064">
  <ele>343.0</ele>
  <time>2026-09-01T01:11:02Z</time>
  <course>0.0</course>
  <speed>0.0</speed>
  <fix>3d</fix>
</trkpt>
<trkpt lat="-27.2744389" lon="151.2900638">
  <ele>343.03</ele>
  <time>2026-09-01T01:11:02Z</time>
  <course>147.14</course>
  <speed>0.02</speed>
  <fix>3d</fix>
</trkpt>
<trkpt lat="-27.274439" lon="151.290064">
  <ele>343.0</ele>
  <time>2026-09-01T01:11:02Z</time>
  <course>0.0</course>
  <speed>0.0</speed>
  <fix>3d</fix>
</trkpt>
<trkpt lat="-27.2744389" lon="151.2900638">
  <ele>343.03</ele>
  <time>2026-09-01T01:11:02Z</time>
  <course>147.14</course>
  <speed>0.02</speed>
  <fix>3d</fix>
</trkpt>
<trkpt lat="-27.274439" lon="151.290064">
  <ele>343.0</ele>
  <time>2026-09-01T01:11:02Z</time>
  <course>0.0</course>
  <speed>0.0</speed>
  <fix>3d</fix>
</trkpt>
<trkpt lat="-27.2744389" lon="151.2900638">
  <ele>343.04</ele>
  <time>2026-09-01T01:11:02Z</time>
  <course>147.14</course>
  <speed>0.02</speed>
  <fix>3d</fix>
</trkpt>
<trkpt lat="-27.274439" lon="151.290064">
  <ele>343.0</ele>
  <time>2026-09-01T01:11:02Z</time>
  <course>0.0</course>
  <speed>0.0</speed>
  <fix>3d</fix>
</trkpt>
<trkpt lat="-27.2744389" lon="151.2900638">
  <ele>343.05</ele>
  <time>2026-09-01T01:11:02Z</time>
  <course>147.13</course>
  <speed>0.02</speed>
  <fix>3d</fix>
</trkpt>
<trkpt lat="-27.274439" lon="151.290064">
  <ele>343.0</ele>
  <time>2026-09-01T01:11:02Z</time>
  <course>0.0</course>
  <speed>0.0</speed>
  <fix>3d</fix>
</trkpt>
<trkpt lat="-27.2744389" lon="151.2900638">
  <ele>343.06</ele>
  <time>2026-09-01T01:11:02Z</time>
  <course>147.14</course>
  <speed>0.02</speed>
  <fix>3d</fix>
</trkpt>
<trkpt lat="-27.274439" lon="151.290064">
  <ele>343.0</ele>
  <time>2026-09-01T01:11:02Z</time>
  <course>0.0</course>
  <speed>0.0</speed>
  <fix>3d</fix>
</trkpt>
<trkpt lat="-27.2744389" lon="151.2900638">
  <ele>343.02</ele>
  <time>2026-09-01T01:11:02Z</time>
  <course>147.13</course>
  <speed>0.02</speed>
  <fix>3d</fix>
</trkpt>
<trkpt lat="-27.274439" lon="151.290064">
  <ele>343.0</ele>
  <time>2026-09-01T01:11:02Z</time>
  <course>0.0</course>
  <speed>0.0</speed>
  <fix>3d</fix>
</trkpt>
<trkpt lat="-27.2744389" lon="151.2900638">
  <ele>343.01</ele>
  <time>2026-09-01T01:11:02Z</time>
  <course>147.14</course>
  <speed>0.02</speed>
  <fix>3d</fix>
</trkpt>
<trkpt lat="-27.274439" lon="151.290064">
  <ele>343.0</ele>
  <time>2026-09-01T01:11:02Z</time>
  <course>0.0</course>
  <speed>0.0</speed>
  <fix>3d</fix>
</trkpt>
<trkpt lat="-27.2744389" lon="151.2900638">
  <ele>343.0</ele>
  <time>2026-09-01T01:11:02Z</time>
  <course>147.13</course>
  <speed>0.02</speed>
  <fix>3d</fix>
</trkpt>
<trkpt lat="-27.274439" lon="151.290064">
  <ele>343.0</ele>
  <time>2026-09-01T01:11:02Z</time>
  <course>0.0</course>
  <speed>0.0</speed>
  <fix>3d</fix>
</trkpt>
<trkpt lat="-27.2744389" lon="151.2900638">
  <ele>342.99</ele>
  <time>2026-09-01T01:11:02Z</time>
  <course>147.14</course>
  <speed>0.02</speed>
  <fix>3d</fix>
</trkpt>
<trkpt lat="-27.274439" lon="151.290064">
  <ele>343.0</ele>
  <time>2026-09-01T01:11:02Z</time>
  <course>0.0</course>
  <speed>0.0</speed>
  <fix>3d</fix>
</trkpt>
<trkpt lat="-27.2744389" lon="151.2900638">
  <ele>342.98</ele>
  <time>2026-09-01T01:11:02Z</time>
  <course>147.13</course>
  <speed>0.02</speed>
  <fix>3d</fix>
</trkpt>
<trkpt lat="-27.274439" lon="151.290064">
  <ele>343.0</ele>
  <time>2026-09-01T01:11:02Z</time>
  <course>0.0</course>
  <speed>0.0</speed>
  <fix>3d</fix>
</trkpt>
<trkpt lat="-27.2744389" lon="151.2900638">
  <ele>342.97</ele>
  <time>2026-09-01T01:11:02Z</time>
  <course>147.14</course>
  <speed>0.02</speed>
  <fix>3d</fix>
</trkpt>
<trkpt lat="-27.274439" lon="151.290064">
  <ele>343.0</ele>
  <time>2026-09-01T01:11:02Z</time>
  <course>0.0</course>
  <speed>0.0</speed>
  <fix>3d</fix>
</trkpt>
<trkpt lat="-27.2744389" lon="151.2900638">
  <ele>342.98</ele>
  <time>2026-09-01T01:11:02Z</time>
  <course>147.13</course>
  <speed>0.02</speed>
  <fix>3d</fix>
</trkpt>
<trkpt lat="-27.274439" lon="151.290064">
  <ele>343.0</ele>
  <time>2026-09-01T01:11:02Z</time>
  <course>0.0</course>
  <speed>0.0</speed>
  <fix>3d</fix>
</trkpt>
<trkpt lat="-27.2744389" lon="151.2900638">
  <ele>343.02</ele>
  <time>2026-09-01T01:11:02Z</time>
  <course>147.14</course>
  <speed>0.02</speed>
  <fix>3d</fix>
</trkpt>
<trkpt lat="-27.274439" lon="151.290064">
  <ele>343.0</ele>
  <time>2026-09-01T01:11:02Z</time>
  <course>0.0</course>
  <speed>0.0</speed>
  <fix>3d</fix>
</trkpt>
<trkpt lat="-27.2744389" lon="151.2900638">
  <ele>343.03</ele>
  <time>2026-09-01T01:11:02Z</time>
  <course>147.14</course>
  <speed>0.02</speed>
  <fix>3d</fix>
</trkpt>
<trkpt lat="-27.274439" lon="151.290064">
  <ele>343.0</ele>
  <time>2026-09-01T01:11:02Z</time>
  <course>0.0</course>
  <speed>0.0</speed>
  <fix>3d</fix>
</trkpt>
<trkpt lat="-27.2744389" lon="151.2900638">
  <ele>343.01</ele>
  <time>2026-09-01T01:11:02Z</time>
  <course>147.14</course>
  <speed>0.02</speed>
  <fix>3d</fix>
</trkpt>
<trkpt lat="-27.274439" lon="151.290064">
  <ele>343.0</ele>
  <time>2026-09-01T01:11:02Z</time>
  <course>0.0</course>
  <speed>0.0</speed>
  <fix>3d</fix>
</trkpt>
<trkpt lat="-27.2744389" lon="151.2900638">
  <ele>343.02</ele>
  <time>2026-09-01T01:11:02Z</time>
  <course>147.14</course>
  <speed>0.02</speed>
  <fix>3d</fix>
</trkpt>
<trkpt lat="-27.274439" lon="151.290064">
  <ele>343.0</ele>
  <time>2026-09-01T01:11:02Z</time>
  <course>0.0</course>
  <speed>0.0</speed>
  <fix>3d</fix>
</trkpt>
<trkpt lat="-27.2744389" lon="151.2900638">
  <ele>343.01</ele>
  <time>2026-09-01T01:11:02Z</time>
  <course>147.14</course>
  <speed>0.02</speed>
  <fix>3d</fix>
</trkpt>
<trkpt lat="-27.274439" lon="151.290064">
  <ele>343.0</ele>
  <time>2026-09-01T01:11:02Z</time>
  <course>0.0</course>
  <speed>0.0</speed>
  <fix>3d</fix>
</trkpt>
<trkpt lat="-27.2744389" lon="151.2900638">
  <ele>343.02</ele>
  <time>2026-09-01T01:11:02Z</time>
  <course>147.14</course>
  <speed>0.02</speed>
  <fix>3d</fix>
</trkpt>
<trkpt lat="-27.274439" lon="151.290064">
  <ele>343.0</ele>
  <time>2026-09-01T01:11:02Z</time>
  <course>0.0</course>
  <speed>0.0</speed>
  <fix>3d</fix>
</trkpt>
<trkpt lat="-27.2744389" lon="151.2900638">
  <ele>343.02</ele>
  <time>2026-09-01T01:11:02Z</time>
  <course>147.14</course>
  <speed>0.02</speed>
  <fix>3d</fix>
</trkpt>
<trkpt lat="-27.274439" lon="151.290064">
  <ele>343.0</ele>
  <time>2026-09-01T01:11:02Z</time>
  <course>0.0</course>
  <speed>0.0</speed>
  <fix>3d</fix>
</trkpt>
<trkpt lat="-27.2744389" lon="151.2900638">
  <ele>343.03</ele>
  <time>2026-09-01T01:11:02Z</time>
  <course>147.14</course>
  <speed>0.02</speed>
  <fix>3d</fix>
</trkpt>
<trkpt lat="-27.274439" lon="151.290064">
  <ele>343.0</ele>
  <time>2026-09-01T01:11:02Z</time>
  <course>0.0</course>
  <speed>0.0</speed>
  <fix>3d</fix>
</trkpt>
<trkpt lat="-27.2744389" lon="151.2900638">
  <ele>343.03</ele>
  <time>2026-09-01T01:11:02Z</time>
  <course>147.14</course>
  <speed>0.02</speed>
  <fix>3d</fix>
</trkpt>
<trkpt lat="-27.274439" lon="151.290064">
  <ele>343.0</ele>
  <time>2026-09-01T01:11:02Z</time>
  <course>0.0</course>
  <speed>0.0</speed>
  <fix>3d</fix>
</trkpt>
<trkpt lat="-27.2744389" lon="151.2900638">
  <ele>343.02</ele>
  <time>2026-09-01T01:11:02Z</time>
  <course>147.14</course>
  <speed>0.02</speed>
  <fix>3d</fix>
</trkpt>
<trkpt lat="-27.274439" lon="151.290064">
  <ele>343.0</ele>
  <time>2026-09-01T01:11:02Z</time>
  <course>0.0</course>
  <speed>0.0</speed>
  <fix>3d</fix>
</trkpt>
<trkpt lat="-27.2744389" lon="151.2900638">
  <ele>343.03</ele>
  <time>2026-09-01T01:11:02Z</time>
  <course>147.14</course>
  <speed>0.02</speed>
  <fix>3d</fix>
</trkpt>
<trkpt lat="-27.274439" lon="151.290064">
  <ele>343.0</ele>
  <time>2026-09-01T01:11:02Z</time>
  <course>0.0</course>
  <speed>0.0</speed>
  <fix>3d</fix>
</trkpt>
<trkpt lat="-27.2744389" lon="151.2900638">
  <ele>343.01</ele>
  <time>2026-09-01T01:11:02Z</time>
  <course>147.14</course>
  <speed>0.02</speed>
  <fix>3d</fix>
</trkpt>
<trkpt lat="-27.274439" lon="151.290064">
  <ele>343.0</ele>
  <time>2026-09-01T01:11:02Z</time>
  <course>0.0</course>
  <speed>0.0</speed>
  <fix>3d</fix>
</trkpt>
<trkpt lat="-27.2744389" lon="151.2900638">
  <ele>342.99</ele>
  <time>2026-09-01T01:11:02Z</time>
  <course>147.14</course>
  <speed>0.02</speed>
  <fix>3d</fix>
</trkpt>
<trkpt lat="-27.274439" lon="151.290064">
  <ele>343.0</ele>
  <time>2026-09-01T01:11:02Z</time>
  <course>0.0</course>
  <speed>0.0</speed>
  <fix>3d</fix>
</trkpt>
<trkpt lat="-27.2744389" lon="151.2900638">
  <ele>343.0</ele>
  <time>2026-09-01T01:11:02Z</time>
  <course>147.14</course>
  <speed>0.02</speed>
  <fix>3d</fix>
</trkpt>
<trkpt lat="-27.274439" lon="151.290064">
  <ele>343.0</ele>
  <time>2026-09-01T01:11:02Z</time>
  <course>0.0</course>
  <speed>0.0</speed>
  <fix>3d</fix>
</trkpt>
<trkpt lat="-27.2744389" lon="151.2900638">
  <ele>343.0</ele>
  <time>2026-09-01T01:11:02Z</time>
  <course>147.14</course>
  <speed>0.02</speed>
  <fix>3d</fix>
</trkpt>
<trkpt lat="-27.274439" lon="151.290064">
  <ele>343.0</ele>
  <time>2026-09-01T01:11:02Z</time>
  <course>0.0</course>
  <speed>0.0</speed>
  <fix>3d</fix>
</trkpt>
<trkpt lat="-27.2744389" lon="151.2900638">
  <ele>342.99</ele>
  <time>2026-09-01T01:11:02Z</time>
  <course>147.14</course>
  <speed>0.02</speed>
  <fix>3d</fix>
</trkpt>
<trkpt lat="-27.274439" lon="151.290064">
  <ele>343.0</ele>
  <time>2026-09-01T01:11:02Z</time>
  <course>0.0</course>
  <speed>0.0</speed>
  <fix>3d</fix>
</trkpt>
<trkpt lat="-27.2744389" lon="151.2900638">
  <ele>343.0</ele>
  <time>2026-09-01T01:11:02Z</time>
  <course>147.14</course>
  <speed>0.02</speed>
  <fix>3d</fix>
</trkpt>
<trkpt lat="-27.274439" lon="151.290064">
  <ele>343.0</ele>
  <time>2026-09-01T01:11:02Z</time>
  <course>0.0</course>
  <speed>0.0</speed>
  <fix>3d</fix>
</trkpt>
<trkpt lat="-27.2744389" lon="151.2900638">
  <ele>343.01</ele>
  <time>2026-09-01T01:11:02Z</time>
  <course>147.14</course>
  <speed>0.02</speed>
  <fix>3d</fix>
</trkpt>
<trkpt lat="-27.274439" lon="151.290064">
  <ele>343.0</ele>
  <time>2026-09-01T01:11:02Z</time>
  <course>0.0</course>
  <speed>0.0</speed>
  <fix>3d</fix>
</trkpt>
<trkpt lat="-27.2744389" lon="151.2900638">
  <ele>343.03</ele>
  <time>2026-09-01T01:11:02Z</time>
  <course>147.14</course>
  <speed>0.02</speed>
  <fix>3d</fix>
</trkpt>
<trkpt lat="-27.274439" lon="151.290064">
  <ele>343.0</ele>
  <time>2026-09-01T01:11:02Z</time>
  <course>0.0</course>
  <speed>0.0</speed>
  <fix>3d</fix>
</trkpt>
<trkpt lat="-27.2744389" lon="151.2900638">
  <ele>343.02</ele>
  <time>2026-09-01T01:11:02Z</time>
  <course>147.14</course>
  <speed>0.02</speed>
  <fix>3d</fix>
</trkpt>
<trkpt lat="-27.274439" lon="151.290064">
  <ele>343.0</ele>
  <time>2026-09-01T01:11:02Z</time>
  <course>0.0</course>
  <speed>0.0</speed>
  <fix>3d</fix>
</trkpt>
<trkpt lat="-27.2744389" lon="151.2900638">
  <ele>343.03</ele>
  <time>2026-09-01T01:11:02Z</time>
  <course>147.14</course>
  <speed>0.02</speed>
  <fix>3d</fix>
</trkpt>
<trkpt lat="-27.274439" lon="151.290064">
  <ele>343.0</ele>
  <time>2026-09-01T01:11:02Z</time>
  <course>0.0</course>
  <speed>0.0</speed>
  <fix>3d</fix>
</trkpt>
<trkpt lat="-27.2744389" lon="151.2900638">
  <ele>343.03</ele>
  <time>2026-09-01T01:11:02Z</time>
  <course>147.14</course>
  <speed>0.02</speed>
  <fix>3d</fix>
</trkpt>
<trkpt lat="-27.274439" lon="151.290064">
  <ele>343.0</ele>
  <time>2026-09-01T01:11:02Z</time>
  <course>0.0</course>
  <speed>0.0</speed>
  <fix>3d</fix>
</trkpt>
<trkpt lat="-27.2744389" lon="151.2900638">
  <ele>343.05</ele>
  <time>2026-09-01T01:11:02Z</time>
  <course>147.14</course>
  <speed>0.02</speed>
  <fix>3d</fix>
</trkpt>
<trkpt lat="-27.274439" lon="151.290064">
  <ele>343.0</ele>
  <time>2026-09-01T01:11:02Z</time>
  <course>0.0</course>
  <speed>0.0</speed>
  <fix>3d</fix>
</trkpt>
<trkpt lat="-27.2744389" lon="151.2900638">
  <ele>343.04</ele>
  <time>2026-09-01T01:11:02Z</time>
  <course>147.14</course>
  <speed>0.02</speed>
  <fix>3d</fix>
</trkpt>
<trkpt lat="-27.274439" lon="151.290064">
  <ele>343.0</ele>
  <time>2026-09-01T01:11:02Z</time>
  <course>0.0</course>
  <speed>0.0</speed>
  <fix>3d</fix>
</trkpt>
<trkpt lat="-27.2744389" lon="151.2900638">
  <ele>343.03</ele>
  <time>2026-09-01T01:11:02Z</time>
  <course>147.14</course>
  <speed>0.02</speed>
  <fix>3d</fix>
</trkpt>
<trkpt lat="-27.274439" lon="151.290064">
  <ele>343.0</ele>
  <time>2026-09-01T01:11:02Z</time>
  <course>0.0</course>
  <speed>0.0</speed>
  <fix>3d</fix>
</trkpt>
<trkpt lat="-27.2744389" lon="151.2900638">
  <ele>343.02</ele>
  <time>2026-09-01T01:11:02Z</time>
  <course>147.14</course>
  <speed>0.02</speed>
  <fix>3d</fix>
</trkpt>
<trkpt lat="-27.274439" lon="151.290064">
  <ele>343.0</ele>
  <time>2026-09-01T01:11:02Z</time>
  <course>0.0</course>
  <speed>0.0</speed>
  <fix>3d</fix>
</trkpt>
<trkpt lat="-27.2744389" lon="151.2900638">
  <ele>343.01</ele>
  <time>2026-09-01T01:11:02Z</time>
  <course>147.13</course>
  <speed>0.02</speed>
  <fix>3d</fix>
</trkpt>
<trkpt lat="-27.274439" lon="151.290064">
  <ele>343.0</ele>
  <time>2026-09-01T01:11:02Z</time>
  <course>0.0</course>
  <speed>0.0</speed>
  <fix>3d</fix>
</trkpt>
<trkpt lat="-27.2744389" lon="151.2900638">
  <ele>343.03</ele>
  <time>2026-09-01T01:11:02Z</time>
  <course>147.13</course>
  <speed>0.02</speed>
  <fix>3d</fix>
</trkpt>
<trkpt lat="-27.274439" lon="151.290064">
  <ele>343.0</ele>
  <time>2026-09-01T01:11:02Z</time>
  <course>0.0</course>
  <speed>0.0</speed>
  <fix>3d</fix>
</trkpt>
<trkpt lat="-27.2744389" lon="151.2900638">
  <ele>343.02</ele>
  <time>2026-09-01T01:11:03Z</time>
  <course>147.12</course>
  <speed>0.02</speed>
  <fix>3d</fix>
</trkpt>
<trkpt lat="-27.274439" lon="151.290064">
  <ele>343.0</ele>
  <time>2026-09-01T01:11:03Z</time>
  <course>0.0</course>
  <speed>0.0</speed>
  <fix>3d</fix>
</trkpt>
<trkpt lat="-27.2744389" lon="151.2900638">
  <ele>343.02</ele>
  <time>2026-09-01T01:11:03Z</time>
  <course>147.11</course>
  <speed>0.02</speed>
  <fix>3d</fix>
</trkpt>
<trkpt lat="-27.274439" lon="151.290064">
  <ele>343.0</ele>
  <time>2026-09-01T01:11:03Z</time>
  <course>0.0</course>
  <speed>0.0</speed>
  <fix>3d</fix>
</trkpt>
<trkpt lat="-27.2744389" lon="151.2900638">
  <ele>343.01</ele>
  <time>2026-09-01T01:11:03Z</time>
  <course>147.1</course>
  <speed>0.01</speed>
  <fix>3d</fix>
</trkpt>
<trkpt lat="-27.274439" lon="151.290064">
  <ele>343.0</ele>
  <time>2026-09-01T01:11:03Z</time>
  <course>0.0</course>
  <speed>0.0</speed>
  <fix>3d</fix>
</trkpt>
<trkpt lat="-27.2744389" lon="151.2900638">
  <ele>343.02</ele>
  <time>2026-09-01T01:11:03Z</time>
  <course>147.08</course>
  <speed>0.01</speed>
  <fix>3d</fix>
</trkpt>
<trkpt lat="-27.274439" lon="151.290064">
  <ele>343.0</ele>
  <time>2026-09-01T01:11:03Z</time>
  <course>0.0</course>
  <speed>0.0</speed>
  <fix>3d</fix>
</trkpt>
<trkpt lat="-27.2744389" lon="151.2900638">
  <ele>343.02</ele>
  <time>2026-09-01T01:11:03Z</time>
  <course>147.07</course>
  <speed>0.01</speed>
  <fix>3d</fix>
</trkpt>
<trkpt lat="-27.274439" lon="151.290064">
  <ele>343.0</ele>
  <time>2026-09-01T01:11:03Z</time>
  <course>0.0</course>
  <speed>0.0</speed>
  <fix>3d</fix>
</trkpt>
<trkpt lat="-27.2744389" lon="151.2900638">
  <ele>343.04</ele>
  <time>2026-09-01T01:11:03Z</time>
  <course>147.05</course>
  <speed>0.0</speed>
  <fix>3d</fix>
</trkpt>
<trkpt lat="-27.274439" lon="151.290064">
  <ele>343.0</ele>
  <time>2026-09-01T01:11:03Z</time>
  <course>0.0</course>
  <speed>0.0</speed>
  <fix>3d</fix>
</trkpt>
<trkpt lat="-27.2744389" lon="151.2900639">
  <ele>343.07</ele>
  <time>2026-09-01T01:11:03Z</time>
  <course>147.04</course>
  <speed>0.0</speed>
  <fix>3d</fix>
</trkpt>
<trkpt lat="-27.274439" lon="151.290064">
  <ele>343.0</ele>
  <time>2026-09-01T01:11:03Z</time>
  <course>0.0</course>
  <speed>0.0</speed>
  <fix>3d</fix>
</trkpt>
<trkpt lat="-27.2744389" lon="151.2900639">
  <ele>343.07</ele>
  <time>2026-09-01T01:11:03Z</time>
  <course>147.02</course>
  <speed>0.0</speed>
  <fix>3d</fix>
</trkpt>
<trkpt lat="-27.274439" lon="151.290064">
  <ele>343.0</ele>
  <time>2026-09-01T01:11:03Z</time>
  <course>0.0</course>
  <speed>0.0</speed>
  <fix>3d</fix>
</trkpt>
<trkpt lat="-27.2744389" lon="151.2900639">
  <ele>343.06</ele>
  <time>2026-09-01T01:11:03Z</time>
  <course>147.0</course>
  <speed>0.0</speed>
  <fix>3d</fix>
</trkpt>
<trkpt lat="-27.274439" lon="151.290064">
  <ele>343.0</ele>
  <time>2026-09-01T01:11:03Z</time>
  <course>0.0</course>
  <speed>0.0</speed>
  <fix>3d</fix>
</trkpt>
<trkpt lat="-27.274439" lon="151.2900639">
  <ele>343.05</ele>
  <time>2026-09-01T01:11:03Z</time>
  <course>146.98</course>
  <speed>0.0</speed>
  <fix>3d</fix>
</trkpt>
<trkpt lat="-27.274439" lon="151.290064">
  <ele>343.0</ele>
  <time>2026-09-01T01:11:03Z</time>
  <course>0.0</course>
  <speed>0.0</speed>
  <fix>3d</fix>
</trkpt>
<trkpt lat="-27.274439" lon="151.2900639">
  <ele>343.03</ele>
  <time>2026-09-01T01:11:03Z</time>
  <course>146.96</course>
  <speed>0.0</speed>
  <fix>3d</fix>
</trkpt>
<trkpt lat="-27.274439" lon="151.290064">
  <ele>343.0</ele>
  <time>2026-09-01T01:11:03Z</time>
  <course>0.0</course>
  <speed>0.0</speed>
  <fix>3d</fix>
</trkpt>
<trkpt lat="-27.274439" lon="151.290064">
  <ele>343.03</ele>
  <time>2026-09-01T01:11:03Z</time>
  <course>146.94</course>
  <speed>0.0</speed>
  <fix>3d</fix>
</trkpt>
<trkpt lat="-27.274439" lon="151.290064">
  <ele>343.0</ele>
  <time>2026-09-01T01:11:03Z</time>
  <course>0.0</course>
  <speed>0.0</speed>
  <fix>3d</fix>
</trkpt>
<trkpt lat="-27.274439" lon="151.290064">
  <ele>343.04</ele>
  <time>2026-09-01T01:11:03Z</time>
  <course>146.92</course>
  <speed>0.0</speed>
  <fix>3d</fix>
</trkpt>
<trkpt lat="-27.274439" lon="151.290064">
  <ele>343.0</ele>
  <time>2026-09-01T01:11:03Z</time>
  <course>0.0</course>
  <speed>0.0</speed>
  <fix>3d</fix>
</trkpt>
<trkpt lat="-27.274439" lon="151.290064">
  <ele>343.04</ele>
  <time>2026-09-01T01:11:03Z</time>
  <course>146.89</course>
  <speed>0.0</speed>
  <fix>3d</fix>
</trkpt>
<trkpt lat="-27.274439" lon="151.290064">
  <ele>343.0</ele>
  <time>2026-09-01T01:11:03Z</time>
  <course>0.0</course>
  <speed>0.0</speed>
  <fix>3d</fix>
</trkpt>
<trkpt lat="-27.274439" lon="151.290064">
  <ele>343.03</ele>
  <time>2026-09-01T01:11:03Z</time>
  <course>146.87</course>
  <speed>0.0</speed>
  <fix>3d</fix>
</trkpt>
<trkpt lat="-27.274439" lon="151.290064">
  <ele>343.0</ele>
  <time>2026-09-01T01:11:03Z</time>
  <course>0.0</course>
  <speed>0.0</speed>
  <fix>3d</fix>
</trkpt>
<trkpt lat="-27.274439" lon="151.290064">
  <ele>343.04</ele>
  <time>2026-09-01T01:11:03Z</time>
  <course>146.84</course>
  <speed>0.01</speed>
  <fix>3d</fix>
</trkpt>
<trkpt lat="-27.274439" lon="151.290064">
  <ele>343.0</ele>
  <time>2026-09-01T01:11:03Z</time>
  <course>0.0</course>
  <speed>0.0</speed>
  <fix>3d</fix>
</trkpt>
<trkpt lat="-27.274439" lon="151.290064">
  <ele>343.02</ele>
  <time>2026-09-01T01:11:03Z</time>
  <course>146.82</course>
  <speed>0.01</speed>
  <fix>3d</fix>
</trkpt>
<trkpt lat="-27.274439" lon="151.290064">
  <ele>343.0</ele>
  <time>2026-09-01T01:11:03Z</time>
  <course>0.0</course>
  <speed>0.0</speed>
  <fix>3d</fix>
</trkpt>
<trkpt lat="-27.274439" lon="151.290064">
  <ele>343.02</ele>
  <time>2026-09-01T01:11:03Z</time>
  <course>146.79</course>
  <speed>0.01</speed>
  <fix>3d</fix>
</trkpt>
<trkpt lat="-27.274439" lon="151.290064">
  <ele>343.0</ele>
  <time>2026-09-01T01:11:03Z</time>
  <course>0.0</course>
  <speed>0.0</speed>
  <fix>3d</fix>
</trkpt>
<trkpt lat="-27.274439" lon="151.2900641">
  <ele>343.03</ele>
  <time>2026-09-01T01:11:03Z</time>
  <course>146.77</course>
  <speed>0.01</speed>
  <fix>3d</fix>
</trkpt>
<trkpt lat="-27.274439" lon="151.290064">
  <ele>343.0</ele>
  <time>2026-09-01T01:11:03Z</time>
  <course>0.0</course>
  <speed>0.0</speed>
  <fix>3d</fix>
</trkpt>
<trkpt lat="-27.274439" lon="151.2900641">
  <ele>343.05</ele>
  <time>2026-09-01T01:11:03Z</time>
  <course>146.74</course>
  <speed>0.01</speed>
  <fix>3d</fix>
</trkpt>
<trkpt lat="-27.274439" lon="151.290064">
  <ele>343.0</ele>
  <time>2026-09-01T01:11:03Z</time>
  <course>0.0</course>
  <speed>0.0</speed>
  <fix>3d</fix>
</trkpt>
<trkpt lat="-27.274439" lon="151.2900641">
  <ele>343.03</ele>
  <time>2026-09-01T01:11:03Z</time>
  <course>146.72</course>
  <speed>0.01</speed>
  <fix>3d</fix>
</trkpt>
<trkpt lat="-27.274439" lon="151.290064">
  <ele>343.0</ele>
  <time>2026-09-01T01:11:03Z</time>
  <course>0.0</course>
  <speed>0.0</speed>
  <fix>3d</fix>
</trkpt>
<trkpt lat="-27.274439" lon="151.2900641">
  <ele>343.01</ele>
  <time>2026-09-01T01:11:03Z</time>
  <course>146.69</course>
  <speed>0.01</speed>
  <fix>3d</fix>
</trkpt>
<trkpt lat="-27.274439" lon="151.290064">
  <ele>343.0</ele>
  <time>2026-09-01T01:11:03Z</time>
  <course>0.0</course>
  <speed>0.0</speed>
  <fix>3d</fix>
</trkpt>
<trkpt lat="-27.274439" lon="151.2900641">
  <ele>343.01</ele>
  <time>2026-09-01T01:11:03Z</time>
  <course>146.67</course>
  <speed>0.01</speed>
  <fix>3d</fix>
</trkpt>
<trkpt lat="-27.274439" lon="151.290064">
  <ele>343.0</ele>
  <time>2026-09-01T01:11:03Z</time>
  <course>0.0</course>
  <speed>0.0</speed>
  <fix>3d</fix>
</trkpt>
<trkpt lat="-27.274439" lon="151.2900641">
  <ele>343.01</ele>
  <time>2026-09-01T01:11:03Z</time>
  <course>146.64</course>
  <speed>0.01</speed>
  <fix>3d</fix>
</trkpt>
<trkpt lat="-27.274439" lon="151.290064">
  <ele>343.0</ele>
  <time>2026-09-01T01:11:03Z</time>
  <course>0.0</course>
  <speed>0.0</speed>
  <fix>3d</fix>
</trkpt>
<trkpt lat="-27.274439" lon="151.2900641">
  <ele>343.02</ele>
  <time>2026-09-01T01:11:03Z</time>
  <course>146.61</course>
  <speed>0.02</speed>
  <fix>3d</fix>
</trkpt>
<trkpt lat="-27.274439" lon="151.290064">
  <ele>343.0</ele>
  <time>2026-09-01T01:11:03Z</time>
  <course>0.0</course>
  <speed>0.0</speed>
  <fix>3d</fix>
</trkpt>
<trkpt lat="-27.274439" lon="151.2900641">
  <ele>343.01</ele>
  <time>2026-09-01T01:11:03Z</time>
  <course>146.58</course>
  <speed>0.02</speed>
  <fix>3d</fix>
</trkpt>
<trkpt lat="-27.274439" lon="151.290064">
  <ele>343.0</ele>
  <time>2026-09-01T01:11:03Z</time>
  <course>0.0</course>
  <speed>0.0</speed>
  <fix>3d</fix>
</trkpt>
<trkpt lat="-27.274439" lon="151.2900641">
  <ele>343.02</ele>
  <time>2026-09-01T01:11:03Z</time>
  <course>146.56</course>
  <speed>0.02</speed>
  <fix>3d</fix>
</trkpt>
<trkpt lat="-27.274439" lon="151.290064">
  <ele>343.0</ele>
  <time>2026-09-01T01:11:03Z</time>
  <course>0.0</course>
  <speed>0.0</speed>
  <fix>3d</fix>
</trkpt>
<trkpt lat="-27.274439" lon="151.2900641">
  <ele>343.01</ele>
  <time>2026-09-01T01:11:03Z</time>
  <course>146.53</course>
  <speed>0.02</speed>
  <fix>3d</fix>
</trkpt>
<trkpt lat="-27.274439" lon="151.290064">
  <ele>343.0</ele>
  <time>2026-09-01T01:11:03Z</time>
  <course>0.0</course>
  <speed>0.0</speed>
  <fix>3d</fix>
</trkpt>
<trkpt lat="-27.274439" lon="151.2900641">
  <ele>343.0</ele>
  <time>2026-09-01T01:11:03Z</time>
  <course>146.51</course>
  <speed>0.02</speed>
  <fix>3d</fix>
</trkpt>
<trkpt lat="-27.274439" lon="151.290064">
  <ele>343.0</ele>
  <time>2026-09-01T01:11:03Z</time>
  <course>0.0</course>
  <speed>0.0</speed>
  <fix>3d</fix>
</trkpt>
<trkpt lat="-27.274439" lon="151.2900642">
  <ele>343.01</ele>
  <time>2026-09-01T01:11:03Z</time>
  <course>146.48</course>
  <speed>0.02</speed>
  <fix>3d</fix>
</trkpt>
<trkpt lat="-27.274439" lon="151.290064">
  <ele>343.0</ele>
  <time>2026-09-01T01:11:03Z</time>
  <course>0.0</course>
  <speed>0.0</speed>
  <fix>3d</fix>
</trkpt>
<trkpt lat="-27.274439" lon="151.2900642">
  <ele>343.0</ele>
  <time>2026-09-01T01:11:03Z</time>
  <course>146.45</course>
  <speed>0.02</speed>
  <fix>3d</fix>
</trkpt>
<trkpt lat="-27.274439" lon="151.290064">
  <ele>343.0</ele>
  <time>2026-09-01T01:11:03Z</time>
  <course>0.0</course>
  <speed>0.0</speed>
  <fix>3d</fix>
</trkpt>
<trkpt lat="-27.274439" lon="151.2900642">
  <ele>343.03</ele>
  <time>2026-09-01T01:11:03Z</time>
  <course>146.43</course>
  <speed>0.02</speed>
  <fix>3d</fix>
</trkpt>
<trkpt lat="-27.274439" lon="151.290064">
  <ele>343.0</ele>
  <time>2026-09-01T01:11:03Z</time>
  <course>0.0</course>
  <speed>0.0</speed>
  <fix>3d</fix>
</trkpt>
<trkpt lat="-27.274439" lon="151.2900641">
  <ele>343.03</ele>
  <time>2026-09-01T01:11:03Z</time>
  <course>146.4</course>
  <speed>0.02</speed>
  <fix>3d</fix>
</trkpt>
<trkpt lat="-27.274439" lon="151.290064">
  <ele>343.0</ele>
  <time>2026-09-01T01:11:03Z</time>
  <course>0.0</course>
  <speed>0.0</speed>
  <fix>3d</fix>
</trkpt>
<trkpt lat="-27.274439" lon="151.2900642">
  <ele>343.02</ele>
  <time>2026-09-01T01:11:03Z</time>
  <course>146.37</course>
  <speed>0.02</speed>
  <fix>3d</fix>
</trkpt>
<trkpt lat="-27.274439" lon="151.290064">
  <ele>343.0</ele>
  <time>2026-09-01T01:11:03Z</time>
  <course>0.0</course>
  <speed>0.0</speed>
  <fix>3d</fix>
</trkpt>
<trkpt lat="-27.274439" lon="151.2900642">
  <ele>343.02</ele>
  <time>2026-09-01T01:11:03Z</time>
  <course>146.35</course>
  <speed>0.02</speed>
  <fix>3d</fix>
</trkpt>
<trkpt lat="-27.274439" lon="151.290064">
  <ele>343.0</ele>
  <time>2026-09-01T01:11:03Z</time>
  <course>0.0</course>
  <speed>0.0</speed>
  <fix>3d</fix>
</trkpt>
<trkpt lat="-27.274439" lon="151.2900642">
  <ele>343.03</ele>
  <time>2026-09-01T01:11:03Z</time>
  <course>146.32</course>
  <speed>0.02</speed>
  <fix>3d</fix>
</trkpt>
<trkpt lat="-27.274439" lon="151.290064">
  <ele>343.0</ele>
  <time>2026-09-01T01:11:03Z</time>
  <course>0.0</course>
  <speed>0.0</speed>
  <fix>3d</fix>
</trkpt>
<trkpt lat="-27.274439" lon="151.2900642">
  <ele>343.03</ele>
  <time>2026-09-01T01:11:03Z</time>
  <course>146.3</course>
  <speed>0.02</speed>
  <fix>3d</fix>
</trkpt>
<trkpt lat="-27.274439" lon="151.290064">
  <ele>343.0</ele>
  <time>2026-09-01T01:11:03Z</time>
  <course>0.0</course>
  <speed>0.0</speed>
  <fix>3d</fix>
</trkpt>
<trkpt lat="-27.274439" lon="151.2900642">
  <ele>343.02</ele>
  <time>2026-09-01T01:11:03Z</time>
  <course>146.27</course>
  <speed>0.02</speed>
  <fix>3d</fix>
</trkpt>
<trkpt lat="-27.274439" lon="151.290064">
  <ele>343.0</ele>
  <time>2026-09-01T01:11:03Z</time>
  <course>0.0</course>
  <speed>0.0</speed>
  <fix>3d</fix>
</trkpt>
<trkpt lat="-27.274439" lon="151.2900642">
  <ele>343.01</ele>
  <time>2026-09-01T01:11:03Z</time>
  <course>146.24</course>
  <speed>0.02</speed>
  <fix>3d</fix>
</trkpt>
<trkpt lat="-27.274439" lon="151.290064">
  <ele>343.0</ele>
  <time>2026-09-01T01:11:03Z</time>
  <course>0.0</course>
  <speed>0.0</speed>
  <fix>3d</fix>
</trkpt>
<trkpt lat="-27.274439" lon="151.2900642">
  <ele>343.0</ele>
  <time>2026-09-01T01:11:03Z</time>
  <course>146.22</course>
  <speed>0.02</speed>
  <fix>3d</fix>
</trkpt>
<trkpt lat="-27.274439" lon="151.290064">
  <ele>343.0</ele>
  <time>2026-09-01T01:11:03Z</time>
  <course>0.0</course>
  <speed>0.0</speed>
  <fix>3d</fix>
</trkpt>
<trkpt lat="-27.274439" lon="151.2900642">
  <ele>343.0</ele>
  <time>2026-09-01T01:11:03Z</time>
  <course>146.2</course>
  <speed>0.02</speed>
  <fix>3d</fix>
</trkpt>
<trkpt lat="-27.274439" lon="151.290064">
  <ele>343.0</ele>
  <time>2026-09-01T01:11:03Z</time>
  <course>0.0</course>
  <speed>0.0</speed>
  <fix>3d</fix>
</trkpt>
<trkpt lat="-27.274439" lon="151.2900642">
  <ele>343.02</ele>
  <time>2026-09-01T01:11:03Z</time>
  <course>146.17</course>
  <speed>0.02</speed>
  <fix>3d</fix>
</trkpt>
<trkpt lat="-27.274439" lon="151.290064">
  <ele>343.0</ele>
  <time>2026-09-01T01:11:03Z</time>
  <course>0.0</course>
  <speed>0.0</speed>
  <fix>3d</fix>
</trkpt>
<trkpt lat="-27.274439" lon="151.2900642">
  <ele>343.04</ele>
  <time>2026-09-01T01:11:03Z</time>
  <course>146.15</course>
  <speed>0.02</speed>
  <fix>3d</fix>
</trkpt>
<trkpt lat="-27.274439" lon="151.290064">
  <ele>343.0</ele>
  <time>2026-09-01T01:11:03Z</time>
  <course>0.0</course>
  <speed>0.0</speed>
  <fix>3d</fix>
</trkpt>
<trkpt lat="-27.274439" lon="151.2900642">
  <ele>343.05</ele>
  <time>2026-09-01T01:11:03Z</time>
  <course>146.12</course>
  <speed>0.02</speed>
  <fix>3d</fix>
</trkpt>
<trkpt lat="-27.274439" lon="151.290064">
  <ele>343.0</ele>
  <time>2026-09-01T01:11:03Z</time>
  <course>0.0</course>
  <speed>0.0</speed>
  <fix>3d</fix>
</trkpt>
<trkpt lat="-27.274439" lon="151.2900642">
  <ele>343.05</ele>
  <time>2026-09-01T01:11:03Z</time>
  <course>146.1</course>
  <speed>0.02</speed>
  <fix>3d</fix>
</trkpt>
<trkpt lat="-27.274439" lon="151.290064">
  <ele>343.0</ele>
  <time>2026-09-01T01:11:03Z</time>
  <course>0.0</course>
  <speed>0.0</speed>
  <fix>3d</fix>
</trkpt>
<trkpt lat="-27.274439" lon="151.2900642">
  <ele>343.04</ele>
  <time>2026-09-01T01:11:03Z</time>
  <course>146.08</course>
  <speed>0.02</speed>
  <fix>3d</fix>
</trkpt>
<trkpt lat="-27.274439" lon="151.290064">
  <ele>343.0</ele>
  <time>2026-09-01T01:11:03Z</time>
  <course>0.0</course>
  <speed>0.0</speed>
  <fix>3d</fix>
</trkpt>
<trkpt lat="-27.274439" lon="151.2900642">
  <ele>343.03</ele>
  <time>2026-09-01T01:11:03Z</time>
  <course>146.05</course>
  <speed>0.02</speed>
  <fix>3d</fix>
</trkpt>
<trkpt lat="-27.274439" lon="151.290064">
  <ele>343.0</ele>
  <time>2026-09-01T01:11:03Z</time>
  <course>0.0</course>
  <speed>0.0</speed>
  <fix>3d</fix>
</trkpt>
<trkpt lat="-27.274439" lon="151.2900642">
  <ele>343.02</ele>
  <time>2026-09-01T01:11:03Z</time>
  <course>146.03</course>
  <speed>0.02</speed>
  <fix>3d</fix>
</trkpt>
<trkpt lat="-27.274439" lon="151.290064">
  <ele>343.0</ele>
  <time>2026-09-01T01:11:03Z</time>
  <course>0.0</course>
  <speed>0.0</speed>
  <fix>3d</fix>
</trkpt>
<trkpt lat="-27.274439" lon="151.2900642">
  <ele>343.03</ele>
  <time>2026-09-01T01:11:03Z</time>
  <course>146.01</course>
  <speed>0.02</speed>
  <fix>3d</fix>
</trkpt>
<trkpt lat="-27.274439" lon="151.290064">
  <ele>343.0</ele>
  <time>2026-09-01T01:11:03Z</time>
  <course>0.0</course>
  <speed>0.0</speed>
  <fix>3d</fix>
</trkpt>
<trkpt lat="-27.274439" lon="151.2900642">
  <ele>343.04</ele>
  <time>2026-09-01T01:11:03Z</time>
  <course>145.99</course>
  <speed>0.02</speed>
  <fix>3d</fix>
</trkpt>
<trkpt lat="-27.274439" lon="151.290064">
  <ele>343.0</ele>
  <time>2026-09-01T01:11:03Z</time>
  <course>0.0</course>
  <speed>0.0</speed>
  <fix>3d</fix>
</trkpt>
<trkpt lat="-27.274439" lon="151.2900642">
  <ele>343.05</ele>
  <time>2026-09-01T01:11:03Z</time>
  <course>145.96</course>
  <speed>0.02</speed>
  <fix>3d</fix>
</trkpt>
<trkpt lat="-27.274439" lon="151.290064">
  <ele>343.0</ele>
  <time>2026-09-01T01:11:03Z</time>
  <course>0.0</course>
  <speed>0.0</speed>
  <fix>3d</fix>
</trkpt>
<trkpt lat="-27.274439" lon="151.2900642">
  <ele>343.06</ele>
  <time>2026-09-01T01:11:03Z</time>
  <course>145.95</course>
  <speed>0.02</speed>
  <fix>3d</fix>
</trkpt>
<trkpt lat="-27.274439" lon="151.290064">
  <ele>343.0</ele>
  <time>2026-09-01T01:11:03Z</time>
  <course>0.0</course>
  <speed>0.0</speed>
  <fix>3d</fix>
</trkpt>
<trkpt lat="-27.274439" lon="151.2900642">
  <ele>343.03</ele>
  <time>2026-09-01T01:11:03Z</time>
  <course>145.92</course>
  <speed>0.02</speed>
  <fix>3d</fix>
</trkpt>
<trkpt lat="-27.274439" lon="151.290064">
  <ele>343.0</ele>
  <time>2026-09-01T01:11:03Z</time>
  <course>0.0</course>
  <speed>0.0</speed>
  <fix>3d</fix>
</trkpt>
<trkpt lat="-27.274439" lon="151.2900642">
  <ele>343.02</ele>
  <time>2026-09-01T01:11:03Z</time>
  <course>145.9</course>
  <speed>0.02</speed>
  <fix>3d</fix>
</trkpt>
<trkpt lat="-27.274439" lon="151.290064">
  <ele>343.0</ele>
  <time>2026-09-01T01:11:03Z</time>
  <course>0.0</course>
  <speed>0.0</speed>
  <fix>3d</fix>
</trkpt>
<trkpt lat="-27.274439" lon="151.2900642">
  <ele>343.01</ele>
  <time>2026-09-01T01:11:03Z</time>
  <course>145.88</course>
  <speed>0.03</speed>
  <fix>3d</fix>
</trkpt>
<trkpt lat="-27.274439" lon="151.290064">
  <ele>343.0</ele>
  <time>2026-09-01T01:11:03Z</time>
  <course>0.0</course>
  <speed>0.0</speed>
  <fix>3d</fix>
</trkpt>
<trkpt lat="-27.274439" lon="151.2900642">
  <ele>343.01</ele>
  <time>2026-09-01T01:11:03Z</time>
  <course>145.86</course>
  <speed>0.02</speed>
  <fix>3d</fix>
</trkpt>
<trkpt lat="-27.274439" lon="151.290064">
  <ele>343.0</ele>
  <time>2026-09-01T01:11:03Z</time>
  <course>0.0</course>
  <speed>0.0</speed>
  <fix>3d</fix>
</trkpt>
<trkpt lat="-27.274439" lon="151.2900642">
  <ele>343.03</ele>
  <time>2026-09-01T01:11:03Z</time>
  <course>145.84</course>
  <speed>0.03</speed>
  <fix>3d</fix>
</trkpt>
<trkpt lat="-27.274439" lon="151.290064">
  <ele>343.0</ele>
  <time>2026-09-01T01:11:03Z</time>
  <course>0.0</course>
  <speed>0.0</speed>
  <fix>3d</fix>
</trkpt>
<trkpt lat="-27.274439" lon="151.2900642">
  <ele>343.05</ele>
  <time>2026-09-01T01:11:03Z</time>
  <course>145.83</course>
  <speed>0.02</speed>
  <fix>3d</fix>
</trkpt>
<trkpt lat="-27.274439" lon="151.290064">
  <ele>343.0</ele>
  <time>2026-09-01T01:11:03Z</time>
  <course>0.0</course>
  <speed>0.0</speed>
  <fix>3d</fix>
</trkpt>
<trkpt lat="-27.274439" lon="151.2900642">
  <ele>343.03</ele>
  <time>2026-09-01T01:11:03Z</time>
  <course>145.81</course>
  <speed>0.03</speed>
  <fix>3d</fix>
</trkpt>
<trkpt lat="-27.274439" lon="151.290064">
  <ele>343.0</ele>
  <time>2026-09-01T01:11:03Z</time>
  <course>0.0</course>
  <speed>0.0</speed>
  <fix>3d</fix>
</trkpt>
<trkpt lat="-27.274439" lon="151.2900642">
  <ele>343.03</ele>
  <time>2026-09-01T01:11:03Z</time>
  <course>145.79</course>
  <speed>0.02</speed>
  <fix>3d</fix>
</trkpt>
<trkpt lat="-27.274439" lon="151.290064">
  <ele>343.0</ele>
  <time>2026-09-01T01:11:03Z</time>
  <course>0.0</course>
  <speed>0.0</speed>
  <fix>3d</fix>
</trkpt>
<trkpt lat="-27.274439" lon="151.2900642">
  <ele>343.02</ele>
  <time>2026-09-01T01:11:03Z</time>
  <course>145.77</course>
  <speed>0.03</speed>
  <fix>3d</fix>
</trkpt>
<trkpt lat="-27.274439" lon="151.290064">
  <ele>343.0</ele>
  <time>2026-09-01T01:11:03Z</time>
  <course>0.0</course>
  <speed>0.0</speed>
  <fix>3d</fix>
</trkpt>
<trkpt lat="-27.274439" lon="151.2900642">
  <ele>343.01</ele>
  <time>2026-09-01T01:11:03Z</time>
  <course>145.75</course>
  <speed>0.02</speed>
  <fix>3d</fix>
</trkpt>
<trkpt lat="-27.274439" lon="151.290064">
  <ele>343.0</ele>
  <time>2026-09-01T01:11:03Z</time>
  <course>0.0</course>
  <speed>0.0</speed>
  <fix>3d</fix>
</trkpt>
<trkpt lat="-27.274439" lon="151.2900642">
  <ele>342.99</ele>
  <time>2026-09-01T01:11:03Z</time>
  <course>145.74</course>
  <speed>0.03</speed>
  <fix>3d</fix>
</trkpt>
<trkpt lat="-27.274439" lon="151.290064">
  <ele>343.0</ele>
  <time>2026-09-01T01:11:03Z</time>
  <course>0.0</course>
  <speed>0.0</speed>
  <fix>3d</fix>
</trkpt>
<trkpt lat="-27.274439" lon="151.2900642">
  <ele>342.99</ele>
  <time>2026-09-01T01:11:03Z</time>
  <course>145.72</course>
  <speed>0.02</speed>
  <fix>3d</fix>
</trkpt>
<trkpt lat="-27.274439" lon="151.290064">
  <ele>343.0</ele>
  <time>2026-09-01T01:11:03Z</time>
  <course>0.0</course>
  <speed>0.0</speed>
  <fix>3d</fix>
</trkpt>
<trkpt lat="-27.274439" lon="151.2900642">
  <ele>343.0</ele>
  <time>2026-09-01T01:11:03Z</time>
  <course>145.7</course>
  <speed>0.03</speed>
  <fix>3d</fix>
</trkpt>
<trkpt lat="-27.274439" lon="151.290064">
  <ele>343.0</ele>
  <time>2026-09-01T01:11:03Z</time>
  <course>0.0</course>
  <speed>0.0</speed>
  <fix>3d</fix>
</trkpt>
<trkpt lat="-27.274439" lon="151.2900642">
  <ele>342.99</ele>
  <time>2026-09-01T01:11:03Z</time>
  <course>145.69</course>
  <speed>0.02</speed>
  <fix>3d</fix>
</trkpt>
<trkpt lat="-27.274439" lon="151.290064">
  <ele>343.0</ele>
  <time>2026-09-01T01:11:03Z</time>
  <course>0.0</course>
  <speed>0.0</speed>
  <fix>3d</fix>
</trkpt>
<trkpt lat="-27.274439" lon="151.2900642">
  <ele>343.0</ele>
  <time>2026-09-01T01:11:03Z</time>
  <course>145.67</course>
  <speed>0.03</speed>
  <fix>3d</fix>
</trkpt>
<trkpt lat="-27.274439" lon="151.290064">
  <ele>343.0</ele>
  <time>2026-09-01T01:11:03Z</time>
  <course>0.0</course>
  <speed>0.0</speed>
  <fix>3d</fix>
</trkpt>
<trkpt lat="-27.274439" lon="151.2900642">
  <ele>343.01</ele>
  <time>2026-09-01T01:11:03Z</time>
  <course>145.66</course>
  <speed>0.02</speed>
  <fix>3d</fix>
</trkpt>
<trkpt lat="-27.274439" lon="151.290064">
  <ele>343.0</ele>
  <time>2026-09-01T01:11:03Z</time>
  <course>0.0</course>
  <speed>0.0</speed>
  <fix>3d</fix>
</trkpt>
<trkpt lat="-27.274439" lon="151.2900642">
  <ele>343.0</ele>
  <time>2026-09-01T01:11:04Z</time>
  <course>145.62</course>
  <speed>0.03</speed>
  <fix>3d</fix>
</trkpt>
<trkpt lat="-27.274439" lon="151.290064">
  <ele>343.0</ele>
  <time>2026-09-01T01:11:04Z</time>
  <course>0.0</course>
  <speed>0.0</speed>
  <fix>3d</fix>
</trkpt>
<trkpt lat="-27.274439" lon="151.2900642">
  <ele>343.0</ele>
  <time>2026-09-01T01:11:04Z</time>
  <course>145.61</course>
  <speed>0.03</speed>
  <fix>3d</fix>
</trkpt>
<trkpt lat="-27.274439" lon="151.290064">
  <ele>343.0</ele>
  <time>2026-09-01T01:11:04Z</time>
  <course>0.0</course>
  <speed>0.0</speed>
  <fix>3d</fix>
</trkpt>
<trkpt lat="-27.274439" lon="151.2900642">
  <ele>342.99</ele>
  <time>2026-09-01T01:11:04Z</time>
  <course>145.6</course>
  <speed>0.03</speed>
  <fix>3d</fix>
</trkpt>
<trkpt lat="-27.274439" lon="151.290064">
  <ele>343.0</ele>
  <time>2026-09-01T01:11:04Z</time>
  <course>0.0</course>
  <speed>0.0</speed>
  <fix>3d</fix>
</trkpt>
<trkpt lat="-27.274439" lon="151.2900642">
  <ele>342.99</ele>
  <time>2026-09-01T01:11:04Z</time>
  <course>145.59</course>
  <speed>0.03</speed>
  <fix>3d</fix>
</trkpt>
<trkpt lat="-27.274439" lon="151.290064">
  <ele>343.0</ele>
  <time>2026-09-01T01:11:04Z</time>
  <course>0.0</course>
  <speed>0.0</speed>
  <fix>3d</fix>
</trkpt>
<trkpt lat="-27.274439" lon="151.2900642">
  <ele>343.02</ele>
  <time>2026-09-01T01:11:04Z</time>
  <course>145.57</course>
  <speed>0.03</speed>
  <fix>3d</fix>
</trkpt>
<trkpt lat="-27.274439" lon="151.290064">
  <ele>343.0</ele>
  <time>2026-09-01T01:11:04Z</time>
  <course>0.0</course>
  <speed>0.0</speed>
  <fix>3d</fix>
</trkpt>
<trkpt lat="-27.274439" lon="151.2900642">
  <ele>343.01</ele>
  <time>2026-09-01T01:11:04Z</time>
  <course>145.56</course>
  <speed>0.03</speed>
  <fix>3d</fix>
</trkpt>
<trkpt lat="-27.274439" lon="151.290064">
  <ele>343.0</ele>
  <time>2026-09-01T01:11:04Z</time>
  <course>0.0</course>
  <speed>0.0</speed>
  <fix>3d</fix>
</trkpt>
<trkpt lat="-27.274439" lon="151.2900642">
  <ele>343.01</ele>
  <time>2026-09-01T01:11:04Z</time>
  <course>145.55</course>
  <speed>0.03</speed>
  <fix>3d</fix>
</trkpt>
<trkpt lat="-27.274439" lon="151.290064">
  <ele>343.0</ele>
  <time>2026-09-01T01:11:04Z</time>
  <course>0.0</course>
  <speed>0.0</speed>
  <fix>3d</fix>
</trkpt>
<trkpt lat="-27.274439" lon="151.2900642">
  <ele>342.98</ele>
  <time>2026-09-01T01:11:04Z</time>
  <course>137.48</course>
  <speed>0.02</speed>
  <fix>3d</fix>
</trkpt>
<trkpt lat="-27.274439" lon="151.290064">
  <ele>343.0</ele>
  <time>2026-09-01T01:11:04Z</time>
  <course>0.0</course>
  <speed>0.0</speed>
  <fix>3d</fix>
</trkpt>
<trkpt lat="-27.274439" lon="151.2900642">
  <ele>342.97</ele>
  <time>2026-09-01T01:11:04Z</time>
  <course>128.37</course>
  <speed>0.01</speed>
  <fix>3d</fix>
</trkpt>
<trkpt lat="-27.274439" lon="151.290064">
  <ele>343.0</ele>
  <time>2026-09-01T01:11:04Z</time>
  <course>0.0</course>
  <speed>0.0</speed>
  <fix>3d</fix>
</trkpt>
<trkpt lat="-27.274439" lon="151.2900641">
  <ele>342.98</ele>
  <time>2026-09-01T01:11:04Z</time>
  <course>119.29</course>
  <speed>0.01</speed>
  <fix>3d</fix>
</trkpt>
<trkpt lat="-27.274439" lon="151.290064">
  <ele>343.0</ele>
  <time>2026-09-01T01:11:04Z</time>
  <course>0.0</course>
  <speed>0.0</speed>
  <fix>3d</fix>
</trkpt>
<trkpt lat="-27.274439" lon="151.290064">
  <ele>342.99</ele>
  <time>2026-09-01T01:11:04Z</time>
  <course>110.23</course>
  <speed>0.01</speed>
  <fix>3d</fix>
</trkpt>
<trkpt lat="-27.274439" lon="151.290064">
  <ele>343.0</ele>
  <time>2026-09-01T01:11:04Z</time>
  <course>0.0</course>
  <speed>0.0</speed>
  <fix>3d</fix>
</trkpt>
<trkpt lat="-27.2744391" lon="151.290064">
  <ele>343.0</ele>
  <time>2026-09-01T01:11:04Z</time>
  <course>101.18</course>
  <speed>0.01</speed>
  <fix>3d</fix>
</trkpt>
<trkpt lat="-27.274439" lon="151.290064">
  <ele>343.0</ele>
  <time>2026-09-01T01:11:04Z</time>
  <course>0.0</course>
  <speed>0.0</speed>
  <fix>3d</fix>
</trkpt>
<trkpt lat="-27.2744391" lon="151.290064">
  <ele>343.01</ele>
  <time>2026-09-01T01:11:04Z</time>
  <course>92.16</course>
  <speed>0.02</speed>
  <fix>3d</fix>
</trkpt>
<trkpt lat="-27.274439" lon="151.290064">
  <ele>343.0</ele>
  <time>2026-09-01T01:11:04Z</time>
  <course>0.0</course>
  <speed>0.0</speed>
  <fix>3d</fix>
</trkpt>
<trkpt lat="-27.2744391" lon="151.2900641">
  <ele>343.02</ele>
  <time>2026-09-01T01:11:04Z</time>
  <course>83.14</course>
  <speed>0.02</speed>
  <fix>3d</fix>
</trkpt>
<trkpt lat="-27.274439" lon="151.290064">
  <ele>343.0</ele>
  <time>2026-09-01T01:11:04Z</time>
  <course>0.0</course>
  <speed>0.0</speed>
  <fix>3d</fix>
</trkpt>
<trkpt lat="-27.274439" lon="151.290064">
  <ele>343.0</ele>
  <time>2026-09-01T01:11:04Z</time>
  <course>325.88</course>
  <speed>0.0</speed>
  <fix>3d</fix>
</trkpt>
<trkpt lat="-27.274439" lon="151.290064">
  <ele>343.0</ele>
  <time>2026-09-01T01:11:04Z</time>
  <course>324.43</course>
  <speed>0.0</speed>
  <fix>3d</fix>
</trkpt>
<trkpt lat="-27.274439" lon="151.290064">
  <ele>343.0</ele>
  <time>2026-09-01T01:11:04Z</time>
  <course>321.86</course>
  <speed>0.0</speed>
  <fix>3d</fix>
</trkpt>
<trkpt lat="-27.274439" lon="151.290064">
  <ele>343.0</ele>
  <time>2026-09-01T01:11:04Z</time>
  <course>295.0</course>
  <speed>0.0</speed>
  <fix>3d</fix>
</trkpt>
<trkpt lat="-27.274439" lon="151.290064">
  <ele>343.0</ele>
  <time>2026-09-01T01:11:04Z</time>
  <course>290.72</course>
  <speed>0.0</speed>
  <fix>3d</fix>
</trkpt>
<trkpt lat="-27.274439" lon="151.290064">
  <ele>343.0</ele>
  <time>2026-09-01T01:11:04Z</time>
  <course>284.84</course>
  <speed>0.0</speed>
  <fix>3d</fix>
</trkpt>
<trkpt lat="-27.274439" lon="151.290064">
  <ele>343.0</ele>
  <time>2026-09-01T01:11:04Z</time>
  <course>277.79</course>
  <speed>0.0</speed>
  <fix>3d</fix>
</trkpt>
<trkpt lat="-27.274439" lon="151.290064">
  <ele>343.0</ele>
  <time>2026-09-01T01:11:04Z</time>
  <course>269.55</course>
  <speed>0.0</speed>
  <fix>3d</fix>
</trkpt>
<trkpt lat="-27.274439" lon="151.290064">
  <ele>343.0</ele>
  <time>2026-09-01T01:11:04Z</time>
  <course>262.16</course>
  <speed>0.9176055797563569</speed>
  <fix>3d</fix>
</trkpt>
<trkpt lat="-27.274439" lon="151.290064">
  <ele>343.0</ele>
  <time>2026-09-01T01:11:04Z</time>
  <course>0.0</course>
  <speed>0.0</speed>
  <fix>3d</fix>
</trkpt>
<trkpt lat="-27.274439" lon="151.290064">
  <ele>343.0</ele>
  <time>2026-09-01T01:11:04Z</time>
  <course>256.4</course>
  <speed>0.9403190947758107</speed>
  <fix>3d</fix>
</trkpt>
<trkpt lat="-27.274439" lon="151.290064">
  <ele>343.0</ele>
  <time>2026-09-01T01:11:04Z</time>
  <course>0.0</course>
  <speed>0.0</speed>
  <fix>3d</fix>
</trkpt>
<trkpt lat="-27.274439" lon="151.290064">
  <ele>343.0</ele>
  <time>2026-09-01T01:11:04Z</time>
  <course>249.45</course>
  <speed>0.756042326857432</speed>
  <fix>3d</fix>
</trkpt>
<trkpt lat="-27.274439" lon="151.290064">
  <ele>343.0</ele>
  <time>2026-09-01T01:11:04Z</time>
  <course>0.0</course>
  <speed>0.0</speed>
  <fix>3d</fix>
</trkpt>
<trkpt lat="-27.274439" lon="151.290064">
  <ele>343.0</ele>
  <time>2026-09-01T01:11:04Z</time>
  <course>241.79</course>
  <speed>0.6596969000988256</speed>
  <fix>3d</fix>
</trkpt>
<trkpt lat="-27.274439" lon="151.290064">
  <ele>343.0</ele>
  <time>2026-09-01T01:11:04Z</time>
  <course>0.0</course>
  <speed>0.0</speed>
  <fix>3d</fix>
</trkpt>
<trkpt lat="-27.274439" lon="151.290064">
  <ele>343.0</ele>
  <time>2026-09-01T01:11:04Z</time>
  <course>233.59</course>
  <speed>0.6618912297349165</speed>
  <fix>3d</fix>
</trkpt>
<trkpt lat="-27.274439" lon="151.290064">
  <ele>343.0</ele>
  <time>2026-09-01T01:11:04Z</time>
  <course>0.0</course>
  <speed>0.0</speed>
  <fix>3d</fix>
</trkpt>
<trkpt lat="-27.274439" lon="151.290064">
  <ele>343.0</ele>
  <time>2026-09-01T01:11:04Z</time>
  <course>225.02</course>
  <speed>0.7034202158027589</speed>
  <fix>3d</fix>
</trkpt>
<trkpt lat="-27.274439" lon="151.290064">
  <ele>343.0</ele>
  <time>2026-09-01T01:11:04Z</time>
  <course>0.0</course>
  <speed>0.0</speed>
  <fix>3d</fix>
</trkpt>
<trkpt lat="-27.274439" lon="151.290064">
  <ele>343.0</ele>
  <time>2026-09-01T01:11:04Z</time>
  <course>216.17</course>
  <speed>0.7539230729988305</speed>
  <fix>3d</fix>
</trkpt>
<trkpt lat="-27.274439" lon="151.290064">
  <ele>343.0</ele>
  <time>2026-09-01T01:11:04Z</time>
  <course>0.0</course>
  <speed>0.0</speed>
  <fix>3d</fix>
</trkpt>
<trkpt lat="-27.274439" lon="151.290064">
  <ele>343.0</ele>
  <time>2026-09-01T01:11:04Z</time>
  <course>207.13</course>
  <speed>0.8052949770115296</speed>
  <fix>3d</fix>
</trkpt>
<trkpt lat="-27.274439" lon="151.290064">
  <ele>343.0</ele>
  <time>2026-09-01T01:11:04Z</time>
  <course>0.0</course>
  <speed>0.0</speed>
  <fix>3d</fix>
</trkpt>
<trkpt lat="-27.274439" lon="151.290064">
  <ele>343.0</ele>
  <time>2026-09-01T01:11:04Z</time>
  <course>197.95</course>
  <speed>0.8453401682163222</speed>
  <fix>3d</fix>
</trkpt>
<trkpt lat="-27.274439" lon="151.290064">
  <ele>343.0</ele>
  <time>2026-09-01T01:11:04Z</time>
  <course>0.0</course>
  <speed>0.0</speed>
  <fix>3d</fix>
</trkpt>
<trkpt lat="-27.274439" lon="151.290064">
  <ele>343.0</ele>
  <time>2026-09-01T01:11:04Z</time>
  <course>188.67</course>
  <speed>0.878179936004006</speed>
  <fix>3d</fix>
</trkpt>
<trkpt lat="-27.274439" lon="151.290064">
  <ele>343.0</ele>
  <time>2026-09-01T01:11:04Z</time>
  <course>0.0</course>
  <speed>0.0</speed>
  <fix>3d</fix>
</trkpt>
<trkpt lat="-27.274439" lon="151.290064">
  <ele>343.0</ele>
  <time>2026-09-01T01:11:04Z</time>
  <course>179.31</course>
  <speed>0.8848163651289458</speed>
  <fix>3d</fix>
</trkpt>
<trkpt lat="-27.274439" lon="151.290064">
  <ele>343.0</ele>
  <time>2026-09-01T01:11:04Z</time>
  <course>0.0</course>
  <speed>0.0</speed>
  <fix>3d</fix>
</trkpt>
<trkpt lat="-27.274439" lon="151.290064">
  <ele>343.0</ele>
  <time>2026-09-01T01:11:04Z</time>
  <course>169.93</course>
  <speed>0.9140021881811882</speed>
  <fix>3d</fix>
</trkpt>
<trkpt lat="-27.274439" lon="151.290064">
  <ele>343.0</ele>
  <time>2026-09-01T01:11:04Z</time>
  <course>0.0</course>
  <speed>0.0</speed>
  <fix>3d</fix>
</trkpt>
<trkpt lat="-27.274439" lon="151.290064">
  <ele>343.0</ele>
  <time>2026-09-01T01:11:04Z</time>
  <course>161.9</course>
  <speed>0.9219544457292888</speed>
  <fix>3d</fix>
</trkpt>
<trkpt lat="-27.274439" lon="151.290064">
  <ele>343.0</ele>
  <time>2026-09-01T01:11:04Z</time>
  <course>0.0</course>
  <speed>0.0</speed>
  <fix>3d</fix>
</trkpt>
<trkpt lat="-27.274439" lon="151.290064">
  <ele>343.0</ele>
  <time>2026-09-01T01:11:04Z</time>
  <course>158.55</course>
  <speed>0.9411163583744573</speed>
  <fix>3d</fix>
</trkpt>
<trkpt lat="-27.274439" lon="151.290064">
  <ele>343.0</ele>
  <time>2026-09-01T01:11:04Z</time>
  <course>0.0</course>
  <speed>0.0</speed>
  <fix>3d</fix>
</trkpt>
<trkpt lat="-27.274439" lon="151.290064">
  <ele>343.0</ele>
  <time>2026-09-01T01:11:04Z</time>
  <course>157.2</course>
  <speed>0.9546203433826455</speed>
  <fix>3d</fix>
</trkpt>
<trkpt lat="-27.274439" lon="151.290064">
  <ele>343.0</ele>
  <time>2026-09-01T01:11:04Z</time>
  <course>0.0</course>
  <speed>0.0</speed>
  <fix>3d</fix>
</trkpt>
<trkpt lat="-27.274439" lon="151.290064">
  <ele>343.0</ele>
  <time>2026-09-01T01:11:04Z</time>
  <course>156.57</course>
  <speed>0.9642613753542137</speed>
  <fix>3d</fix>
</trkpt>
<trkpt lat="-27.274439" lon="151.290064">
  <ele>343.0</ele>
  <time>2026-09-01T01:11:04Z</time>
  <course>0.0</course>
  <speed>0.0</speed>
  <fix>3d</fix>
</trkpt>
<trkpt lat="-27.274439" lon="151.290064">
  <ele>343.0</ele>
  <time>2026-09-01T01:11:04Z</time>
  <course>156.21</course>
  <speed>0.9602083107326242</speed>
  <fix>3d</fix>
</trkpt>
<trkpt lat="-27.274439" lon="151.290064">
  <ele>343.0</ele>
  <time>2026-09-01T01:11:04Z</time>
  <course>0.0</course>
  <speed>0.0</speed>
  <fix>3d</fix>
</trkpt>
<trkpt lat="-27.274439" lon="151.290064">
  <ele>343.0</ele>
  <time>2026-09-01T01:11:04Z</time>
  <course>155.95</course>
  <speed>0.9689685237405805</speed>
  <fix>3d</fix>
</trkpt>
<trkpt lat="-27.274439" lon="151.290064">
  <ele>343.0</ele>
  <time>2026-09-01T01:11:04Z</time>
  <course>0.0</course>
  <speed>0.0</speed>
  <fix>3d</fix>
</trkpt>
<trkpt lat="-27.274439" lon="151.290064">
  <ele>343.0</ele>
  <time>2026-09-01T01:11:04Z</time>
  <course>155.71</course>
  <speed>0.9800510190801294</speed>
  <fix>3d</fix>
</trkpt>
<trkpt lat="-27.274439" lon="151.290064">
  <ele>343.0</ele>
  <time>2026-09-01T01:11:04Z</time>
  <course>0.0</course>
  <speed>0.0</speed>
  <fix>3d</fix>
</trkpt>
<trkpt lat="-27.274439" lon="151.290064">
  <ele>343.0</ele>
  <time>2026-09-01T01:11:04Z</time>
  <course>155.49</course>
  <speed>0.9972963451251589</speed>
  <fix>3d</fix>
</trkpt>
<trkpt lat="-27.274439" lon="151.290064">
  <ele>343.0</ele>
  <time>2026-09-01T01:11:04Z</time>
  <course>0.0</course>
  <speed>0.0</speed>
  <fix>3d</fix>
</trkpt>
<trkpt lat="-27.274439" lon="151.290064">
  <ele>343.0</ele>
  <time>2026-09-01T01:11:04Z</time>
  <course>155.27</course>
  <speed>1.0113357503816425</speed>
  <fix>3d</fix>
</trkpt>
<trkpt lat="-27.274439" lon="151.290064">
  <ele>343.0</ele>
  <time>2026-09-01T01:11:04Z</time>
  <course>0.0</course>
  <speed>0.0</speed>
  <fix>3d</fix>
</trkpt>
<trkpt lat="-27.274439" lon="151.290064">
  <ele>343.0</ele>
  <time>2026-09-01T01:11:04Z</time>
  <course>155.07</course>
  <speed>1.010198000393982</speed>
  <fix>3d</fix>
</trkpt>
<trkpt lat="-27.274439" lon="151.290064">
  <ele>343.0</ele>
  <time>2026-09-01T01:11:04Z</time>
  <course>0.0</course>
  <speed>0.0</speed>
  <fix>3d</fix>
</trkpt>
<trkpt lat="-27.274439" lon="151.290064">
  <ele>343.0</ele>
  <time>2026-09-01T01:11:04Z</time>
  <course>154.88</course>
  <speed>0.9962429422585637</speed>
  <fix>3d</fix>
</trkpt>
<trkpt lat="-27.274439" lon="151.290064">
  <ele>343.0</ele>
  <time>2026-09-01T01:11:04Z</time>
  <course>0.0</course>
  <speed>0.0</speed>
  <fix>3d</fix>
</trkpt>
<trkpt lat="-27.274439" lon="151.290064">
  <ele>343.0</ele>
  <time>2026-09-01T01:11:04Z</time>
  <course>154.68</course>
  <speed>0.9751410154434076</speed>
  <fix>3d</fix>
</trkpt>
<trkpt lat="-27.274439" lon="151.290064">
  <ele>343.0</ele>
  <time>2026-09-01T01:11:04Z</time>
  <course>0.0</course>
  <speed>0.0</speed>
  <fix>3d</fix>
</trkpt>
<trkpt lat="-27.274439" lon="151.290064">
  <ele>343.0</ele>
  <time>2026-09-01T01:11:04Z</time>
  <course>154.49</course>
  <speed>0.951892851112981</speed>
  <fix>3d</fix>
</trkpt>
<trkpt lat="-27.274439" lon="151.290064">
  <ele>343.0</ele>
  <time>2026-09-01T01:11:04Z</time>
  <course>0.0</course>
  <speed>0.0</speed>
  <fix>3d</fix>
</trkpt>
<trkpt lat="-27.274439" lon="151.290064">
  <ele>343.0</ele>
  <time>2026-09-01T01:11:04Z</time>
  <course>154.29</course>
  <speed>0.9243916918709297</speed>
  <fix>3d</fix>
</trkpt>
<trkpt lat="-27.274439" lon="151.290064">
  <ele>343.0</ele>
  <time>2026-09-01T01:11:04Z</time>
  <course>0.0</course>
  <speed>0.0</speed>
  <fix>3d</fix>
</trkpt>
<trkpt lat="-27.274439" lon="151.290064">
  <ele>343.0</ele>
  <time>2026-09-01T01:11:04Z</time>
  <course>154.09</course>
  <speed>0.8900561780022652</speed>
  <fix>3d</fix>
</trkpt>
<trkpt lat="-27.274439" lon="151.290064">
  <ele>343.0</ele>
  <time>2026-09-01T01:11:04Z</time>
  <course>0.0</course>
  <speed>0.0</speed>
  <fix>3d</fix>
</trkpt>
<trkpt lat="-27.274439" lon="151.290064">
  <ele>343.0</ele>
  <time>2026-09-01T01:11:04Z</time>
  <course>153.88</course>
  <speed>0.8514693182963201</speed>
  <fix>3d</fix>
</trkpt>
<trkpt lat="-27.274439" lon="151.290064">
  <ele>343.0</ele>
  <time>2026-09-01T01:11:04Z</time>
  <course>0.0</course>
  <speed>0.0</speed>
  <fix>3d</fix>
</trkpt>
<trkpt lat="-27.274439" lon="151.290064">
  <ele>343.0</ele>
  <time>2026-09-01T01:11:04Z</time>
  <course>153.67</course>
  <speed>0.8174350127074322</speed>
  <fix>3d</fix>
</trkpt>
<trkpt lat="-27.274439" lon="151.290064">
  <ele>343.0</ele>
  <time>2026-09-01T01:11:04Z</time>
  <course>0.0</course>
  <speed>0.0</speed>
  <fix>3d</fix>
</trkpt>
<trkpt lat="-27.274439" lon="151.290064">
  <ele>343.0</ele>
  <time>2026-09-01T01:11:04Z</time>
  <course>153.46</course>
  <speed>0.7962411694957753</speed>
  <fix>3d</fix>
</trkpt>
<trkpt lat="-27.274439" lon="151.290064">
  <ele>343.0</ele>
  <time>2026-09-01T01:11:04Z</time>
  <course>0.0</course>
  <speed>0.0</speed>
  <fix>3d</fix>
</trkpt>
<trkpt lat="-27.274439" lon="151.290064">
  <ele>343.0</ele>
  <time>2026-09-01T01:11:04Z</time>
  <course>153.24</course>
  <speed>0.7569015788066504</speed>
  <fix>3d</fix>
</trkpt>
<trkpt lat="-27.274439" lon="151.290064">
  <ele>343.0</ele>
  <time>2026-09-01T01:11:04Z</time>
  <course>0.0</course>
  <speed>0.0</speed>
  <fix>3d</fix>
</trkpt>
<trkpt lat="-27.274439" lon="151.2900646">
  <ele>343.04</ele>
  <time>2026-09-01T01:11:04Z</time>
  <course>153.03</course>
  <speed>0.0</speed>
  <fix>3d</fix>
</trkpt>
<trkpt lat="-27.274439" lon="151.290064">
  <ele>343.0</ele>
  <time>2026-09-01T01:11:05Z</time>
  <course>0.0</course>
  <speed>0.0</speed>
  <fix>3d</fix>
</trkpt>
<trkpt lat="-27.2744392" lon="151.2900653">
  <ele>343.03</ele>
  <time>2026-09-01T01:11:05Z</time>
  <course>152.83</course>
  <speed>0.0848528137423857</speed>
  <fix>3d</fix>
</trkpt>
<trkpt lat="-27.274439" lon="151.290064">
  <ele>343.0</ele>
  <time>2026-09-01T01:11:05Z</time>
  <course>0.0</course>
  <speed>0.0</speed>
  <fix>3d</fix>
</trkpt>
<trkpt lat="-27.2744393" lon="151.2900645">
  <ele>343.02</ele>
  <time>2026-09-01T01:11:05Z</time>
  <course>152.57</course>
  <speed>0.08602325267042626</speed>
  <fix>3d</fix>
</trkpt>
<trkpt lat="-27.274439" lon="151.290064">
  <ele>343.0</ele>
  <time>2026-09-01T01:11:05Z</time>
  <course>0.0</course>
  <speed>0.0</speed>
  <fix>3d</fix>
</trkpt>
<trkpt lat="-27.2744392" lon="151.2900642">
  <ele>343.03</ele>
  <time>2026-09-01T01:11:05Z</time>
  <course>152.29</course>
  <speed>0.05830951894845301</speed>
  <fix>3d</fix>
</trkpt>
<trkpt lat="-27.274439" lon="151.290064">
  <ele>343.0</ele>
  <time>2026-09-01T01:11:05Z</time>
  <course>0.0</course>
  <speed>0.0</speed>
  <fix>3d</fix>
</trkpt>
<trkpt lat="-27.2744391" lon="151.2900641">
  <ele>343.06</ele>
  <time>2026-09-01T01:11:05Z</time>
  <course>152.03</course>
  <speed>0.02</speed>
  <fix>3d</fix>
</trkpt>
<trkpt lat="-27.274439" lon="151.290064">
  <ele>343.0</ele>
  <time>2026-09-01T01:11:05Z</time>
  <course>0.0</course>
  <speed>0.0</speed>
  <fix>3d</fix>
</trkpt>
<trkpt lat="-27.274439" lon="151.290064">
  <ele>343.05</ele>
  <time>2026-09-01T01:11:05Z</time>
  <course>151.79</course>
  <speed>0.01</speed>
  <fix>3d</fix>
</trkpt>
<trkpt lat="-27.274439" lon="151.290064">
  <ele>343.0</ele>
  <time>2026-09-01T01:11:05Z</time>
  <course>0.0</course>
  <speed>0.0</speed>
  <fix>3d</fix>
</trkpt>
<trkpt lat="-27.274439" lon="151.290064">
  <ele>343.04</ele>
  <time>2026-09-01T01:11:05Z</time>
  <course>151.57</course>
  <speed>0.01414213562373095</speed>
  <fix>3d</fix>
</trkpt>
<trkpt lat="-27.274439" lon="151.290064">
  <ele>343.0</ele>
  <time>2026-09-01T01:11:05Z</time>
  <course>0.0</course>
  <speed>0.0</speed>
  <fix>3d</fix>
</trkpt>
<trkpt lat="-27.2744389" lon="151.2900639">
  <ele>343.04</ele>
  <time>2026-09-01T01:11:05Z</time>
  <course>151.37</course>
  <speed>0.01414213562373095</speed>
  <fix>3d</fix>
</trkpt>
<trkpt lat="-27.274439" lon="151.290064">
  <ele>343.0</ele>
  <time>2026-09-01T01:11:05Z</time>
  <course>0.0</course>
  <speed>0.0</speed>
  <fix>3d</fix>
</trkpt>
<trkpt lat="-27.2744389" lon="151.2900638">
  <ele>343.05</ele>
  <time>2026-09-01T01:11:05Z</time>
  <course>151.18</course>
  <speed>0.0282842712474619</speed>
  <fix>3d</fix>
</trkpt>
<trkpt lat="-27.274439" lon="151.290064">
  <ele>343.0</ele>
  <time>2026-09-01T01:11:05Z</time>
  <course>0.0</course>
  <speed>0.0</speed>
  <fix>3d</fix>
</trkpt>
<trkpt lat="-27.2744389" lon="151.2900638">
  <ele>343.06</ele>
  <time>2026-09-01T01:11:05Z</time>
  <course>151.01</course>
  <speed>0.0282842712474619</speed>
  <fix>3d</fix>
</trkpt>
<trkpt lat="-27.274439" lon="151.290064">
  <ele>343.0</ele>
  <time>2026-09-01T01:11:05Z</time>
  <course>0.0</course>
  <speed>0.0</speed>
  <fix>3d</fix>
</trkpt>
<trkpt lat="-27.2744389" lon="151.2900638">
  <ele>343.03</ele>
  <time>2026-09-01T01:11:05Z</time>
  <course>150.84</course>
  <speed>0.0282842712474619</speed>
  <fix>3d</fix>
</trkpt>
<trkpt lat="-27.274439" lon="151.290064">
  <ele>343.0</ele>
  <time>2026-09-01T01:11:05Z</time>
  <course>0.0</course>
  <speed>0.0</speed>
  <fix>3d</fix>
</trkpt>
<trkpt lat="-27.2744389" lon="151.2900638">
  <ele>343.04</ele>
  <time>2026-09-01T01:11:05Z</time>
  <course>150.68</course>
  <speed>0.0282842712474619</speed>
  <fix>3d</fix>
</trkpt>
<trkpt lat="-27.274439" lon="151.290064">
  <ele>343.0</ele>
  <time>2026-09-01T01:11:05Z</time>
  <course>0.0</course>
  <speed>0.0</speed>
  <fix>3d</fix>
</trkpt>
<trkpt lat="-27.2744389" lon="151.2900638">
  <ele>343.03</ele>
  <time>2026-09-01T01:11:05Z</time>
  <course>150.52</course>
  <speed>0.022360679774997897</speed>
  <fix>3d</fix>
</trkpt>
<trkpt lat="-27.274439" lon="151.290064">
  <ele>343.0</ele>
  <time>2026-09-01T01:11:05Z</time>
  <course>0.0</course>
  <speed>0.0</speed>
  <fix>3d</fix>
</trkpt>
<trkpt lat="-27.2744389" lon="151.2900638">
  <ele>343.04</ele>
  <time>2026-09-01T01:11:05Z</time>
  <course>150.38</course>
  <speed>0.022360679774997897</speed>
  <fix>3d</fix>
</trkpt>
<trkpt lat="-27.274439" lon="151.290064">
  <ele>343.0</ele>
  <time>2026-09-01T01:11:05Z</time>
  <course>0.0</course>
  <speed>0.0</speed>
  <fix>3d</fix>
</trkpt>
<trkpt lat="-27.2744389" lon="151.2900638">
  <ele>343.03</ele>
  <time>2026-09-01T01:11:05Z</time>
  <course>150.24</course>
  <speed>0.022360679774997897</speed>
  <fix>3d</fix>
</trkpt>
<trkpt lat="-27.274439" lon="151.290064">
  <ele>343.0</ele>
  <time>2026-09-01T01:11:05Z</time>
  <course>0.0</course>
  <speed>0.0</speed>
  <fix>3d</fix>
</trkpt>
<trkpt lat="-27.2744389" lon="151.2900638">
  <ele>343.02</ele>
  <time>2026-09-01T01:11:05Z</time>
  <course>150.11</course>
  <speed>0.022360679774997897</speed>
  <fix>3d</fix>
</trkpt>
<trkpt lat="-27.274439" lon="151.290064">
  <ele>343.0</ele>
  <time>2026-09-01T01:11:05Z</time>
  <course>0.0</course>
  <speed>0.0</speed>
  <fix>3d</fix>
</trkpt>
<trkpt lat="-27.2744389" lon="151.2900638">
  <ele>343.0</ele>
  <time>2026-09-01T01:11:05Z</time>
  <course>149.98</course>
  <speed>0.022360679774997897</speed>
  <fix>3d</fix>
</trkpt>
<trkpt lat="-27.274439" lon="151.290064">
  <ele>343.0</ele>
  <time>2026-09-01T01:11:05Z</time>
  <course>0.0</course>
  <speed>0.0</speed>
  <fix>3d</fix>
</trkpt>
<trkpt lat="-27.2744389" lon="151.2900638">
  <ele>343.01</ele>
  <time>2026-09-01T01:11:05Z</time>
  <course>149.86</course>
  <speed>0.022360679774997897</speed>
  <fix>3d</fix>
</trkpt>
<trkpt lat="-27.274439" lon="151.290064">
  <ele>343.0</ele>
  <time>2026-09-01T01:11:05Z</time>
  <course>0.0</course>
  <speed>0.0</speed>
  <fix>3d</fix>
</trkpt>
<trkpt lat="-27.2744389" lon="151.2900638">
  <ele>343.04</ele>
  <time>2026-09-01T01:11:05Z</time>
  <course>149.75</course>
  <speed>0.022360679774997897</speed>
  <fix>3d</fix>
</trkpt>
<trkpt lat="-27.274439" lon="151.290064">
  <ele>343.0</ele>
  <time>2026-09-01T01:11:05Z</time>
  <course>0.0</course>
  <speed>0.0</speed>
  <fix>3d</fix>
</trkpt>
<trkpt lat="-27.2744389" lon="151.2900638">
  <ele>343.04</ele>
  <time>2026-09-01T01:11:05Z</time>
  <course>149.64</course>
  <speed>0.022360679774997897</speed>
  <fix>3d</fix>
</trkpt>
<trkpt lat="-27.274439" lon="151.290064">
  <ele>343.0</ele>
  <time>2026-09-01T01:11:05Z</time>
  <course>0.0</course>
  <speed>0.0</speed>
  <fix>3d</fix>
</trkpt>
<trkpt lat="-27.2744389" lon="151.2900638">
  <ele>343.04</ele>
  <time>2026-09-01T01:11:05Z</time>
  <course>149.53</course>
  <speed>0.022360679774997897</speed>
  <fix>3d</fix>
</trkpt>
<trkpt lat="-27.274439" lon="151.290064">
  <ele>343.0</ele>
  <time>2026-09-01T01:11:05Z</time>
  <course>0.0</course>
  <speed>0.0</speed>
  <fix>3d</fix>
</trkpt>
<trkpt lat="-27.2744389" lon="151.2900638">
  <ele>343.04</ele>
  <time>2026-09-01T01:11:05Z</time>
  <course>149.44</course>
  <speed>0.022360679774997897</speed>
  <fix>3d</fix>
</trkpt>
<trkpt lat="-27.274439" lon="151.290064">
  <ele>343.0</ele>
  <time>2026-09-01T01:11:05Z</time>
  <course>0.0</course>
  <speed>0.0</speed>
  <fix>3d</fix>
</trkpt>
<trkpt lat="-27.2744389" lon="151.2900638">
  <ele>343.03</ele>
  <time>2026-09-01T01:11:05Z</time>
  <course>149.34</course>
  <speed>0.022360679774997897</speed>
  <fix>3d</fix>
</trkpt>
<trkpt lat="-27.274439" lon="151.290064">
  <ele>343.0</ele>
  <time>2026-09-01T01:11:05Z</time>
  <course>0.0</course>
  <speed>0.0</speed>
  <fix>3d</fix>
</trkpt>
<trkpt lat="-27.2744389" lon="151.2900638">
  <ele>343.02</ele>
  <time>2026-09-01T01:11:05Z</time>
  <course>149.25</course>
  <speed>0.022360679774997897</speed>
  <fix>3d</fix>
</trkpt>
<trkpt lat="-27.274439" lon="151.290064">
  <ele>343.0</ele>
  <time>2026-09-01T01:11:05Z</time>
  <course>0.0</course>
  <speed>0.0</speed>
  <fix>3d</fix>
</trkpt>
<trkpt lat="-27.2744389" lon="151.2900638">
  <ele>343.05</ele>
  <time>2026-09-01T01:11:05Z</time>
  <course>149.17</course>
  <speed>0.022360679774997897</speed>
  <fix>3d</fix>
</trkpt>
<trkpt lat="-27.274439" lon="151.290064">
  <ele>343.0</ele>
  <time>2026-09-01T01:11:05Z</time>
  <course>0.0</course>
  <speed>0.0</speed>
  <fix>3d</fix>
</trkpt>
<trkpt lat="-27.2744389" lon="151.2900638">
  <ele>343.04</ele>
  <time>2026-09-01T01:11:05Z</time>
  <course>149.09</course>
  <speed>0.02</speed>
  <fix>3d</fix>
</trkpt>
<trkpt lat="-27.274439" lon="151.290064">
  <ele>343.0</ele>
  <time>2026-09-01T01:11:05Z</time>
  <course>0.0</course>
  <speed>0.0</speed>
  <fix>3d</fix>
</trkpt>
<trkpt lat="-27.2744389" lon="151.2900638">
  <ele>343.05</ele>
  <time>2026-09-01T01:11:05Z</time>
  <course>149.01</course>
  <speed>0.022360679774997897</speed>
  <fix>3d</fix>
</trkpt>
<trkpt lat="-27.274439" lon="151.290064">
  <ele>343.0</ele>
  <time>2026-09-01T01:11:05Z</time>
  <course>0.0</course>
  <speed>0.0</speed>
  <fix>3d</fix>
</trkpt>
<trkpt lat="-27.2744389" lon="151.2900638">
  <ele>343.03</ele>
  <time>2026-09-01T01:11:05Z</time>
  <course>148.94</course>
  <speed>0.02</speed>
  <fix>3d</fix>
</trkpt>
<trkpt lat="-27.274439" lon="151.290064">
  <ele>343.0</ele>
  <time>2026-09-01T01:11:05Z</time>
  <course>0.0</course>
  <speed>0.0</speed>
  <fix>3d</fix>
</trkpt>
<trkpt lat="-27.2744389" lon="151.2900638">
  <ele>343.02</ele>
  <time>2026-09-01T01:11:05Z</time>
  <course>148.87</course>
  <speed>0.022360679774997897</speed>
  <fix>3d</fix>
</trkpt>
<trkpt lat="-27.274439" lon="151.290064">
  <ele>343.0</ele>
  <time>2026-09-01T01:11:05Z</time>
  <course>0.0</course>
  <speed>0.0</speed>
  <fix>3d</fix>
</trkpt>
<trkpt lat="-27.2744389" lon="151.2900638">
  <ele>343.02</ele>
  <time>2026-09-01T01:11:05Z</time>
  <course>148.8</course>
  <speed>0.02</speed>
  <fix>3d</fix>
</trkpt>
<trkpt lat="-27.274439" lon="151.290064">
  <ele>343.0</ele>
  <time>2026-09-01T01:11:05Z</time>
  <course>0.0</course>
  <speed>0.0</speed>
  <fix>3d</fix>
</trkpt>
<trkpt lat="-27.2744389" lon="151.2900638">
  <ele>343.02</ele>
  <time>2026-09-01T01:11:05Z</time>
  <course>148.74</course>
  <speed>0.02</speed>
  <fix>3d</fix>
</trkpt>
<trkpt lat="-27.274439" lon="151.290064">
  <ele>343.0</ele>
  <time>2026-09-01T01:11:05Z</time>
  <course>0.0</course>
  <speed>0.0</speed>
  <fix>3d</fix>
</trkpt>
<trkpt lat="-27.2744389" lon="151.2900638">
  <ele>343.0</ele>
  <time>2026-09-01T01:11:05Z</time>
  <course>148.67</course>
  <speed>0.02</speed>
  <fix>3d</fix>
</trkpt>
<trkpt lat="-27.274439" lon="151.290064">
  <ele>343.0</ele>
  <time>2026-09-01T01:11:05Z</time>
  <course>0.0</course>
  <speed>0.0</speed>
  <fix>3d</fix>
</trkpt>
<trkpt lat="-27.2744389" lon="151.2900638">
  <ele>343.0</ele>
  <time>2026-09-01T01:11:05Z</time>
  <course>148.62</course>
  <speed>0.02</speed>
  <fix>3d</fix>
</trkpt>
<trkpt lat="-27.274439" lon="151.290064">
  <ele>343.0</ele>
  <time>2026-09-01T01:11:05Z</time>
  <course>0.0</course>
  <speed>0.0</speed>
  <fix>3d</fix>
</trkpt>
<trkpt lat="-27.2744389" lon="151.2900638">
  <ele>343.01</ele>
  <time>2026-09-01T01:11:05Z</time>
  <course>148.56</course>
  <speed>0.02</speed>
  <fix>3d</fix>
</trkpt>
<trkpt lat="-27.274439" lon="151.290064">
  <ele>343.0</ele>
  <time>2026-09-01T01:11:05Z</time>
  <course>0.0</course>
  <speed>0.0</speed>
  <fix>3d</fix>
</trkpt>
<trkpt lat="-27.2744389" lon="151.2900638">
  <ele>342.99</ele>
  <time>2026-09-01T01:11:05Z</time>
  <course>148.51</course>
  <speed>0.02</speed>
  <fix>3d</fix>
</trkpt>
<trkpt lat="-27.274439" lon="151.290064">
  <ele>343.0</ele>
  <time>2026-09-01T01:11:05Z</time>
  <course>0.0</course>
  <speed>0.0</speed>
  <fix>3d</fix>
</trkpt>
<trkpt lat="-27.2744389" lon="151.2900638">
  <ele>342.99</ele>
  <time>2026-09-01T01:11:05Z</time>
  <course>148.46</course>
  <speed>0.02</speed>
  <fix>3d</fix>
</trkpt>
<trkpt lat="-27.274439" lon="151.290064">
  <ele>343.0</ele>
  <time>2026-09-01T01:11:05Z</time>
  <course>0.0</course>
  <speed>0.0</speed>
  <fix>3d</fix>
</trkpt>
<trkpt lat="-27.2744389" lon="151.2900638">
  <ele>342.99</ele>
  <time>2026-09-01T01:11:05Z</time>
  <course>148.41</course>
  <speed>0.02</speed>
  <fix>3d</fix>
</trkpt>
<trkpt lat="-27.274439" lon="151.290064">
  <ele>343.0</ele>
  <time>2026-09-01T01:11:05Z</time>
  <course>0.0</course>
  <speed>0.0</speed>
  <fix>3d</fix>
</trkpt>
<trkpt lat="-27.2744389" lon="151.2900638">
  <ele>343.01</ele>
  <time>2026-09-01T01:11:05Z</time>
  <course>148.36</course>
  <speed>0.02</speed>
  <fix>3d</fix>
</trkpt>
<trkpt lat="-27.274439" lon="151.290064">
  <ele>343.0</ele>
  <time>2026-09-01T01:11:05Z</time>
  <course>0.0</course>
  <speed>0.0</speed>
  <fix>3d</fix>
</trkpt>
<trkpt lat="-27.2744389" lon="151.2900638">
  <ele>343.01</ele>
  <time>2026-09-01T01:11:05Z</time>
  <course>148.32</course>
  <speed>0.02</speed>
  <fix>3d</fix>
</trkpt>
<trkpt lat="-27.274439" lon="151.290064">
  <ele>343.0</ele>
  <time>2026-09-01T01:11:05Z</time>
  <course>0.0</course>
  <speed>0.0</speed>
  <fix>3d</fix>
</trkpt>
<trkpt lat="-27.2744389" lon="151.2900638">
  <ele>343.02</ele>
  <time>2026-09-01T01:11:05Z</time>
  <course>148.27</course>
  <speed>0.02</speed>
  <fix>3d</fix>
</trkpt>
<trkpt lat="-27.274439" lon="151.290064">
  <ele>343.0</ele>
  <time>2026-09-01T01:11:05Z</time>
  <course>0.0</course>
  <speed>0.0</speed>
  <fix>3d</fix>
</trkpt>
<trkpt lat="-27.2744389" lon="151.2900638">
  <ele>343.01</ele>
  <time>2026-09-01T01:11:05Z</time>
  <course>148.23</course>
  <speed>0.02</speed>
  <fix>3d</fix>
</trkpt>
<trkpt lat="-27.274439" lon="151.290064">
  <ele>343.0</ele>
  <time>2026-09-01T01:11:05Z</time>
  <course>0.0</course>
  <speed>0.0</speed>
  <fix>3d</fix>
</trkpt>
<trkpt lat="-27.2744389" lon="151.2900638">
  <ele>343.02</ele>
  <time>2026-09-01T01:11:05Z</time>
  <course>148.19</course>
  <speed>0.02</speed>
  <fix>3d</fix>
</trkpt>
<trkpt lat="-27.274439" lon="151.290064">
  <ele>343.0</ele>
  <time>2026-09-01T01:11:05Z</time>
  <course>0.0</course>
  <speed>0.0</speed>
  <fix>3d</fix>
</trkpt>
<trkpt lat="-27.2744389" lon="151.2900638">
  <ele>343.05</ele>
  <time>2026-09-01T01:11:05Z</time>
  <course>148.15</course>
  <speed>0.02</speed>
  <fix>3d</fix>
</trkpt>
<trkpt lat="-27.274439" lon="151.290064">
  <ele>343.0</ele>
  <time>2026-09-01T01:11:05Z</time>
  <course>0.0</course>
  <speed>0.0</speed>
  <fix>3d</fix>
</trkpt>
<trkpt lat="-27.2744389" lon="151.2900638">
  <ele>343.0</ele>
  <time>2026-09-01T01:11:05Z</time>
  <course>140.25</course>
  <speed>0.02</speed>
  <fix>3d</fix>
</trkpt>
<trkpt lat="-27.274439" lon="151.290064">
  <ele>343.0</ele>
  <time>2026-09-01T01:11:05Z</time>
  <course>0.0</course>
  <speed>0.0</speed>
  <fix>3d</fix>
</trkpt>
<trkpt lat="-27.2744389" lon="151.2900638">
  <ele>343.04</ele>
  <time>2026-09-01T01:11:05Z</time>
  <course>131.09</course>
  <speed>0.01</speed>
  <fix>3d</fix>
</trkpt>
<trkpt lat="-27.274439" lon="151.290064">
  <ele>343.0</ele>
  <time>2026-09-01T01:11:05Z</time>
  <course>0.0</course>
  <speed>0.0</speed>
  <fix>3d</fix>
</trkpt>
<trkpt lat="-27.274439" lon="151.2900638">
  <ele>343.06</ele>
  <time>2026-09-01T01:11:05Z</time>
  <course>121.98</course>
  <speed>0.01</speed>
  <fix>3d</fix>
</trkpt>
<trkpt lat="-27.274439" lon="151.290064">
  <ele>343.0</ele>
  <time>2026-09-01T01:11:05Z</time>
  <course>0.0</course>
  <speed>0.0</speed>
  <fix>3d</fix>
</trkpt>
<trkpt lat="-27.274439" lon="151.2900638">
  <ele>343.08</ele>
  <time>2026-09-01T01:11:05Z</time>
  <course>112.89</course>
  <speed>0.01414213562373095</speed>
  <fix>3d</fix>
</trkpt>
<trkpt lat="-27.274439" lon="151.290064">
  <ele>343.0</ele>
  <time>2026-09-01T01:11:05Z</time>
  <course>0.0</course>
  <speed>0.0</speed>
  <fix>3d</fix>
</trkpt>
<trkpt lat="-27.2744391" lon="151.2900638">
  <ele>343.09</ele>
  <time>2026-09-01T01:11:05Z</time>
  <course>103.83</course>
  <speed>0.0282842712474619</speed>
  <fix>3d</fix>
</trkpt>
<trkpt lat="-27.274439" lon="151.290064">
  <ele>343.0</ele>
  <time>2026-09-01T01:11:05Z</time>
  <course>0.0</course>
  <speed>0.0</speed>
  <fix>3d</fix>
</trkpt>
<trkpt lat="-27.2744391" lon="151.2900638">
  <ele>343.1</ele>
  <time>2026-09-01T01:11:05Z</time>
  <course>94.78</course>
  <speed>0.04242640687119285</speed>
  <fix>3d</fix>
</trkpt>
<trkpt lat="-27.274439" lon="151.290064">
  <ele>343.0</ele>
  <time>2026-09-01T01:11:05Z</time>
  <course>0.0</course>
  <speed>0.0</speed>
  <fix>3d</fix>
</trkpt>
<trkpt lat="-27.2744392" lon="151.2900637">
  <ele>343.12</ele>
  <time>2026-09-01T01:11:05Z</time>
  <course>85.75</course>
  <speed>0.05</speed>
  <fix>3d</fix>
</trkpt>
<trkpt lat="-27.274439" lon="151.290064">
  <ele>343.0</ele>
  <time>2026-09-01T01:11:05Z</time>
  <course>0.0</course>
  <speed>0.0</speed>
  <fix>3d</fix>
</trkpt>
<trkpt lat="-27.274439" lon="151.290064">
  <ele>343.0</ele>
  <time>2026-09-01T01:11:05Z</time>
  <course>325.88</course>
  <speed>0.0</speed>
  <fix>3d</fix>
</trkpt>
<trkpt lat="-27.274439" lon="151.290064">
  <ele>343.0</ele>
  <time>2026-09-01T01:11:05Z</time>
  <course>324.43</course>
  <speed>0.0</speed>
  <fix>3d</fix>
</trkpt>
<trkpt lat="-27.274439" lon="151.290064">
  <ele>343.0</ele>
  <time>2026-09-01T01:11:05Z</time>
  <course>321.86</course>
  <speed>0.0</speed>
  <fix>3d</fix>
</trkpt>
<trkpt lat="-27.274439" lon="151.290064">
  <ele>343.0</ele>
  <time>2026-09-01T01:11:05Z</time>
  <course>295.0</course>
  <speed>0.0</speed>
  <fix>3d</fix>
</trkpt>
<trkpt lat="-27.274439" lon="151.290064">
  <ele>343.0</ele>
  <time>2026-09-01T01:11:05Z</time>
  <course>290.72</course>
  <speed>0.0</speed>
  <fix>3d</fix>
</trkpt>
<trkpt lat="-27.274439" lon="151.290064">
  <ele>343.0</ele>
  <time>2026-09-01T01:11:05Z</time>
  <course>284.84</course>
  <speed>0.0</speed>
  <fix>3d</fix>
</trkpt>
<trkpt lat="-27.274439" lon="151.290064">
  <ele>343.0</ele>
  <time>2026-09-01T01:11:05Z</time>
  <course>277.79</course>
  <speed>0.0</speed>
  <fix>3d</fix>
</trkpt>
<trkpt lat="-27.274439" lon="151.290064">
  <ele>343.0</ele>
  <time>2026-09-01T01:11:05Z</time>
  <course>269.55</course>
  <speed>0.0</speed>
  <fix>3d</fix>
</trkpt>
<trkpt lat="-27.274439" lon="151.290064">
  <ele>343.0</ele>
  <time>2026-09-01T01:11:05Z</time>
  <course>262.16</course>
  <speed>0.9176055797563569</speed>
  <fix>3d</fix>
</trkpt>
<trkpt lat="-27.274439" lon="151.290064">
  <ele>343.0</ele>
  <time>2026-09-01T01:11:05Z</time>
  <course>0.0</course>
  <speed>0.0</speed>
  <fix>3d</fix>
</trkpt>
<trkpt lat="-27.274439" lon="151.290064">
  <ele>343.0</ele>
  <time>2026-09-01T01:11:05Z</time>
  <course>256.4</course>
  <speed>0.9403190947758107</speed>
  <fix>3d</fix>
</trkpt>
<trkpt lat="-27.274439" lon="151.290064">
  <ele>343.0</ele>
  <time>2026-09-01T01:11:05Z</time>
  <course>0.0</course>
  <speed>0.0</speed>
  <fix>3d</fix>
</trkpt>
<trkpt lat="-27.274439" lon="151.290064">
  <ele>343.0</ele>
  <time>2026-09-01T01:11:05Z</time>
  <course>249.45</course>
  <speed>0.756042326857432</speed>
  <fix>3d</fix>
</trkpt>
<trkpt lat="-27.274439" lon="151.290064">
  <ele>343.0</ele>
  <time>2026-09-01T01:11:05Z</time>
  <course>0.0</course>
  <speed>0.0</speed>
  <fix>3d</fix>
</trkpt>
<trkpt lat="-27.274439" lon="151.290064">
  <ele>343.0</ele>
  <time>2026-09-01T01:11:05Z</time>
  <course>241.79</course>
  <speed>0.6596969000988256</speed>
  <fix>3d</fix>
</trkpt>
<trkpt lat="-27.274439" lon="151.290064">
  <ele>343.0</ele>
  <time>2026-09-01T01:11:05Z</time>
  <course>0.0</course>
  <speed>0.0</speed>
  <fix>3d</fix>
</trkpt>
<trkpt lat="-27.274439" lon="151.290064">
  <ele>343.0</ele>
  <time>2026-09-01T01:11:05Z</time>
  <course>233.59</course>
  <speed>0.6618912297349165</speed>
  <fix>3d</fix>
</trkpt>
<trkpt lat="-27.274439" lon="151.290064">
  <ele>343.0</ele>
  <time>2026-09-01T01:11:05Z</time>
  <course>0.0</course>
  <speed>0.0</speed>
  <fix>3d</fix>
</trkpt>
<trkpt lat="-27.274439" lon="151.290064">
  <ele>343.0</ele>
  <time>2026-09-01T01:11:06Z</time>
  <course>225.02</course>
  <speed>0.7034202158027589</speed>
  <fix>3d</fix>
</trkpt>
<trkpt lat="-27.274439" lon="151.290064">
  <ele>343.0</ele>
  <time>2026-09-01T01:11:06Z</time>
  <course>0.0</course>
  <speed>0.0</speed>
  <fix>3d</fix>
</trkpt>
<trkpt lat="-27.274439" lon="151.290064">
  <ele>343.0</ele>
  <time>2026-09-01T01:11:06Z</time>
  <course>216.17</course>
  <speed>0.7539230729988305</speed>
  <fix>3d</fix>
</trkpt>
<trkpt lat="-27.274439" lon="151.290064">
  <ele>343.0</ele>
  <time>2026-09-01T01:11:06Z</time>
  <course>0.0</course>
  <speed>0.0</speed>
  <fix>3d</fix>
</trkpt>
<trkpt lat="-27.274439" lon="151.290064">
  <ele>343.0</ele>
  <time>2026-09-01T01:11:06Z</time>
  <course>206.93</course>
  <speed>0.3721558813185679</speed>
  <fix>3d</fix>
</trkpt>
<trkpt lat="-27.274439" lon="151.290064">
  <ele>343.0</ele>
  <time>2026-09-01T01:11:06Z</time>
  <course>0.0</course>
  <speed>0.0</speed>
  <fix>3d</fix>
</trkpt>
<trkpt lat="-27.274439" lon="151.290064">
  <ele>343.0</ele>
  <time>2026-09-01T01:11:06Z</time>
  <course>197.48</course>
  <speed>0.11661903789690602</speed>
  <fix>3d</fix>
</trkpt>
<trkpt lat="-27.274439" lon="151.290064">
  <ele>343.0</ele>
  <time>2026-09-01T01:11:06Z</time>
  <course>0.0</course>
  <speed>0.0</speed>
  <fix>3d</fix>
</trkpt>
<trkpt lat="-27.274439" lon="151.290064">
  <ele>343.0</ele>
  <time>2026-09-01T01:11:06Z</time>
  <course>188.05</course>
  <speed>0.09848857801796104</speed>
  <fix>3d</fix>
</trkpt>
<trkpt lat="-27.274439" lon="151.290064">
  <ele>343.0</ele>
  <time>2026-09-01T01:11:06Z</time>
  <course>0.0</course>
  <speed>0.0</speed>
  <fix>3d</fix>
</trkpt>
<trkpt lat="-27.274439" lon="151.290064">
  <ele>343.0</ele>
  <time>2026-09-01T01:11:06Z</time>
  <course>178.62</course>
  <speed>0.11704699910719625</speed>
  <fix>3d</fix>
</trkpt>
<trkpt lat="-27.274439" lon="151.290064">
  <ele>343.0</ele>
  <time>2026-09-01T01:11:06Z</time>
  <course>0.0</course>
  <speed>0.0</speed>
  <fix>3d</fix>
</trkpt>
<trkpt lat="-27.274439" lon="151.290064">
  <ele>343.0</ele>
  <time>2026-09-01T01:11:06Z</time>
  <course>325.88</course>
  <speed>0.0</speed>
  <fix>3d</fix>
</trkpt>
<trkpt lat="-27.274439" lon="151.290064">
  <ele>343.0</ele>
  <time>2026-09-01T01:11:06Z</time>
  <course>324.43</course>
  <speed>0.0</speed>
  <fix>3d</fix>
</trkpt>
<trkpt lat="-27.274439" lon="151.290064">
  <ele>343.0</ele>
  <time>2026-09-01T01:11:06Z</time>
  <course>321.86</course>
  <speed>0.0</speed>
  <fix>3d</fix>
</trkpt>
<trkpt lat="-27.274439" lon="151.290064">
  <ele>343.0</ele>
  <time>2026-09-01T01:11:06Z</time>
  <course>295.0</course>
  <speed>0.0</speed>
  <fix>3d</fix>
</trkpt>
<trkpt lat="-27.274439" lon="151.290064">
  <ele>343.0</ele>
  <time>2026-09-01T01:11:06Z</time>
  <course>290.72</course>
  <speed>0.0</speed>
  <fix>3d</fix>
</trkpt>
<trkpt lat="-27.274439" lon="151.290064">
  <ele>343.0</ele>
  <time>2026-09-01T01:11:06Z</time>
  <course>284.84</course>
  <speed>0.0</speed>
  <fix>3d</fix>
</trkpt>
<trkpt lat="-27.274439" lon="151.290064">
  <ele>343.0</ele>
  <time>2026-09-01T01:11:06Z</time>
  <course>277.79</course>
  <speed>0.0</speed>
  <fix>3d</fix>
</trkpt>
<trkpt lat="-27.274439" lon="151.290064">
  <ele>343.0</ele>
  <time>2026-09-01T01:11:06Z</time>
  <course>269.55</course>
  <speed>0.0</speed>
  <fix>3d</fix>
</trkpt>
<trkpt lat="-27.274439" lon="151.290064">
  <ele>343.0</ele>
  <time>2026-09-01T01:11:06Z</time>
  <course>262.16</course>
  <speed>0.9176055797563569</speed>
  <fix>3d</fix>
</trkpt>
<trkpt lat="-27.274439" lon="151.290064">
  <ele>343.0</ele>
  <time>2026-09-01T01:11:06Z</time>
  <course>0.0</course>
  <speed>0.0</speed>
  <fix>3d</fix>
</trkpt>
<trkpt lat="-27.274439" lon="151.290064">
  <ele>343.0</ele>
  <time>2026-09-01T01:11:06Z</time>
  <course>256.4</course>
  <speed>0.9403190947758107</speed>
  <fix>3d</fix>
</trkpt>
<trkpt lat="-27.274439" lon="151.290064">
  <ele>343.0</ele>
  <time>2026-09-01T01:11:06Z</time>
  <course>0.0</course>
  <speed>0.0</speed>
  <fix>3d</fix>
</trkpt>
<trkpt lat="-27.274439" lon="151.290064">
  <ele>343.0</ele>
  <time>2026-09-01T01:11:06Z</time>
  <course>249.45</course>
  <speed>0.756042326857432</speed>
  <fix>3d</fix>
</trkpt>
<trkpt lat="-27.274439" lon="151.290064">
  <ele>343.0</ele>
  <time>2026-09-01T01:11:06Z</time>
  <course>0.0</course>
  <speed>0.0</speed>
  <fix>3d</fix>
</trkpt>
<trkpt lat="-27.274439" lon="151.290064">
  <ele>343.0</ele>
  <time>2026-09-01T01:11:06Z</time>
  <course>241.79</course>
  <speed>0.6596969000988256</speed>
  <fix>3d</fix>
</trkpt>
<trkpt lat="-27.274439" lon="151.290064">
  <ele>343.0</ele>
  <time>2026-09-01T01:11:06Z</time>
  <course>0.0</course>
  <speed>0.0</speed>
  <fix>3d</fix>
</trkpt>
<trkpt lat="-27.274439" lon="151.290064">
  <ele>343.0</ele>
  <time>2026-09-01T01:11:06Z</time>
  <course>233.59</course>
  <speed>0.6618912297349165</speed>
  <fix>3d</fix>
</trkpt>
<trkpt lat="-27.274439" lon="151.290064">
  <ele>343.0</ele>
  <time>2026-09-01T01:11:06Z</time>
  <course>0.0</course>
  <speed>0.0</speed>
  <fix>3d</fix>
</trkpt>
<trkpt lat="-27.274439" lon="151.290064">
  <ele>343.0</ele>
  <time>2026-09-01T01:11:06Z</time>
  <course>216.17</course>
  <speed>0.7539230729988305</speed>
  <fix>3d</fix>
</trkpt>
<trkpt lat="-27.274439" lon="151.290064">
  <ele>343.0</ele>
  <time>2026-09-01T01:11:06Z</time>
  <course>0.0</course>
  <speed>0.0</speed>
  <fix>3d</fix>
</trkpt>
<trkpt lat="-27.274439" lon="151.290064">
  <ele>343.0</ele>
  <time>2026-09-01T01:11:06Z</time>
  <course>207.13</course>
  <speed>0.8052949770115296</speed>
  <fix>3d</fix>
</trkpt>
<trkpt lat="-27.274439" lon="151.290064">
  <ele>343.0</ele>
  <time>2026-09-01T01:11:06Z</time>
  <course>0.0</course>
  <speed>0.0</speed>
  <fix>3d</fix>
</trkpt>
<trkpt lat="-27.274439" lon="151.290064">
  <ele>343.0</ele>
  <time>2026-09-01T01:11:06Z</time>
  <course>197.95</course>
  <speed>0.8453401682163222</speed>
  <fix>3d</fix>
</trkpt>
<trkpt lat="-27.274439" lon="151.290064">
  <ele>343.0</ele>
  <time>2026-09-01T01:11:06Z</time>
  <course>0.0</course>
  <speed>0.0</speed>
  <fix>3d</fix>
</trkpt>
<trkpt lat="-27.274439" lon="151.290064">
  <ele>343.0</ele>
  <time>2026-09-01T01:11:06Z</time>
  <course>188.67</course>
  <speed>0.878179936004006</speed>
  <fix>3d</fix>
</trkpt>
<trkpt lat="-27.274439" lon="151.290064">
  <ele>343.0</ele>
  <time>2026-09-01T01:11:06Z</time>
  <course>0.0</course>
  <speed>0.0</speed>
  <fix>3d</fix>
</trkpt>
<trkpt lat="-27.274439" lon="151.290064">
  <ele>343.0</ele>
  <time>2026-09-01T01:11:06Z</time>
  <course>179.31</course>
  <speed>0.8848163651289458</speed>
  <fix>3d</fix>
</trkpt>
<trkpt lat="-27.274439" lon="151.290064">
  <ele>343.0</ele>
  <time>2026-09-01T01:11:06Z</time>
  <course>0.0</course>
  <speed>0.0</speed>
  <fix>3d</fix>
</trkpt>
<trkpt lat="-27.274439" lon="151.290064">
  <ele>343.0</ele>
  <time>2026-09-01T01:11:06Z</time>
  <course>169.93</course>
  <speed>0.9140021881811882</speed>
  <fix>3d</fix>
</trkpt>
<trkpt lat="-27.274439" lon="151.290064">
  <ele>343.0</ele>
  <time>2026-09-01T01:11:06Z</time>
  <course>0.0</course>
  <speed>0.0</speed>
  <fix>3d</fix>
</trkpt>
<trkpt lat="-27.274439" lon="151.290064">
  <ele>343.0</ele>
  <time>2026-09-01T01:11:06Z</time>
  <course>161.9</course>
  <speed>0.9219544457292888</speed>
  <fix>3d</fix>
</trkpt>
<trkpt lat="-27.274439" lon="151.290064">
  <ele>343.0</ele>
  <time>2026-09-01T01:11:06Z</time>
  <course>0.0</course>
  <speed>0.0</speed>
  <fix>3d</fix>
</trkpt>
<trkpt lat="-27.274439" lon="151.290064">
  <ele>343.0</ele>
  <time>2026-09-01T01:11:06Z</time>
  <course>158.55</course>
  <speed>0.9411163583744573</speed>
  <fix>3d</fix>
</trkpt>
<trkpt lat="-27.274439" lon="151.290064">
  <ele>343.0</ele>
  <time>2026-09-01T01:11:06Z</time>
  <course>0.0</course>
  <speed>0.0</speed>
  <fix>3d</fix>
</trkpt>
<trkpt lat="-27.274439" lon="151.290064">
  <ele>343.0</ele>
  <time>2026-09-01T01:11:06Z</time>
  <course>157.2</course>
  <speed>0.9546203433826455</speed>
  <fix>3d</fix>
</trkpt>
<trkpt lat="-27.274439" lon="151.290064">
  <ele>343.0</ele>
  <time>2026-09-01T01:11:06Z</time>
  <course>0.0</course>
  <speed>0.0</speed>
  <fix>3d</fix>
</trkpt>
<trkpt lat="-27.274439" lon="151.290064">
  <ele>343.0</ele>
  <time>2026-09-01T01:11:06Z</time>
  <course>156.57</course>
  <speed>0.9642613753542137</speed>
  <fix>3d</fix>
</trkpt>
<trkpt lat="-27.274439" lon="151.290064">
  <ele>343.0</ele>
  <time>2026-09-01T01:11:06Z</time>
  <course>0.0</course>
  <speed>0.0</speed>
  <fix>3d</fix>
</trkpt>
<trkpt lat="-27.274439" lon="151.290064">
  <ele>343.0</ele>
  <time>2026-09-01T01:11:06Z</time>
  <course>156.21</course>
  <speed>0.9602083107326242</speed>
  <fix>3d</fix>
</trkpt>
<trkpt lat="-27.274439" lon="151.290064">
  <ele>343.0</ele>
  <time>2026-09-01T01:11:06Z</time>
  <course>0.0</course>
  <speed>0.0</speed>
  <fix>3d</fix>
</trkpt>
<trkpt lat="-27.274439" lon="151.290064">
  <ele>343.0</ele>
  <time>2026-09-01T01:11:06Z</time>
  <course>155.95</course>
  <speed>0.9689685237405805</speed>
  <fix>3d</fix>
</trkpt>
<trkpt lat="-27.274439" lon="151.290064">
  <ele>343.0</ele>
  <time>2026-09-01T01:11:06Z</time>
  <course>0.0</course>
  <speed>0.0</speed>
  <fix>3d</fix>
</trkpt>
<trkpt lat="-27.274439" lon="151.290064">
  <ele>343.0</ele>
  <time>2026-09-01T01:11:06Z</time>
  <course>155.71</course>
  <speed>0.9800510190801294</speed>
  <fix>3d</fix>
</trkpt>
<trkpt lat="-27.274439" lon="151.290064">
  <ele>343.0</ele>
  <time>2026-09-01T01:11:06Z</time>
  <course>0.0</course>
  <speed>0.0</speed>
  <fix>3d</fix>
</trkpt>
<trkpt lat="-27.274439" lon="151.290064">
  <ele>343.0</ele>
  <time>2026-09-01T01:11:06Z</time>
  <course>147.43</course>
  <speed>0.5462600113499065</speed>
  <fix>3d</fix>
</trkpt>
<trkpt lat="-27.274439" lon="151.290064">
  <ele>343.0</ele>
  <time>2026-09-01T01:11:06Z</time>
  <course>0.0</course>
  <speed>0.0</speed>
  <fix>3d</fix>
</trkpt>
<trkpt lat="-27.274439" lon="151.290064">
  <ele>343.0</ele>
  <time>2026-09-01T01:11:06Z</time>
  <course>137.91</course>
  <speed>0.2308679276123039</speed>
  <fix>3d</fix>
</trkpt>
<trkpt lat="-27.274439" lon="151.290064">
  <ele>343.0</ele>
  <time>2026-09-01T01:11:06Z</time>
  <course>0.0</course>
  <speed>0.0</speed>
  <fix>3d</fix>
</trkpt>
<trkpt lat="-27.274439" lon="151.290064">
  <ele>343.0</ele>
  <time>2026-09-01T01:11:06Z</time>
  <course>128.44</course>
  <speed>0.10295630140987001</speed>
  <fix>3d</fix>
</trkpt>
<trkpt lat="-27.274439" lon="151.290064">
  <ele>343.0</ele>
  <time>2026-09-01T01:11:06Z</time>
  <course>0.0</course>
  <speed>0.0</speed>
  <fix>3d</fix>
</trkpt>
<trkpt lat="-27.274439" lon="151.290064">
  <ele>343.0</ele>
  <time>2026-09-01T01:11:06Z</time>
  <course>119.02</course>
  <speed>0.07810249675906654</speed>
  <fix>3d</fix>
</trkpt>
<trkpt lat="-27.274439" lon="151.290064">
  <ele>343.0</ele>
  <time>2026-09-01T01:11:06Z</time>
  <course>0.0</course>
  <speed>0.0</speed>
  <fix>3d</fix>
</trkpt>
<trkpt lat="-27.274439" lon="151.290064">
  <ele>343.0</ele>
  <time>2026-09-01T01:11:06Z</time>
  <course>109.64</course>
  <speed>0.0565685424949238</speed>
  <fix>3d</fix>
</trkpt>
<trkpt lat="-27.274439" lon="151.290064">
  <ele>343.0</ele>
  <time>2026-09-01T01:11:06Z</time>
  <course>0.0</course>
  <speed>0.0</speed>
  <fix>3d</fix>
</trkpt>
<trkpt lat="-27.274439" lon="151.290064">
  <ele>343.0</ele>
  <time>2026-09-01T01:11:06Z</time>
  <course>100.3</course>
  <speed>0.0412310562561766</speed>
  <fix>3d</fix>
</trkpt>
<trkpt lat="-27.274439" lon="151.290064">
  <ele>343.0</ele>
  <time>2026-09-01T01:11:06Z</time>
  <course>0.0</course>
  <speed>0.0</speed>
  <fix>3d</fix>
</trkpt>
<trkpt lat="-27.274439" lon="151.290064">
  <ele>343.0</ele>
  <time>2026-09-01T01:11:06Z</time>
  <course>91.0</course>
  <speed>0.0412310562561766</speed>
  <fix>3d</fix>
</trkpt>
<trkpt lat="-27.274439" lon="151.290064">
  <ele>343.0</ele>
  <time>2026-09-01T01:11:06Z</time>
  <course>0.0</course>
  <speed>0.0</speed>
  <fix>3d</fix>
</trkpt>
<trkpt lat="-27.274439" lon="151.290064">
  <ele>343.0</ele>
  <time>2026-09-01T01:11:07Z</time>
  <course>325.88</course>
  <speed>0.0</speed>
  <fix>3d</fix>
</trkpt>
<trkpt lat="-27.274439" lon="151.290064">
  <ele>343.0</ele>
  <time>2026-09-01T01:11:07Z</time>
  <course>324.43</course>
  <speed>0.0</speed>
  <fix>3d</fix>
</trkpt>
<trkpt lat="-27.274439" lon="151.290064">
  <ele>343.0</ele>
  <time>2026-09-01T01:11:07Z</time>
  <course>321.86</course>
  <speed>0.0</speed>
  <fix>3d</fix>
</trkpt>
<trkpt lat="-27.274439" lon="151.290064">
  <ele>343.0</ele>
  <time>2026-09-01T01:11:07Z</time>
  <course>295.0</course>
  <speed>0.0</speed>
  <fix>3d</fix>
</trkpt>
<trkpt lat="-27.274439" lon="151.290064">
  <ele>343.0</ele>
  <time>2026-09-01T01:11:07Z</time>
  <course>290.72</course>
  <speed>0.0</speed>
  <fix>3d</fix>
</trkpt>
<trkpt lat="-27.274439" lon="151.290064">
  <ele>343.0</ele>
  <time>2026-09-01T01:11:07Z</time>
  <course>284.84</course>
  <speed>0.0</speed>
  <fix>3d</fix>
</trkpt>
<trkpt lat="-27.274439" lon="151.290064">
  <ele>343.0</ele>
  <time>2026-09-01T01:11:07Z</time>
  <course>277.79</course>
  <speed>0.0</speed>
  <fix>3d</fix>
</trkpt>
<trkpt lat="-27.274439" lon="151.290064">
  <ele>343.0</ele>
  <time>2026-09-01T01:11:07Z</time>
  <course>269.55</course>
  <speed>0.0</speed>
  <fix>3d</fix>
</trkpt>
<trkpt lat="-27.274439" lon="151.290064">
  <ele>343.0</ele>
  <time>2026-09-01T01:11:07Z</time>
  <course>262.16</course>
  <speed>0.9176055797563569</speed>
  <fix>3d</fix>
</trkpt>
<trkpt lat="-27.274439" lon="151.290064">
  <ele>343.0</ele>
  <time>2026-09-01T01:11:07Z</time>
  <course>0.0</course>
  <speed>0.0</speed>
  <fix>3d</fix>
</trkpt>
<trkpt lat="-27.274439" lon="151.290064">
  <ele>343.0</ele>
  <time>2026-09-01T01:11:07Z</time>
  <course>256.4</course>
  <speed>0.9403190947758107</speed>
  <fix>3d</fix>
</trkpt>
<trkpt lat="-27.274439" lon="151.290064">
  <ele>343.0</ele>
  <time>2026-09-01T01:11:07Z</time>
  <course>0.0</course>
  <speed>0.0</speed>
  <fix>3d</fix>
</trkpt>
<trkpt lat="-27.274439" lon="151.290064">
  <ele>343.0</ele>
  <time>2026-09-01T01:11:07Z</time>
  <course>249.45</course>
  <speed>0.756042326857432</speed>
  <fix>3d</fix>
</trkpt>
<trkpt lat="-27.274439" lon="151.290064">
  <ele>343.0</ele>
  <time>2026-09-01T01:11:07Z</time>
  <course>0.0</course>
  <speed>0.0</speed>
  <fix>3d</fix>
</trkpt>
<trkpt lat="-27.274439" lon="151.290064">
  <ele>343.0</ele>
  <time>2026-09-01T01:11:07Z</time>
  <course>241.79</course>
  <speed>0.6596969000988256</speed>
  <fix>3d</fix>
</trkpt>
<trkpt lat="-27.274439" lon="151.290064">
  <ele>343.0</ele>
  <time>2026-09-01T01:11:07Z</time>
  <course>0.0</course>
  <speed>0.0</speed>
  <fix>3d</fix>
</trkpt>
<trkpt lat="-27.274439" lon="151.290064">
  <ele>343.0</ele>
  <time>2026-09-01T01:11:07Z</time>
  <course>233.59</course>
  <speed>0.6618912297349165</speed>
  <fix>3d</fix>
</trkpt>
<trkpt lat="-27.274439" lon="151.290064">
  <ele>343.0</ele>
  <time>2026-09-01T01:11:07Z</time>
  <course>0.0</course>
  <speed>0.0</speed>
  <fix>3d</fix>
</trkpt>
<trkpt lat="-27.274439" lon="151.290064">
  <ele>343.0</ele>
  <time>2026-09-01T01:11:07Z</time>
  <course>225.02</course>
  <speed>0.7034202158027589</speed>
  <fix>3d</fix>
</trkpt>
<trkpt lat="-27.274439" lon="151.290064">
  <ele>343.0</ele>
  <time>2026-09-01T01:11:07Z</time>
  <course>0.0</course>
  <speed>0.0</speed>
  <fix>3d</fix>
</trkpt>
<trkpt lat="-27.274439" lon="151.290064">
  <ele>343.0</ele>
  <time>2026-09-01T01:11:07Z</time>
  <course>216.17</course>
  <speed>0.7539230729988305</speed>
  <fix>3d</fix>
</trkpt>
<trkpt lat="-27.274439" lon="151.290064">
  <ele>343.0</ele>
  <time>2026-09-01T01:11:07Z</time>
  <course>0.0</course>
  <speed>0.0</speed>
  <fix>3d</fix>
</trkpt>
<trkpt lat="-27.274439" lon="151.290064">
  <ele>343.0</ele>
  <time>2026-09-01T01:11:07Z</time>
  <course>207.13</course>
  <speed>0.8052949770115296</speed>
  <fix>3d</fix>
</trkpt>
<trkpt lat="-27.274439" lon="151.290064">
  <ele>343.0</ele>
  <time>2026-09-01T01:11:07Z</time>
  <course>0.0</course>
  <speed>0.0</speed>
  <fix>3d</fix>
</trkpt>
<trkpt lat="-27.274439" lon="151.290064">
  <ele>343.0</ele>
  <time>2026-09-01T01:11:07Z</time>
  <course>197.95</course>
  <speed>0.8453401682163222</speed>
  <fix>3d</fix>
</trkpt>
<trkpt lat="-27.274439" lon="151.290064">
  <ele>343.0</ele>
  <time>2026-09-01T01:11:07Z</time>
  <course>0.0</course>
  <speed>0.0</speed>
  <fix>3d</fix>
</trkpt>
<trkpt lat="-27.274439" lon="151.290064">
  <ele>343.0</ele>
  <time>2026-09-01T01:11:07Z</time>
  <course>188.67</course>
  <speed>0.878179936004006</speed>
  <fix>3d</fix>
</trkpt>
<trkpt lat="-27.274439" lon="151.290064">
  <ele>343.0</ele>
  <time>2026-09-01T01:11:07Z</time>
  <course>0.0</course>
  <speed>0.0</speed>
  <fix>3d</fix>
</trkpt>
<trkpt lat="-27.274439" lon="151.290064">
  <ele>343.0</ele>
  <time>2026-09-01T01:11:07Z</time>
  <course>179.13</course>
  <speed>0.43266615305567874</speed>
  <fix>3d</fix>
</trkpt>
<trkpt lat="-27.274439" lon="151.290064">
  <ele>343.0</ele>
  <time>2026-09-01T01:11:07Z</time>
  <course>0.0</course>
  <speed>0.0</speed>
  <fix>3d</fix>
</trkpt>
<trkpt lat="-27.274439" lon="151.290064">
  <ele>343.0</ele>
  <time>2026-09-01T01:11:07Z</time>
  <course>169.57</course>
  <speed>0.15</speed>
  <fix>3d</fix>
</trkpt>
<trkpt lat="-27.274439" lon="151.290064">
  <ele>343.0</ele>
  <time>2026-09-01T01:11:07Z</time>
  <course>0.0</course>
  <speed>0.0</speed>
  <fix>3d</fix>
</trkpt>
<trkpt lat="-27.274439" lon="151.290064">
  <ele>343.0</ele>
  <time>2026-09-01T01:11:07Z</time>
  <course>160.08</course>
  <speed>0.11401754250991379</speed>
  <fix>3d</fix>
</trkpt>
<trkpt lat="-27.274439" lon="151.290064">
  <ele>343.0</ele>
  <time>2026-09-01T01:11:07Z</time>
  <course>0.0</course>
  <speed>0.0</speed>
  <fix>3d</fix>
</trkpt>
<trkpt lat="-27.274439" lon="151.290064">
  <ele>343.0</ele>
  <time>2026-09-01T01:11:07Z</time>
  <course>150.62</course>
  <speed>0.1345362404707371</speed>
  <fix>3d</fix>
</trkpt>
<trkpt lat="-27.274439" lon="151.290064">
  <ele>343.0</ele>
  <time>2026-09-01T01:11:07Z</time>
  <course>0.0</course>
  <speed>0.0</speed>
  <fix>3d</fix>
</trkpt>
<trkpt lat="-27.274439" lon="151.290064">
  <ele>343.0</ele>
  <time>2026-09-01T01:11:07Z</time>
  <course>325.88</course>
  <speed>0.0</speed>
  <fix>3d</fix>
</trkpt>
<trkpt lat="-27.274439" lon="151.290064">
  <ele>343.0</ele>
  <time>2026-09-01T01:11:07Z</time>
  <course>324.43</course>
  <speed>0.0</speed>
  <fix>3d</fix>
</trkpt>
<trkpt lat="-27.274439" lon="151.290064">
  <ele>343.0</ele>
  <time>2026-09-01T01:11:07Z</time>
  <course>321.86</course>
  <speed>0.0</speed>
  <fix>3d</fix>
</trkpt>
<trkpt lat="-27.274439" lon="151.290064">
  <ele>343.0</ele>
  <time>2026-09-01T01:11:07Z</time>
  <course>295.0</course>
  <speed>0.0</speed>
  <fix>3d</fix>
</trkpt>
<trkpt lat="-27.274439" lon="151.290064">
  <ele>343.0</ele>
  <time>2026-09-01T01:11:07Z</time>
  <course>290.72</course>
  <speed>0.0</speed>
  <fix>3d</fix>
</trkpt>
<trkpt lat="-27.274439" lon="151.290064">
  <ele>343.0</ele>
  <time>2026-09-01T01:11:07Z</time>
  <course>284.84</course>
  <speed>0.0</speed>
  <fix>3d</fix>
</trkpt>
<trkpt lat="-27.274439" lon="151.290064">
  <ele>343.0</ele>
  <time>2026-09-01T01:11:07Z</time>
  <course>277.79</course>
  <speed>0.0</speed>
  <fix>3d</fix>
</trkpt>
<trkpt lat="-27.274439" lon="151.290064">
  <ele>343.0</ele>
  <time>2026-09-01T01:11:07Z</time>
  <course>269.55</course>
  <speed>0.0</speed>
  <fix>3d</fix>
</trkpt>
<trkpt lat="-27.274439" lon="151.290064">
  <ele>343.0</ele>
  <time>2026-09-01T01:11:07Z</time>
  <course>262.16</course>
  <speed>0.9176055797563569</speed>
  <fix>3d</fix>
</trkpt>
<trkpt lat="-27.274439" lon="151.290064">
  <ele>343.0</ele>
  <time>2026-09-01T01:11:07Z</time>
  <course>0.0</course>
  <speed>0.0</speed>
  <fix>3d</fix>
</trkpt>
<trkpt lat="-27.274439" lon="151.290064">
  <ele>343.0</ele>
  <time>2026-09-01T01:11:07Z</time>
  <course>256.4</course>
  <speed>0.9403190947758107</speed>
  <fix>3d</fix>
</trkpt>
<trkpt lat="-27.274439" lon="151.290064">
  <ele>343.0</ele>
  <time>2026-09-01T01:11:07Z</time>
  <course>0.0</course>
  <speed>0.0</speed>
  <fix>3d</fix>
</trkpt>
<trkpt lat="-27.274439" lon="151.290064">
  <ele>343.0</ele>
  <time>2026-09-01T01:11:07Z</time>
  <course>249.45</course>
  <speed>0.756042326857432</speed>
  <fix>3d</fix>
</trkpt>
<trkpt lat="-27.274439" lon="151.290064">
  <ele>343.0</ele>
  <time>2026-09-01T01:11:07Z</time>
  <course>0.0</course>
  <speed>0.0</speed>
  <fix>3d</fix>
</trkpt>
<trkpt lat="-27.274439" lon="151.290064">
  <ele>343.0</ele>
  <time>2026-09-01T01:11:07Z</time>
  <course>241.79</course>
  <speed>0.6596969000988256</speed>
  <fix>3d</fix>
</trkpt>
<trkpt lat="-27.274439" lon="151.290064">
  <ele>343.0</ele>
  <time>2026-09-01T01:11:07Z</time>
  <course>0.0</course>
  <speed>0.0</speed>
  <fix>3d</fix>
</trkpt>
<trkpt lat="-27.274439" lon="151.290064">
  <ele>343.0</ele>
  <time>2026-09-01T01:11:07Z</time>
  <course>233.59</course>
  <speed>0.6618912297349165</speed>
  <fix>3d</fix>
</trkpt>
<trkpt lat="-27.274439" lon="151.290064">
  <ele>343.0</ele>
  <time>2026-09-01T01:11:07Z</time>
  <course>0.0</course>
  <speed>0.0</speed>
  <fix>3d</fix>
</trkpt>
<trkpt lat="-27.274439" lon="151.290064">
  <ele>343.0</ele>
  <time>2026-09-01T01:11:07Z</time>
  <course>225.02</course>
  <speed>0.7034202158027589</speed>
  <fix>3d</fix>
</trkpt>
<trkpt lat="-27.274439" lon="151.290064">
  <ele>343.0</ele>
  <time>2026-09-01T01:11:07Z</time>
  <course>0.0</course>
  <speed>0.0</speed>
  <fix>3d</fix>
</trkpt>
<trkpt lat="-27.274439" lon="151.290064">
  <ele>343.0</ele>
  <time>2026-09-01T01:11:08Z</time>
  <course>207.13</course>
  <speed>0.8052949770115296</speed>
  <fix>3d</fix>
</trkpt>
<trkpt lat="-27.274439" lon="151.290064">
  <ele>343.0</ele>
  <time>2026-09-01T01:11:08Z</time>
  <course>0.0</course>
  <speed>0.0</speed>
  <fix>3d</fix>
</trkpt>
<trkpt lat="-27.274439" lon="151.290064">
  <ele>343.0</ele>
  <time>2026-09-01T01:11:08Z</time>
  <course>197.95</course>
  <speed>0.8453401682163222</speed>
  <fix>3d</fix>
</trkpt>
<trkpt lat="-27.274439" lon="151.290064">
  <ele>343.0</ele>
  <time>2026-09-01T01:11:08Z</time>
  <course>0.0</course>
  <speed>0.0</speed>
  <fix>3d</fix>
</trkpt>
<trkpt lat="-27.274439" lon="151.290064">
  <ele>343.0</ele>
  <time>2026-09-01T01:11:08Z</time>
  <course>188.67</course>
  <speed>0.878179936004006</speed>
  <fix>3d</fix>
</trkpt>
<trkpt lat="-27.274439" lon="151.290064">
  <ele>343.0</ele>
  <time>2026-09-01T01:11:08Z</time>
  <course>0.0</course>
  <speed>0.0</speed>
  <fix>3d</fix>
</trkpt>
<trkpt lat="-27.274439" lon="151.290064">
  <ele>343.0</ele>
  <time>2026-09-01T01:11:08Z</time>
  <course>179.31</course>
  <speed>0.8848163651289458</speed>
  <fix>3d</fix>
</trkpt>
<trkpt lat="-27.274439" lon="151.290064">
  <ele>343.0</ele>
  <time>2026-09-01T01:11:08Z</time>
  <course>0.0</course>
  <speed>0.0</speed>
  <fix>3d</fix>
</trkpt>
<trkpt lat="-27.274439" lon="151.290064">
  <ele>343.0</ele>
  <time>2026-09-01T01:11:08Z</time>
  <course>169.93</course>
  <speed>0.9140021881811882</speed>
  <fix>3d</fix>
</trkpt>
<trkpt lat="-27.274439" lon="151.290064">
  <ele>343.0</ele>
  <time>2026-09-01T01:11:08Z</time>
  <course>0.0</course>
  <speed>0.0</speed>
  <fix>3d</fix>
</trkpt>
<trkpt lat="-27.274439" lon="151.290064">
  <ele>343.0</ele>
  <time>2026-09-01T01:11:08Z</time>
  <course>161.9</course>
  <speed>0.9219544457292888</speed>
  <fix>3d</fix>
</trkpt>
<trkpt lat="-27.274439" lon="151.290064">
  <ele>343.0</ele>
  <time>2026-09-01T01:11:08Z</time>
  <course>0.0</course>
  <speed>0.0</speed>
  <fix>3d</fix>
</trkpt>
<trkpt lat="-27.274439" lon="151.290064">
  <ele>343.0</ele>
  <time>2026-09-01T01:11:09Z</time>
  <course>158.55</course>
  <speed>0.9411163583744573</speed>
  <fix>3d</fix>
</trkpt>
<trkpt lat="-27.274439" lon="151.290064">
  <ele>343.0</ele>
  <time>2026-09-01T01:11:09Z</time>
  <course>0.0</course>
  <speed>0.0</speed>
  <fix>3d</fix>
</trkpt>
<trkpt lat="-27.274439" lon="151.290064">
  <ele>343.0</ele>
  <time>2026-09-01T01:11:09Z</time>
  <course>157.2</course>
  <speed>0.9546203433826455</speed>
  <fix>3d</fix>
</trkpt>
<trkpt lat="-27.274439" lon="151.290064">
  <ele>343.0</ele>
  <time>2026-09-01T01:11:09Z</time>
  <course>0.0</course>
  <speed>0.0</speed>
  <fix>3d</fix>
</trkpt>
<trkpt lat="-27.274439" lon="151.290064">
  <ele>343.0</ele>
  <time>2026-09-01T01:11:09Z</time>
  <course>156.57</course>
  <speed>0.9642613753542137</speed>
  <fix>3d</fix>
</trkpt>
<trkpt lat="-27.274439" lon="151.290064">
  <ele>343.0</ele>
  <time>2026-09-01T01:11:09Z</time>
  <course>0.0</course>
  <speed>0.0</speed>
  <fix>3d</fix>
</trkpt>
<trkpt lat="-27.274439" lon="151.290064">
  <ele>343.0</ele>
  <time>2026-09-01T01:11:09Z</time>
  <course>156.21</course>
  <speed>0.9602083107326242</speed>
  <fix>3d</fix>
</trkpt>
<trkpt lat="-27.274439" lon="151.290064">
  <ele>343.0</ele>
  <time>2026-09-01T01:11:09Z</time>
  <course>0.0</course>
  <speed>0.0</speed>
  <fix>3d</fix>
</trkpt>
<trkpt lat="-27.274439" lon="151.290064">
  <ele>343.0</ele>
  <time>2026-09-01T01:11:09Z</time>
  <course>155.95</course>
  <speed>0.9689685237405805</speed>
  <fix>3d</fix>
</trkpt>
<trkpt lat="-27.274439" lon="151.290064">
  <ele>343.0</ele>
  <time>2026-09-01T01:11:09Z</time>
  <course>0.0</course>
  <speed>0.0</speed>
  <fix>3d</fix>
</trkpt>
<trkpt lat="-27.274439" lon="151.290064">
  <ele>343.0</ele>
  <time>2026-09-01T01:11:09Z</time>
  <course>155.71</course>
  <speed>0.9800510190801294</speed>
  <fix>3d</fix>
</trkpt>
<trkpt lat="-27.274439" lon="151.290064">
  <ele>343.0</ele>
  <time>2026-09-01T01:11:09Z</time>
  <course>0.0</course>
  <speed>0.0</speed>
  <fix>3d</fix>
</trkpt>
<trkpt lat="-27.274439" lon="151.290064">
  <ele>343.0</ele>
  <time>2026-09-01T01:11:09Z</time>
  <course>155.49</course>
  <speed>0.9972963451251589</speed>
  <fix>3d</fix>
</trkpt>
<trkpt lat="-27.274439" lon="151.290064">
  <ele>343.0</ele>
  <time>2026-09-01T01:11:09Z</time>
  <course>0.0</course>
  <speed>0.0</speed>
  <fix>3d</fix>
</trkpt>
<trkpt lat="-27.274439" lon="151.290064">
  <ele>343.0</ele>
  <time>2026-09-01T01:11:09Z</time>
  <course>155.27</course>
  <speed>1.0113357503816425</speed>
  <fix>3d</fix>
</trkpt>
<trkpt lat="-27.274439" lon="151.290064">
  <ele>343.0</ele>
  <time>2026-09-01T01:11:09Z</time>
  <course>0.0</course>
  <speed>0.0</speed>
  <fix>3d</fix>
</trkpt>
<trkpt lat="-27.274439" lon="151.290064">
  <ele>343.0</ele>
  <time>2026-09-01T01:11:09Z</time>
  <course>155.07</course>
  <speed>1.010198000393982</speed>
  <fix>3d</fix>
</trkpt>
<trkpt lat="-27.274439" lon="151.290064">
  <ele>343.0</ele>
  <time>2026-09-01T01:11:09Z</time>
  <course>0.0</course>
  <speed>0.0</speed>
  <fix>3d</fix>
</trkpt>
<trkpt lat="-27.274439" lon="151.290064">
  <ele>343.0</ele>
  <time>2026-09-01T01:11:09Z</time>
  <course>154.88</course>
  <speed>0.9962429422585637</speed>
  <fix>3d</fix>
</trkpt>
<trkpt lat="-27.274439" lon="151.290064">
  <ele>343.0</ele>
  <time>2026-09-01T01:11:09Z</time>
  <course>0.0</course>
  <speed>0.0</speed>
  <fix>3d</fix>
</trkpt>
<trkpt lat="-27.274439" lon="151.290064">
  <ele>343.0</ele>
  <time>2026-09-01T01:11:09Z</time>
  <course>154.68</course>
  <speed>0.9751410154434076</speed>
  <fix>3d</fix>
</trkpt>
<trkpt lat="-27.274439" lon="151.290064">
  <ele>343.0</ele>
  <time>2026-09-01T01:11:09Z</time>
  <course>0.0</course>
  <speed>0.0</speed>
  <fix>3d</fix>
</trkpt>
<trkpt lat="-27.274439" lon="151.290064">
  <ele>343.0</ele>
  <time>2026-09-01T01:11:09Z</time>
  <course>154.49</course>
  <speed>0.951892851112981</speed>
  <fix>3d</fix>
</trkpt>
<trkpt lat="-27.274439" lon="151.290064">
  <ele>343.0</ele>
  <time>2026-09-01T01:11:09Z</time>
  <course>0.0</course>
  <speed>0.0</speed>
  <fix>3d</fix>
</trkpt>
<trkpt lat="-27.274439" lon="151.290064">
  <ele>343.0</ele>
  <time>2026-09-01T01:11:09Z</time>
  <course>154.29</course>
  <speed>0.9243916918709297</speed>
  <fix>3d</fix>
</trkpt>
<trkpt lat="-27.274439" lon="151.290064">
  <ele>343.0</ele>
  <time>2026-09-01T01:11:09Z</time>
  <course>0.0</course>
  <speed>0.0</speed>
  <fix>3d</fix>
</trkpt>
<trkpt lat="-27.274439" lon="151.290064">
  <ele>343.0</ele>
  <time>2026-09-01T01:11:09Z</time>
  <course>154.09</course>
  <speed>0.8900561780022652</speed>
  <fix>3d</fix>
</trkpt>
<trkpt lat="-27.274439" lon="151.290064">
  <ele>343.0</ele>
  <time>2026-09-01T01:11:09Z</time>
  <course>0.0</course>
  <speed>0.0</speed>
  <fix>3d</fix>
</trkpt>
<trkpt lat="-27.274439" lon="151.290064">
  <ele>343.0</ele>
  <time>2026-09-01T01:11:09Z</time>
  <course>153.88</course>
  <speed>0.8514693182963201</speed>
  <fix>3d</fix>
</trkpt>
<trkpt lat="-27.274439" lon="151.290064">
  <ele>343.0</ele>
  <time>2026-09-01T01:11:09Z</time>
  <course>0.0</course>
  <speed>0.0</speed>
  <fix>3d</fix>
</trkpt>
<trkpt lat="-27.274439" lon="151.290064">
  <ele>343.0</ele>
  <time>2026-09-01T01:11:09Z</time>
  <course>153.67</course>
  <speed>0.8174350127074322</speed>
  <fix>3d</fix>
</trkpt>
<trkpt lat="-27.274439" lon="151.290064">
  <ele>343.0</ele>
  <time>2026-09-01T01:11:09Z</time>
  <course>0.0</course>
  <speed>0.0</speed>
  <fix>3d</fix>
</trkpt>
<trkpt lat="-27.274439" lon="151.290064">
  <ele>343.0</ele>
  <time>2026-09-01T01:11:09Z</time>
  <course>153.46</course>
  <speed>0.7962411694957753</speed>
  <fix>3d</fix>
</trkpt>
<trkpt lat="-27.274439" lon="151.290064">
  <ele>343.0</ele>
  <time>2026-09-01T01:11:09Z</time>
  <course>0.0</course>
  <speed>0.0</speed>
  <fix>3d</fix>
</trkpt>
<trkpt lat="-27.274439" lon="151.290064">
  <ele>343.0</ele>
  <time>2026-09-01T01:11:09Z</time>
  <course>153.24</course>
  <speed>0.7569015788066504</speed>
  <fix>3d</fix>
</trkpt>
<trkpt lat="-27.274439" lon="151.290064">
  <ele>343.0</ele>
  <time>2026-09-01T01:11:09Z</time>
  <course>0.0</course>
  <speed>0.0</speed>
  <fix>3d</fix>
</trkpt>
<trkpt lat="-27.274439" lon="151.2900646">
  <ele>343.04</ele>
  <time>2026-09-01T01:11:09Z</time>
  <course>153.03</course>
  <speed>0.0</speed>
  <fix>3d</fix>
</trkpt>
<trkpt lat="-27.274439" lon="151.290064">
  <ele>343.0</ele>
  <time>2026-09-01T01:11:09Z</time>
  <course>0.0</course>
  <speed>0.0</speed>
  <fix>3d</fix>
</trkpt>
<trkpt lat="-27.2744392" lon="151.2900653">
  <ele>343.03</ele>
  <time>2026-09-01T01:11:09Z</time>
  <course>152.83</course>
  <speed>0.0848528137423857</speed>
  <fix>3d</fix>
</trkpt>
<trkpt lat="-27.274439" lon="151.290064">
  <ele>343.0</ele>
  <time>2026-09-01T01:11:09Z</time>
  <course>0.0</course>
  <speed>0.0</speed>
  <fix>3d</fix>
</trkpt>
<trkpt lat="-27.2744393" lon="151.2900645">
  <ele>343.02</ele>
  <time>2026-09-01T01:11:09Z</time>
  <course>152.57</course>
  <speed>0.08602325267042626</speed>
  <fix>3d</fix>
</trkpt>
<trkpt lat="-27.274439" lon="151.290064">
  <ele>343.0</ele>
  <time>2026-09-01T01:11:09Z</time>
  <course>0.0</course>
  <speed>0.0</speed>
  <fix>3d</fix>
</trkpt>
<trkpt lat="-27.2744392" lon="151.2900642">
  <ele>343.03</ele>
  <time>2026-09-01T01:11:09Z</time>
  <course>152.29</course>
  <speed>0.05830951894845301</speed>
  <fix>3d</fix>
</trkpt>
<trkpt lat="-27.274439" lon="151.290064">
  <ele>343.0</ele>
  <time>2026-09-01T01:11:09Z</time>
  <course>0.0</course>
  <speed>0.0</speed>
  <fix>3d</fix>
</trkpt>
<trkpt lat="-27.2744391" lon="151.2900641">
  <ele>343.06</ele>
  <time>2026-09-01T01:11:09Z</time>
  <course>152.03</course>
  <speed>0.02</speed>
  <fix>3d</fix>
</trkpt>
<trkpt lat="-27.274439" lon="151.290064">
  <ele>343.0</ele>
  <time>2026-09-01T01:11:09Z</time>
  <course>0.0</course>
  <speed>0.0</speed>
  <fix>3d</fix>
</trkpt>
<trkpt lat="-27.274439" lon="151.290064">
  <ele>343.05</ele>
  <time>2026-09-01T01:11:09Z</time>
  <course>151.79</course>
  <speed>0.01</speed>
  <fix>3d</fix>
</trkpt>
<trkpt lat="-27.274439" lon="151.290064">
  <ele>343.0</ele>
  <time>2026-09-01T01:11:09Z</time>
  <course>0.0</course>
  <speed>0.0</speed>
  <fix>3d</fix>
</trkpt>
<trkpt lat="-27.274439" lon="151.290064">
  <ele>343.04</ele>
  <time>2026-09-01T01:11:09Z</time>
  <course>151.57</course>
  <speed>0.01414213562373095</speed>
  <fix>3d</fix>
</trkpt>
<trkpt lat="-27.274439" lon="151.290064">
  <ele>343.0</ele>
  <time>2026-09-01T01:11:09Z</time>
  <course>0.0</course>
  <speed>0.0</speed>
  <fix>3d</fix>
</trkpt>
<trkpt lat="-27.2744389" lon="151.2900639">
  <ele>343.04</ele>
  <time>2026-09-01T01:11:09Z</time>
  <course>151.37</course>
  <speed>0.01414213562373095</speed>
  <fix>3d</fix>
</trkpt>
<trkpt lat="-27.274439" lon="151.290064">
  <ele>343.0</ele>
  <time>2026-09-01T01:11:09Z</time>
  <course>0.0</course>
  <speed>0.0</speed>
  <fix>3d</fix>
</trkpt>
<trkpt lat="-27.2744389" lon="151.2900638">
  <ele>343.05</ele>
  <time>2026-09-01T01:11:09Z</time>
  <course>151.18</course>
  <speed>0.0282842712474619</speed>
  <fix>3d</fix>
</trkpt>
<trkpt lat="-27.274439" lon="151.290064">
  <ele>343.0</ele>
  <time>2026-09-01T01:11:09Z</time>
  <course>0.0</course>
  <speed>0.0</speed>
  <fix>3d</fix>
</trkpt>
<trkpt lat="-27.2744389" lon="151.2900638">
  <ele>343.06</ele>
  <time>2026-09-01T01:11:09Z</time>
  <course>151.01</course>
  <speed>0.0282842712474619</speed>
  <fix>3d</fix>
</trkpt>
<trkpt lat="-27.274439" lon="151.290064">
  <ele>343.0</ele>
  <time>2026-09-01T01:11:09Z</time>
  <course>0.0</course>
  <speed>0.0</speed>
  <fix>3d</fix>
</trkpt>
<trkpt lat="-27.2744389" lon="151.2900638">
  <ele>343.03</ele>
  <time>2026-09-01T01:11:09Z</time>
  <course>150.84</course>
  <speed>0.0282842712474619</speed>
  <fix>3d</fix>
</trkpt>
<trkpt lat="-27.274439" lon="151.290064">
  <ele>343.0</ele>
  <time>2026-09-01T01:11:09Z</time>
  <course>0.0</course>
  <speed>0.0</speed>
  <fix>3d</fix>
</trkpt>
<trkpt lat="-27.2744389" lon="151.2900638">
  <ele>343.04</ele>
  <time>2026-09-01T01:11:09Z</time>
  <course>150.68</course>
  <speed>0.0282842712474619</speed>
  <fix>3d</fix>
</trkpt>
<trkpt lat="-27.274439" lon="151.290064">
  <ele>343.0</ele>
  <time>2026-09-01T01:11:09Z</time>
  <course>0.0</course>
  <speed>0.0</speed>
  <fix>3d</fix>
</trkpt>
<trkpt lat="-27.2744389" lon="151.2900638">
  <ele>343.03</ele>
  <time>2026-09-01T01:11:09Z</time>
  <course>150.52</course>
  <speed>0.022360679774997897</speed>
  <fix>3d</fix>
</trkpt>
<trkpt lat="-27.274439" lon="151.290064">
  <ele>343.0</ele>
  <time>2026-09-01T01:11:09Z</time>
  <course>0.0</course>
  <speed>0.0</speed>
  <fix>3d</fix>
</trkpt>
<trkpt lat="-27.2744389" lon="151.2900638">
  <ele>343.04</ele>
  <time>2026-09-01T01:11:09Z</time>
  <course>150.38</course>
  <speed>0.022360679774997897</speed>
  <fix>3d</fix>
</trkpt>
<trkpt lat="-27.274439" lon="151.290064">
  <ele>343.0</ele>
  <time>2026-09-01T01:11:09Z</time>
  <course>0.0</course>
  <speed>0.0</speed>
  <fix>3d</fix>
</trkpt>
<trkpt lat="-27.2744389" lon="151.2900638">
  <ele>343.03</ele>
  <time>2026-09-01T01:11:09Z</time>
  <course>150.24</course>
  <speed>0.022360679774997897</speed>
  <fix>3d</fix>
</trkpt>
<trkpt lat="-27.274439" lon="151.290064">
  <ele>343.0</ele>
  <time>2026-09-01T01:11:09Z</time>
  <course>0.0</course>
  <speed>0.0</speed>
  <fix>3d</fix>
</trkpt>
<trkpt lat="-27.2744389" lon="151.2900638">
  <ele>343.02</ele>
  <time>2026-09-01T01:11:09Z</time>
  <course>150.11</course>
  <speed>0.022360679774997897</speed>
  <fix>3d</fix>
</trkpt>
<trkpt lat="-27.274439" lon="151.290064">
  <ele>343.0</ele>
  <time>2026-09-01T01:11:09Z</time>
  <course>0.0</course>
  <speed>0.0</speed>
  <fix>3d</fix>
</trkpt>
<trkpt lat="-27.2744389" lon="151.2900638">
  <ele>343.0</ele>
  <time>2026-09-01T01:11:09Z</time>
  <course>149.98</course>
  <speed>0.022360679774997897</speed>
  <fix>3d</fix>
</trkpt>
<trkpt lat="-27.274439" lon="151.290064">
  <ele>343.0</ele>
  <time>2026-09-01T01:11:09Z</time>
  <course>0.0</course>
  <speed>0.0</speed>
  <fix>3d</fix>
</trkpt>
<trkpt lat="-27.2744389" lon="151.2900638">
  <ele>343.01</ele>
  <time>2026-09-01T01:11:09Z</time>
  <course>149.86</course>
  <speed>0.022360679774997897</speed>
  <fix>3d</fix>
</trkpt>
<trkpt lat="-27.274439" lon="151.290064">
  <ele>343.0</ele>
  <time>2026-09-01T01:11:09Z</time>
  <course>0.0</course>
  <speed>0.0</speed>
  <fix>3d</fix>
</trkpt>
<trkpt lat="-27.2744389" lon="151.2900638">
  <ele>343.04</ele>
  <time>2026-09-01T01:11:09Z</time>
  <course>149.75</course>
  <speed>0.022360679774997897</speed>
  <fix>3d</fix>
</trkpt>
<trkpt lat="-27.274439" lon="151.290064">
  <ele>343.0</ele>
  <time>2026-09-01T01:11:09Z</time>
  <course>0.0</course>
  <speed>0.0</speed>
  <fix>3d</fix>
</trkpt>
<trkpt lat="-27.2744389" lon="151.2900638">
  <ele>343.04</ele>
  <time>2026-09-01T01:11:09Z</time>
  <course>149.64</course>
  <speed>0.022360679774997897</speed>
  <fix>3d</fix>
</trkpt>
<trkpt lat="-27.274439" lon="151.290064">
  <ele>343.0</ele>
  <time>2026-09-01T01:11:09Z</time>
  <course>0.0</course>
  <speed>0.0</speed>
  <fix>3d</fix>
</trkpt>
<trkpt lat="-27.2744389" lon="151.2900638">
  <ele>343.04</ele>
  <time>2026-09-01T01:11:09Z</time>
  <course>149.53</course>
  <speed>0.022360679774997897</speed>
  <fix>3d</fix>
</trkpt>
<trkpt lat="-27.274439" lon="151.290064">
  <ele>343.0</ele>
  <time>2026-09-01T01:11:09Z</time>
  <course>0.0</course>
  <speed>0.0</speed>
  <fix>3d</fix>
</trkpt>
<trkpt lat="-27.2744389" lon="151.2900638">
  <ele>343.04</ele>
  <time>2026-09-01T01:11:09Z</time>
  <course>149.44</course>
  <speed>0.022360679774997897</speed>
  <fix>3d</fix>
</trkpt>
<trkpt lat="-27.274439" lon="151.290064">
  <ele>343.0</ele>
  <time>2026-09-01T01:11:09Z</time>
  <course>0.0</course>
  <speed>0.0</speed>
  <fix>3d</fix>
</trkpt>
<trkpt lat="-27.2744389" lon="151.2900638">
  <ele>343.03</ele>
  <time>2026-09-01T01:11:09Z</time>
  <course>149.34</course>
  <speed>0.022360679774997897</speed>
  <fix>3d</fix>
</trkpt>
<trkpt lat="-27.274439" lon="151.290064">
  <ele>343.0</ele>
  <time>2026-09-01T01:11:09Z</time>
  <course>0.0</course>
  <speed>0.0</speed>
  <fix>3d</fix>
</trkpt>
<trkpt lat="-27.2744389" lon="151.2900638">
  <ele>343.02</ele>
  <time>2026-09-01T01:11:09Z</time>
  <course>149.25</course>
  <speed>0.022360679774997897</speed>
  <fix>3d</fix>
</trkpt>
<trkpt lat="-27.274439" lon="151.290064">
  <ele>343.0</ele>
  <time>2026-09-01T01:11:09Z</time>
  <course>0.0</course>
  <speed>0.0</speed>
  <fix>3d</fix>
</trkpt>
<trkpt lat="-27.2744389" lon="151.2900638">
  <ele>343.05</ele>
  <time>2026-09-01T01:11:09Z</time>
  <course>149.17</course>
  <speed>0.022360679774997897</speed>
  <fix>3d</fix>
</trkpt>
<trkpt lat="-27.274439" lon="151.290064">
  <ele>343.0</ele>
  <time>2026-09-01T01:11:09Z</time>
  <course>0.0</course>
  <speed>0.0</speed>
  <fix>3d</fix>
</trkpt>
<trkpt lat="-27.2744389" lon="151.2900638">
  <ele>343.04</ele>
  <time>2026-09-01T01:11:09Z</time>
  <course>149.09</course>
  <speed>0.02</speed>
  <fix>3d</fix>
</trkpt>
<trkpt lat="-27.274439" lon="151.290064">
  <ele>343.0</ele>
  <time>2026-09-01T01:11:09Z</time>
  <course>0.0</course>
  <speed>0.0</speed>
  <fix>3d</fix>
</trkpt>
<trkpt lat="-27.2744389" lon="151.2900638">
  <ele>343.05</ele>
  <time>2026-09-01T01:11:09Z</time>
  <course>149.01</course>
  <speed>0.022360679774997897</speed>
  <fix>3d</fix>
</trkpt>
<trkpt lat="-27.274439" lon="151.290064">
  <ele>343.0</ele>
  <time>2026-09-01T01:11:09Z</time>
  <course>0.0</course>
  <speed>0.0</speed>
  <fix>3d</fix>
</trkpt>
<trkpt lat="-27.2744389" lon="151.2900638">
  <ele>343.03</ele>
  <time>2026-09-01T01:11:09Z</time>
  <course>148.94</course>
  <speed>0.02</speed>
  <fix>3d</fix>
</trkpt>
<trkpt lat="-27.274439" lon="151.290064">
  <ele>343.0</ele>
  <time>2026-09-01T01:11:09Z</time>
  <course>0.0</course>
  <speed>0.0</speed>
  <fix>3d</fix>
</trkpt>
<trkpt lat="-27.2744389" lon="151.2900638">
  <ele>343.02</ele>
  <time>2026-09-01T01:11:09Z</time>
  <course>148.87</course>
  <speed>0.022360679774997897</speed>
  <fix>3d</fix>
</trkpt>
<trkpt lat="-27.274439" lon="151.290064">
  <ele>343.0</ele>
  <time>2026-09-01T01:11:09Z</time>
  <course>0.0</course>
  <speed>0.0</speed>
  <fix>3d</fix>
</trkpt>
<trkpt lat="-27.2744389" lon="151.2900638">
  <ele>343.02</ele>
  <time>2026-09-01T01:11:09Z</time>
  <course>148.8</course>
  <speed>0.02</speed>
  <fix>3d</fix>
</trkpt>
<trkpt lat="-27.274439" lon="151.290064">
  <ele>343.0</ele>
  <time>2026-09-01T01:11:09Z</time>
  <course>0.0</course>
  <speed>0.0</speed>
  <fix>3d</fix>
</trkpt>
<trkpt lat="-27.2744389" lon="151.2900638">
  <ele>343.02</ele>
  <time>2026-09-01T01:11:09Z</time>
  <course>148.74</course>
  <speed>0.02</speed>
  <fix>3d</fix>
</trkpt>
<trkpt lat="-27.274439" lon="151.290064">
  <ele>343.0</ele>
  <time>2026-09-01T01:11:09Z</time>
  <course>0.0</course>
  <speed>0.0</speed>
  <fix>3d</fix>
</trkpt>
<trkpt lat="-27.2744389" lon="151.2900638">
  <ele>343.0</ele>
  <time>2026-09-01T01:11:09Z</time>
  <course>148.67</course>
  <speed>0.02</speed>
  <fix>3d</fix>
</trkpt>
<trkpt lat="-27.274439" lon="151.290064">
  <ele>343.0</ele>
  <time>2026-09-01T01:11:09Z</time>
  <course>0.0</course>
  <speed>0.0</speed>
  <fix>3d</fix>
</trkpt>
<trkpt lat="-27.2744389" lon="151.2900638">
  <ele>343.0</ele>
  <time>2026-09-01T01:11:09Z</time>
  <course>148.62</course>
  <speed>0.02</speed>
  <fix>3d</fix>
</trkpt>
<trkpt lat="-27.274439" lon="151.290064">
  <ele>343.0</ele>
  <time>2026-09-01T01:11:09Z</time>
  <course>0.0</course>
  <speed>0.0</speed>
  <fix>3d</fix>
</trkpt>
<trkpt lat="-27.2744389" lon="151.2900638">
  <ele>343.01</ele>
  <time>2026-09-01T01:11:09Z</time>
  <course>148.56</course>
  <speed>0.02</speed>
  <fix>3d</fix>
</trkpt>
<trkpt lat="-27.274439" lon="151.290064">
  <ele>343.0</ele>
  <time>2026-09-01T01:11:09Z</time>
  <course>0.0</course>
  <speed>0.0</speed>
  <fix>3d</fix>
</trkpt>
<trkpt lat="-27.2744389" lon="151.2900638">
  <ele>342.99</ele>
  <time>2026-09-01T01:11:09Z</time>
  <course>148.51</course>
  <speed>0.02</speed>
  <fix>3d</fix>
</trkpt>
<trkpt lat="-27.274439" lon="151.290064">
  <ele>343.0</ele>
  <time>2026-09-01T01:11:09Z</time>
  <course>0.0</course>
  <speed>0.0</speed>
  <fix>3d</fix>
</trkpt>
<trkpt lat="-27.2744389" lon="151.2900638">
  <ele>342.99</ele>
  <time>2026-09-01T01:11:09Z</time>
  <course>148.46</course>
  <speed>0.02</speed>
  <fix>3d</fix>
</trkpt>
<trkpt lat="-27.274439" lon="151.290064">
  <ele>343.0</ele>
  <time>2026-09-01T01:11:09Z</time>
  <course>0.0</course>
  <speed>0.0</speed>
  <fix>3d</fix>
</trkpt>
<trkpt lat="-27.2744389" lon="151.2900638">
  <ele>342.99</ele>
  <time>2026-09-01T01:11:09Z</time>
  <course>148.41</course>
  <speed>0.02</speed>
  <fix>3d</fix>
</trkpt>
<trkpt lat="-27.274439" lon="151.290064">
  <ele>343.0</ele>
  <time>2026-09-01T01:11:09Z</time>
  <course>0.0</course>
  <speed>0.0</speed>
  <fix>3d</fix>
</trkpt>
<trkpt lat="-27.2744389" lon="151.2900638">
  <ele>343.01</ele>
  <time>2026-09-01T01:11:09Z</time>
  <course>148.36</course>
  <speed>0.02</speed>
  <fix>3d</fix>
</trkpt>
<trkpt lat="-27.274439" lon="151.290064">
  <ele>343.0</ele>
  <time>2026-09-01T01:11:09Z</time>
  <course>0.0</course>
  <speed>0.0</speed>
  <fix>3d</fix>
</trkpt>
<trkpt lat="-27.2744389" lon="151.2900638">
  <ele>343.01</ele>
  <time>2026-09-01T01:11:09Z</time>
  <course>148.32</course>
  <speed>0.02</speed>
  <fix>3d</fix>
</trkpt>
<trkpt lat="-27.274439" lon="151.290064">
  <ele>343.0</ele>
  <time>2026-09-01T01:11:09Z</time>
  <course>0.0</course>
  <speed>0.0</speed>
  <fix>3d</fix>
</trkpt>
<trkpt lat="-27.2744389" lon="151.2900638">
  <ele>343.02</ele>
  <time>2026-09-01T01:11:09Z</time>
  <course>148.27</course>
  <speed>0.02</speed>
  <fix>3d</fix>
</trkpt>
<trkpt lat="-27.274439" lon="151.290064">
  <ele>343.0</ele>
  <time>2026-09-01T01:11:09Z</time>
  <course>0.0</course>
  <speed>0.0</speed>
  <fix>3d</fix>
</trkpt>
<trkpt lat="-27.2744389" lon="151.2900638">
  <ele>343.01</ele>
  <time>2026-09-01T01:11:09Z</time>
  <course>148.23</course>
  <speed>0.02</speed>
  <fix>3d</fix>
</trkpt>
<trkpt lat="-27.274439" lon="151.290064">
  <ele>343.0</ele>
  <time>2026-09-01T01:11:09Z</time>
  <course>0.0</course>
  <speed>0.0</speed>
  <fix>3d</fix>
</trkpt>
<trkpt lat="-27.2744389" lon="151.2900638">
  <ele>343.02</ele>
  <time>2026-09-01T01:11:09Z</time>
  <course>148.19</course>
  <speed>0.02</speed>
  <fix>3d</fix>
</trkpt>
<trkpt lat="-27.274439" lon="151.290064">
  <ele>343.0</ele>
  <time>2026-09-01T01:11:09Z</time>
  <course>0.0</course>
  <speed>0.0</speed>
  <fix>3d</fix>
</trkpt>
<trkpt lat="-27.2744389" lon="151.2900638">
  <ele>343.05</ele>
  <time>2026-09-01T01:11:09Z</time>
  <course>148.15</course>
  <speed>0.02</speed>
  <fix>3d</fix>
</trkpt>
<trkpt lat="-27.274439" lon="151.290064">
  <ele>343.0</ele>
  <time>2026-09-01T01:11:09Z</time>
  <course>0.0</course>
  <speed>0.0</speed>
  <fix>3d</fix>
</trkpt>
<trkpt lat="-27.2744389" lon="151.2900638">
  <ele>343.03</ele>
  <time>2026-09-01T01:11:09Z</time>
  <course>148.12</course>
  <speed>0.02</speed>
  <fix>3d</fix>
</trkpt>
<trkpt lat="-27.274439" lon="151.290064">
  <ele>343.0</ele>
  <time>2026-09-01T01:11:09Z</time>
  <course>0.0</course>
  <speed>0.0</speed>
  <fix>3d</fix>
</trkpt>
<trkpt lat="-27.2744389" lon="151.2900638">
  <ele>343.04</ele>
  <time>2026-09-01T01:11:09Z</time>
  <course>148.08</course>
  <speed>0.02</speed>
  <fix>3d</fix>
</trkpt>
<trkpt lat="-27.274439" lon="151.290064">
  <ele>343.0</ele>
  <time>2026-09-01T01:11:09Z</time>
  <course>0.0</course>
  <speed>0.0</speed>
  <fix>3d</fix>
</trkpt>
<trkpt lat="-27.2744389" lon="151.2900638">
  <ele>343.03</ele>
  <time>2026-09-01T01:11:09Z</time>
  <course>148.05</course>
  <speed>0.02</speed>
  <fix>3d</fix>
</trkpt>
<trkpt lat="-27.274439" lon="151.290064">
  <ele>343.0</ele>
  <time>2026-09-01T01:11:09Z</time>
  <course>0.0</course>
  <speed>0.0</speed>
  <fix>3d</fix>
</trkpt>
<trkpt lat="-27.2744389" lon="151.2900638">
  <ele>343.03</ele>
  <time>2026-09-01T01:11:09Z</time>
  <course>148.02</course>
  <speed>0.02</speed>
  <fix>3d</fix>
</trkpt>
<trkpt lat="-27.274439" lon="151.290064">
  <ele>343.0</ele>
  <time>2026-09-01T01:11:09Z</time>
  <course>0.0</course>
  <speed>0.0</speed>
  <fix>3d</fix>
</trkpt>
<trkpt lat="-27.2744389" lon="151.2900638">
  <ele>343.03</ele>
  <time>2026-09-01T01:11:09Z</time>
  <course>147.98</course>
  <speed>0.02</speed>
  <fix>3d</fix>
</trkpt>
<trkpt lat="-27.274439" lon="151.290064">
  <ele>343.0</ele>
  <time>2026-09-01T01:11:09Z</time>
  <course>0.0</course>
  <speed>0.0</speed>
  <fix>3d</fix>
</trkpt>
<trkpt lat="-27.2744389" lon="151.2900638">
  <ele>343.02</ele>
  <time>2026-09-01T01:11:09Z</time>
  <course>147.95</course>
  <speed>0.02</speed>
  <fix>3d</fix>
</trkpt>
<trkpt lat="-27.274439" lon="151.290064">
  <ele>343.0</ele>
  <time>2026-09-01T01:11:09Z</time>
  <course>0.0</course>
  <speed>0.0</speed>
  <fix>3d</fix>
</trkpt>
<trkpt lat="-27.2744389" lon="151.2900638">
  <ele>343.03</ele>
  <time>2026-09-01T01:11:09Z</time>
  <course>147.93</course>
  <speed>0.02</speed>
  <fix>3d</fix>
</trkpt>
<trkpt lat="-27.274439" lon="151.290064">
  <ele>343.0</ele>
  <time>2026-09-01T01:11:09Z</time>
  <course>0.0</course>
  <speed>0.0</speed>
  <fix>3d</fix>
</trkpt>
<trkpt lat="-27.2744389" lon="151.2900638">
  <ele>343.03</ele>
  <time>2026-09-01T01:11:09Z</time>
  <course>147.89</course>
  <speed>0.02</speed>
  <fix>3d</fix>
</trkpt>
<trkpt lat="-27.274439" lon="151.290064">
  <ele>343.0</ele>
  <time>2026-09-01T01:11:09Z</time>
  <course>0.0</course>
  <speed>0.0</speed>
  <fix>3d</fix>
</trkpt>
<trkpt lat="-27.2744389" lon="151.2900638">
  <ele>343.02</ele>
  <time>2026-09-01T01:11:09Z</time>
  <course>147.87</course>
  <speed>0.02</speed>
  <fix>3d</fix>
</trkpt>
<trkpt lat="-27.274439" lon="151.290064">
  <ele>343.0</ele>
  <time>2026-09-01T01:11:09Z</time>
  <course>0.0</course>
  <speed>0.0</speed>
  <fix>3d</fix>
</trkpt>
<trkpt lat="-27.2744389" lon="151.2900638">
  <ele>343.05</ele>
  <time>2026-09-01T01:11:09Z</time>
  <course>147.84</course>
  <speed>0.02</speed>
  <fix>3d</fix>
</trkpt>
<trkpt lat="-27.274439" lon="151.290064">
  <ele>343.0</ele>
  <time>2026-09-01T01:11:09Z</time>
  <course>0.0</course>
  <speed>0.0</speed>
  <fix>3d</fix>
</trkpt>
<trkpt lat="-27.2744389" lon="151.2900638">
  <ele>343.03</ele>
  <time>2026-09-01T01:11:09Z</time>
  <course>147.82</course>
  <speed>0.02</speed>
  <fix>3d</fix>
</trkpt>
<trkpt lat="-27.274439" lon="151.290064">
  <ele>343.0</ele>
  <time>2026-09-01T01:11:09Z</time>
  <course>0.0</course>
  <speed>0.0</speed>
  <fix>3d</fix>
</trkpt>
<trkpt lat="-27.2744389" lon="151.2900638">
  <ele>343.02</ele>
  <time>2026-09-01T01:11:09Z</time>
  <course>147.79</course>
  <speed>0.02</speed>
  <fix>3d</fix>
</trkpt>
<trkpt lat="-27.274439" lon="151.290064">
  <ele>343.0</ele>
  <time>2026-09-01T01:11:09Z</time>
  <course>0.0</course>
  <speed>0.0</speed>
  <fix>3d</fix>
</trkpt>
<trkpt lat="-27.2744389" lon="151.2900638">
  <ele>343.01</ele>
  <time>2026-09-01T01:11:09Z</time>
  <course>147.77</course>
  <speed>0.02</speed>
  <fix>3d</fix>
</trkpt>
<trkpt lat="-27.274439" lon="151.290064">
  <ele>343.0</ele>
  <time>2026-09-01T01:11:09Z</time>
  <course>0.0</course>
  <speed>0.0</speed>
  <fix>3d</fix>
</trkpt>
<trkpt lat="-27.2744389" lon="151.2900638">
  <ele>343.0</ele>
  <time>2026-09-01T01:11:09Z</time>
  <course>147.74</course>
  <speed>0.02</speed>
  <fix>3d</fix>
</trkpt>
<trkpt lat="-27.274439" lon="151.290064">
  <ele>343.0</ele>
  <time>2026-09-01T01:11:09Z</time>
  <course>0.0</course>
  <speed>0.0</speed>
  <fix>3d</fix>
</trkpt>
<trkpt lat="-27.2744389" lon="151.2900638">
  <ele>343.01</ele>
  <time>2026-09-01T01:11:09Z</time>
  <course>147.73</course>
  <speed>0.02</speed>
  <fix>3d</fix>
</trkpt>
<trkpt lat="-27.274439" lon="151.290064">
  <ele>343.0</ele>
  <time>2026-09-01T01:11:09Z</time>
  <course>0.0</course>
  <speed>0.0</speed>
  <fix>3d</fix>
</trkpt>
<trkpt lat="-27.2744389" lon="151.2900638">
  <ele>343.0</ele>
  <time>2026-09-01T01:11:09Z</time>
  <course>147.7</course>
  <speed>0.02</speed>
  <fix>3d</fix>
</trkpt>
<trkpt lat="-27.274439" lon="151.290064">
  <ele>343.0</ele>
  <time>2026-09-01T01:11:09Z</time>
  <course>0.0</course>
  <speed>0.0</speed>
  <fix>3d</fix>
</trkpt>
<trkpt lat="-27.2744389" lon="151.2900638">
  <ele>342.99</ele>
  <time>2026-09-01T01:11:09Z</time>
  <course>147.69</course>
  <speed>0.02</speed>
  <fix>3d</fix>
</trkpt>
<trkpt lat="-27.274439" lon="151.290064">
  <ele>343.0</ele>
  <time>2026-09-01T01:11:09Z</time>
  <course>0.0</course>
  <speed>0.0</speed>
  <fix>3d</fix>
</trkpt>
<trkpt lat="-27.2744389" lon="151.2900638">
  <ele>342.99</ele>
  <time>2026-09-01T01:11:09Z</time>
  <course>147.66</course>
  <speed>0.02</speed>
  <fix>3d</fix>
</trkpt>
<trkpt lat="-27.274439" lon="151.290064">
  <ele>343.0</ele>
  <time>2026-09-01T01:11:09Z</time>
  <course>0.0</course>
  <speed>0.0</speed>
  <fix>3d</fix>
</trkpt>
<trkpt lat="-27.2744389" lon="151.2900638">
  <ele>343.0</ele>
  <time>2026-09-01T01:11:09Z</time>
  <course>147.65</course>
  <speed>0.02</speed>
  <fix>3d</fix>
</trkpt>
<trkpt lat="-27.274439" lon="151.290064">
  <ele>343.0</ele>
  <time>2026-09-01T01:11:09Z</time>
  <course>0.0</course>
  <speed>0.0</speed>
  <fix>3d</fix>
</trkpt>
<trkpt lat="-27.2744389" lon="151.2900638">
  <ele>343.01</ele>
  <time>2026-09-01T01:11:09Z</time>
  <course>147.63</course>
  <speed>0.02</speed>
  <fix>3d</fix>
</trkpt>
<trkpt lat="-27.274439" lon="151.290064">
  <ele>343.0</ele>
  <time>2026-09-01T01:11:09Z</time>
  <course>0.0</course>
  <speed>0.0</speed>
  <fix>3d</fix>
</trkpt>
<trkpt lat="-27.2744389" lon="151.2900638">
  <ele>343.0</ele>
  <time>2026-09-01T01:11:09Z</time>
  <course>147.61</course>
  <speed>0.02</speed>
  <fix>3d</fix>
</trkpt>
<trkpt lat="-27.274439" lon="151.290064">
  <ele>343.0</ele>
  <time>2026-09-01T01:11:09Z</time>
  <course>0.0</course>
  <speed>0.0</speed>
  <fix>3d</fix>
</trkpt>
<trkpt lat="-27.2744389" lon="151.2900638">
  <ele>342.99</ele>
  <time>2026-09-01T01:11:09Z</time>
  <course>147.6</course>
  <speed>0.02</speed>
  <fix>3d</fix>
</trkpt>
<trkpt lat="-27.274439" lon="151.290064">
  <ele>343.0</ele>
  <time>2026-09-01T01:11:09Z</time>
  <course>0.0</course>
  <speed>0.0</speed>
  <fix>3d</fix>
</trkpt>
<trkpt lat="-27.2744389" lon="151.2900638">
  <ele>342.99</ele>
  <time>2026-09-01T01:11:09Z</time>
  <course>147.58</course>
  <speed>0.02</speed>
  <fix>3d</fix>
</trkpt>
<trkpt lat="-27.274439" lon="151.290064">
  <ele>343.0</ele>
  <time>2026-09-01T01:11:09Z</time>
  <course>0.0</course>
  <speed>0.0</speed>
  <fix>3d</fix>
</trkpt>
<trkpt lat="-27.2744389" lon="151.2900638">
  <ele>343.0</ele>
  <time>2026-09-01T01:11:09Z</time>
  <course>147.56</course>
  <speed>0.02</speed>
  <fix>3d</fix>
</trkpt>
<trkpt lat="-27.274439" lon="151.290064">
  <ele>343.0</ele>
  <time>2026-09-01T01:11:09Z</time>
  <course>0.0</course>
  <speed>0.0</speed>
  <fix>3d</fix>
</trkpt>
<trkpt lat="-27.2744389" lon="151.2900638">
  <ele>343.02</ele>
  <time>2026-09-01T01:11:09Z</time>
  <course>147.55</course>
  <speed>0.02</speed>
  <fix>3d</fix>
</trkpt>
<trkpt lat="-27.274439" lon="151.290064">
  <ele>343.0</ele>
  <time>2026-09-01T01:11:09Z</time>
  <course>0.0</course>
  <speed>0.0</speed>
  <fix>3d</fix>
</trkpt>
<trkpt lat="-27.2744389" lon="151.2900638">
  <ele>343.01</ele>
  <time>2026-09-01T01:11:09Z</time>
  <course>147.53</course>
  <speed>0.02</speed>
  <fix>3d</fix>
</trkpt>
<trkpt lat="-27.274439" lon="151.290064">
  <ele>343.0</ele>
  <time>2026-09-01T01:11:09Z</time>
  <course>0.0</course>
  <speed>0.0</speed>
  <fix>3d</fix>
</trkpt>
<trkpt lat="-27.2744389" lon="151.2900638">
  <ele>343.01</ele>
  <time>2026-09-01T01:11:09Z</time>
  <course>147.52</course>
  <speed>0.02</speed>
  <fix>3d</fix>
</trkpt>
<trkpt lat="-27.274439" lon="151.290064">
  <ele>343.0</ele>
  <time>2026-09-01T01:11:09Z</time>
  <course>0.0</course>
  <speed>0.0</speed>
  <fix>3d</fix>
</trkpt>
<trkpt lat="-27.2744389" lon="151.2900638">
  <ele>343.02</ele>
  <time>2026-09-01T01:11:09Z</time>
  <course>147.51</course>
  <speed>0.02</speed>
  <fix>3d</fix>
</trkpt>
<trkpt lat="-27.274439" lon="151.290064">
  <ele>343.0</ele>
  <time>2026-09-01T01:11:09Z</time>
  <course>0.0</course>
  <speed>0.0</speed>
  <fix>3d</fix>
</trkpt>
<trkpt lat="-27.2744389" lon="151.2900638">
  <ele>343.01</ele>
  <time>2026-09-01T01:11:09Z</time>
  <course>147.49</course>
  <speed>0.02</speed>
  <fix>3d</fix>
</trkpt>
<trkpt lat="-27.274439" lon="151.290064">
  <ele>343.0</ele>
  <time>2026-09-01T01:11:09Z</time>
  <course>0.0</course>
  <speed>0.0</speed>
  <fix>3d</fix>
</trkpt>
<trkpt lat="-27.2744389" lon="151.2900638">
  <ele>343.0</ele>
  <time>2026-09-01T01:11:09Z</time>
  <course>147.48</course>
  <speed>0.02</speed>
  <fix>3d</fix>
</trkpt>
<trkpt lat="-27.274439" lon="151.290064">
  <ele>343.0</ele>
  <time>2026-09-01T01:11:09Z</time>
  <course>0.0</course>
  <speed>0.0</speed>
  <fix>3d</fix>
</trkpt>
<trkpt lat="-27.2744389" lon="151.2900638">
  <ele>343.04</ele>
  <time>2026-09-01T01:11:09Z</time>
  <course>147.47</course>
  <speed>0.02</speed>
  <fix>3d</fix>
</trkpt>
<trkpt lat="-27.274439" lon="151.290064">
  <ele>343.0</ele>
  <time>2026-09-01T01:11:09Z</time>
  <course>0.0</course>
  <speed>0.0</speed>
  <fix>3d</fix>
</trkpt>
<trkpt lat="-27.2744389" lon="151.2900638">
  <ele>343.04</ele>
  <time>2026-09-01T01:11:09Z</time>
  <course>147.46</course>
  <speed>0.02</speed>
  <fix>3d</fix>
</trkpt>
<trkpt lat="-27.274439" lon="151.290064">
  <ele>343.0</ele>
  <time>2026-09-01T01:11:09Z</time>
  <course>0.0</course>
  <speed>0.0</speed>
  <fix>3d</fix>
</trkpt>
<trkpt lat="-27.2744389" lon="151.2900638">
  <ele>343.01</ele>
  <time>2026-09-01T01:11:09Z</time>
  <course>147.44</course>
  <speed>0.02</speed>
  <fix>3d</fix>
</trkpt>
<trkpt lat="-27.274439" lon="151.290064">
  <ele>343.0</ele>
  <time>2026-09-01T01:11:09Z</time>
  <course>0.0</course>
  <speed>0.0</speed>
  <fix>3d</fix>
</trkpt>
<trkpt lat="-27.2744389" lon="151.2900638">
  <ele>343.01</ele>
  <time>2026-09-01T01:11:09Z</time>
  <course>147.43</course>
  <speed>0.02</speed>
  <fix>3d</fix>
</trkpt>
<trkpt lat="-27.274439" lon="151.290064">
  <ele>343.0</ele>
  <time>2026-09-01T01:11:09Z</time>
  <course>0.0</course>
  <speed>0.0</speed>
  <fix>3d</fix>
</trkpt>
<trkpt lat="-27.2744389" lon="151.2900638">
  <ele>343.02</ele>
  <time>2026-09-01T01:11:09Z</time>
  <course>147.42</course>
  <speed>0.02</speed>
  <fix>3d</fix>
</trkpt>
<trkpt lat="-27.274439" lon="151.290064">
  <ele>343.0</ele>
  <time>2026-09-01T01:11:09Z</time>
  <course>0.0</course>
  <speed>0.0</speed>
  <fix>3d</fix>
</trkpt>
<trkpt lat="-27.2744389" lon="151.2900638">
  <ele>343.04</ele>
  <time>2026-09-01T01:11:09Z</time>
  <course>147.41</course>
  <speed>0.02</speed>
  <fix>3d</fix>
</trkpt>
<trkpt lat="-27.274439" lon="151.290064">
  <ele>343.0</ele>
  <time>2026-09-01T01:11:09Z</time>
  <course>0.0</course>
  <speed>0.0</speed>
  <fix>3d</fix>
</trkpt>
<trkpt lat="-27.2744389" lon="151.2900638">
  <ele>343.03</ele>
  <time>2026-09-01T01:11:09Z</time>
  <course>147.4</course>
  <speed>0.02</speed>
  <fix>3d</fix>
</trkpt>
<trkpt lat="-27.274439" lon="151.290064">
  <ele>343.0</ele>
  <time>2026-09-01T01:11:09Z</time>
  <course>0.0</course>
  <speed>0.0</speed>
  <fix>3d</fix>
</trkpt>
<trkpt lat="-27.2744389" lon="151.2900638">
  <ele>343.01</ele>
  <time>2026-09-01T01:11:09Z</time>
  <course>147.39</course>
  <speed>0.02</speed>
  <fix>3d</fix>
</trkpt>
<trkpt lat="-27.274439" lon="151.290064">
  <ele>343.0</ele>
  <time>2026-09-01T01:11:09Z</time>
  <course>0.0</course>
  <speed>0.0</speed>
  <fix>3d</fix>
</trkpt>
<trkpt lat="-27.274439" lon="151.290064">
  <ele>343.0</ele>
  <time>2026-09-01T01:11:09Z</time>
  <course>325.88</course>
  <speed>0.0</speed>
  <fix>3d</fix>
</trkpt>
<trkpt lat="-27.274439" lon="151.290064">
  <ele>343.0</ele>
  <time>2026-09-01T01:11:10Z</time>
  <course>324.43</course>
  <speed>0.0</speed>
  <fix>3d</fix>
</trkpt>
<trkpt lat="-27.274439" lon="151.290064">
  <ele>343.0</ele>
  <time>2026-09-01T01:11:10Z</time>
  <course>321.86</course>
  <speed>0.0</speed>
  <fix>3d</fix>
</trkpt>
<trkpt lat="-27.274439" lon="151.290064">
  <ele>343.0</ele>
  <time>2026-09-01T01:11:10Z</time>
  <course>295.0</course>
  <speed>0.0</speed>
  <fix>3d</fix>
</trkpt>
<trkpt lat="-27.274439" lon="151.290064">
  <ele>343.0</ele>
  <time>2026-09-01T01:11:10Z</time>
  <course>261.98</course>
  <speed>1.283627671873741</speed>
  <fix>3d</fix>
</trkpt>
<trkpt lat="-27.274439" lon="151.290064">
  <ele>343.0</ele>
  <time>2026-09-01T01:11:10Z</time>
  <course>0.0</course>
  <speed>0.0</speed>
  <fix>3d</fix>
</trkpt>
<trkpt lat="-27.274439" lon="151.290064">
  <ele>343.0</ele>
  <time>2026-09-01T01:11:10Z</time>
  <course>255.57</course>
  <speed>1.5463828762631846</speed>
  <fix>3d</fix>
</trkpt>
<trkpt lat="-27.274439" lon="151.290064">
  <ele>343.0</ele>
  <time>2026-09-01T01:11:10Z</time>
  <course>0.0</course>
  <speed>0.0</speed>
  <fix>3d</fix>
</trkpt>
<trkpt lat="-27.274439" lon="151.290064">
  <ele>343.0</ele>
  <time>2026-09-01T01:11:10Z</time>
  <course>247.73</course>
  <speed>1.486371420607918</speed>
  <fix>3d</fix>
</trkpt>
<trkpt lat="-27.274439" lon="151.290064">
  <ele>343.0</ele>
  <time>2026-09-01T01:11:10Z</time>
  <course>0.0</course>
  <speed>0.0</speed>
  <fix>3d</fix>
</trkpt>
<trkpt lat="-27.274439" lon="151.290064">
  <ele>343.0</ele>
  <time>2026-09-01T01:11:11Z</time>
  <course>239.18</course>
  <speed>1.3601470508735443</speed>
  <fix>3d</fix>
</trkpt>
<trkpt lat="-27.274439" lon="151.290064">
  <ele>343.0</ele>
  <time>2026-09-01T01:11:11Z</time>
  <course>0.0</course>
  <speed>0.0</speed>
  <fix>3d</fix>
</trkpt>
<trkpt lat="-27.274439" lon="151.290064">
  <ele>343.0</ele>
  <time>2026-09-01T01:11:11Z</time>
  <course>230.14</course>
  <speed>1.2220065466273085</speed>
  <fix>3d</fix>
</trkpt>
<trkpt lat="-27.274439" lon="151.290064">
  <ele>343.0</ele>
  <time>2026-09-01T01:11:11Z</time>
  <course>0.0</course>
  <speed>0.0</speed>
  <fix>3d</fix>
</trkpt>
<trkpt lat="-27.274439" lon="151.290064">
  <ele>343.0</ele>
  <time>2026-09-01T01:11:11Z</time>
  <course>220.8</course>
  <speed>1.115437134042076</speed>
  <fix>3d</fix>
</trkpt>
<trkpt lat="-27.274439" lon="151.290064">
  <ele>343.0</ele>
  <time>2026-09-01T01:11:11Z</time>
  <course>0.0</course>
  <speed>0.0</speed>
  <fix>3d</fix>
</trkpt>
<trkpt lat="-27.274439" lon="151.290064">
  <ele>343.0</ele>
  <time>2026-09-01T01:11:11Z</time>
  <course>211.27</course>
  <speed>1.035857133006285</speed>
  <fix>3d</fix>
</trkpt>
<trkpt lat="-27.274439" lon="151.290064">
  <ele>343.0</ele>
  <time>2026-09-01T01:11:11Z</time>
  <course>0.0</course>
  <speed>0.0</speed>
  <fix>3d</fix>
</trkpt>
<trkpt lat="-27.274439" lon="151.290064">
  <ele>343.0</ele>
  <time>2026-09-01T01:11:11Z</time>
  <course>201.62</course>
  <speed>0.9832598842625484</speed>
  <fix>3d</fix>
</trkpt>
<trkpt lat="-27.274439" lon="151.290064">
  <ele>343.0</ele>
  <time>2026-09-01T01:11:11Z</time>
  <course>0.0</course>
  <speed>0.0</speed>
  <fix>3d</fix>
</trkpt>
<trkpt lat="-27.274439" lon="151.290064">
  <ele>343.0</ele>
  <time>2026-09-01T01:11:11Z</time>
  <course>191.86</course>
  <speed>0.9504735661763561</speed>
  <fix>3d</fix>
</trkpt>
<trkpt lat="-27.274439" lon="151.290064">
  <ele>343.0</ele>
  <time>2026-09-01T01:11:11Z</time>
  <course>0.0</course>
  <speed>0.0</speed>
  <fix>3d</fix>
</trkpt>
<trkpt lat="-27.274439" lon="151.290064">
  <ele>343.0</ele>
  <time>2026-09-01T01:11:11Z</time>
  <course>182.03</course>
  <speed>0.9000555538409837</speed>
  <fix>3d</fix>
</trkpt>
<trkpt lat="-27.274439" lon="151.290064">
  <ele>343.0</ele>
  <time>2026-09-01T01:11:11Z</time>
  <course>0.0</course>
  <speed>0.0</speed>
  <fix>3d</fix>
</trkpt>
<trkpt lat="-27.274439" lon="151.290064">
  <ele>343.0</ele>
  <time>2026-09-01T01:11:11Z</time>
  <course>172.16</course>
  <speed>0.8209750300709517</speed>
  <fix>3d</fix>
</trkpt>
<trkpt lat="-27.274439" lon="151.290064">
  <ele>343.0</ele>
  <time>2026-09-01T01:11:11Z</time>
  <course>0.0</course>
  <speed>0.0</speed>
  <fix>3d</fix>
</trkpt>
<trkpt lat="-27.274439" lon="151.290064">
  <ele>343.0</ele>
  <time>2026-09-01T01:11:11Z</time>
  <course>162.31</course>
  <speed>0.7752418977325722</speed>
  <fix>3d</fix>
</trkpt>
<trkpt lat="-27.274439" lon="151.290064">
  <ele>343.0</ele>
  <time>2026-09-01T01:11:11Z</time>
  <course>0.0</course>
  <speed>0.0</speed>
  <fix>3d</fix>
</trkpt>
<trkpt lat="-27.274439" lon="151.290064">
  <ele>343.0</ele>
  <time>2026-09-01T01:11:11Z</time>
  <course>152.45</course>
  <speed>0.71386273190299</speed>
  <fix>3d</fix>
</trkpt>
<trkpt lat="-27.274439" lon="151.290064">
  <ele>343.0</ele>
  <time>2026-09-01T01:11:11Z</time>
  <course>0.0</course>
  <speed>0.0</speed>
  <fix>3d</fix>
</trkpt>
<trkpt lat="-27.274439" lon="151.290064">
  <ele>343.0</ele>
  <time>2026-09-01T01:11:11Z</time>
  <course>142.58</course>
  <speed>0.648459713474939</speed>
  <fix>3d</fix>
</trkpt>
<trkpt lat="-27.274439" lon="151.290064">
  <ele>343.0</ele>
  <time>2026-09-01T01:11:11Z</time>
  <course>0.0</course>
  <speed>0.0</speed>
  <fix>3d</fix>
</trkpt>
<trkpt lat="-27.274439" lon="151.290064">
  <ele>343.0</ele>
  <time>2026-09-01T01:11:11Z</time>
  <course>132.72</course>
  <speed>0.5869412236331676</speed>
  <fix>3d</fix>
</trkpt>
<trkpt lat="-27.274439" lon="151.290064">
  <ele>343.0</ele>
  <time>2026-09-01T01:11:11Z</time>
  <course>0.0</course>
  <speed>0.0</speed>
  <fix>3d</fix>
</trkpt>
<trkpt lat="-27.274439" lon="151.290064">
  <ele>343.0</ele>
  <time>2026-09-01T01:11:11Z</time>
  <course>122.87</course>
  <speed>0.4939635614091387</speed>
  <fix>3d</fix>
</trkpt>
<trkpt lat="-27.274439" lon="151.290064">
  <ele>343.0</ele>
  <time>2026-09-01T01:11:11Z</time>
  <course>0.0</course>
  <speed>0.0</speed>
  <fix>3d</fix>
</trkpt>
<trkpt lat="-27.274439" lon="151.290064">
  <ele>343.0</ele>
  <time>2026-09-01T01:11:11Z</time>
  <course>113.08</course>
  <speed>0.396232255123179</speed>
  <fix>3d</fix>
</trkpt>
<trkpt lat="-27.274439" lon="151.290064">
  <ele>343.0</ele>
  <time>2026-09-01T01:11:11Z</time>
  <course>0.0</course>
  <speed>0.0</speed>
  <fix>3d</fix>
</trkpt>
<trkpt lat="-27.274439" lon="151.290064">
  <ele>343.0</ele>
  <time>2026-09-01T01:11:11Z</time>
  <course>103.23</course>
  <speed>0.32249030993194194</speed>
  <fix>3d</fix>
</trkpt>
<trkpt lat="-27.274439" lon="151.290064">
  <ele>343.0</ele>
  <time>2026-09-01T01:11:11Z</time>
  <course>0.0</course>
  <speed>0.0</speed>
  <fix>3d</fix>
</trkpt>
<trkpt lat="-27.274439" lon="151.290064">
  <ele>343.0</ele>
  <time>2026-09-01T01:11:11Z</time>
  <course>93.34</course>
  <speed>0.29274562336608895</speed>
  <fix>3d</fix>
</trkpt>
<trkpt lat="-27.274439" lon="151.290064">
  <ele>343.0</ele>
  <time>2026-09-01T01:11:11Z</time>
  <course>0.0</course>
  <speed>0.0</speed>
  <fix>3d</fix>
</trkpt>
<trkpt lat="-27.274439" lon="151.290064">
  <ele>343.0</ele>
  <time>2026-09-01T01:11:11Z</time>
  <course>83.42</course>
  <speed>0.29274562336608895</speed>
  <fix>3d</fix>
</trkpt>
<trkpt lat="-27.274439" lon="151.290064">
  <ele>343.0</ele>
  <time>2026-09-01T01:11:11Z</time>
  <course>0.0</course>
  <speed>0.0</speed>
  <fix>3d</fix>
</trkpt>
<trkpt lat="-27.274439" lon="151.290064">
  <ele>343.0</ele>
  <time>2026-09-01T01:11:11Z</time>
  <course>73.52</course>
  <speed>0.29966648127543394</speed>
  <fix>3d</fix>
</trkpt>
<trkpt lat="-27.274439" lon="151.290064">
  <ele>343.0</ele>
  <time>2026-09-01T01:11:11Z</time>
  <course>0.0</course>
  <speed>0.0</speed>
  <fix>3d</fix>
</trkpt>
<trkpt lat="-27.274439" lon="151.290064">
  <ele>343.0</ele>
  <time>2026-09-01T01:11:11Z</time>
  <course>63.62</course>
  <speed>0.31827660925679097</speed>
  <fix>3d</fix>
</trkpt>
<trkpt lat="-27.274439" lon="151.290064">
  <ele>343.0</ele>
  <time>2026-09-01T01:11:11Z</time>
  <course>0.0</course>
  <speed>0.0</speed>
  <fix>3d</fix>
</trkpt>
<trkpt lat="-27.274439" lon="151.290064">
  <ele>343.0</ele>
  <time>2026-09-01T01:11:11Z</time>
  <course>53.7</course>
  <speed>0.36359317925395684</speed>
  <fix>3d</fix>
</trkpt>
<trkpt lat="-27.274439" lon="151.290064">
  <ele>343.0</ele>
  <time>2026-09-01T01:11:11Z</time>
  <course>0.0</course>
  <speed>0.0</speed>
  <fix>3d</fix>
</trkpt>
<trkpt lat="-27.274439" lon="151.290064">
  <ele>343.0</ele>
  <time>2026-09-01T01:11:11Z</time>
  <course>43.77</course>
  <speed>0.3921734310225516</speed>
  <fix>3d</fix>
</trkpt>
<trkpt lat="-27.274439" lon="151.290064">
  <ele>343.0</ele>
  <time>2026-09-01T01:11:11Z</time>
  <course>0.0</course>
  <speed>0.0</speed>
  <fix>3d</fix>
</trkpt>
<trkpt lat="-27.274439" lon="151.290064">
  <ele>343.0</ele>
  <time>2026-09-01T01:11:11Z</time>
  <course>33.82</course>
  <speed>0.42755116652863895</speed>
  <fix>3d</fix>
</trkpt>
<trkpt lat="-27.274439" lon="151.290064">
  <ele>343.0</ele>
  <time>2026-09-01T01:11:11Z</time>
  <course>0.0</course>
  <speed>0.0</speed>
  <fix>3d</fix>
</trkpt>
<trkpt lat="-27.274439" lon="151.290064">
  <ele>343.0</ele>
  <time>2026-09-01T01:11:11Z</time>
  <course>23.86</course>
  <speed>0.45044422518220834</speed>
  <fix>3d</fix>
</trkpt>
<trkpt lat="-27.274439" lon="151.290064">
  <ele>343.0</ele>
  <time>2026-09-01T01:11:11Z</time>
  <course>0.0</course>
  <speed>0.0</speed>
  <fix>3d</fix>
</trkpt>
<trkpt lat="-27.274439" lon="151.290064">
  <ele>343.0</ele>
  <time>2026-09-01T01:11:11Z</time>
  <course>13.88</course>
  <speed>0.4709564735726646</speed>
  <fix>3d</fix>
</trkpt>
<trkpt lat="-27.274439" lon="151.290064">
  <ele>343.0</ele>
  <time>2026-09-01T01:11:11Z</time>
  <course>0.0</course>
  <speed>0.0</speed>
  <fix>3d</fix>
</trkpt>
<trkpt lat="-27.274439" lon="151.290064">
  <ele>343.0</ele>
  <time>2026-09-01T01:11:11Z</time>
  <course>3.88</course>
  <speed>0.47853944456021597</speed>
  <fix>3d</fix>
</trkpt>
<trkpt lat="-27.274439" lon="151.290064">
  <ele>343.0</ele>
  <time>2026-09-01T01:11:11Z</time>
  <course>0.0</course>
  <speed>0.0</speed>
  <fix>3d</fix>
</trkpt>
<trkpt lat="-27.274439" lon="151.290064">
  <ele>343.0</ele>
  <time>2026-09-01T01:11:11Z</time>
  <course>353.9</course>
  <speed>0.4712748667179272</speed>
  <fix>3d</fix>
</trkpt>
<trkpt lat="-27.274439" lon="151.290064">
  <ele>343.0</ele>
  <time>2026-09-01T01:11:11Z</time>
  <course>0.0</course>
  <speed>0.0</speed>
  <fix>3d</fix>
</trkpt>
<trkpt lat="-27.274439" lon="151.290064">
  <ele>343.0</ele>
  <time>2026-09-01T01:11:11Z</time>
  <course>343.88</course>
  <speed>0.47010637094172636</speed>
  <fix>3d</fix>
</trkpt>
<trkpt lat="-27.274439" lon="151.290064">
  <ele>343.0</ele>
  <time>2026-09-01T01:11:11Z</time>
  <course>0.0</course>
  <speed>0.0</speed>
  <fix>3d</fix>
</trkpt>
<trkpt lat="-27.274439" lon="151.290064">
  <ele>343.0</ele>
  <time>2026-09-01T01:11:11Z</time>
  <course>333.84</course>
  <speed>0.4614108798023731</speed>
  <fix>3d</fix>
</trkpt>
<trkpt lat="-27.274439" lon="151.290064">
  <ele>343.0</ele>
  <time>2026-09-01T01:11:11Z</time>
  <course>0.0</course>
  <speed>0.0</speed>
  <fix>3d</fix>
</trkpt>
<trkpt lat="-27.274439" lon="151.290064">
  <ele>343.0</ele>
  <time>2026-09-01T01:11:11Z</time>
  <course>323.76</course>
  <speed>0.4280186911806539</speed>
  <fix>3d</fix>
</trkpt>
<trkpt lat="-27.274439" lon="151.290064">
  <ele>343.0</ele>
  <time>2026-09-01T01:11:11Z</time>
  <course>0.0</course>
  <speed>0.0</speed>
  <fix>3d</fix>
</trkpt>
<trkpt lat="-27.274439" lon="151.290064">
  <ele>343.0</ele>
  <time>2026-09-01T01:11:11Z</time>
  <course>313.68</course>
  <speed>0.40311288741492746</speed>
  <fix>3d</fix>
</trkpt>
<trkpt lat="-27.274439" lon="151.290064">
  <ele>343.0</ele>
  <time>2026-09-01T01:11:11Z</time>
  <course>0.0</course>
  <speed>0.0</speed>
  <fix>3d</fix>
</trkpt>
<trkpt lat="-27.274439" lon="151.290064">
  <ele>343.0</ele>
  <time>2026-09-01T01:11:11Z</time>
  <course>303.56</course>
  <speed>0.378021163428716</speed>
  <fix>3d</fix>
</trkpt>
<trkpt lat="-27.274439" lon="151.290064">
  <ele>343.0</ele>
  <time>2026-09-01T01:11:11Z</time>
  <course>0.0</course>
  <speed>0.0</speed>
  <fix>3d</fix>
</trkpt>
<trkpt lat="-27.274439" lon="151.290064">
  <ele>343.0</ele>
  <time>2026-09-01T01:11:11Z</time>
  <course>293.41</course>
  <speed>0.3312099032335839</speed>
  <fix>3d</fix>
</trkpt>
<trkpt lat="-27.274439" lon="151.290064">
  <ele>343.0</ele>
  <time>2026-09-01T01:11:11Z</time>
  <course>0.0</course>
  <speed>0.0</speed>
  <fix>3d</fix>
</trkpt>
<trkpt lat="-27.274439" lon="151.290064">
  <ele>343.0</ele>
  <time>2026-09-01T01:11:11Z</time>
  <course>283.21</course>
  <speed>0.29410882339705485</speed>
  <fix>3d</fix>
</trkpt>
<trkpt lat="-27.274439" lon="151.290064">
  <ele>343.0</ele>
  <time>2026-09-01T01:11:11Z</time>
  <course>0.0</course>
  <speed>0.0</speed>
  <fix>3d</fix>
</trkpt>
<trkpt lat="-27.274439" lon="151.290064">
  <ele>343.0</ele>
  <time>2026-09-01T01:11:11Z</time>
  <course>273.0</course>
  <speed>0.261725046566048</speed>
  <fix>3d</fix>
</trkpt>
<trkpt lat="-27.274439" lon="151.290064">
  <ele>343.0</ele>
  <time>2026-09-01T01:11:11Z</time>
  <course>0.0</course>
  <speed>0.0</speed>
  <fix>3d</fix>
</trkpt>
<trkpt lat="-27.274439" lon="151.290064">
  <ele>343.0</ele>
  <time>2026-09-01T01:11:11Z</time>
  <course>262.77</course>
  <speed>0.2308679276123039</speed>
  <fix>3d</fix>
</trkpt>
<trkpt lat="-27.274439" lon="151.290064">
  <ele>343.0</ele>
  <time>2026-09-01T01:11:11Z</time>
  <course>0.0</course>
  <speed>0.0</speed>
  <fix>3d</fix>
</trkpt>
<trkpt lat="-27.274439" lon="151.290064">
  <ele>343.0</ele>
  <time>2026-09-01T01:11:11Z</time>
  <course>252.48</course>
  <speed>0.20615528128088303</speed>
  <fix>3d</fix>
</trkpt>
<trkpt lat="-27.274439" lon="151.290064">
  <ele>343.0</ele>
  <time>2026-09-01T01:11:11Z</time>
  <course>0.0</course>
  <speed>0.0</speed>
  <fix>3d</fix>
</trkpt>
<trkpt lat="-27.274439" lon="151.290064">
  <ele>343.0</ele>
  <time>2026-09-01T01:11:11Z</time>
  <course>242.17</course>
  <speed>0.18439088914585774</speed>
  <fix>3d</fix>
</trkpt>
<trkpt lat="-27.274439" lon="151.290064">
  <ele>343.0</ele>
  <time>2026-09-01T01:11:11Z</time>
  <course>0.0</course>
  <speed>0.0</speed>
  <fix>3d</fix>
</trkpt>
<trkpt lat="-27.274439" lon="151.290064">
  <ele>343.0</ele>
  <time>2026-09-01T01:11:11Z</time>
  <course>231.82</course>
  <speed>0.17888543819998318</speed>
  <fix>3d</fix>
</trkpt>
<trkpt lat="-27.274439" lon="151.290064">
  <ele>343.0</ele>
  <time>2026-09-01T01:11:11Z</time>
  <course>0.0</course>
  <speed>0.0</speed>
  <fix>3d</fix>
</trkpt>
<trkpt lat="-27.274439" lon="151.290064">
  <ele>343.0</ele>
  <time>2026-09-01T01:11:11Z</time>
  <course>221.46</course>
  <speed>0.19235384061671343</speed>
  <fix>3d</fix>
</trkpt>
<trkpt lat="-27.274439" lon="151.290064">
  <ele>343.0</ele>
  <time>2026-09-01T01:11:11Z</time>
  <course>0.0</course>
  <speed>0.0</speed>
  <fix>3d</fix>
</trkpt>
<trkpt lat="-27.274439" lon="151.290064">
  <ele>343.0</ele>
  <time>2026-09-01T01:11:11Z</time>
  <course>211.04</course>
  <speed>0.20223748416156684</speed>
  <fix>3d</fix>
</trkpt>
<trkpt lat="-27.274439" lon="151.290064">
  <ele>343.0</ele>
  <time>2026-09-01T01:11:11Z</time>
  <course>0.0</course>
  <speed>0.0</speed>
  <fix>3d</fix>
</trkpt>
<trkpt lat="-27.274439" lon="151.290064">
  <ele>343.0</ele>
  <time>2026-09-01T01:11:11Z</time>
  <course>200.61</course>
  <speed>0.21540659228538014</speed>
  <fix>3d</fix>
</trkpt>
<trkpt lat="-27.274439" lon="151.290064">
  <ele>343.0</ele>
  <time>2026-09-01T01:11:11Z</time>
  <course>0.0</course>
  <speed>0.0</speed>
  <fix>3d</fix>
</trkpt>
<trkpt lat="-27.274439" lon="151.290064">
  <ele>343.0</ele>
  <time>2026-09-01T01:11:11Z</time>
  <course>190.13</course>
  <speed>0.22803508501982758</speed>
  <fix>3d</fix>
</trkpt>
<trkpt lat="-27.274439" lon="151.290064">
  <ele>343.0</ele>
  <time>2026-09-01T01:11:11Z</time>
  <course>0.0</course>
  <speed>0.0</speed>
  <fix>3d</fix>
</trkpt>
<trkpt lat="-27.274439" lon="151.290064">
  <ele>343.0</ele>
  <time>2026-09-01T01:11:11Z</time>
  <course>179.64</course>
  <speed>0.23430749027719963</speed>
  <fix>3d</fix>
</trkpt>
<trkpt lat="-27.274439" lon="151.290064">
  <ele>343.0</ele>
  <time>2026-09-01T01:11:11Z</time>
  <course>0.0</course>
  <speed>0.0</speed>
  <fix>3d</fix>
</trkpt>
<trkpt lat="-27.274439" lon="151.290064">
  <ele>343.0</ele>
  <time>2026-09-01T01:11:11Z</time>
  <course>169.12</course>
  <speed>0.14866068747318506</speed>
  <fix>3d</fix>
</trkpt>
<trkpt lat="-27.274439" lon="151.290064">
  <ele>343.0</ele>
  <time>2026-09-01T01:11:11Z</time>
  <course>0.0</course>
  <speed>0.0</speed>
  <fix>3d</fix>
</trkpt>
<trkpt lat="-27.274439" lon="151.290064">
  <ele>343.0</ele>
  <time>2026-09-01T01:11:11Z</time>
  <course>158.53</course>
  <speed>0.09</speed>
  <fix>3d</fix>
</trkpt>
<trkpt lat="-27.274439" lon="151.290064">
  <ele>343.0</ele>
  <time>2026-09-01T01:11:11Z</time>
  <course>0.0</course>
  <speed>0.0</speed>
  <fix>3d</fix>
</trkpt>
<trkpt lat="-27.274439" lon="151.290064">
  <ele>343.0</ele>
  <time>2026-09-01T01:11:11Z</time>
  <course>147.93</course>
  <speed>0.05830951894845301</speed>
  <fix>3d</fix>
</trkpt>
<trkpt lat="-27.274439" lon="151.290064">
  <ele>343.0</ele>
  <time>2026-09-01T01:11:11Z</time>
  <course>0.0</course>
  <speed>0.0</speed>
  <fix>3d</fix>
</trkpt>
<trkpt lat="-27.274439" lon="151.290064">
  <ele>343.0</ele>
  <time>2026-09-01T01:11:11Z</time>
  <course>137.34</course>
  <speed>0.05</speed>
  <fix>3d</fix>
</trkpt>
<trkpt lat="-27.274439" lon="151.290064">
  <ele>343.0</ele>
  <time>2026-09-01T01:11:11Z</time>
  <course>0.0</course>
  <speed>0.0</speed>
  <fix>3d</fix>
</trkpt>
<trkpt lat="-27.274439" lon="151.290064">
  <ele>343.0</ele>
  <time>2026-09-01T01:11:11Z</time>
  <course>325.88</course>
  <speed>0.0</speed>
  <fix>3d</fix>
</trkpt>
<trkpt lat="-27.274439" lon="151.290064">
  <ele>343.0</ele>
  <time>2026-09-01T01:11:11Z</time>
  <course>324.43</course>
  <speed>0.0</speed>
  <fix>3d</fix>
</trkpt>
<trkpt lat="-27.274439" lon="151.290064">
  <ele>343.0</ele>
  <time>2026-09-01T01:11:11Z</time>
  <course>321.86</course>
  <speed>0.0</speed>
  <fix>3d</fix>
</trkpt>
<trkpt lat="-27.274439" lon="151.290064">
  <ele>343.0</ele>
  <time>2026-09-01T01:11:11Z</time>
  <course>295.0</course>
  <speed>0.0</speed>
  <fix>3d</fix>
</trkpt>
<trkpt lat="-27.274439" lon="151.290064">
  <ele>343.0</ele>
  <time>2026-09-01T01:11:11Z</time>
  <course>290.72</course>
  <speed>0.0</speed>
  <fix>3d</fix>
</trkpt>
<trkpt lat="-27.274439" lon="151.290064">
  <ele>343.0</ele>
  <time>2026-09-01T01:11:11Z</time>
  <course>284.84</course>
  <speed>0.0</speed>
  <fix>3d</fix>
</trkpt>
<trkpt lat="-27.274439" lon="151.290064">
  <ele>343.0</ele>
  <time>2026-09-01T01:11:11Z</time>
  <course>277.79</course>
  <speed>0.0</speed>
  <fix>3d</fix>
</trkpt>
<trkpt lat="-27.274439" lon="151.290064">
  <ele>343.0</ele>
  <time>2026-09-01T01:11:11Z</time>
  <course>269.55</course>
  <speed>0.0</speed>
  <fix>3d</fix>
</trkpt>
<trkpt lat="-27.274439" lon="151.290064">
  <ele>343.0</ele>
  <time>2026-09-01T01:11:11Z</time>
  <course>262.16</course>
  <speed>0.9176055797563569</speed>
  <fix>3d</fix>
</trkpt>
<trkpt lat="-27.274439" lon="151.290064">
  <ele>343.0</ele>
  <time>2026-09-01T01:11:11Z</time>
  <course>0.0</course>
  <speed>0.0</speed>
  <fix>3d</fix>
</trkpt>
<trkpt lat="-27.274439" lon="151.290064">
  <ele>343.0</ele>
  <time>2026-09-01T01:11:11Z</time>
  <course>256.4</course>
  <speed>0.9403190947758107</speed>
  <fix>3d</fix>
</trkpt>
<trkpt lat="-27.274439" lon="151.290064">
  <ele>343.0</ele>
  <time>2026-09-01T01:11:11Z</time>
  <course>0.0</course>
  <speed>0.0</speed>
  <fix>3d</fix>
</trkpt>
<trkpt lat="-27.274439" lon="151.290064">
  <ele>343.0</ele>
  <time>2026-09-01T01:11:11Z</time>
  <course>249.45</course>
  <speed>0.756042326857432</speed>
  <fix>3d</fix>
</trkpt>
<trkpt lat="-27.274439" lon="151.290064">
  <ele>343.0</ele>
  <time>2026-09-01T01:11:11Z</time>
  <course>0.0</course>
  <speed>0.0</speed>
  <fix>3d</fix>
</trkpt>
<trkpt lat="-27.274439" lon="151.290064">
  <ele>343.0</ele>
  <time>2026-09-01T01:11:12Z</time>
  <course>241.79</course>
  <speed>0.6596969000988256</speed>
  <fix>3d</fix>
</trkpt>
<trkpt lat="-27.274439" lon="151.290064">
  <ele>343.0</ele>
  <time>2026-09-01T01:11:12Z</time>
  <course>0.0</course>
  <speed>0.0</speed>
  <fix>3d</fix>
</trkpt>
<trkpt lat="-27.274439" lon="151.290064">
  <ele>343.0</ele>
  <time>2026-09-01T01:11:12Z</time>
  <course>233.59</course>
  <speed>0.6618912297349165</speed>
  <fix>3d</fix>
</trkpt>
<trkpt lat="-27.274439" lon="151.290064">
  <ele>343.0</ele>
  <time>2026-09-01T01:11:12Z</time>
  <course>0.0</course>
  <speed>0.0</speed>
  <fix>3d</fix>
</trkpt>
<trkpt lat="-27.274439" lon="151.290064">
  <ele>343.0</ele>
  <time>2026-09-01T01:11:12Z</time>
  <course>261.98</course>
  <speed>1.283627671873741</speed>
  <fix>3d</fix>
</trkpt>
<trkpt lat="-27.274439" lon="151.290064">
  <ele>343.0</ele>
  <time>2026-09-01T01:11:12Z</time>
  <course>0.0</course>
  <speed>0.0</speed>
  <fix>3d</fix>
</trkpt>
<trkpt lat="-27.274439" lon="151.290064">
  <ele>343.0</ele>
  <time>2026-09-01T01:11:12Z</time>
  <course>255.57</course>
  <speed>1.5463828762631846</speed>
  <fix>3d</fix>
</trkpt>
<trkpt lat="-27.274439" lon="151.290064">
  <ele>343.0</ele>
  <time>2026-09-01T01:11:12Z</time>
  <course>0.0</course>
  <speed>0.0</speed>
  <fix>3d</fix>
</trkpt>
<trkpt lat="-27.274439" lon="151.290064">
  <ele>343.0</ele>
  <time>2026-09-01T01:11:12Z</time>
  <course>247.73</course>
  <speed>1.486371420607918</speed>
  <fix>3d</fix>
</trkpt>
<trkpt lat="-27.274439" lon="151.290064">
  <ele>343.0</ele>
  <time>2026-09-01T01:11:12Z</time>
  <course>0.0</course>
  <speed>0.0</speed>
  <fix>3d</fix>
</trkpt>
<trkpt lat="-27.274439" lon="151.290064">
  <ele>343.0</ele>
  <time>2026-09-01T01:11:12Z</time>
  <course>239.18</course>
  <speed>1.3601470508735443</speed>
  <fix>3d</fix>
</trkpt>
<trkpt lat="-27.274439" lon="151.290064">
  <ele>343.0</ele>
  <time>2026-09-01T01:11:12Z</time>
  <course>0.0</course>
  <speed>0.0</speed>
  <fix>3d</fix>
</trkpt>
<trkpt lat="-27.274439" lon="151.290064">
  <ele>343.0</ele>
  <time>2026-09-01T01:11:12Z</time>
  <course>230.14</course>
  <speed>1.2220065466273085</speed>
  <fix>3d</fix>
</trkpt>
<trkpt lat="-27.274439" lon="151.290064">
  <ele>343.0</ele>
  <time>2026-09-01T01:11:12Z</time>
  <course>0.0</course>
  <speed>0.0</speed>
  <fix>3d</fix>
</trkpt>
<trkpt lat="-27.274439" lon="151.290064">
  <ele>343.0</ele>
  <time>2026-09-01T01:11:12Z</time>
  <course>211.27</course>
  <speed>1.035857133006285</speed>
  <fix>3d</fix>
</trkpt>
<trkpt lat="-27.274439" lon="151.290064">
  <ele>343.0</ele>
  <time>2026-09-01T01:11:12Z</time>
  <course>0.0</course>
  <speed>0.0</speed>
  <fix>3d</fix>
</trkpt>
<trkpt lat="-27.274439" lon="151.290064">
  <ele>343.0</ele>
  <time>2026-09-01T01:11:12Z</time>
  <course>201.62</course>
  <speed>0.9832598842625484</speed>
  <fix>3d</fix>
</trkpt>
<trkpt lat="-27.274439" lon="151.290064">
  <ele>343.0</ele>
  <time>2026-09-01T01:11:12Z</time>
  <course>0.0</course>
  <speed>0.0</speed>
  <fix>3d</fix>
</trkpt>
<trkpt lat="-27.274439" lon="151.290064">
  <ele>343.0</ele>
  <time>2026-09-01T01:11:12Z</time>
  <course>191.86</course>
  <speed>0.9504735661763561</speed>
  <fix>3d</fix>
</trkpt>
<trkpt lat="-27.274439" lon="151.290064">
  <ele>343.0</ele>
  <time>2026-09-01T01:11:12Z</time>
  <course>0.0</course>
  <speed>0.0</speed>
  <fix>3d</fix>
</trkpt>
<trkpt lat="-27.274439" lon="151.290064">
  <ele>343.0</ele>
  <time>2026-09-01T01:11:12Z</time>
  <course>182.03</course>
  <speed>0.9000555538409837</speed>
  <fix>3d</fix>
</trkpt>
<trkpt lat="-27.274439" lon="151.290064">
  <ele>343.0</ele>
  <time>2026-09-01T01:11:12Z</time>
  <course>0.0</course>
  <speed>0.0</speed>
  <fix>3d</fix>
</trkpt>
<trkpt lat="-27.274439" lon="151.290064">
  <ele>343.0</ele>
  <time>2026-09-01T01:11:12Z</time>
  <course>172.16</course>
  <speed>0.8209750300709517</speed>
  <fix>3d</fix>
</trkpt>
<trkpt lat="-27.274439" lon="151.290064">
  <ele>343.0</ele>
  <time>2026-09-01T01:11:12Z</time>
  <course>0.0</course>
  <speed>0.0</speed>
  <fix>3d</fix>
</trkpt>
<trkpt lat="-27.274439" lon="151.290064">
  <ele>343.0</ele>
  <time>2026-09-01T01:11:12Z</time>
  <course>162.31</course>
  <speed>0.7752418977325722</speed>
  <fix>3d</fix>
</trkpt>
<trkpt lat="-27.274439" lon="151.290064">
  <ele>343.0</ele>
  <time>2026-09-01T01:11:12Z</time>
  <course>0.0</course>
  <speed>0.0</speed>
  <fix>3d</fix>
</trkpt>
<trkpt lat="-27.274439" lon="151.290064">
  <ele>343.0</ele>
  <time>2026-09-01T01:11:12Z</time>
  <course>152.45</course>
  <speed>0.71386273190299</speed>
  <fix>3d</fix>
</trkpt>
<trkpt lat="-27.274439" lon="151.290064">
  <ele>343.0</ele>
  <time>2026-09-01T01:11:12Z</time>
  <course>0.0</course>
  <speed>0.0</speed>
  <fix>3d</fix>
</trkpt>
<trkpt lat="-27.274439" lon="151.290064">
  <ele>343.0</ele>
  <time>2026-09-01T01:11:12Z</time>
  <course>142.58</course>
  <speed>0.648459713474939</speed>
  <fix>3d</fix>
</trkpt>
<trkpt lat="-27.274439" lon="151.290064">
  <ele>343.0</ele>
  <time>2026-09-01T01:11:12Z</time>
  <course>0.0</course>
  <speed>0.0</speed>
  <fix>3d</fix>
</trkpt>
<trkpt lat="-27.274439" lon="151.290064">
  <ele>343.0</ele>
  <time>2026-09-01T01:11:12Z</time>
  <course>122.87</course>
  <speed>0.4939635614091387</speed>
  <fix>3d</fix>
</trkpt>
<trkpt lat="-27.274439" lon="151.290064">
  <ele>343.0</ele>
  <time>2026-09-01T01:11:12Z</time>
  <course>0.0</course>
  <speed>0.0</speed>
  <fix>3d</fix>
</trkpt>
<trkpt lat="-27.274439" lon="151.290064">
  <ele>343.0</ele>
  <time>2026-09-01T01:11:12Z</time>
  <course>113.08</course>
  <speed>0.396232255123179</speed>
  <fix>3d</fix>
</trkpt>
<trkpt lat="-27.274439" lon="151.290064">
  <ele>343.0</ele>
  <time>2026-09-01T01:11:12Z</time>
  <course>0.0</course>
  <speed>0.0</speed>
  <fix>3d</fix>
</trkpt>
<trkpt lat="-27.274439" lon="151.290064">
  <ele>343.0</ele>
  <time>2026-09-01T01:11:12Z</time>
  <course>103.23</course>
  <speed>0.32249030993194194</speed>
  <fix>3d</fix>
</trkpt>
<trkpt lat="-27.274439" lon="151.290064">
  <ele>343.0</ele>
  <time>2026-09-01T01:11:12Z</time>
  <course>0.0</course>
  <speed>0.0</speed>
  <fix>3d</fix>
</trkpt>
<trkpt lat="-27.274439" lon="151.290064">
  <ele>343.0</ele>
  <time>2026-09-01T01:11:12Z</time>
  <course>93.34</course>
  <speed>0.29274562336608895</speed>
  <fix>3d</fix>
</trkpt>
<trkpt lat="-27.274439" lon="151.290064">
  <ele>343.0</ele>
  <time>2026-09-01T01:11:12Z</time>
  <course>0.0</course>
  <speed>0.0</speed>
  <fix>3d</fix>
</trkpt>
<trkpt lat="-27.274439" lon="151.290064">
  <ele>343.0</ele>
  <time>2026-09-01T01:11:13Z</time>
  <course>83.42</course>
  <speed>0.29274562336608895</speed>
  <fix>3d</fix>
</trkpt>
<trkpt lat="-27.274439" lon="151.290064">
  <ele>343.0</ele>
  <time>2026-09-01T01:11:13Z</time>
  <course>0.0</course>
  <speed>0.0</speed>
  <fix>3d</fix>
</trkpt>
<trkpt lat="-27.274439" lon="151.290064">
  <ele>343.0</ele>
  <time>2026-09-01T01:11:13Z</time>
  <course>73.52</course>
  <speed>0.29966648127543394</speed>
  <fix>3d</fix>
</trkpt>
<trkpt lat="-27.274439" lon="151.290064">
  <ele>343.0</ele>
  <time>2026-09-01T01:11:13Z</time>
  <course>0.0</course>
  <speed>0.0</speed>
  <fix>3d</fix>
</trkpt>
<trkpt lat="-27.274439" lon="151.290064">
  <ele>343.0</ele>
  <time>2026-09-01T01:11:13Z</time>
  <course>63.62</course>
  <speed>0.31827660925679097</speed>
  <fix>3d</fix>
</trkpt>
<trkpt lat="-27.274439" lon="151.290064">
  <ele>343.0</ele>
  <time>2026-09-01T01:11:13Z</time>
  <course>0.0</course>
  <speed>0.0</speed>
  <fix>3d</fix>
</trkpt>
<trkpt lat="-27.274439" lon="151.290064">
  <ele>343.0</ele>
  <time>2026-09-01T01:11:13Z</time>
  <course>53.66</course>
  <speed>0.2863564212655271</speed>
  <fix>3d</fix>
</trkpt>
<trkpt lat="-27.274439" lon="151.290064">
  <ele>343.0</ele>
  <time>2026-09-01T01:11:13Z</time>
  <course>0.0</course>
  <speed>0.0</speed>
  <fix>3d</fix>
</trkpt>
<trkpt lat="-27.274439" lon="151.290064">
  <ele>343.0</ele>
  <time>2026-09-01T01:11:13Z</time>
  <course>43.6</course>
  <speed>0.19924858845171275</speed>
  <fix>3d</fix>
</trkpt>
<trkpt lat="-27.274439" lon="151.290064">
  <ele>343.0</ele>
  <time>2026-09-01T01:11:13Z</time>
  <course>0.0</course>
  <speed>0.0</speed>
  <fix>3d</fix>
</trkpt>
<trkpt lat="-27.274439" lon="151.290064">
  <ele>343.0</ele>
  <time>2026-09-01T01:11:13Z</time>
  <course>33.61</course>
  <speed>0.12041594578792296</speed>
  <fix>3d</fix>
</trkpt>
<trkpt lat="-27.274439" lon="151.290064">
  <ele>343.0</ele>
  <time>2026-09-01T01:11:13Z</time>
  <course>0.0</course>
  <speed>0.0</speed>
  <fix>3d</fix>
</trkpt>
<trkpt lat="-27.274439" lon="151.290064">
  <ele>343.0</ele>
  <time>2026-09-01T01:11:13Z</time>
  <course>23.68</course>
  <speed>0.09055385138137417</speed>
  <fix>3d</fix>
</trkpt>
<trkpt lat="-27.274439" lon="151.290064">
  <ele>343.0</ele>
  <time>2026-09-01T01:11:13Z</time>
  <course>0.0</course>
  <speed>0.0</speed>
  <fix>3d</fix>
</trkpt>
<trkpt lat="-27.274439" lon="151.290064">
  <ele>343.0</ele>
  <time>2026-09-01T01:11:13Z</time>
  <course>325.88</course>
  <speed>0.0</speed>
  <fix>3d</fix>
</trkpt>
<trkpt lat="-27.274439" lon="151.290064">
  <ele>343.0</ele>
  <time>2026-09-01T01:11:13Z</time>
  <course>324.43</course>
  <speed>0.0</speed>
  <fix>3d</fix>
</trkpt>
<trkpt lat="-27.274439" lon="151.290064">
  <ele>343.0</ele>
  <time>2026-09-01T01:11:13Z</time>
  <course>321.86</course>
  <speed>0.0</speed>
  <fix>3d</fix>
</trkpt>
<trkpt lat="-27.274439" lon="151.290064">
  <ele>343.0</ele>
  <time>2026-09-01T01:11:13Z</time>
  <course>295.0</course>
  <speed>0.0</speed>
  <fix>3d</fix>
</trkpt>
<trkpt lat="-27.274439" lon="151.290064">
  <ele>343.0</ele>
  <time>2026-09-01T01:11:13Z</time>
  <course>290.72</course>
  <speed>0.0</speed>
  <fix>3d</fix>
</trkpt>
<trkpt lat="-27.274439" lon="151.290064">
  <ele>343.0</ele>
  <time>2026-09-01T01:11:13Z</time>
  <course>284.84</course>
  <speed>0.0</speed>
  <fix>3d</fix>
</trkpt>
<trkpt lat="-27.274439" lon="151.290064">
  <ele>343.0</ele>
  <time>2026-09-01T01:11:13Z</time>
  <course>277.79</course>
  <speed>0.0</speed>
  <fix>3d</fix>
</trkpt>
<trkpt lat="-27.274439" lon="151.290064">
  <ele>343.0</ele>
  <time>2026-09-01T01:11:13Z</time>
  <course>269.55</course>
  <speed>0.0</speed>
  <fix>3d</fix>
</trkpt>
<trkpt lat="-27.274439" lon="151.290064">
  <ele>343.0</ele>
  <time>2026-09-01T01:11:13Z</time>
  <course>262.16</course>
  <speed>0.9176055797563569</speed>
  <fix>3d</fix>
</trkpt>
<trkpt lat="-27.274439" lon="151.290064">
  <ele>343.0</ele>
  <time>2026-09-01T01:11:13Z</time>
  <course>0.0</course>
  <speed>0.0</speed>
  <fix>3d</fix>
</trkpt>
<trkpt lat="-27.274439" lon="151.290064">
  <ele>343.0</ele>
  <time>2026-09-01T01:11:13Z</time>
  <course>256.4</course>
  <speed>0.9403190947758107</speed>
  <fix>3d</fix>
</trkpt>
<trkpt lat="-27.274439" lon="151.290064">
  <ele>343.0</ele>
  <time>2026-09-01T01:11:13Z</time>
  <course>0.0</course>
  <speed>0.0</speed>
  <fix>3d</fix>
</trkpt>
<trkpt lat="-27.274439" lon="151.290064">
  <ele>343.0</ele>
  <time>2026-09-01T01:11:13Z</time>
  <course>249.45</course>
  <speed>0.756042326857432</speed>
  <fix>3d</fix>
</trkpt>
<trkpt lat="-27.274439" lon="151.290064">
  <ele>343.0</ele>
  <time>2026-09-01T01:11:13Z</time>
  <course>0.0</course>
  <speed>0.0</speed>
  <fix>3d</fix>
</trkpt>
<trkpt lat="-27.274439" lon="151.290064">
  <ele>343.0</ele>
  <time>2026-09-01T01:11:13Z</time>
  <course>241.83</course>
  <speed>0.29546573405388316</speed>
  <fix>3d</fix>
</trkpt>
<trkpt lat="-27.274439" lon="151.290064">
  <ele>343.0</ele>
  <time>2026-09-01T01:11:13Z</time>
  <course>0.0</course>
  <speed>0.0</speed>
  <fix>3d</fix>
</trkpt>
<trkpt lat="-27.274439" lon="151.290064">
  <ele>343.0</ele>
  <time>2026-09-01T01:11:13Z</time>
  <course>233.46</course>
  <speed>0.12806248474865697</speed>
  <fix>3d</fix>
</trkpt>
<trkpt lat="-27.274439" lon="151.290064">
  <ele>343.0</ele>
  <time>2026-09-01T01:11:13Z</time>
  <course>0.0</course>
  <speed>0.0</speed>
  <fix>3d</fix>
</trkpt>
<trkpt lat="-27.274439" lon="151.290064">
  <ele>343.0</ele>
  <time>2026-09-01T01:11:13Z</time>
  <course>224.61</course>
  <speed>0.0848528137423857</speed>
  <fix>3d</fix>
</trkpt>
<trkpt lat="-27.274439" lon="151.290064">
  <ele>343.0</ele>
  <time>2026-09-01T01:11:13Z</time>
  <course>0.0</course>
  <speed>0.0</speed>
  <fix>3d</fix>
</trkpt>
<trkpt lat="-27.274439" lon="151.290064">
  <ele>343.0</ele>
  <time>2026-09-01T01:11:13Z</time>
  <course>215.48</course>
  <speed>0.0670820393249937</speed>
  <fix>3d</fix>
</trkpt>
<trkpt lat="-27.274439" lon="151.290064">
  <ele>343.0</ele>
  <time>2026-09-01T01:11:13Z</time>
  <course>0.0</course>
  <speed>0.0</speed>
  <fix>3d</fix>
</trkpt>
<trkpt lat="-27.274439" lon="151.290064">
  <ele>343.0</ele>
  <time>2026-09-01T01:11:13Z</time>
  <course>325.88</course>
  <speed>0.0</speed>
  <fix>3d</fix>
</trkpt>
<trkpt lat="-27.274439" lon="151.290064">
  <ele>343.0</ele>
  <time>2026-09-01T01:11:13Z</time>
  <course>324.43</course>
  <speed>0.0</speed>
  <fix>3d</fix>
</trkpt>
<trkpt lat="-27.274439" lon="151.290064">
  <ele>343.0</ele>
  <time>2026-09-01T01:11:13Z</time>
  <course>321.86</course>
  <speed>0.0</speed>
  <fix>3d</fix>
</trkpt>
<trkpt lat="-27.274439" lon="151.290064">
  <ele>343.0</ele>
  <time>2026-09-01T01:11:13Z</time>
  <course>295.0</course>
  <speed>0.0</speed>
  <fix>3d</fix>
</trkpt>
<trkpt lat="-27.274439" lon="151.290064">
  <ele>343.0</ele>
  <time>2026-09-01T01:11:13Z</time>
  <course>290.72</course>
  <speed>0.0</speed>
  <fix>3d</fix>
</trkpt>
<trkpt lat="-27.274439" lon="151.290064">
  <ele>343.0</ele>
  <time>2026-09-01T01:11:13Z</time>
  <course>284.84</course>
  <speed>0.0</speed>
  <fix>3d</fix>
</trkpt>
<trkpt lat="-27.274439" lon="151.290064">
  <ele>343.0</ele>
  <time>2026-09-01T01:11:13Z</time>
  <course>277.79</course>
  <speed>0.0</speed>
  <fix>3d</fix>
</trkpt>
<trkpt lat="-27.274439" lon="151.290064">
  <ele>343.0</ele>
  <time>2026-09-01T01:11:13Z</time>
  <course>269.55</course>
  <speed>0.0</speed>
  <fix>3d</fix>
</trkpt>
<trkpt lat="-27.274439" lon="151.290064">
  <ele>343.0</ele>
  <time>2026-09-01T01:11:13Z</time>
  <course>262.16</course>
  <speed>0.9176055797563569</speed>
  <fix>3d</fix>
</trkpt>
<trkpt lat="-27.274439" lon="151.290064">
  <ele>343.0</ele>
  <time>2026-09-01T01:11:13Z</time>
  <course>0.0</course>
  <speed>0.0</speed>
  <fix>3d</fix>
</trkpt>
<trkpt lat="-27.274439" lon="151.290064">
  <ele>343.0</ele>
  <time>2026-09-01T01:11:13Z</time>
  <course>256.4</course>
  <speed>0.9403190947758107</speed>
  <fix>3d</fix>
</trkpt>
<trkpt lat="-27.274439" lon="151.290064">
  <ele>343.0</ele>
  <time>2026-09-01T01:11:13Z</time>
  <course>0.0</course>
  <speed>0.0</speed>
  <fix>3d</fix>
</trkpt>
<trkpt lat="-27.274439" lon="151.290064">
  <ele>343.0</ele>
  <time>2026-09-01T01:11:13Z</time>
  <course>249.45</course>
  <speed>0.756042326857432</speed>
  <fix>3d</fix>
</trkpt>
<trkpt lat="-27.274439" lon="151.290064">
  <ele>343.0</ele>
  <time>2026-09-01T01:11:13Z</time>
  <course>0.0</course>
  <speed>0.0</speed>
  <fix>3d</fix>
</trkpt>
<trkpt lat="-27.274439" lon="151.290064">
  <ele>343.0</ele>
  <time>2026-09-01T01:11:13Z</time>
  <course>241.79</course>
  <speed>0.6596969000988256</speed>
  <fix>3d</fix>
</trkpt>
<trkpt lat="-27.274439" lon="151.290064">
  <ele>343.0</ele>
  <time>2026-09-01T01:11:13Z</time>
  <course>0.0</course>
  <speed>0.0</speed>
  <fix>3d</fix>
</trkpt>
<trkpt lat="-27.274439" lon="151.290064">
  <ele>343.0</ele>
  <time>2026-09-01T01:11:13Z</time>
  <course>233.59</course>
  <speed>0.6618912297349165</speed>
  <fix>3d</fix>
</trkpt>
<trkpt lat="-27.274439" lon="151.290064">
  <ele>343.0</ele>
  <time>2026-09-01T01:11:13Z</time>
  <course>0.0</course>
  <speed>0.0</speed>
  <fix>3d</fix>
</trkpt>
<trkpt lat="-27.274439" lon="151.290064">
  <ele>343.0</ele>
  <time>2026-09-01T01:11:13Z</time>
  <course>225.02</course>
  <speed>0.7034202158027589</speed>
  <fix>3d</fix>
</trkpt>
<trkpt lat="-27.274439" lon="151.290064">
  <ele>343.0</ele>
  <time>2026-09-01T01:11:13Z</time>
  <course>0.0</course>
  <speed>0.0</speed>
  <fix>3d</fix>
</trkpt>
<trkpt lat="-27.274439" lon="151.290064">
  <ele>343.0</ele>
  <time>2026-09-01T01:11:14Z</time>
  <course>207.13</course>
  <speed>0.8052949770115296</speed>
  <fix>3d</fix>
</trkpt>
<trkpt lat="-27.274439" lon="151.290064">
  <ele>343.0</ele>
  <time>2026-09-01T01:11:14Z</time>
  <course>0.0</course>
  <speed>0.0</speed>
  <fix>3d</fix>
</trkpt>
<trkpt lat="-27.274439" lon="151.290064">
  <ele>343.0</ele>
  <time>2026-09-01T01:11:14Z</time>
  <course>197.95</course>
  <speed>0.8453401682163222</speed>
  <fix>3d</fix>
</trkpt>
<trkpt lat="-27.274439" lon="151.290064">
  <ele>343.0</ele>
  <time>2026-09-01T01:11:14Z</time>
  <course>0.0</course>
  <speed>0.0</speed>
  <fix>3d</fix>
</trkpt>
<trkpt lat="-27.274439" lon="151.290064">
  <ele>343.0</ele>
  <time>2026-09-01T01:11:14Z</time>
  <course>188.67</course>
  <speed>0.878179936004006</speed>
  <fix>3d</fix>
</trkpt>
<trkpt lat="-27.274439" lon="151.290064">
  <ele>343.0</ele>
  <time>2026-09-01T01:11:14Z</time>
  <course>0.0</course>
  <speed>0.0</speed>
  <fix>3d</fix>
</trkpt>
<trkpt lat="-27.274439" lon="151.290064">
  <ele>343.0</ele>
  <time>2026-09-01T01:11:14Z</time>
  <course>179.31</course>
  <speed>0.8848163651289458</speed>
  <fix>3d</fix>
</trkpt>
<trkpt lat="-27.274439" lon="151.290064">
  <ele>343.0</ele>
  <time>2026-09-01T01:11:14Z</time>
  <course>0.0</course>
  <speed>0.0</speed>
  <fix>3d</fix>
</trkpt>
<trkpt lat="-27.274439" lon="151.290064">
  <ele>343.0</ele>
  <time>2026-09-01T01:11:14Z</time>
  <course>169.93</course>
  <speed>0.9140021881811882</speed>
  <fix>3d</fix>
</trkpt>
<trkpt lat="-27.274439" lon="151.290064">
  <ele>343.0</ele>
  <time>2026-09-01T01:11:14Z</time>
  <course>0.0</course>
  <speed>0.0</speed>
  <fix>3d</fix>
</trkpt>
<trkpt lat="-27.274439" lon="151.290064">
  <ele>343.0</ele>
  <time>2026-09-01T01:11:14Z</time>
  <course>161.9</course>
  <speed>0.9219544457292888</speed>
  <fix>3d</fix>
</trkpt>
<trkpt lat="-27.274439" lon="151.290064">
  <ele>343.0</ele>
  <time>2026-09-01T01:11:14Z</time>
  <course>0.0</course>
  <speed>0.0</speed>
  <fix>3d</fix>
</trkpt>
<trkpt lat="-27.274439" lon="151.290064">
  <ele>343.0</ele>
  <time>2026-09-01T01:11:20Z</time>
  <course>158.55</course>
  <speed>0.9411163583744573</speed>
  <fix>3d</fix>
</trkpt>
<trkpt lat="-27.274439" lon="151.290064">
  <ele>343.0</ele>
  <time>2026-09-01T01:11:20Z</time>
  <course>0.0</course>
  <speed>0.0</speed>
  <fix>3d</fix>
</trkpt>
<trkpt lat="-27.274439" lon="151.290064">
  <ele>343.0</ele>
  <time>2026-09-01T01:11:20Z</time>
  <course>157.2</course>
  <speed>0.9546203433826455</speed>
  <fix>3d</fix>
</trkpt>
<trkpt lat="-27.274439" lon="151.290064">
  <ele>343.0</ele>
  <time>2026-09-01T01:11:20Z</time>
  <course>0.0</course>
  <speed>0.0</speed>
  <fix>3d</fix>
</trkpt>
<trkpt lat="-27.274439" lon="151.290064">
  <ele>343.0</ele>
  <time>2026-09-01T01:11:20Z</time>
  <course>156.57</course>
  <speed>0.9642613753542137</speed>
  <fix>3d</fix>
</trkpt>
<trkpt lat="-27.274439" lon="151.290064">
  <ele>343.0</ele>
  <time>2026-09-01T01:11:20Z</time>
  <course>0.0</course>
  <speed>0.0</speed>
  <fix>3d</fix>
</trkpt>
<trkpt lat="-27.274439" lon="151.290064">
  <ele>343.0</ele>
  <time>2026-09-01T01:11:20Z</time>
  <course>156.21</course>
  <speed>0.9602083107326242</speed>
  <fix>3d</fix>
</trkpt>
<trkpt lat="-27.274439" lon="151.290064">
  <ele>343.0</ele>
  <time>2026-09-01T01:11:20Z</time>
  <course>0.0</course>
  <speed>0.0</speed>
  <fix>3d</fix>
</trkpt>
<trkpt lat="-27.274439" lon="151.290064">
  <ele>343.0</ele>
  <time>2026-09-01T01:11:20Z</time>
  <course>155.95</course>
  <speed>0.9689685237405805</speed>
  <fix>3d</fix>
</trkpt>
<trkpt lat="-27.274439" lon="151.290064">
  <ele>343.0</ele>
  <time>2026-09-01T01:11:20Z</time>
  <course>0.0</course>
  <speed>0.0</speed>
  <fix>3d</fix>
</trkpt>
<trkpt lat="-27.274439" lon="151.290064">
  <ele>343.0</ele>
  <time>2026-09-01T01:11:20Z</time>
  <course>155.71</course>
  <speed>0.9800510190801294</speed>
  <fix>3d</fix>
</trkpt>
<trkpt lat="-27.274439" lon="151.290064">
  <ele>343.0</ele>
  <time>2026-09-01T01:11:20Z</time>
  <course>0.0</course>
  <speed>0.0</speed>
  <fix>3d</fix>
</trkpt>
<trkpt lat="-27.274439" lon="151.290064">
  <ele>343.0</ele>
  <time>2026-09-01T01:11:20Z</time>
  <course>155.49</course>
  <speed>0.9972963451251589</speed>
  <fix>3d</fix>
</trkpt>
<trkpt lat="-27.274439" lon="151.290064">
  <ele>343.0</ele>
  <time>2026-09-01T01:11:20Z</time>
  <course>0.0</course>
  <speed>0.0</speed>
  <fix>3d</fix>
</trkpt>
<trkpt lat="-27.274439" lon="151.290064">
  <ele>343.0</ele>
  <time>2026-09-01T01:11:20Z</time>
  <course>155.27</course>
  <speed>1.0113357503816425</speed>
  <fix>3d</fix>
</trkpt>
<trkpt lat="-27.274439" lon="151.290064">
  <ele>343.0</ele>
  <time>2026-09-01T01:11:20Z</time>
  <course>0.0</course>
  <speed>0.0</speed>
  <fix>3d</fix>
</trkpt>
<trkpt lat="-27.274439" lon="151.290064">
  <ele>343.0</ele>
  <time>2026-09-01T01:11:20Z</time>
  <course>155.07</course>
  <speed>1.010198000393982</speed>
  <fix>3d</fix>
</trkpt>
<trkpt lat="-27.274439" lon="151.290064">
  <ele>343.0</ele>
  <time>2026-09-01T01:11:20Z</time>
  <course>0.0</course>
  <speed>0.0</speed>
  <fix>3d</fix>
</trkpt>
<trkpt lat="-27.274439" lon="151.290064">
  <ele>343.0</ele>
  <time>2026-09-01T01:11:20Z</time>
  <course>154.88</course>
  <speed>0.9962429422585637</speed>
  <fix>3d</fix>
</trkpt>
<trkpt lat="-27.274439" lon="151.290064">
  <ele>343.0</ele>
  <time>2026-09-01T01:11:20Z</time>
  <course>0.0</course>
  <speed>0.0</speed>
  <fix>3d</fix>
</trkpt>
<trkpt lat="-27.274439" lon="151.290064">
  <ele>343.0</ele>
  <time>2026-09-01T01:11:20Z</time>
  <course>154.68</course>
  <speed>0.9751410154434076</speed>
  <fix>3d</fix>
</trkpt>
<trkpt lat="-27.274439" lon="151.290064">
  <ele>343.0</ele>
  <time>2026-09-01T01:11:20Z</time>
  <course>0.0</course>
  <speed>0.0</speed>
  <fix>3d</fix>
</trkpt>
<trkpt lat="-27.274439" lon="151.290064">
  <ele>343.0</ele>
  <time>2026-09-01T01:11:20Z</time>
  <course>154.49</course>
  <speed>0.951892851112981</speed>
  <fix>3d</fix>
</trkpt>
<trkpt lat="-27.274439" lon="151.290064">
  <ele>343.0</ele>
  <time>2026-09-01T01:11:20Z</time>
  <course>0.0</course>
  <speed>0.0</speed>
  <fix>3d</fix>
</trkpt>
<trkpt lat="-27.274439" lon="151.290064">
  <ele>343.0</ele>
  <time>2026-09-01T01:11:20Z</time>
  <course>154.29</course>
  <speed>0.9243916918709297</speed>
  <fix>3d</fix>
</trkpt>
<trkpt lat="-27.274439" lon="151.290064">
  <ele>343.0</ele>
  <time>2026-09-01T01:11:20Z</time>
  <course>0.0</course>
  <speed>0.0</speed>
  <fix>3d</fix>
</trkpt>
<trkpt lat="-27.274439" lon="151.290064">
  <ele>343.0</ele>
  <time>2026-09-01T01:11:20Z</time>
  <course>154.09</course>
  <speed>0.8900561780022652</speed>
  <fix>3d</fix>
</trkpt>
<trkpt lat="-27.274439" lon="151.290064">
  <ele>343.0</ele>
  <time>2026-09-01T01:11:20Z</time>
  <course>0.0</course>
  <speed>0.0</speed>
  <fix>3d</fix>
</trkpt>
<trkpt lat="-27.274439" lon="151.290064">
  <ele>343.0</ele>
  <time>2026-09-01T01:11:20Z</time>
  <course>153.88</course>
  <speed>0.8514693182963201</speed>
  <fix>3d</fix>
</trkpt>
<trkpt lat="-27.274439" lon="151.290064">
  <ele>343.0</ele>
  <time>2026-09-01T01:11:20Z</time>
  <course>0.0</course>
  <speed>0.0</speed>
  <fix>3d</fix>
</trkpt>
<trkpt lat="-27.274439" lon="151.290064">
  <ele>343.0</ele>
  <time>2026-09-01T01:11:20Z</time>
  <course>153.67</course>
  <speed>0.8174350127074322</speed>
  <fix>3d</fix>
</trkpt>
<trkpt lat="-27.274439" lon="151.290064">
  <ele>343.0</ele>
  <time>2026-09-01T01:11:20Z</time>
  <course>0.0</course>
  <speed>0.0</speed>
  <fix>3d</fix>
</trkpt>
<trkpt lat="-27.274439" lon="151.290064">
  <ele>343.0</ele>
  <time>2026-09-01T01:11:20Z</time>
  <course>153.46</course>
  <speed>0.7962411694957753</speed>
  <fix>3d</fix>
</trkpt>
<trkpt lat="-27.274439" lon="151.290064">
  <ele>343.0</ele>
  <time>2026-09-01T01:11:20Z</time>
  <course>0.0</course>
  <speed>0.0</speed>
  <fix>3d</fix>
</trkpt>
<trkpt lat="-27.274439" lon="151.290064">
  <ele>343.0</ele>
  <time>2026-09-01T01:11:20Z</time>
  <course>153.24</course>
  <speed>0.7569015788066504</speed>
  <fix>3d</fix>
</trkpt>
<trkpt lat="-27.274439" lon="151.290064">
  <ele>343.0</ele>
  <time>2026-09-01T01:11:20Z</time>
  <course>0.0</course>
  <speed>0.0</speed>
  <fix>3d</fix>
</trkpt>
<trkpt lat="-27.274439" lon="151.2900646">
  <ele>343.04</ele>
  <time>2026-09-01T01:11:20Z</time>
  <course>153.03</course>
  <speed>0.0</speed>
  <fix>3d</fix>
</trkpt>
<trkpt lat="-27.274439" lon="151.290064">
  <ele>343.0</ele>
  <time>2026-09-01T01:11:20Z</time>
  <course>0.0</course>
  <speed>0.0</speed>
  <fix>3d</fix>
</trkpt>
<trkpt lat="-27.2744392" lon="151.2900653">
  <ele>343.03</ele>
  <time>2026-09-01T01:11:20Z</time>
  <course>152.83</course>
  <speed>0.0848528137423857</speed>
  <fix>3d</fix>
</trkpt>
<trkpt lat="-27.274439" lon="151.290064">
  <ele>343.0</ele>
  <time>2026-09-01T01:11:20Z</time>
  <course>0.0</course>
  <speed>0.0</speed>
  <fix>3d</fix>
</trkpt>
<trkpt lat="-27.2744393" lon="151.2900645">
  <ele>343.02</ele>
  <time>2026-09-01T01:11:20Z</time>
  <course>152.57</course>
  <speed>0.08602325267042626</speed>
  <fix>3d</fix>
</trkpt>
<trkpt lat="-27.274439" lon="151.290064">
  <ele>343.0</ele>
  <time>2026-09-01T01:11:20Z</time>
  <course>0.0</course>
  <speed>0.0</speed>
  <fix>3d</fix>
</trkpt>
<trkpt lat="-27.2744392" lon="151.2900642">
  <ele>343.03</ele>
  <time>2026-09-01T01:11:20Z</time>
  <course>152.29</course>
  <speed>0.05830951894845301</speed>
  <fix>3d</fix>
</trkpt>
<trkpt lat="-27.274439" lon="151.290064">
  <ele>343.0</ele>
  <time>2026-09-01T01:11:20Z</time>
  <course>0.0</course>
  <speed>0.0</speed>
  <fix>3d</fix>
</trkpt>
<trkpt lat="-27.2744391" lon="151.2900641">
  <ele>343.06</ele>
  <time>2026-09-01T01:11:20Z</time>
  <course>152.03</course>
  <speed>0.02</speed>
  <fix>3d</fix>
</trkpt>
<trkpt lat="-27.274439" lon="151.290064">
  <ele>343.0</ele>
  <time>2026-09-01T01:11:20Z</time>
  <course>0.0</course>
  <speed>0.0</speed>
  <fix>3d</fix>
</trkpt>
<trkpt lat="-27.274439" lon="151.290064">
  <ele>343.05</ele>
  <time>2026-09-01T01:11:20Z</time>
  <course>151.79</course>
  <speed>0.01</speed>
  <fix>3d</fix>
</trkpt>
<trkpt lat="-27.274439" lon="151.290064">
  <ele>343.0</ele>
  <time>2026-09-01T01:11:20Z</time>
  <course>0.0</course>
  <speed>0.0</speed>
  <fix>3d</fix>
</trkpt>
<trkpt lat="-27.274439" lon="151.290064">
  <ele>343.04</ele>
  <time>2026-09-01T01:11:20Z</time>
  <course>151.57</course>
  <speed>0.01414213562373095</speed>
  <fix>3d</fix>
</trkpt>
<trkpt lat="-27.274439" lon="151.290064">
  <ele>343.0</ele>
  <time>2026-09-01T01:11:20Z</time>
  <course>0.0</course>
  <speed>0.0</speed>
  <fix>3d</fix>
</trkpt>
<trkpt lat="-27.2744389" lon="151.2900639">
  <ele>343.04</ele>
  <time>2026-09-01T01:11:20Z</time>
  <course>151.37</course>
  <speed>0.01414213562373095</speed>
  <fix>3d</fix>
</trkpt>
<trkpt lat="-27.274439" lon="151.290064">
  <ele>343.0</ele>
  <time>2026-09-01T01:11:20Z</time>
  <course>0.0</course>
  <speed>0.0</speed>
  <fix>3d</fix>
</trkpt>
<trkpt lat="-27.2744389" lon="151.2900638">
  <ele>343.05</ele>
  <time>2026-09-01T01:11:20Z</time>
  <course>151.18</course>
  <speed>0.0282842712474619</speed>
  <fix>3d</fix>
</trkpt>
<trkpt lat="-27.274439" lon="151.290064">
  <ele>343.0</ele>
  <time>2026-09-01T01:11:20Z</time>
  <course>0.0</course>
  <speed>0.0</speed>
  <fix>3d</fix>
</trkpt>
<trkpt lat="-27.2744389" lon="151.2900638">
  <ele>343.06</ele>
  <time>2026-09-01T01:11:20Z</time>
  <course>151.01</course>
  <speed>0.0282842712474619</speed>
  <fix>3d</fix>
</trkpt>
<trkpt lat="-27.274439" lon="151.290064">
  <ele>343.0</ele>
  <time>2026-09-01T01:11:20Z</time>
  <course>0.0</course>
  <speed>0.0</speed>
  <fix>3d</fix>
</trkpt>
<trkpt lat="-27.2744389" lon="151.2900638">
  <ele>343.03</ele>
  <time>2026-09-01T01:11:20Z</time>
  <course>150.84</course>
  <speed>0.0282842712474619</speed>
  <fix>3d</fix>
</trkpt>
<trkpt lat="-27.274439" lon="151.290064">
  <ele>343.0</ele>
  <time>2026-09-01T01:11:20Z</time>
  <course>0.0</course>
  <speed>0.0</speed>
  <fix>3d</fix>
</trkpt>
<trkpt lat="-27.2744389" lon="151.2900638">
  <ele>343.04</ele>
  <time>2026-09-01T01:11:20Z</time>
  <course>150.68</course>
  <speed>0.0282842712474619</speed>
  <fix>3d</fix>
</trkpt>
<trkpt lat="-27.274439" lon="151.290064">
  <ele>343.0</ele>
  <time>2026-09-01T01:11:20Z</time>
  <course>0.0</course>
  <speed>0.0</speed>
  <fix>3d</fix>
</trkpt>
<trkpt lat="-27.2744389" lon="151.2900638">
  <ele>343.03</ele>
  <time>2026-09-01T01:11:20Z</time>
  <course>150.52</course>
  <speed>0.022360679774997897</speed>
  <fix>3d</fix>
</trkpt>
<trkpt lat="-27.274439" lon="151.290064">
  <ele>343.0</ele>
  <time>2026-09-01T01:11:20Z</time>
  <course>0.0</course>
  <speed>0.0</speed>
  <fix>3d</fix>
</trkpt>
<trkpt lat="-27.2744389" lon="151.2900638">
  <ele>343.04</ele>
  <time>2026-09-01T01:11:20Z</time>
  <course>150.38</course>
  <speed>0.022360679774997897</speed>
  <fix>3d</fix>
</trkpt>
<trkpt lat="-27.274439" lon="151.290064">
  <ele>343.0</ele>
  <time>2026-09-01T01:11:20Z</time>
  <course>0.0</course>
  <speed>0.0</speed>
  <fix>3d</fix>
</trkpt>
<trkpt lat="-27.2744389" lon="151.2900638">
  <ele>343.03</ele>
  <time>2026-09-01T01:11:20Z</time>
  <course>150.24</course>
  <speed>0.022360679774997897</speed>
  <fix>3d</fix>
</trkpt>
<trkpt lat="-27.274439" lon="151.290064">
  <ele>343.0</ele>
  <time>2026-09-01T01:11:20Z</time>
  <course>0.0</course>
  <speed>0.0</speed>
  <fix>3d</fix>
</trkpt>
<trkpt lat="-27.2744389" lon="151.2900638">
  <ele>343.02</ele>
  <time>2026-09-01T01:11:20Z</time>
  <course>150.11</course>
  <speed>0.022360679774997897</speed>
  <fix>3d</fix>
</trkpt>
<trkpt lat="-27.274439" lon="151.290064">
  <ele>343.0</ele>
  <time>2026-09-01T01:11:20Z</time>
  <course>0.0</course>
  <speed>0.0</speed>
  <fix>3d</fix>
</trkpt>
<trkpt lat="-27.2744389" lon="151.2900638">
  <ele>343.0</ele>
  <time>2026-09-01T01:11:20Z</time>
  <course>149.98</course>
  <speed>0.022360679774997897</speed>
  <fix>3d</fix>
</trkpt>
<trkpt lat="-27.274439" lon="151.290064">
  <ele>343.0</ele>
  <time>2026-09-01T01:11:20Z</time>
  <course>0.0</course>
  <speed>0.0</speed>
  <fix>3d</fix>
</trkpt>
<trkpt lat="-27.2744389" lon="151.2900638">
  <ele>343.01</ele>
  <time>2026-09-01T01:11:20Z</time>
  <course>149.86</course>
  <speed>0.022360679774997897</speed>
  <fix>3d</fix>
</trkpt>
<trkpt lat="-27.274439" lon="151.290064">
  <ele>343.0</ele>
  <time>2026-09-01T01:11:20Z</time>
  <course>0.0</course>
  <speed>0.0</speed>
  <fix>3d</fix>
</trkpt>
<trkpt lat="-27.2744389" lon="151.2900638">
  <ele>343.04</ele>
  <time>2026-09-01T01:11:20Z</time>
  <course>149.75</course>
  <speed>0.022360679774997897</speed>
  <fix>3d</fix>
</trkpt>
<trkpt lat="-27.274439" lon="151.290064">
  <ele>343.0</ele>
  <time>2026-09-01T01:11:20Z</time>
  <course>0.0</course>
  <speed>0.0</speed>
  <fix>3d</fix>
</trkpt>
<trkpt lat="-27.2744389" lon="151.2900638">
  <ele>343.04</ele>
  <time>2026-09-01T01:11:20Z</time>
  <course>149.64</course>
  <speed>0.022360679774997897</speed>
  <fix>3d</fix>
</trkpt>
<trkpt lat="-27.274439" lon="151.290064">
  <ele>343.0</ele>
  <time>2026-09-01T01:11:20Z</time>
  <course>0.0</course>
  <speed>0.0</speed>
  <fix>3d</fix>
</trkpt>
<trkpt lat="-27.2744389" lon="151.2900638">
  <ele>343.04</ele>
  <time>2026-09-01T01:11:20Z</time>
  <course>149.53</course>
  <speed>0.022360679774997897</speed>
  <fix>3d</fix>
</trkpt>
<trkpt lat="-27.274439" lon="151.290064">
  <ele>343.0</ele>
  <time>2026-09-01T01:11:20Z</time>
  <course>0.0</course>
  <speed>0.0</speed>
  <fix>3d</fix>
</trkpt>
<trkpt lat="-27.2744389" lon="151.2900638">
  <ele>343.04</ele>
  <time>2026-09-01T01:11:20Z</time>
  <course>149.44</course>
  <speed>0.022360679774997897</speed>
  <fix>3d</fix>
</trkpt>
<trkpt lat="-27.274439" lon="151.290064">
  <ele>343.0</ele>
  <time>2026-09-01T01:11:20Z</time>
  <course>0.0</course>
  <speed>0.0</speed>
  <fix>3d</fix>
</trkpt>
<trkpt lat="-27.2744389" lon="151.2900638">
  <ele>343.03</ele>
  <time>2026-09-01T01:11:20Z</time>
  <course>149.34</course>
  <speed>0.022360679774997897</speed>
  <fix>3d</fix>
</trkpt>
<trkpt lat="-27.274439" lon="151.290064">
  <ele>343.0</ele>
  <time>2026-09-01T01:11:20Z</time>
  <course>0.0</course>
  <speed>0.0</speed>
  <fix>3d</fix>
</trkpt>
<trkpt lat="-27.2744389" lon="151.2900638">
  <ele>343.02</ele>
  <time>2026-09-01T01:11:20Z</time>
  <course>149.25</course>
  <speed>0.022360679774997897</speed>
  <fix>3d</fix>
</trkpt>
<trkpt lat="-27.274439" lon="151.290064">
  <ele>343.0</ele>
  <time>2026-09-01T01:11:20Z</time>
  <course>0.0</course>
  <speed>0.0</speed>
  <fix>3d</fix>
</trkpt>
<trkpt lat="-27.2744389" lon="151.2900638">
  <ele>343.05</ele>
  <time>2026-09-01T01:11:20Z</time>
  <course>149.17</course>
  <speed>0.022360679774997897</speed>
  <fix>3d</fix>
</trkpt>
<trkpt lat="-27.274439" lon="151.290064">
  <ele>343.0</ele>
  <time>2026-09-01T01:11:20Z</time>
  <course>0.0</course>
  <speed>0.0</speed>
  <fix>3d</fix>
</trkpt>
<trkpt lat="-27.2744389" lon="151.2900638">
  <ele>343.04</ele>
  <time>2026-09-01T01:11:20Z</time>
  <course>149.09</course>
  <speed>0.02</speed>
  <fix>3d</fix>
</trkpt>
<trkpt lat="-27.274439" lon="151.290064">
  <ele>343.0</ele>
  <time>2026-09-01T01:11:20Z</time>
  <course>0.0</course>
  <speed>0.0</speed>
  <fix>3d</fix>
</trkpt>
<trkpt lat="-27.2744389" lon="151.2900638">
  <ele>343.05</ele>
  <time>2026-09-01T01:11:20Z</time>
  <course>149.01</course>
  <speed>0.022360679774997897</speed>
  <fix>3d</fix>
</trkpt>
<trkpt lat="-27.274439" lon="151.290064">
  <ele>343.0</ele>
  <time>2026-09-01T01:11:20Z</time>
  <course>0.0</course>
  <speed>0.0</speed>
  <fix>3d</fix>
</trkpt>
<trkpt lat="-27.2744389" lon="151.2900638">
  <ele>343.03</ele>
  <time>2026-09-01T01:11:20Z</time>
  <course>148.94</course>
  <speed>0.02</speed>
  <fix>3d</fix>
</trkpt>
<trkpt lat="-27.274439" lon="151.290064">
  <ele>343.0</ele>
  <time>2026-09-01T01:11:20Z</time>
  <course>0.0</course>
  <speed>0.0</speed>
  <fix>3d</fix>
</trkpt>
<trkpt lat="-27.2744389" lon="151.2900638">
  <ele>343.02</ele>
  <time>2026-09-01T01:11:20Z</time>
  <course>148.87</course>
  <speed>0.022360679774997897</speed>
  <fix>3d</fix>
</trkpt>
<trkpt lat="-27.274439" lon="151.290064">
  <ele>343.0</ele>
  <time>2026-09-01T01:11:20Z</time>
  <course>0.0</course>
  <speed>0.0</speed>
  <fix>3d</fix>
</trkpt>
<trkpt lat="-27.2744389" lon="151.2900638">
  <ele>343.02</ele>
  <time>2026-09-01T01:11:20Z</time>
  <course>148.8</course>
  <speed>0.02</speed>
  <fix>3d</fix>
</trkpt>
<trkpt lat="-27.274439" lon="151.290064">
  <ele>343.0</ele>
  <time>2026-09-01T01:11:20Z</time>
  <course>0.0</course>
  <speed>0.0</speed>
  <fix>3d</fix>
</trkpt>
<trkpt lat="-27.2744389" lon="151.2900638">
  <ele>343.02</ele>
  <time>2026-09-01T01:11:20Z</time>
  <course>148.74</course>
  <speed>0.02</speed>
  <fix>3d</fix>
</trkpt>
<trkpt lat="-27.274439" lon="151.290064">
  <ele>343.0</ele>
  <time>2026-09-01T01:11:20Z</time>
  <course>0.0</course>
  <speed>0.0</speed>
  <fix>3d</fix>
</trkpt>
<trkpt lat="-27.2744389" lon="151.2900638">
  <ele>343.0</ele>
  <time>2026-09-01T01:11:20Z</time>
  <course>148.67</course>
  <speed>0.02</speed>
  <fix>3d</fix>
</trkpt>
<trkpt lat="-27.274439" lon="151.290064">
  <ele>343.0</ele>
  <time>2026-09-01T01:11:20Z</time>
  <course>0.0</course>
  <speed>0.0</speed>
  <fix>3d</fix>
</trkpt>
<trkpt lat="-27.2744389" lon="151.2900638">
  <ele>343.0</ele>
  <time>2026-09-01T01:11:20Z</time>
  <course>148.62</course>
  <speed>0.02</speed>
  <fix>3d</fix>
</trkpt>
<trkpt lat="-27.274439" lon="151.290064">
  <ele>343.0</ele>
  <time>2026-09-01T01:11:20Z</time>
  <course>0.0</course>
  <speed>0.0</speed>
  <fix>3d</fix>
</trkpt>
<trkpt lat="-27.2744389" lon="151.2900638">
  <ele>343.01</ele>
  <time>2026-09-01T01:11:20Z</time>
  <course>148.56</course>
  <speed>0.02</speed>
  <fix>3d</fix>
</trkpt>
<trkpt lat="-27.274439" lon="151.290064">
  <ele>343.0</ele>
  <time>2026-09-01T01:11:20Z</time>
  <course>0.0</course>
  <speed>0.0</speed>
  <fix>3d</fix>
</trkpt>
<trkpt lat="-27.2744389" lon="151.2900638">
  <ele>342.99</ele>
  <time>2026-09-01T01:11:20Z</time>
  <course>148.51</course>
  <speed>0.02</speed>
  <fix>3d</fix>
</trkpt>
<trkpt lat="-27.274439" lon="151.290064">
  <ele>343.0</ele>
  <time>2026-09-01T01:11:20Z</time>
  <course>0.0</course>
  <speed>0.0</speed>
  <fix>3d</fix>
</trkpt>
<trkpt lat="-27.2744389" lon="151.2900638">
  <ele>342.99</ele>
  <time>2026-09-01T01:11:20Z</time>
  <course>148.46</course>
  <speed>0.02</speed>
  <fix>3d</fix>
</trkpt>
<trkpt lat="-27.274439" lon="151.290064">
  <ele>343.0</ele>
  <time>2026-09-01T01:11:20Z</time>
  <course>0.0</course>
  <speed>0.0</speed>
  <fix>3d</fix>
</trkpt>
<trkpt lat="-27.2744389" lon="151.2900638">
  <ele>342.99</ele>
  <time>2026-09-01T01:11:20Z</time>
  <course>148.41</course>
  <speed>0.02</speed>
  <fix>3d</fix>
</trkpt>
<trkpt lat="-27.274439" lon="151.290064">
  <ele>343.0</ele>
  <time>2026-09-01T01:11:20Z</time>
  <course>0.0</course>
  <speed>0.0</speed>
  <fix>3d</fix>
</trkpt>
<trkpt lat="-27.2744389" lon="151.2900638">
  <ele>343.01</ele>
  <time>2026-09-01T01:11:20Z</time>
  <course>148.36</course>
  <speed>0.02</speed>
  <fix>3d</fix>
</trkpt>
<trkpt lat="-27.274439" lon="151.290064">
  <ele>343.0</ele>
  <time>2026-09-01T01:11:20Z</time>
  <course>0.0</course>
  <speed>0.0</speed>
  <fix>3d</fix>
</trkpt>
<trkpt lat="-27.2744389" lon="151.2900638">
  <ele>343.01</ele>
  <time>2026-09-01T01:11:20Z</time>
  <course>148.32</course>
  <speed>0.02</speed>
  <fix>3d</fix>
</trkpt>
<trkpt lat="-27.274439" lon="151.290064">
  <ele>343.0</ele>
  <time>2026-09-01T01:11:20Z</time>
  <course>0.0</course>
  <speed>0.0</speed>
  <fix>3d</fix>
</trkpt>
<trkpt lat="-27.2744389" lon="151.2900638">
  <ele>343.02</ele>
  <time>2026-09-01T01:11:20Z</time>
  <course>148.27</course>
  <speed>0.02</speed>
  <fix>3d</fix>
</trkpt>
<trkpt lat="-27.274439" lon="151.290064">
  <ele>343.0</ele>
  <time>2026-09-01T01:11:20Z</time>
  <course>0.0</course>
  <speed>0.0</speed>
  <fix>3d</fix>
</trkpt>
<trkpt lat="-27.2744389" lon="151.2900638">
  <ele>343.01</ele>
  <time>2026-09-01T01:11:20Z</time>
  <course>148.23</course>
  <speed>0.02</speed>
  <fix>3d</fix>
</trkpt>
<trkpt lat="-27.274439" lon="151.290064">
  <ele>343.0</ele>
  <time>2026-09-01T01:11:20Z</time>
  <course>0.0</course>
  <speed>0.0</speed>
  <fix>3d</fix>
</trkpt>
<trkpt lat="-27.2744389" lon="151.2900638">
  <ele>343.02</ele>
  <time>2026-09-01T01:11:20Z</time>
  <course>148.19</course>
  <speed>0.02</speed>
  <fix>3d</fix>
</trkpt>
<trkpt lat="-27.274439" lon="151.290064">
  <ele>343.0</ele>
  <time>2026-09-01T01:11:20Z</time>
  <course>0.0</course>
  <speed>0.0</speed>
  <fix>3d</fix>
</trkpt>
<trkpt lat="-27.2744389" lon="151.2900638">
  <ele>343.05</ele>
  <time>2026-09-01T01:11:20Z</time>
  <course>148.15</course>
  <speed>0.02</speed>
  <fix>3d</fix>
</trkpt>
<trkpt lat="-27.274439" lon="151.290064">
  <ele>343.0</ele>
  <time>2026-09-01T01:11:20Z</time>
  <course>0.0</course>
  <speed>0.0</speed>
  <fix>3d</fix>
</trkpt>
<trkpt lat="-27.2744389" lon="151.2900638">
  <ele>343.03</ele>
  <time>2026-09-01T01:11:20Z</time>
  <course>148.12</course>
  <speed>0.02</speed>
  <fix>3d</fix>
</trkpt>
<trkpt lat="-27.274439" lon="151.290064">
  <ele>343.0</ele>
  <time>2026-09-01T01:11:20Z</time>
  <course>0.0</course>
  <speed>0.0</speed>
  <fix>3d</fix>
</trkpt>
<trkpt lat="-27.2744389" lon="151.2900638">
  <ele>343.04</ele>
  <time>2026-09-01T01:11:20Z</time>
  <course>148.08</course>
  <speed>0.02</speed>
  <fix>3d</fix>
</trkpt>
<trkpt lat="-27.274439" lon="151.290064">
  <ele>343.0</ele>
  <time>2026-09-01T01:11:20Z</time>
  <course>0.0</course>
  <speed>0.0</speed>
  <fix>3d</fix>
</trkpt>
<trkpt lat="-27.2744389" lon="151.2900638">
  <ele>343.03</ele>
  <time>2026-09-01T01:11:20Z</time>
  <course>148.05</course>
  <speed>0.02</speed>
  <fix>3d</fix>
</trkpt>
<trkpt lat="-27.274439" lon="151.290064">
  <ele>343.0</ele>
  <time>2026-09-01T01:11:20Z</time>
  <course>0.0</course>
  <speed>0.0</speed>
  <fix>3d</fix>
</trkpt>
<trkpt lat="-27.2744389" lon="151.2900638">
  <ele>343.03</ele>
  <time>2026-09-01T01:11:20Z</time>
  <course>148.02</course>
  <speed>0.02</speed>
  <fix>3d</fix>
</trkpt>
<trkpt lat="-27.274439" lon="151.290064">
  <ele>343.0</ele>
  <time>2026-09-01T01:11:20Z</time>
  <course>0.0</course>
  <speed>0.0</speed>
  <fix>3d</fix>
</trkpt>
<trkpt lat="-27.2744389" lon="151.2900638">
  <ele>343.03</ele>
  <time>2026-09-01T01:11:20Z</time>
  <course>147.98</course>
  <speed>0.02</speed>
  <fix>3d</fix>
</trkpt>
<trkpt lat="-27.274439" lon="151.290064">
  <ele>343.0</ele>
  <time>2026-09-01T01:11:20Z</time>
  <course>0.0</course>
  <speed>0.0</speed>
  <fix>3d</fix>
</trkpt>
<trkpt lat="-27.2744389" lon="151.2900638">
  <ele>343.02</ele>
  <time>2026-09-01T01:11:20Z</time>
  <course>147.95</course>
  <speed>0.02</speed>
  <fix>3d</fix>
</trkpt>
<trkpt lat="-27.274439" lon="151.290064">
  <ele>343.0</ele>
  <time>2026-09-01T01:11:20Z</time>
  <course>0.0</course>
  <speed>0.0</speed>
  <fix>3d</fix>
</trkpt>
<trkpt lat="-27.2744389" lon="151.2900638">
  <ele>343.03</ele>
  <time>2026-09-01T01:11:20Z</time>
  <course>147.93</course>
  <speed>0.02</speed>
  <fix>3d</fix>
</trkpt>
<trkpt lat="-27.274439" lon="151.290064">
  <ele>343.0</ele>
  <time>2026-09-01T01:11:20Z</time>
  <course>0.0</course>
  <speed>0.0</speed>
  <fix>3d</fix>
</trkpt>
<trkpt lat="-27.2744389" lon="151.2900638">
  <ele>343.03</ele>
  <time>2026-09-01T01:11:20Z</time>
  <course>147.89</course>
  <speed>0.02</speed>
  <fix>3d</fix>
</trkpt>
<trkpt lat="-27.274439" lon="151.290064">
  <ele>343.0</ele>
  <time>2026-09-01T01:11:20Z</time>
  <course>0.0</course>
  <speed>0.0</speed>
  <fix>3d</fix>
</trkpt>
<trkpt lat="-27.2744389" lon="151.2900638">
  <ele>343.02</ele>
  <time>2026-09-01T01:11:20Z</time>
  <course>147.87</course>
  <speed>0.02</speed>
  <fix>3d</fix>
</trkpt>
<trkpt lat="-27.274439" lon="151.290064">
  <ele>343.0</ele>
  <time>2026-09-01T01:11:20Z</time>
  <course>0.0</course>
  <speed>0.0</speed>
  <fix>3d</fix>
</trkpt>
<trkpt lat="-27.2744389" lon="151.2900638">
  <ele>343.05</ele>
  <time>2026-09-01T01:11:20Z</time>
  <course>147.84</course>
  <speed>0.02</speed>
  <fix>3d</fix>
</trkpt>
<trkpt lat="-27.274439" lon="151.290064">
  <ele>343.0</ele>
  <time>2026-09-01T01:11:20Z</time>
  <course>0.0</course>
  <speed>0.0</speed>
  <fix>3d</fix>
</trkpt>
<trkpt lat="-27.2744389" lon="151.2900638">
  <ele>343.03</ele>
  <time>2026-09-01T01:11:20Z</time>
  <course>147.82</course>
  <speed>0.02</speed>
  <fix>3d</fix>
</trkpt>
<trkpt lat="-27.274439" lon="151.290064">
  <ele>343.0</ele>
  <time>2026-09-01T01:11:20Z</time>
  <course>0.0</course>
  <speed>0.0</speed>
  <fix>3d</fix>
</trkpt>
<trkpt lat="-27.2744389" lon="151.2900638">
  <ele>343.02</ele>
  <time>2026-09-01T01:11:20Z</time>
  <course>147.79</course>
  <speed>0.02</speed>
  <fix>3d</fix>
</trkpt>
<trkpt lat="-27.274439" lon="151.290064">
  <ele>343.0</ele>
  <time>2026-09-01T01:11:20Z</time>
  <course>0.0</course>
  <speed>0.0</speed>
  <fix>3d</fix>
</trkpt>
<trkpt lat="-27.2744389" lon="151.2900638">
  <ele>343.01</ele>
  <time>2026-09-01T01:11:20Z</time>
  <course>147.77</course>
  <speed>0.02</speed>
  <fix>3d</fix>
</trkpt>
<trkpt lat="-27.274439" lon="151.290064">
  <ele>343.0</ele>
  <time>2026-09-01T01:11:20Z</time>
  <course>0.0</course>
  <speed>0.0</speed>
  <fix>3d</fix>
</trkpt>
<trkpt lat="-27.2744389" lon="151.2900638">
  <ele>343.0</ele>
  <time>2026-09-01T01:11:20Z</time>
  <course>147.74</course>
  <speed>0.02</speed>
  <fix>3d</fix>
</trkpt>
<trkpt lat="-27.274439" lon="151.290064">
  <ele>343.0</ele>
  <time>2026-09-01T01:11:20Z</time>
  <course>0.0</course>
  <speed>0.0</speed>
  <fix>3d</fix>
</trkpt>
<trkpt lat="-27.2744389" lon="151.2900638">
  <ele>343.01</ele>
  <time>2026-09-01T01:11:20Z</time>
  <course>147.73</course>
  <speed>0.02</speed>
  <fix>3d</fix>
</trkpt>
<trkpt lat="-27.274439" lon="151.290064">
  <ele>343.0</ele>
  <time>2026-09-01T01:11:20Z</time>
  <course>0.0</course>
  <speed>0.0</speed>
  <fix>3d</fix>
</trkpt>
<trkpt lat="-27.2744389" lon="151.2900638">
  <ele>343.0</ele>
  <time>2026-09-01T01:11:20Z</time>
  <course>147.7</course>
  <speed>0.02</speed>
  <fix>3d</fix>
</trkpt>
<trkpt lat="-27.274439" lon="151.290064">
  <ele>343.0</ele>
  <time>2026-09-01T01:11:20Z</time>
  <course>0.0</course>
  <speed>0.0</speed>
  <fix>3d</fix>
</trkpt>
<trkpt lat="-27.2744389" lon="151.2900638">
  <ele>342.99</ele>
  <time>2026-09-01T01:11:20Z</time>
  <course>147.69</course>
  <speed>0.02</speed>
  <fix>3d</fix>
</trkpt>
<trkpt lat="-27.274439" lon="151.290064">
  <ele>343.0</ele>
  <time>2026-09-01T01:11:20Z</time>
  <course>0.0</course>
  <speed>0.0</speed>
  <fix>3d</fix>
</trkpt>
<trkpt lat="-27.2744389" lon="151.2900638">
  <ele>342.99</ele>
  <time>2026-09-01T01:11:20Z</time>
  <course>147.66</course>
  <speed>0.02</speed>
  <fix>3d</fix>
</trkpt>
<trkpt lat="-27.274439" lon="151.290064">
  <ele>343.0</ele>
  <time>2026-09-01T01:11:20Z</time>
  <course>0.0</course>
  <speed>0.0</speed>
  <fix>3d</fix>
</trkpt>
<trkpt lat="-27.2744389" lon="151.2900638">
  <ele>343.0</ele>
  <time>2026-09-01T01:11:20Z</time>
  <course>147.65</course>
  <speed>0.02</speed>
  <fix>3d</fix>
</trkpt>
<trkpt lat="-27.274439" lon="151.290064">
  <ele>343.0</ele>
  <time>2026-09-01T01:11:20Z</time>
  <course>0.0</course>
  <speed>0.0</speed>
  <fix>3d</fix>
</trkpt>
<trkpt lat="-27.2744389" lon="151.2900638">
  <ele>343.01</ele>
  <time>2026-09-01T01:11:20Z</time>
  <course>147.63</course>
  <speed>0.02</speed>
  <fix>3d</fix>
</trkpt>
<trkpt lat="-27.274439" lon="151.290064">
  <ele>343.0</ele>
  <time>2026-09-01T01:11:20Z</time>
  <course>0.0</course>
  <speed>0.0</speed>
  <fix>3d</fix>
</trkpt>
<trkpt lat="-27.2744389" lon="151.2900638">
  <ele>343.0</ele>
  <time>2026-09-01T01:11:20Z</time>
  <course>147.61</course>
  <speed>0.02</speed>
  <fix>3d</fix>
</trkpt>
<trkpt lat="-27.274439" lon="151.290064">
  <ele>343.0</ele>
  <time>2026-09-01T01:11:20Z</time>
  <course>0.0</course>
  <speed>0.0</speed>
  <fix>3d</fix>
</trkpt>
<trkpt lat="-27.2744389" lon="151.2900638">
  <ele>342.99</ele>
  <time>2026-09-01T01:11:20Z</time>
  <course>147.6</course>
  <speed>0.02</speed>
  <fix>3d</fix>
</trkpt>
<trkpt lat="-27.274439" lon="151.290064">
  <ele>343.0</ele>
  <time>2026-09-01T01:11:20Z</time>
  <course>0.0</course>
  <speed>0.0</speed>
  <fix>3d</fix>
</trkpt>
<trkpt lat="-27.2744389" lon="151.2900638">
  <ele>342.99</ele>
  <time>2026-09-01T01:11:20Z</time>
  <course>147.58</course>
  <speed>0.02</speed>
  <fix>3d</fix>
</trkpt>
<trkpt lat="-27.274439" lon="151.290064">
  <ele>343.0</ele>
  <time>2026-09-01T01:11:20Z</time>
  <course>0.0</course>
  <speed>0.0</speed>
  <fix>3d</fix>
</trkpt>
<trkpt lat="-27.2744389" lon="151.2900638">
  <ele>343.0</ele>
  <time>2026-09-01T01:11:20Z</time>
  <course>147.56</course>
  <speed>0.02</speed>
  <fix>3d</fix>
</trkpt>
<trkpt lat="-27.274439" lon="151.290064">
  <ele>343.0</ele>
  <time>2026-09-01T01:11:20Z</time>
  <course>0.0</course>
  <speed>0.0</speed>
  <fix>3d</fix>
</trkpt>
<trkpt lat="-27.2744389" lon="151.2900638">
  <ele>343.02</ele>
  <time>2026-09-01T01:11:20Z</time>
  <course>147.55</course>
  <speed>0.02</speed>
  <fix>3d</fix>
</trkpt>
<trkpt lat="-27.274439" lon="151.290064">
  <ele>343.0</ele>
  <time>2026-09-01T01:11:20Z</time>
  <course>0.0</course>
  <speed>0.0</speed>
  <fix>3d</fix>
</trkpt>
<trkpt lat="-27.2744389" lon="151.2900638">
  <ele>343.01</ele>
  <time>2026-09-01T01:11:20Z</time>
  <course>147.53</course>
  <speed>0.02</speed>
  <fix>3d</fix>
</trkpt>
<trkpt lat="-27.274439" lon="151.290064">
  <ele>343.0</ele>
  <time>2026-09-01T01:11:20Z</time>
  <course>0.0</course>
  <speed>0.0</speed>
  <fix>3d</fix>
</trkpt>
<trkpt lat="-27.2744389" lon="151.2900638">
  <ele>343.01</ele>
  <time>2026-09-01T01:11:20Z</time>
  <course>147.52</course>
  <speed>0.02</speed>
  <fix>3d</fix>
</trkpt>
<trkpt lat="-27.274439" lon="151.290064">
  <ele>343.0</ele>
  <time>2026-09-01T01:11:20Z</time>
  <course>0.0</course>
  <speed>0.0</speed>
  <fix>3d</fix>
</trkpt>
<trkpt lat="-27.2744389" lon="151.2900638">
  <ele>343.02</ele>
  <time>2026-09-01T01:11:20Z</time>
  <course>147.51</course>
  <speed>0.02</speed>
  <fix>3d</fix>
</trkpt>
<trkpt lat="-27.274439" lon="151.290064">
  <ele>343.0</ele>
  <time>2026-09-01T01:11:20Z</time>
  <course>0.0</course>
  <speed>0.0</speed>
  <fix>3d</fix>
</trkpt>
<trkpt lat="-27.2744389" lon="151.2900638">
  <ele>343.01</ele>
  <time>2026-09-01T01:11:20Z</time>
  <course>147.49</course>
  <speed>0.02</speed>
  <fix>3d</fix>
</trkpt>
<trkpt lat="-27.274439" lon="151.290064">
  <ele>343.0</ele>
  <time>2026-09-01T01:11:20Z</time>
  <course>0.0</course>
  <speed>0.0</speed>
  <fix>3d</fix>
</trkpt>
<trkpt lat="-27.2744389" lon="151.2900638">
  <ele>343.0</ele>
  <time>2026-09-01T01:11:20Z</time>
  <course>147.48</course>
  <speed>0.02</speed>
  <fix>3d</fix>
</trkpt>
<trkpt lat="-27.274439" lon="151.290064">
  <ele>343.0</ele>
  <time>2026-09-01T01:11:20Z</time>
  <course>0.0</course>
  <speed>0.0</speed>
  <fix>3d</fix>
</trkpt>
<trkpt lat="-27.2744389" lon="151.2900638">
  <ele>343.04</ele>
  <time>2026-09-01T01:11:20Z</time>
  <course>147.47</course>
  <speed>0.02</speed>
  <fix>3d</fix>
</trkpt>
<trkpt lat="-27.274439" lon="151.290064">
  <ele>343.0</ele>
  <time>2026-09-01T01:11:20Z</time>
  <course>0.0</course>
  <speed>0.0</speed>
  <fix>3d</fix>
</trkpt>
<trkpt lat="-27.2744389" lon="151.2900638">
  <ele>343.04</ele>
  <time>2026-09-01T01:11:20Z</time>
  <course>147.46</course>
  <speed>0.02</speed>
  <fix>3d</fix>
</trkpt>
<trkpt lat="-27.274439" lon="151.290064">
  <ele>343.0</ele>
  <time>2026-09-01T01:11:20Z</time>
  <course>0.0</course>
  <speed>0.0</speed>
  <fix>3d</fix>
</trkpt>
<trkpt lat="-27.2744389" lon="151.2900638">
  <ele>343.01</ele>
  <time>2026-09-01T01:11:20Z</time>
  <course>147.44</course>
  <speed>0.02</speed>
  <fix>3d</fix>
</trkpt>
<trkpt lat="-27.274439" lon="151.290064">
  <ele>343.0</ele>
  <time>2026-09-01T01:11:20Z</time>
  <course>0.0</course>
  <speed>0.0</speed>
  <fix>3d</fix>
</trkpt>
<trkpt lat="-27.2744389" lon="151.2900638">
  <ele>343.01</ele>
  <time>2026-09-01T01:11:20Z</time>
  <course>147.43</course>
  <speed>0.02</speed>
  <fix>3d</fix>
</trkpt>
<trkpt lat="-27.274439" lon="151.290064">
  <ele>343.0</ele>
  <time>2026-09-01T01:11:20Z</time>
  <course>0.0</course>
  <speed>0.0</speed>
  <fix>3d</fix>
</trkpt>
<trkpt lat="-27.2744389" lon="151.2900638">
  <ele>343.02</ele>
  <time>2026-09-01T01:11:20Z</time>
  <course>147.42</course>
  <speed>0.02</speed>
  <fix>3d</fix>
</trkpt>
<trkpt lat="-27.274439" lon="151.290064">
  <ele>343.0</ele>
  <time>2026-09-01T01:11:20Z</time>
  <course>0.0</course>
  <speed>0.0</speed>
  <fix>3d</fix>
</trkpt>
<trkpt lat="-27.2744389" lon="151.2900638">
  <ele>343.04</ele>
  <time>2026-09-01T01:11:20Z</time>
  <course>147.41</course>
  <speed>0.02</speed>
  <fix>3d</fix>
</trkpt>
<trkpt lat="-27.274439" lon="151.290064">
  <ele>343.0</ele>
  <time>2026-09-01T01:11:20Z</time>
  <course>0.0</course>
  <speed>0.0</speed>
  <fix>3d</fix>
</trkpt>
<trkpt lat="-27.2744389" lon="151.2900638">
  <ele>343.03</ele>
  <time>2026-09-01T01:11:20Z</time>
  <course>147.4</course>
  <speed>0.02</speed>
  <fix>3d</fix>
</trkpt>
<trkpt lat="-27.274439" lon="151.290064">
  <ele>343.0</ele>
  <time>2026-09-01T01:11:20Z</time>
  <course>0.0</course>
  <speed>0.0</speed>
  <fix>3d</fix>
</trkpt>
<trkpt lat="-27.2744389" lon="151.2900638">
  <ele>343.01</ele>
  <time>2026-09-01T01:11:20Z</time>
  <course>147.39</course>
  <speed>0.02</speed>
  <fix>3d</fix>
</trkpt>
<trkpt lat="-27.274439" lon="151.290064">
  <ele>343.0</ele>
  <time>2026-09-01T01:11:20Z</time>
  <course>0.0</course>
  <speed>0.0</speed>
  <fix>3d</fix>
</trkpt>
<trkpt lat="-27.2744389" lon="151.2900638">
  <ele>343.02</ele>
  <time>2026-09-01T01:11:20Z</time>
  <course>147.38</course>
  <speed>0.02</speed>
  <fix>3d</fix>
</trkpt>
<trkpt lat="-27.274439" lon="151.290064">
  <ele>343.0</ele>
  <time>2026-09-01T01:11:20Z</time>
  <course>0.0</course>
  <speed>0.0</speed>
  <fix>3d</fix>
</trkpt>
<trkpt lat="-27.2744389" lon="151.2900638">
  <ele>343.01</ele>
  <time>2026-09-01T01:11:20Z</time>
  <course>147.38</course>
  <speed>0.02</speed>
  <fix>3d</fix>
</trkpt>
<trkpt lat="-27.274439" lon="151.290064">
  <ele>343.0</ele>
  <time>2026-09-01T01:11:20Z</time>
  <course>0.0</course>
  <speed>0.0</speed>
  <fix>3d</fix>
</trkpt>
<trkpt lat="-27.2744389" lon="151.2900638">
  <ele>343.01</ele>
  <time>2026-09-01T01:11:20Z</time>
  <course>147.36</course>
  <speed>0.02</speed>
  <fix>3d</fix>
</trkpt>
<trkpt lat="-27.274439" lon="151.290064">
  <ele>343.0</ele>
  <time>2026-09-01T01:11:20Z</time>
  <course>0.0</course>
  <speed>0.0</speed>
  <fix>3d</fix>
</trkpt>
<trkpt lat="-27.2744389" lon="151.2900638">
  <ele>343.01</ele>
  <time>2026-09-01T01:11:20Z</time>
  <course>147.36</course>
  <speed>0.02</speed>
  <fix>3d</fix>
</trkpt>
<trkpt lat="-27.274439" lon="151.290064">
  <ele>343.0</ele>
  <time>2026-09-01T01:11:20Z</time>
  <course>0.0</course>
  <speed>0.0</speed>
  <fix>3d</fix>
</trkpt>
<trkpt lat="-27.2744389" lon="151.2900638">
  <ele>343.01</ele>
  <time>2026-09-01T01:11:20Z</time>
  <course>147.35</course>
  <speed>0.02</speed>
  <fix>3d</fix>
</trkpt>
<trkpt lat="-27.274439" lon="151.290064">
  <ele>343.0</ele>
  <time>2026-09-01T01:11:20Z</time>
  <course>0.0</course>
  <speed>0.0</speed>
  <fix>3d</fix>
</trkpt>
<trkpt lat="-27.2744389" lon="151.2900638">
  <ele>343.03</ele>
  <time>2026-09-01T01:11:20Z</time>
  <course>147.34</course>
  <speed>0.02</speed>
  <fix>3d</fix>
</trkpt>
<trkpt lat="-27.274439" lon="151.290064">
  <ele>343.0</ele>
  <time>2026-09-01T01:11:20Z</time>
  <course>0.0</course>
  <speed>0.0</speed>
  <fix>3d</fix>
</trkpt>
<trkpt lat="-27.2744389" lon="151.2900638">
  <ele>343.03</ele>
  <time>2026-09-01T01:11:20Z</time>
  <course>147.33</course>
  <speed>0.02</speed>
  <fix>3d</fix>
</trkpt>
<trkpt lat="-27.274439" lon="151.290064">
  <ele>343.0</ele>
  <time>2026-09-01T01:11:20Z</time>
  <course>0.0</course>
  <speed>0.0</speed>
  <fix>3d</fix>
</trkpt>
<trkpt lat="-27.2744389" lon="151.2900638">
  <ele>343.04</ele>
  <time>2026-09-01T01:11:20Z</time>
  <course>147.32</course>
  <speed>0.02</speed>
  <fix>3d</fix>
</trkpt>
<trkpt lat="-27.274439" lon="151.290064">
  <ele>343.0</ele>
  <time>2026-09-01T01:11:20Z</time>
  <course>0.0</course>
  <speed>0.0</speed>
  <fix>3d</fix>
</trkpt>
<trkpt lat="-27.2744389" lon="151.2900638">
  <ele>343.03</ele>
  <time>2026-09-01T01:11:20Z</time>
  <course>147.32</course>
  <speed>0.02</speed>
  <fix>3d</fix>
</trkpt>
<trkpt lat="-27.274439" lon="151.290064">
  <ele>343.0</ele>
  <time>2026-09-01T01:11:20Z</time>
  <course>0.0</course>
  <speed>0.0</speed>
  <fix>3d</fix>
</trkpt>
<trkpt lat="-27.2744389" lon="151.2900638">
  <ele>343.01</ele>
  <time>2026-09-01T01:11:20Z</time>
  <course>147.31</course>
  <speed>0.02</speed>
  <fix>3d</fix>
</trkpt>
<trkpt lat="-27.274439" lon="151.290064">
  <ele>343.0</ele>
  <time>2026-09-01T01:11:20Z</time>
  <course>0.0</course>
  <speed>0.0</speed>
  <fix>3d</fix>
</trkpt>
<trkpt lat="-27.2744389" lon="151.2900638">
  <ele>343.01</ele>
  <time>2026-09-01T01:11:20Z</time>
  <course>147.3</course>
  <speed>0.02</speed>
  <fix>3d</fix>
</trkpt>
<trkpt lat="-27.274439" lon="151.290064">
  <ele>343.0</ele>
  <time>2026-09-01T01:11:20Z</time>
  <course>0.0</course>
  <speed>0.0</speed>
  <fix>3d</fix>
</trkpt>
<trkpt lat="-27.2744389" lon="151.2900638">
  <ele>343.03</ele>
  <time>2026-09-01T01:11:20Z</time>
  <course>147.3</course>
  <speed>0.02</speed>
  <fix>3d</fix>
</trkpt>
<trkpt lat="-27.274439" lon="151.290064">
  <ele>343.0</ele>
  <time>2026-09-01T01:11:20Z</time>
  <course>0.0</course>
  <speed>0.0</speed>
  <fix>3d</fix>
</trkpt>
<trkpt lat="-27.2744389" lon="151.2900638">
  <ele>343.02</ele>
  <time>2026-09-01T01:11:20Z</time>
  <course>147.29</course>
  <speed>0.02</speed>
  <fix>3d</fix>
</trkpt>
<trkpt lat="-27.274439" lon="151.290064">
  <ele>343.0</ele>
  <time>2026-09-01T01:11:20Z</time>
  <course>0.0</course>
  <speed>0.0</speed>
  <fix>3d</fix>
</trkpt>
<trkpt lat="-27.2744389" lon="151.2900638">
  <ele>343.02</ele>
  <time>2026-09-01T01:11:20Z</time>
  <course>147.28</course>
  <speed>0.02</speed>
  <fix>3d</fix>
</trkpt>
<trkpt lat="-27.274439" lon="151.290064">
  <ele>343.0</ele>
  <time>2026-09-01T01:11:20Z</time>
  <course>0.0</course>
  <speed>0.0</speed>
  <fix>3d</fix>
</trkpt>
<trkpt lat="-27.2744389" lon="151.2900638">
  <ele>343.01</ele>
  <time>2026-09-01T01:11:20Z</time>
  <course>147.28</course>
  <speed>0.02</speed>
  <fix>3d</fix>
</trkpt>
<trkpt lat="-27.274439" lon="151.290064">
  <ele>343.0</ele>
  <time>2026-09-01T01:11:20Z</time>
  <course>0.0</course>
  <speed>0.0</speed>
  <fix>3d</fix>
</trkpt>
<trkpt lat="-27.2744389" lon="151.2900638">
  <ele>343.02</ele>
  <time>2026-09-01T01:11:20Z</time>
  <course>147.27</course>
  <speed>0.02</speed>
  <fix>3d</fix>
</trkpt>
<trkpt lat="-27.274439" lon="151.290064">
  <ele>343.0</ele>
  <time>2026-09-01T01:11:20Z</time>
  <course>0.0</course>
  <speed>0.0</speed>
  <fix>3d</fix>
</trkpt>
<trkpt lat="-27.2744389" lon="151.2900638">
  <ele>343.02</ele>
  <time>2026-09-01T01:11:20Z</time>
  <course>147.27</course>
  <speed>0.02</speed>
  <fix>3d</fix>
</trkpt>
<trkpt lat="-27.274439" lon="151.290064">
  <ele>343.0</ele>
  <time>2026-09-01T01:11:20Z</time>
  <course>0.0</course>
  <speed>0.0</speed>
  <fix>3d</fix>
</trkpt>
<trkpt lat="-27.2744389" lon="151.2900638">
  <ele>343.04</ele>
  <time>2026-09-01T01:11:20Z</time>
  <course>147.26</course>
  <speed>0.02</speed>
  <fix>3d</fix>
</trkpt>
<trkpt lat="-27.274439" lon="151.290064">
  <ele>343.0</ele>
  <time>2026-09-01T01:11:20Z</time>
  <course>0.0</course>
  <speed>0.0</speed>
  <fix>3d</fix>
</trkpt>
<trkpt lat="-27.2744389" lon="151.2900638">
  <ele>343.04</ele>
  <time>2026-09-01T01:11:20Z</time>
  <course>147.25</course>
  <speed>0.02</speed>
  <fix>3d</fix>
</trkpt>
<trkpt lat="-27.274439" lon="151.290064">
  <ele>343.0</ele>
  <time>2026-09-01T01:11:20Z</time>
  <course>0.0</course>
  <speed>0.0</speed>
  <fix>3d</fix>
</trkpt>
<trkpt lat="-27.2744389" lon="151.2900638">
  <ele>343.01</ele>
  <time>2026-09-01T01:11:20Z</time>
  <course>147.25</course>
  <speed>0.02</speed>
  <fix>3d</fix>
</trkpt>
<trkpt lat="-27.274439" lon="151.290064">
  <ele>343.0</ele>
  <time>2026-09-01T01:11:20Z</time>
  <course>0.0</course>
  <speed>0.0</speed>
  <fix>3d</fix>
</trkpt>
<trkpt lat="-27.2744389" lon="151.2900638">
  <ele>343.01</ele>
  <time>2026-09-01T01:11:20Z</time>
  <course>147.24</course>
  <speed>0.02</speed>
  <fix>3d</fix>
</trkpt>
<trkpt lat="-27.274439" lon="151.290064">
  <ele>343.0</ele>
  <time>2026-09-01T01:11:20Z</time>
  <course>0.0</course>
  <speed>0.0</speed>
  <fix>3d</fix>
</trkpt>
<trkpt lat="-27.2744389" lon="151.2900638">
  <ele>343.04</ele>
  <time>2026-09-01T01:11:20Z</time>
  <course>147.24</course>
  <speed>0.02</speed>
  <fix>3d</fix>
</trkpt>
<trkpt lat="-27.274439" lon="151.290064">
  <ele>343.0</ele>
  <time>2026-09-01T01:11:20Z</time>
  <course>0.0</course>
  <speed>0.0</speed>
  <fix>3d</fix>
</trkpt>
<trkpt lat="-27.2744389" lon="151.2900638">
  <ele>343.03</ele>
  <time>2026-09-01T01:11:20Z</time>
  <course>147.24</course>
  <speed>0.02</speed>
  <fix>3d</fix>
</trkpt>
<trkpt lat="-27.274439" lon="151.290064">
  <ele>343.0</ele>
  <time>2026-09-01T01:11:20Z</time>
  <course>0.0</course>
  <speed>0.0</speed>
  <fix>3d</fix>
</trkpt>
<trkpt lat="-27.2744389" lon="151.2900638">
  <ele>343.02</ele>
  <time>2026-09-01T01:11:20Z</time>
  <course>147.23</course>
  <speed>0.02</speed>
  <fix>3d</fix>
</trkpt>
<trkpt lat="-27.274439" lon="151.290064">
  <ele>343.0</ele>
  <time>2026-09-01T01:11:20Z</time>
  <course>0.0</course>
  <speed>0.0</speed>
  <fix>3d</fix>
</trkpt>
<trkpt lat="-27.2744389" lon="151.2900638">
  <ele>343.02</ele>
  <time>2026-09-01T01:11:20Z</time>
  <course>147.23</course>
  <speed>0.02</speed>
  <fix>3d</fix>
</trkpt>
<trkpt lat="-27.274439" lon="151.290064">
  <ele>343.0</ele>
  <time>2026-09-01T01:11:20Z</time>
  <course>0.0</course>
  <speed>0.0</speed>
  <fix>3d</fix>
</trkpt>
<trkpt lat="-27.2744389" lon="151.2900638">
  <ele>343.02</ele>
  <time>2026-09-01T01:11:20Z</time>
  <course>147.22</course>
  <speed>0.02</speed>
  <fix>3d</fix>
</trkpt>
<trkpt lat="-27.274439" lon="151.290064">
  <ele>343.0</ele>
  <time>2026-09-01T01:11:20Z</time>
  <course>0.0</course>
  <speed>0.0</speed>
  <fix>3d</fix>
</trkpt>
<trkpt lat="-27.2744389" lon="151.2900638">
  <ele>343.03</ele>
  <time>2026-09-01T01:11:20Z</time>
  <course>147.22</course>
  <speed>0.02</speed>
  <fix>3d</fix>
</trkpt>
<trkpt lat="-27.274439" lon="151.290064">
  <ele>343.0</ele>
  <time>2026-09-01T01:11:20Z</time>
  <course>0.0</course>
  <speed>0.0</speed>
  <fix>3d</fix>
</trkpt>
<trkpt lat="-27.2744389" lon="151.2900638">
  <ele>343.03</ele>
  <time>2026-09-01T01:11:20Z</time>
  <course>147.21</course>
  <speed>0.02</speed>
  <fix>3d</fix>
</trkpt>
<trkpt lat="-27.274439" lon="151.290064">
  <ele>343.0</ele>
  <time>2026-09-01T01:11:20Z</time>
  <course>0.0</course>
  <speed>0.0</speed>
  <fix>3d</fix>
</trkpt>
<trkpt lat="-27.2744389" lon="151.2900638">
  <ele>343.05</ele>
  <time>2026-09-01T01:11:20Z</time>
  <course>147.21</course>
  <speed>0.02</speed>
  <fix>3d</fix>
</trkpt>
<trkpt lat="-27.274439" lon="151.290064">
  <ele>343.0</ele>
  <time>2026-09-01T01:11:20Z</time>
  <course>0.0</course>
  <speed>0.0</speed>
  <fix>3d</fix>
</trkpt>
<trkpt lat="-27.2744389" lon="151.2900638">
  <ele>343.06</ele>
  <time>2026-09-01T01:11:20Z</time>
  <course>147.21</course>
  <speed>0.02</speed>
  <fix>3d</fix>
</trkpt>
<trkpt lat="-27.274439" lon="151.290064">
  <ele>343.0</ele>
  <time>2026-09-01T01:11:20Z</time>
  <course>0.0</course>
  <speed>0.0</speed>
  <fix>3d</fix>
</trkpt>
<trkpt lat="-27.2744389" lon="151.2900638">
  <ele>343.04</ele>
  <time>2026-09-01T01:11:20Z</time>
  <course>147.2</course>
  <speed>0.02</speed>
  <fix>3d</fix>
</trkpt>
<trkpt lat="-27.274439" lon="151.290064">
  <ele>343.0</ele>
  <time>2026-09-01T01:11:20Z</time>
  <course>0.0</course>
  <speed>0.0</speed>
  <fix>3d</fix>
</trkpt>
<trkpt lat="-27.2744389" lon="151.2900638">
  <ele>343.03</ele>
  <time>2026-09-01T01:11:20Z</time>
  <course>147.2</course>
  <speed>0.02</speed>
  <fix>3d</fix>
</trkpt>
<trkpt lat="-27.274439" lon="151.290064">
  <ele>343.0</ele>
  <time>2026-09-01T01:11:20Z</time>
  <course>0.0</course>
  <speed>0.0</speed>
  <fix>3d</fix>
</trkpt>
<trkpt lat="-27.2744389" lon="151.2900638">
  <ele>343.02</ele>
  <time>2026-09-01T01:11:20Z</time>
  <course>147.2</course>
  <speed>0.02</speed>
  <fix>3d</fix>
</trkpt>
<trkpt lat="-27.274439" lon="151.290064">
  <ele>343.0</ele>
  <time>2026-09-01T01:11:20Z</time>
  <course>0.0</course>
  <speed>0.0</speed>
  <fix>3d</fix>
</trkpt>
<trkpt lat="-27.2744389" lon="151.2900638">
  <ele>343.01</ele>
  <time>2026-09-01T01:11:20Z</time>
  <course>147.19</course>
  <speed>0.02</speed>
  <fix>3d</fix>
</trkpt>
<trkpt lat="-27.274439" lon="151.290064">
  <ele>343.0</ele>
  <time>2026-09-01T01:11:20Z</time>
  <course>0.0</course>
  <speed>0.0</speed>
  <fix>3d</fix>
</trkpt>
<trkpt lat="-27.2744389" lon="151.2900638">
  <ele>342.99</ele>
  <time>2026-09-01T01:11:20Z</time>
  <course>147.19</course>
  <speed>0.02</speed>
  <fix>3d</fix>
</trkpt>
<trkpt lat="-27.274439" lon="151.290064">
  <ele>343.0</ele>
  <time>2026-09-01T01:11:20Z</time>
  <course>0.0</course>
  <speed>0.0</speed>
  <fix>3d</fix>
</trkpt>
<trkpt lat="-27.2744389" lon="151.2900638">
  <ele>342.98</ele>
  <time>2026-09-01T01:11:20Z</time>
  <course>147.19</course>
  <speed>0.02</speed>
  <fix>3d</fix>
</trkpt>
<trkpt lat="-27.274439" lon="151.290064">
  <ele>343.0</ele>
  <time>2026-09-01T01:11:20Z</time>
  <course>0.0</course>
  <speed>0.0</speed>
  <fix>3d</fix>
</trkpt>
<trkpt lat="-27.2744389" lon="151.2900638">
  <ele>342.99</ele>
  <time>2026-09-01T01:11:20Z</time>
  <course>147.19</course>
  <speed>0.02</speed>
  <fix>3d</fix>
</trkpt>
<trkpt lat="-27.274439" lon="151.290064">
  <ele>343.0</ele>
  <time>2026-09-01T01:11:20Z</time>
  <course>0.0</course>
  <speed>0.0</speed>
  <fix>3d</fix>
</trkpt>
<trkpt lat="-27.2744389" lon="151.2900638">
  <ele>343.0</ele>
  <time>2026-09-01T01:11:20Z</time>
  <course>147.18</course>
  <speed>0.02</speed>
  <fix>3d</fix>
</trkpt>
<trkpt lat="-27.274439" lon="151.290064">
  <ele>343.0</ele>
  <time>2026-09-01T01:11:20Z</time>
  <course>0.0</course>
  <speed>0.0</speed>
  <fix>3d</fix>
</trkpt>
<trkpt lat="-27.2744389" lon="151.2900638">
  <ele>343.01</ele>
  <time>2026-09-01T01:11:20Z</time>
  <course>147.18</course>
  <speed>0.02</speed>
  <fix>3d</fix>
</trkpt>
<trkpt lat="-27.274439" lon="151.290064">
  <ele>343.0</ele>
  <time>2026-09-01T01:11:20Z</time>
  <course>0.0</course>
  <speed>0.0</speed>
  <fix>3d</fix>
</trkpt>
<trkpt lat="-27.2744389" lon="151.2900638">
  <ele>343.03</ele>
  <time>2026-09-01T01:11:20Z</time>
  <course>147.18</course>
  <speed>0.02</speed>
  <fix>3d</fix>
</trkpt>
<trkpt lat="-27.274439" lon="151.290064">
  <ele>343.0</ele>
  <time>2026-09-01T01:11:20Z</time>
  <course>0.0</course>
  <speed>0.0</speed>
  <fix>3d</fix>
</trkpt>
<trkpt lat="-27.2744389" lon="151.2900638">
  <ele>343.02</ele>
  <time>2026-09-01T01:11:20Z</time>
  <course>147.17</course>
  <speed>0.02</speed>
  <fix>3d</fix>
</trkpt>
<trkpt lat="-27.274439" lon="151.290064">
  <ele>343.0</ele>
  <time>2026-09-01T01:11:20Z</time>
  <course>0.0</course>
  <speed>0.0</speed>
  <fix>3d</fix>
</trkpt>
<trkpt lat="-27.2744389" lon="151.2900638">
  <ele>343.02</ele>
  <time>2026-09-01T01:11:20Z</time>
  <course>147.17</course>
  <speed>0.02</speed>
  <fix>3d</fix>
</trkpt>
<trkpt lat="-27.274439" lon="151.290064">
  <ele>343.0</ele>
  <time>2026-09-01T01:11:20Z</time>
  <course>0.0</course>
  <speed>0.0</speed>
  <fix>3d</fix>
</trkpt>
<trkpt lat="-27.2744389" lon="151.2900638">
  <ele>343.01</ele>
  <time>2026-09-01T01:11:20Z</time>
  <course>147.17</course>
  <speed>0.02</speed>
  <fix>3d</fix>
</trkpt>
<trkpt lat="-27.274439" lon="151.290064">
  <ele>343.0</ele>
  <time>2026-09-01T01:11:20Z</time>
  <course>0.0</course>
  <speed>0.0</speed>
  <fix>3d</fix>
</trkpt>
<trkpt lat="-27.2744389" lon="151.2900638">
  <ele>343.0</ele>
  <time>2026-09-01T01:11:20Z</time>
  <course>147.17</course>
  <speed>0.02</speed>
  <fix>3d</fix>
</trkpt>
<trkpt lat="-27.274439" lon="151.290064">
  <ele>343.0</ele>
  <time>2026-09-01T01:11:20Z</time>
  <course>0.0</course>
  <speed>0.0</speed>
  <fix>3d</fix>
</trkpt>
<trkpt lat="-27.2744389" lon="151.2900638">
  <ele>343.01</ele>
  <time>2026-09-01T01:11:20Z</time>
  <course>147.16</course>
  <speed>0.02</speed>
  <fix>3d</fix>
</trkpt>
<trkpt lat="-27.274439" lon="151.290064">
  <ele>343.0</ele>
  <time>2026-09-01T01:11:20Z</time>
  <course>0.0</course>
  <speed>0.0</speed>
  <fix>3d</fix>
</trkpt>
<trkpt lat="-27.2744389" lon="151.2900638">
  <ele>343.01</ele>
  <time>2026-09-01T01:11:20Z</time>
  <course>147.16</course>
  <speed>0.02</speed>
  <fix>3d</fix>
</trkpt>
<trkpt lat="-27.274439" lon="151.290064">
  <ele>343.0</ele>
  <time>2026-09-01T01:11:20Z</time>
  <course>0.0</course>
  <speed>0.0</speed>
  <fix>3d</fix>
</trkpt>
<trkpt lat="-27.2744389" lon="151.2900638">
  <ele>343.03</ele>
  <time>2026-09-01T01:11:20Z</time>
  <course>147.16</course>
  <speed>0.02</speed>
  <fix>3d</fix>
</trkpt>
<trkpt lat="-27.274439" lon="151.290064">
  <ele>343.0</ele>
  <time>2026-09-01T01:11:20Z</time>
  <course>0.0</course>
  <speed>0.0</speed>
  <fix>3d</fix>
</trkpt>
<trkpt lat="-27.2744389" lon="151.2900638">
  <ele>343.05</ele>
  <time>2026-09-01T01:11:20Z</time>
  <course>147.16</course>
  <speed>0.02</speed>
  <fix>3d</fix>
</trkpt>
<trkpt lat="-27.274439" lon="151.290064">
  <ele>343.0</ele>
  <time>2026-09-01T01:11:20Z</time>
  <course>0.0</course>
  <speed>0.0</speed>
  <fix>3d</fix>
</trkpt>
<trkpt lat="-27.2744389" lon="151.2900638">
  <ele>343.05</ele>
  <time>2026-09-01T01:11:20Z</time>
  <course>147.16</course>
  <speed>0.02</speed>
  <fix>3d</fix>
</trkpt>
<trkpt lat="-27.274439" lon="151.290064">
  <ele>343.0</ele>
  <time>2026-09-01T01:11:20Z</time>
  <course>0.0</course>
  <speed>0.0</speed>
  <fix>3d</fix>
</trkpt>
<trkpt lat="-27.2744389" lon="151.2900638">
  <ele>343.04</ele>
  <time>2026-09-01T01:11:20Z</time>
  <course>147.16</course>
  <speed>0.02</speed>
  <fix>3d</fix>
</trkpt>
<trkpt lat="-27.274439" lon="151.290064">
  <ele>343.0</ele>
  <time>2026-09-01T01:11:20Z</time>
  <course>0.0</course>
  <speed>0.0</speed>
  <fix>3d</fix>
</trkpt>
<trkpt lat="-27.2744389" lon="151.2900638">
  <ele>343.02</ele>
  <time>2026-09-01T01:11:20Z</time>
  <course>147.15</course>
  <speed>0.02</speed>
  <fix>3d</fix>
</trkpt>
<trkpt lat="-27.274439" lon="151.290064">
  <ele>343.0</ele>
  <time>2026-09-01T01:11:20Z</time>
  <course>0.0</course>
  <speed>0.0</speed>
  <fix>3d</fix>
</trkpt>
<trkpt lat="-27.2744389" lon="151.2900638">
  <ele>343.0</ele>
  <time>2026-09-01T01:11:20Z</time>
  <course>147.15</course>
  <speed>0.02</speed>
  <fix>3d</fix>
</trkpt>
<trkpt lat="-27.274439" lon="151.290064">
  <ele>343.0</ele>
  <time>2026-09-01T01:11:20Z</time>
  <course>0.0</course>
  <speed>0.0</speed>
  <fix>3d</fix>
</trkpt>
<trkpt lat="-27.2744389" lon="151.2900638">
  <ele>342.99</ele>
  <time>2026-09-01T01:11:20Z</time>
  <course>147.15</course>
  <speed>0.02</speed>
  <fix>3d</fix>
</trkpt>
<trkpt lat="-27.274439" lon="151.290064">
  <ele>343.0</ele>
  <time>2026-09-01T01:11:20Z</time>
  <course>0.0</course>
  <speed>0.0</speed>
  <fix>3d</fix>
</trkpt>
<trkpt lat="-27.2744389" lon="151.2900638">
  <ele>343.0</ele>
  <time>2026-09-01T01:11:20Z</time>
  <course>147.15</course>
  <speed>0.02</speed>
  <fix>3d</fix>
</trkpt>
<trkpt lat="-27.274439" lon="151.290064">
  <ele>343.0</ele>
  <time>2026-09-01T01:11:20Z</time>
  <course>0.0</course>
  <speed>0.0</speed>
  <fix>3d</fix>
</trkpt>
<trkpt lat="-27.2744389" lon="151.2900638">
  <ele>343.03</ele>
  <time>2026-09-01T01:11:20Z</time>
  <course>147.15</course>
  <speed>0.02</speed>
  <fix>3d</fix>
</trkpt>
<trkpt lat="-27.274439" lon="151.290064">
  <ele>343.0</ele>
  <time>2026-09-01T01:11:20Z</time>
  <course>0.0</course>
  <speed>0.0</speed>
  <fix>3d</fix>
</trkpt>
<trkpt lat="-27.2744389" lon="151.2900638">
  <ele>343.01</ele>
  <time>2026-09-01T01:11:21Z</time>
  <course>147.14</course>
  <speed>0.02</speed>
  <fix>3d</fix>
</trkpt>
<trkpt lat="-27.274439" lon="151.290064">
  <ele>343.0</ele>
  <time>2026-09-01T01:11:21Z</time>
  <course>0.0</course>
  <speed>0.0</speed>
  <fix>3d</fix>
</trkpt>
<trkpt lat="-27.2744389" lon="151.2900638">
  <ele>343.02</ele>
  <time>2026-09-01T01:11:21Z</time>
  <course>147.14</course>
  <speed>0.02</speed>
  <fix>3d</fix>
</trkpt>
<trkpt lat="-27.274439" lon="151.290064">
  <ele>343.0</ele>
  <time>2026-09-01T01:11:21Z</time>
  <course>0.0</course>
  <speed>0.0</speed>
  <fix>3d</fix>
</trkpt>
<trkpt lat="-27.2744389" lon="151.2900638">
  <ele>343.02</ele>
  <time>2026-09-01T01:11:21Z</time>
  <course>147.14</course>
  <speed>0.02</speed>
  <fix>3d</fix>
</trkpt>
<trkpt lat="-27.274439" lon="151.290064">
  <ele>343.0</ele>
  <time>2026-09-01T01:11:21Z</time>
  <course>0.0</course>
  <speed>0.0</speed>
  <fix>3d</fix>
</trkpt>
<trkpt lat="-27.2744389" lon="151.2900638">
  <ele>343.03</ele>
  <time>2026-09-01T01:11:21Z</time>
  <course>147.14</course>
  <speed>0.02</speed>
  <fix>3d</fix>
</trkpt>
<trkpt lat="-27.274439" lon="151.290064">
  <ele>343.0</ele>
  <time>2026-09-01T01:11:21Z</time>
  <course>0.0</course>
  <speed>0.0</speed>
  <fix>3d</fix>
</trkpt>
<trkpt lat="-27.2744389" lon="151.2900638">
  <ele>343.04</ele>
  <time>2026-09-01T01:11:21Z</time>
  <course>147.14</course>
  <speed>0.02</speed>
  <fix>3d</fix>
</trkpt>
<trkpt lat="-27.274439" lon="151.290064">
  <ele>343.0</ele>
  <time>2026-09-01T01:11:21Z</time>
  <course>0.0</course>
  <speed>0.0</speed>
  <fix>3d</fix>
</trkpt>
<trkpt lat="-27.2744389" lon="151.2900638">
  <ele>343.04</ele>
  <time>2026-09-01T01:11:21Z</time>
  <course>147.14</course>
  <speed>0.02</speed>
  <fix>3d</fix>
</trkpt>
<trkpt lat="-27.274439" lon="151.290064">
  <ele>343.0</ele>
  <time>2026-09-01T01:11:21Z</time>
  <course>0.0</course>
  <speed>0.0</speed>
  <fix>3d</fix>
</trkpt>
<trkpt lat="-27.2744389" lon="151.2900638">
  <ele>343.02</ele>
  <time>2026-09-01T01:11:21Z</time>
  <course>147.14</course>
  <speed>0.02</speed>
  <fix>3d</fix>
</trkpt>
<trkpt lat="-27.274439" lon="151.290064">
  <ele>343.0</ele>
  <time>2026-09-01T01:11:21Z</time>
  <course>0.0</course>
  <speed>0.0</speed>
  <fix>3d</fix>
</trkpt>
<trkpt lat="-27.2744389" lon="151.2900638">
  <ele>343.01</ele>
  <time>2026-09-01T01:11:21Z</time>
  <course>147.14</course>
  <speed>0.02</speed>
  <fix>3d</fix>
</trkpt>
<trkpt lat="-27.274439" lon="151.290064">
  <ele>343.0</ele>
  <time>2026-09-01T01:11:21Z</time>
  <course>0.0</course>
  <speed>0.0</speed>
  <fix>3d</fix>
</trkpt>
<trkpt lat="-27.2744389" lon="151.2900638">
  <ele>343.01</ele>
  <time>2026-09-01T01:11:21Z</time>
  <course>147.13</course>
  <speed>0.02</speed>
  <fix>3d</fix>
</trkpt>
<trkpt lat="-27.274439" lon="151.290064">
  <ele>343.0</ele>
  <time>2026-09-01T01:11:21Z</time>
  <course>0.0</course>
  <speed>0.0</speed>
  <fix>3d</fix>
</trkpt>
<trkpt lat="-27.2744389" lon="151.2900638">
  <ele>343.02</ele>
  <time>2026-09-01T01:11:21Z</time>
  <course>147.13</course>
  <speed>0.02</speed>
  <fix>3d</fix>
</trkpt>
<trkpt lat="-27.274439" lon="151.290064">
  <ele>343.0</ele>
  <time>2026-09-01T01:11:21Z</time>
  <course>0.0</course>
  <speed>0.0</speed>
  <fix>3d</fix>
</trkpt>
<trkpt lat="-27.2744389" lon="151.2900638">
  <ele>343.03</ele>
  <time>2026-09-01T01:11:21Z</time>
  <course>147.13</course>
  <speed>0.02</speed>
  <fix>3d</fix>
</trkpt>
<trkpt lat="-27.274439" lon="151.290064">
  <ele>343.0</ele>
  <time>2026-09-01T01:11:21Z</time>
  <course>0.0</course>
  <speed>0.0</speed>
  <fix>3d</fix>
</trkpt>
<trkpt lat="-27.2744389" lon="151.2900638">
  <ele>343.04</ele>
  <time>2026-09-01T01:11:21Z</time>
  <course>147.13</course>
  <speed>0.02</speed>
  <fix>3d</fix>
</trkpt>
<trkpt lat="-27.274439" lon="151.290064">
  <ele>343.0</ele>
  <time>2026-09-01T01:11:21Z</time>
  <course>0.0</course>
  <speed>0.0</speed>
  <fix>3d</fix>
</trkpt>
<trkpt lat="-27.2744389" lon="151.2900638">
  <ele>343.06</ele>
  <time>2026-09-01T01:11:21Z</time>
  <course>147.13</course>
  <speed>0.02</speed>
  <fix>3d</fix>
</trkpt>
<trkpt lat="-27.274439" lon="151.290064">
  <ele>343.0</ele>
  <time>2026-09-01T01:11:21Z</time>
  <course>0.0</course>
  <speed>0.0</speed>
  <fix>3d</fix>
</trkpt>
<trkpt lat="-27.2744389" lon="151.2900638">
  <ele>343.06</ele>
  <time>2026-09-01T01:11:21Z</time>
  <course>147.13</course>
  <speed>0.02</speed>
  <fix>3d</fix>
</trkpt>
<trkpt lat="-27.274439" lon="151.290064">
  <ele>343.0</ele>
  <time>2026-09-01T01:11:21Z</time>
  <course>0.0</course>
  <speed>0.0</speed>
  <fix>3d</fix>
</trkpt>
<trkpt lat="-27.2744389" lon="151.2900638">
  <ele>343.04</ele>
  <time>2026-09-01T01:11:21Z</time>
  <course>147.13</course>
  <speed>0.02</speed>
  <fix>3d</fix>
</trkpt>
<trkpt lat="-27.274439" lon="151.290064">
  <ele>343.0</ele>
  <time>2026-09-01T01:11:21Z</time>
  <course>0.0</course>
  <speed>0.0</speed>
  <fix>3d</fix>
</trkpt>
<trkpt lat="-27.2744389" lon="151.2900638">
  <ele>343.03</ele>
  <time>2026-09-01T01:11:21Z</time>
  <course>147.13</course>
  <speed>0.02</speed>
  <fix>3d</fix>
</trkpt>
<trkpt lat="-27.274439" lon="151.290064">
  <ele>343.0</ele>
  <time>2026-09-01T01:11:21Z</time>
  <course>0.0</course>
  <speed>0.0</speed>
  <fix>3d</fix>
</trkpt>
<trkpt lat="-27.2744389" lon="151.2900638">
  <ele>343.02</ele>
  <time>2026-09-01T01:11:21Z</time>
  <course>147.13</course>
  <speed>0.02</speed>
  <fix>3d</fix>
</trkpt>
<trkpt lat="-27.274439" lon="151.290064">
  <ele>343.0</ele>
  <time>2026-09-01T01:11:21Z</time>
  <course>0.0</course>
  <speed>0.0</speed>
  <fix>3d</fix>
</trkpt>
<trkpt lat="-27.2744389" lon="151.2900638">
  <ele>343.03</ele>
  <time>2026-09-01T01:11:21Z</time>
  <course>147.13</course>
  <speed>0.02</speed>
  <fix>3d</fix>
</trkpt>
<trkpt lat="-27.274439" lon="151.290064">
  <ele>343.0</ele>
  <time>2026-09-01T01:11:21Z</time>
  <course>0.0</course>
  <speed>0.0</speed>
  <fix>3d</fix>
</trkpt>
<trkpt lat="-27.2744389" lon="151.2900638">
  <ele>343.01</ele>
  <time>2026-09-01T01:11:21Z</time>
  <course>147.13</course>
  <speed>0.02</speed>
  <fix>3d</fix>
</trkpt>
<trkpt lat="-27.274439" lon="151.290064">
  <ele>343.0</ele>
  <time>2026-09-01T01:11:21Z</time>
  <course>0.0</course>
  <speed>0.0</speed>
  <fix>3d</fix>
</trkpt>
<trkpt lat="-27.2744389" lon="151.2900638">
  <ele>343.01</ele>
  <time>2026-09-01T01:11:21Z</time>
  <course>147.12</course>
  <speed>0.02</speed>
  <fix>3d</fix>
</trkpt>
<trkpt lat="-27.274439" lon="151.290064">
  <ele>343.0</ele>
  <time>2026-09-01T01:11:21Z</time>
  <course>0.0</course>
  <speed>0.0</speed>
  <fix>3d</fix>
</trkpt>
<trkpt lat="-27.2744389" lon="151.2900638">
  <ele>343.02</ele>
  <time>2026-09-01T01:11:21Z</time>
  <course>147.13</course>
  <speed>0.02</speed>
  <fix>3d</fix>
</trkpt>
<trkpt lat="-27.274439" lon="151.290064">
  <ele>343.0</ele>
  <time>2026-09-01T01:11:21Z</time>
  <course>0.0</course>
  <speed>0.0</speed>
  <fix>3d</fix>
</trkpt>
<trkpt lat="-27.2744389" lon="151.2900638">
  <ele>343.01</ele>
  <time>2026-09-01T01:11:21Z</time>
  <course>147.12</course>
  <speed>0.02</speed>
  <fix>3d</fix>
</trkpt>
<trkpt lat="-27.274439" lon="151.290064">
  <ele>343.0</ele>
  <time>2026-09-01T01:11:21Z</time>
  <course>0.0</course>
  <speed>0.0</speed>
  <fix>3d</fix>
</trkpt>
<trkpt lat="-27.2744389" lon="151.2900638">
  <ele>343.0</ele>
  <time>2026-09-01T01:11:21Z</time>
  <course>147.13</course>
  <speed>0.02</speed>
  <fix>3d</fix>
</trkpt>
<trkpt lat="-27.274439" lon="151.290064">
  <ele>343.0</ele>
  <time>2026-09-01T01:11:21Z</time>
  <course>0.0</course>
  <speed>0.0</speed>
  <fix>3d</fix>
</trkpt>
<trkpt lat="-27.2744389" lon="151.2900638">
  <ele>343.02</ele>
  <time>2026-09-01T01:11:21Z</time>
  <course>147.12</course>
  <speed>0.02</speed>
  <fix>3d</fix>
</trkpt>
<trkpt lat="-27.274439" lon="151.290064">
  <ele>343.0</ele>
  <time>2026-09-01T01:11:21Z</time>
  <course>0.0</course>
  <speed>0.0</speed>
  <fix>3d</fix>
</trkpt>
<trkpt lat="-27.2744389" lon="151.2900638">
  <ele>343.02</ele>
  <time>2026-09-01T01:11:21Z</time>
  <course>147.13</course>
  <speed>0.02</speed>
  <fix>3d</fix>
</trkpt>
<trkpt lat="-27.274439" lon="151.290064">
  <ele>343.0</ele>
  <time>2026-09-01T01:11:21Z</time>
  <course>0.0</course>
  <speed>0.0</speed>
  <fix>3d</fix>
</trkpt>
<trkpt lat="-27.2744389" lon="151.2900638">
  <ele>343.02</ele>
  <time>2026-09-01T01:11:21Z</time>
  <course>139.07</course>
  <speed>0.02</speed>
  <fix>3d</fix>
</trkpt>
<trkpt lat="-27.274439" lon="151.290064">
  <ele>343.0</ele>
  <time>2026-09-01T01:11:21Z</time>
  <course>0.0</course>
  <speed>0.0</speed>
  <fix>3d</fix>
</trkpt>
<trkpt lat="-27.2744389" lon="151.2900638">
  <ele>343.1</ele>
  <time>2026-09-01T01:11:21Z</time>
  <course>129.95</course>
  <speed>0.02</speed>
  <fix>3d</fix>
</trkpt>
<trkpt lat="-27.274439" lon="151.290064">
  <ele>343.0</ele>
  <time>2026-09-01T01:11:21Z</time>
  <course>0.0</course>
  <speed>0.0</speed>
  <fix>3d</fix>
</trkpt>
<trkpt lat="-27.274439" lon="151.2900638">
  <ele>343.16</ele>
  <time>2026-09-01T01:11:21Z</time>
  <course>120.87</course>
  <speed>0.01</speed>
  <fix>3d</fix>
</trkpt>
<trkpt lat="-27.274439" lon="151.290064">
  <ele>343.0</ele>
  <time>2026-09-01T01:11:21Z</time>
  <course>0.0</course>
  <speed>0.0</speed>
  <fix>3d</fix>
</trkpt>
<trkpt lat="-27.274439" lon="151.2900638">
  <ele>343.19</ele>
  <time>2026-09-01T01:11:21Z</time>
  <course>111.81</course>
  <speed>0.01414213562373095</speed>
  <fix>3d</fix>
</trkpt>
<trkpt lat="-27.274439" lon="151.290064">
  <ele>343.0</ele>
  <time>2026-09-01T01:11:21Z</time>
  <course>0.0</course>
  <speed>0.0</speed>
  <fix>3d</fix>
</trkpt>
<trkpt lat="-27.274439" lon="151.290064">
  <ele>343.0</ele>
  <time>2026-09-01T01:11:21Z</time>
  <course>324.52</course>
  <speed>0.0</speed>
  <fix>3d</fix>
</trkpt>
<trkpt lat="-27.274439" lon="151.290064">
  <ele>343.0</ele>
  <time>2026-09-01T01:11:21Z</time>
  <course>318.17</course>
  <speed>0.0</speed>
  <fix>3d</fix>
</trkpt>
<trkpt lat="-27.274439" lon="151.290064">
  <ele>343.0</ele>
  <time>2026-09-01T01:11:21Z</time>
  <course>309.71</course>
  <speed>0.0</speed>
  <fix>3d</fix>
</trkpt>
<trkpt lat="-27.274439" lon="151.290064">
  <ele>343.0</ele>
  <time>2026-09-01T01:11:21Z</time>
  <course>295.7</course>
  <speed>0.0</speed>
  <fix>3d</fix>
</trkpt>
<trkpt lat="-27.274439" lon="151.290064">
  <ele>343.0</ele>
  <time>2026-09-01T01:11:21Z</time>
  <course>291.22</course>
  <speed>0.0</speed>
  <fix>3d</fix>
</trkpt>
<trkpt lat="-27.274439" lon="151.290064">
  <ele>343.0</ele>
  <time>2026-09-01T01:11:21Z</time>
  <course>286.26</course>
  <speed>0.0</speed>
  <fix>3d</fix>
</trkpt>
<trkpt lat="-27.274439" lon="151.290064">
  <ele>343.0</ele>
  <time>2026-09-01T01:11:21Z</time>
  <course>280.5</course>
  <speed>0.0</speed>
  <fix>3d</fix>
</trkpt>
<trkpt lat="-27.274439" lon="151.290064">
  <ele>343.0</ele>
  <time>2026-09-01T01:11:21Z</time>
  <course>272.98</course>
  <speed>0.0</speed>
  <fix>3d</fix>
</trkpt>
<trkpt lat="-27.274439" lon="151.290064">
  <ele>343.0</ele>
  <time>2026-09-01T01:11:21Z</time>
  <course>265.49</course>
  <speed>0.13892443989449804</speed>
  <fix>3d</fix>
</trkpt>
<trkpt lat="-27.274439" lon="151.290064">
  <ele>343.0</ele>
  <time>2026-09-01T01:11:21Z</time>
  <course>0.0</course>
  <speed>0.0</speed>
  <fix>3d</fix>
</trkpt>
<trkpt lat="-27.274439" lon="151.290064">
  <ele>343.0</ele>
  <time>2026-09-01T01:11:21Z</time>
  <course>259.13</course>
  <speed>0.16552945357246848</speed>
  <fix>3d</fix>
</trkpt>
<trkpt lat="-27.274439" lon="151.290064">
  <ele>343.0</ele>
  <time>2026-09-01T01:11:21Z</time>
  <course>0.0</course>
  <speed>0.0</speed>
  <fix>3d</fix>
</trkpt>
<trkpt lat="-27.274439" lon="151.290064">
  <ele>343.0</ele>
  <time>2026-09-01T01:11:21Z</time>
  <course>251.09</course>
  <speed>0.1615549442140351</speed>
  <fix>3d</fix>
</trkpt>
<trkpt lat="-27.274439" lon="151.290064">
  <ele>343.0</ele>
  <time>2026-09-01T01:11:21Z</time>
  <course>0.0</course>
  <speed>0.0</speed>
  <fix>3d</fix>
</trkpt>
<trkpt lat="-27.274439" lon="151.290064">
  <ele>343.0</ele>
  <time>2026-09-01T01:11:21Z</time>
  <course>242.09</course>
  <speed>0.1649242250247064</speed>
  <fix>3d</fix>
</trkpt>
<trkpt lat="-27.274439" lon="151.290064">
  <ele>343.0</ele>
  <time>2026-09-01T01:11:21Z</time>
  <course>0.0</course>
  <speed>0.0</speed>
  <fix>3d</fix>
</trkpt>
<trkpt lat="-27.274439" lon="151.290064">
  <ele>343.0</ele>
  <time>2026-09-01T01:11:21Z</time>
  <course>232.53</course>
  <speed>0.18110770276274835</speed>
  <fix>3d</fix>
</trkpt>
<trkpt lat="-27.274439" lon="151.290064">
  <ele>343.0</ele>
  <time>2026-09-01T01:11:21Z</time>
  <course>0.0</course>
  <speed>0.0</speed>
  <fix>3d</fix>
</trkpt>
<trkpt lat="-27.274439" lon="151.290064">
  <ele>343.0</ele>
  <time>2026-09-01T01:11:21Z</time>
  <course>222.68</course>
  <speed>0.22</speed>
  <fix>3d</fix>
</trkpt>
<trkpt lat="-27.274439" lon="151.290064">
  <ele>343.0</ele>
  <time>2026-09-01T01:11:21Z</time>
  <course>0.0</course>
  <speed>0.0</speed>
  <fix>3d</fix>
</trkpt>
<trkpt lat="-27.274439" lon="151.290064">
  <ele>343.0</ele>
  <time>2026-09-01T01:11:21Z</time>
  <course>212.65</course>
  <speed>0.2308679276123039</speed>
  <fix>3d</fix>
</trkpt>
<trkpt lat="-27.274439" lon="151.290064">
  <ele>343.0</ele>
  <time>2026-09-01T01:11:21Z</time>
  <course>0.0</course>
  <speed>0.0</speed>
  <fix>3d</fix>
</trkpt>
<trkpt lat="-27.274439" lon="151.290064">
  <ele>343.0</ele>
  <time>2026-09-01T01:11:21Z</time>
  <course>202.55</course>
  <speed>0.21377558326431947</speed>
  <fix>3d</fix>
</trkpt>
<trkpt lat="-27.274439" lon="151.290064">
  <ele>343.0</ele>
  <time>2026-09-01T01:11:21Z</time>
  <course>0.0</course>
  <speed>0.0</speed>
  <fix>3d</fix>
</trkpt>
<trkpt lat="-27.274439" lon="151.290064">
  <ele>343.0</ele>
  <time>2026-09-01T01:11:21Z</time>
  <course>192.44</course>
  <speed>0.19313207915827968</speed>
  <fix>3d</fix>
</trkpt>
<trkpt lat="-27.274439" lon="151.290064">
  <ele>343.0</ele>
  <time>2026-09-01T01:11:21Z</time>
  <course>0.0</course>
  <speed>0.0</speed>
  <fix>3d</fix>
</trkpt>
<trkpt lat="-27.274439" lon="151.290064">
  <ele>343.0</ele>
  <time>2026-09-01T01:11:21Z</time>
  <course>182.34</course>
  <speed>0.18867962264113206</speed>
  <fix>3d</fix>
</trkpt>
<trkpt lat="-27.274439" lon="151.290064">
  <ele>343.0</ele>
  <time>2026-09-01T01:11:21Z</time>
  <course>0.0</course>
  <speed>0.0</speed>
  <fix>3d</fix>
</trkpt>
<trkpt lat="-27.274439" lon="151.290064">
  <ele>343.0</ele>
  <time>2026-09-01T01:11:21Z</time>
  <course>172.22</course>
  <speed>0.18439088914585774</speed>
  <fix>3d</fix>
</trkpt>
<trkpt lat="-27.274439" lon="151.290064">
  <ele>343.0</ele>
  <time>2026-09-01T01:11:21Z</time>
  <course>0.0</course>
  <speed>0.0</speed>
  <fix>3d</fix>
</trkpt>
<trkpt lat="-27.274439" lon="151.290064">
  <ele>343.0</ele>
  <time>2026-09-01T01:11:22Z</time>
  <course>162.13</course>
  <speed>0.17204650534085253</speed>
  <fix>3d</fix>
</trkpt>
<trkpt lat="-27.274439" lon="151.290064">
  <ele>343.0</ele>
  <time>2026-09-01T01:11:22Z</time>
  <course>0.0</course>
  <speed>0.0</speed>
  <fix>3d</fix>
</trkpt>
<trkpt lat="-27.274439" lon="151.290064">
  <ele>343.0</ele>
  <time>2026-09-01T01:11:22Z</time>
  <course>152.11</course>
  <speed>0.1615549442140351</speed>
  <fix>3d</fix>
</trkpt>
<trkpt lat="-27.274439" lon="151.290064">
  <ele>343.0</ele>
  <time>2026-09-01T01:11:22Z</time>
  <course>0.0</course>
  <speed>0.0</speed>
  <fix>3d</fix>
</trkpt>
<trkpt lat="-27.274439" lon="151.290064">
  <ele>343.0</ele>
  <time>2026-09-01T01:11:22Z</time>
  <course>142.17</course>
  <speed>0.16031219541881397</speed>
  <fix>3d</fix>
</trkpt>
<trkpt lat="-27.274439" lon="151.290064">
  <ele>343.0</ele>
  <time>2026-09-01T01:11:22Z</time>
  <course>0.0</course>
  <speed>0.0</speed>
  <fix>3d</fix>
</trkpt>
<trkpt lat="-27.274439" lon="151.290064">
  <ele>343.0</ele>
  <time>2026-09-01T01:11:22Z</time>
  <course>132.34</course>
  <speed>0.16124515496597097</speed>
  <fix>3d</fix>
</trkpt>
<trkpt lat="-27.274439" lon="151.290064">
  <ele>343.0</ele>
  <time>2026-09-01T01:11:22Z</time>
  <course>0.0</course>
  <speed>0.0</speed>
  <fix>3d</fix>
</trkpt>
<trkpt lat="-27.274439" lon="151.290064">
  <ele>343.0</ele>
  <time>2026-09-01T01:11:22Z</time>
  <course>122.55</course>
  <speed>0.1615549442140351</speed>
  <fix>3d</fix>
</trkpt>
<trkpt lat="-27.274439" lon="151.290064">
  <ele>343.0</ele>
  <time>2026-09-01T01:11:22Z</time>
  <course>0.0</course>
  <speed>0.0</speed>
  <fix>3d</fix>
</trkpt>
<trkpt lat="-27.274439" lon="151.290064">
  <ele>343.0</ele>
  <time>2026-09-01T01:11:22Z</time>
  <course>325.88</course>
  <speed>0.0</speed>
  <fix>3d</fix>
</trkpt>
<trkpt lat="-27.274439" lon="151.290064">
  <ele>343.0</ele>
  <time>2026-09-01T01:11:22Z</time>
  <course>324.43</course>
  <speed>0.0</speed>
  <fix>3d</fix>
</trkpt>
<trkpt lat="-27.274439" lon="151.290064">
  <ele>343.0</ele>
  <time>2026-09-01T01:11:22Z</time>
  <course>321.86</course>
  <speed>0.0</speed>
  <fix>3d</fix>
</trkpt>
<trkpt lat="-27.274439" lon="151.290064">
  <ele>343.0</ele>
  <time>2026-09-01T01:11:22Z</time>
  <course>295.0</course>
  <speed>0.0</speed>
  <fix>3d</fix>
</trkpt>
<trkpt lat="-27.274439" lon="151.290064">
  <ele>343.0</ele>
  <time>2026-09-01T01:11:22Z</time>
  <course>290.72</course>
  <speed>0.0</speed>
  <fix>3d</fix>
</trkpt>
<trkpt lat="-27.274439" lon="151.290064">
  <ele>343.0</ele>
  <time>2026-09-01T01:11:22Z</time>
  <course>284.84</course>
  <speed>0.0</speed>
  <fix>3d</fix>
</trkpt>
<trkpt lat="-27.274439" lon="151.290064">
  <ele>343.0</ele>
  <time>2026-09-01T01:11:22Z</time>
  <course>277.79</course>
  <speed>0.0</speed>
  <fix>3d</fix>
</trkpt>
<trkpt lat="-27.274439" lon="151.290064">
  <ele>343.0</ele>
  <time>2026-09-01T01:11:22Z</time>
  <course>269.55</course>
  <speed>0.0</speed>
  <fix>3d</fix>
</trkpt>
<trkpt lat="-27.274439" lon="151.290064">
  <ele>343.0</ele>
  <time>2026-09-01T01:11:22Z</time>
  <course>262.16</course>
  <speed>0.9176055797563569</speed>
  <fix>3d</fix>
</trkpt>
<trkpt lat="-27.274439" lon="151.290064">
  <ele>343.0</ele>
  <time>2026-09-01T01:11:22Z</time>
  <course>0.0</course>
  <speed>0.0</speed>
  <fix>3d</fix>
</trkpt>
<trkpt lat="-27.274439" lon="151.290064">
  <ele>343.0</ele>
  <time>2026-09-01T01:11:22Z</time>
  <course>256.4</course>
  <speed>0.9403190947758107</speed>
  <fix>3d</fix>
</trkpt>
<trkpt lat="-27.274439" lon="151.290064">
  <ele>343.0</ele>
  <time>2026-09-01T01:11:22Z</time>
  <course>0.0</course>
  <speed>0.0</speed>
  <fix>3d</fix>
</trkpt>
<trkpt lat="-27.274439" lon="151.290064">
  <ele>343.0</ele>
  <time>2026-09-01T01:11:22Z</time>
  <course>249.45</course>
  <speed>0.756042326857432</speed>
  <fix>3d</fix>
</trkpt>
<trkpt lat="-27.274439" lon="151.290064">
  <ele>343.0</ele>
  <time>2026-09-01T01:11:22Z</time>
  <course>0.0</course>
  <speed>0.0</speed>
  <fix>3d</fix>
</trkpt>
<trkpt lat="-27.274439" lon="151.290064">
  <ele>343.0</ele>
  <time>2026-09-01T01:11:22Z</time>
  <course>241.79</course>
  <speed>0.6596969000988256</speed>
  <fix>3d</fix>
</trkpt>
<trkpt lat="-27.274439" lon="151.290064">
  <ele>343.0</ele>
  <time>2026-09-01T01:11:22Z</time>
  <course>0.0</course>
  <speed>0.0</speed>
  <fix>3d</fix>
</trkpt>
<trkpt lat="-27.274439" lon="151.290064">
  <ele>343.0</ele>
  <time>2026-09-01T01:11:22Z</time>
  <course>233.59</course>
  <speed>0.6618912297349165</speed>
  <fix>3d</fix>
</trkpt>
<trkpt lat="-27.274439" lon="151.290064">
  <ele>343.0</ele>
  <time>2026-09-01T01:11:22Z</time>
  <course>0.0</course>
  <speed>0.0</speed>
  <fix>3d</fix>
</trkpt>
<trkpt lat="-27.274439" lon="151.290064">
  <ele>343.0</ele>
  <time>2026-09-01T01:11:22Z</time>
  <course>225.02</course>
  <speed>0.7034202158027589</speed>
  <fix>3d</fix>
</trkpt>
<trkpt lat="-27.274439" lon="151.290064">
  <ele>343.0</ele>
  <time>2026-09-01T01:11:22Z</time>
  <course>0.0</course>
  <speed>0.0</speed>
  <fix>3d</fix>
</trkpt>
<trkpt lat="-27.274439" lon="151.290064">
  <ele>343.0</ele>
  <time>2026-09-01T01:11:22Z</time>
  <course>215.98</course>
  <speed>0.3584689665786984</speed>
  <fix>3d</fix>
</trkpt>
<trkpt lat="-27.274439" lon="151.290064">
  <ele>343.0</ele>
  <time>2026-09-01T01:11:22Z</time>
  <course>0.0</course>
  <speed>0.0</speed>
  <fix>3d</fix>
</trkpt>
<trkpt lat="-27.274439" lon="151.290064">
  <ele>343.0</ele>
  <time>2026-09-01T01:11:22Z</time>
  <course>206.65</course>
  <speed>0.10816653826391968</speed>
  <fix>3d</fix>
</trkpt>
<trkpt lat="-27.274439" lon="151.290064">
  <ele>343.0</ele>
  <time>2026-09-01T01:11:22Z</time>
  <course>0.0</course>
  <speed>0.0</speed>
  <fix>3d</fix>
</trkpt>
<trkpt lat="-27.274439" lon="151.290064">
  <ele>343.0</ele>
  <time>2026-09-01T01:11:22Z</time>
  <course>197.28</course>
  <speed>0.09848857801796104</speed>
  <fix>3d</fix>
</trkpt>
<trkpt lat="-27.274439" lon="151.290064">
  <ele>343.0</ele>
  <time>2026-09-01T01:11:22Z</time>
  <course>0.0</course>
  <speed>0.0</speed>
  <fix>3d</fix>
</trkpt>
<trkpt lat="-27.274439" lon="151.290064">
  <ele>343.0</ele>
  <time>2026-09-01T01:11:22Z</time>
  <course>187.9</course>
  <speed>0.11401754250991379</speed>
  <fix>3d</fix>
</trkpt>
<trkpt lat="-27.274439" lon="151.290064">
  <ele>343.0</ele>
  <time>2026-09-01T01:11:22Z</time>
  <course>0.0</course>
  <speed>0.0</speed>
  <fix>3d</fix>
</trkpt>
<trkpt lat="-27.274439" lon="151.290064">
  <ele>343.0</ele>
  <time>2026-09-01T01:11:22Z</time>
  <course>325.88</course>
  <speed>0.0</speed>
  <fix>3d</fix>
</trkpt>
<trkpt lat="-27.274439" lon="151.290064">
  <ele>343.0</ele>
  <time>2026-09-01T01:11:22Z</time>
  <course>324.43</course>
  <speed>0.0</speed>
  <fix>3d</fix>
</trkpt>
<trkpt lat="-27.274439" lon="151.290064">
  <ele>343.0</ele>
  <time>2026-09-01T01:11:22Z</time>
  <course>321.86</course>
  <speed>0.0</speed>
  <fix>3d</fix>
</trkpt>
<trkpt lat="-27.274439" lon="151.290064">
  <ele>343.0</ele>
  <time>2026-09-01T01:11:22Z</time>
  <course>295.0</course>
  <speed>0.0</speed>
  <fix>3d</fix>
</trkpt>
<trkpt lat="-27.274439" lon="151.290064">
  <ele>343.0</ele>
  <time>2026-09-01T01:11:22Z</time>
  <course>290.72</course>
  <speed>0.0</speed>
  <fix>3d</fix>
</trkpt>
<trkpt lat="-27.274439" lon="151.290064">
  <ele>343.0</ele>
  <time>2026-09-01T01:11:22Z</time>
  <course>284.84</course>
  <speed>0.0</speed>
  <fix>3d</fix>
</trkpt>
<trkpt lat="-27.274439" lon="151.290064">
  <ele>343.0</ele>
  <time>2026-09-01T01:11:22Z</time>
  <course>277.79</course>
  <speed>0.0</speed>
  <fix>3d</fix>
</trkpt>
<trkpt lat="-27.274439" lon="151.290064">
  <ele>343.0</ele>
  <time>2026-09-01T01:11:22Z</time>
  <course>269.55</course>
  <speed>0.0</speed>
  <fix>3d</fix>
</trkpt>
<trkpt lat="-27.274439" lon="151.290064">
  <ele>343.0</ele>
  <time>2026-09-01T01:11:22Z</time>
  <course>262.16</course>
  <speed>0.9176055797563569</speed>
  <fix>3d</fix>
</trkpt>
<trkpt lat="-27.274439" lon="151.290064">
  <ele>343.0</ele>
  <time>2026-09-01T01:11:22Z</time>
  <course>0.0</course>
  <speed>0.0</speed>
  <fix>3d</fix>
</trkpt>
<trkpt lat="-27.274439" lon="151.290064">
  <ele>343.0</ele>
  <time>2026-09-01T01:11:22Z</time>
  <course>256.4</course>
  <speed>0.9403190947758107</speed>
  <fix>3d</fix>
</trkpt>
<trkpt lat="-27.274439" lon="151.290064">
  <ele>343.0</ele>
  <time>2026-09-01T01:11:22Z</time>
  <course>0.0</course>
  <speed>0.0</speed>
  <fix>3d</fix>
</trkpt>
<trkpt lat="-27.274439" lon="151.290064">
  <ele>343.0</ele>
  <time>2026-09-01T01:11:22Z</time>
  <course>249.45</course>
  <speed>0.756042326857432</speed>
  <fix>3d</fix>
</trkpt>
<trkpt lat="-27.274439" lon="151.290064">
  <ele>343.0</ele>
  <time>2026-09-01T01:11:22Z</time>
  <course>0.0</course>
  <speed>0.0</speed>
  <fix>3d</fix>
</trkpt>
<trkpt lat="-27.274439" lon="151.290064">
  <ele>343.0</ele>
  <time>2026-09-01T01:11:22Z</time>
  <course>241.79</course>
  <speed>0.6596969000988256</speed>
  <fix>3d</fix>
</trkpt>
<trkpt lat="-27.274439" lon="151.290064">
  <ele>343.0</ele>
  <time>2026-09-01T01:11:22Z</time>
  <course>0.0</course>
  <speed>0.0</speed>
  <fix>3d</fix>
</trkpt>
<trkpt lat="-27.274439" lon="151.290064">
  <ele>343.0</ele>
  <time>2026-09-01T01:11:22Z</time>
  <course>233.59</course>
  <speed>0.6618912297349165</speed>
  <fix>3d</fix>
</trkpt>
<trkpt lat="-27.274439" lon="151.290064">
  <ele>343.0</ele>
  <time>2026-09-01T01:11:22Z</time>
  <course>0.0</course>
  <speed>0.0</speed>
  <fix>3d</fix>
</trkpt>
<trkpt lat="-27.274439" lon="151.290064">
  <ele>343.0</ele>
  <time>2026-09-01T01:11:22Z</time>
  <course>225.02</course>
  <speed>0.7034202158027589</speed>
  <fix>3d</fix>
</trkpt>
<trkpt lat="-27.274439" lon="151.290064">
  <ele>343.0</ele>
  <time>2026-09-01T01:11:22Z</time>
  <course>0.0</course>
  <speed>0.0</speed>
  <fix>3d</fix>
</trkpt>
<trkpt lat="-27.274439" lon="151.290064">
  <ele>343.0</ele>
  <time>2026-09-01T01:11:22Z</time>
  <course>216.17</course>
  <speed>0.7539230729988305</speed>
  <fix>3d</fix>
</trkpt>
<trkpt lat="-27.274439" lon="151.290064">
  <ele>343.0</ele>
  <time>2026-09-01T01:11:22Z</time>
  <course>0.0</course>
  <speed>0.0</speed>
  <fix>3d</fix>
</trkpt>
<trkpt lat="-27.274439" lon="151.290064">
  <ele>343.0</ele>
  <time>2026-09-01T01:11:22Z</time>
  <course>206.93</course>
  <speed>0.3721558813185679</speed>
  <fix>3d</fix>
</trkpt>
<trkpt lat="-27.274439" lon="151.290064">
  <ele>343.0</ele>
  <time>2026-09-01T01:11:22Z</time>
  <course>0.0</course>
  <speed>0.0</speed>
  <fix>3d</fix>
</trkpt>
<trkpt lat="-27.274439" lon="151.290064">
  <ele>343.0</ele>
  <time>2026-09-01T01:11:22Z</time>
  <course>197.48</course>
  <speed>0.11661903789690602</speed>
  <fix>3d</fix>
</trkpt>
<trkpt lat="-27.274439" lon="151.290064">
  <ele>343.0</ele>
  <time>2026-09-01T01:11:22Z</time>
  <course>0.0</course>
  <speed>0.0</speed>
  <fix>3d</fix>
</trkpt>
<trkpt lat="-27.274439" lon="151.290064">
  <ele>343.0</ele>
  <time>2026-09-01T01:11:22Z</time>
  <course>188.05</course>
  <speed>0.10770329614269007</speed>
  <fix>3d</fix>
</trkpt>
<trkpt lat="-27.274439" lon="151.290064">
  <ele>343.0</ele>
  <time>2026-09-01T01:11:22Z</time>
  <course>0.0</course>
  <speed>0.0</speed>
  <fix>3d</fix>
</trkpt>
<trkpt lat="-27.274439" lon="151.290064">
  <ele>343.0</ele>
  <time>2026-09-01T01:11:22Z</time>
  <course>178.62</course>
  <speed>0.11704699910719625</speed>
  <fix>3d</fix>
</trkpt>
<trkpt lat="-27.274439" lon="151.290064">
  <ele>343.0</ele>
  <time>2026-09-01T01:11:22Z</time>
  <course>0.0</course>
  <speed>0.0</speed>
  <fix>3d</fix>
</trkpt>
<trkpt lat="-27.274439" lon="151.290064">
  <ele>343.0</ele>
  <time>2026-09-01T01:11:22Z</time>
  <course>325.88</course>
  <speed>0.0</speed>
  <fix>3d</fix>
</trkpt>
<trkpt lat="-27.274439" lon="151.290064">
  <ele>343.0</ele>
  <time>2026-09-01T01:11:22Z</time>
  <course>324.43</course>
  <speed>0.0</speed>
  <fix>3d</fix>
</trkpt>
<trkpt lat="-27.274439" lon="151.290064">
  <ele>343.0</ele>
  <time>2026-09-01T01:11:22Z</time>
  <course>321.86</course>
  <speed>0.0</speed>
  <fix>3d</fix>
</trkpt>
<trkpt lat="-27.274439" lon="151.290064">
  <ele>343.0</ele>
  <time>2026-09-01T01:11:22Z</time>
  <course>295.0</course>
  <speed>0.0</speed>
  <fix>3d</fix>
</trkpt>
<trkpt lat="-27.274439" lon="151.290064">
  <ele>343.0</ele>
  <time>2026-09-01T01:11:22Z</time>
  <course>290.72</course>
  <speed>0.0</speed>
  <fix>3d</fix>
</trkpt>
<trkpt lat="-27.274439" lon="151.290064">
  <ele>343.0</ele>
  <time>2026-09-01T01:11:22Z</time>
  <course>284.84</course>
  <speed>0.0</speed>
  <fix>3d</fix>
</trkpt>
<trkpt lat="-27.274439" lon="151.290064">
  <ele>343.0</ele>
  <time>2026-09-01T01:11:22Z</time>
  <course>277.79</course>
  <speed>0.0</speed>
  <fix>3d</fix>
</trkpt>
<trkpt lat="-27.274439" lon="151.290064">
  <ele>343.0</ele>
  <time>2026-09-01T01:11:23Z</time>
  <course>269.55</course>
  <speed>0.0</speed>
  <fix>3d</fix>
</trkpt>
<trkpt lat="-27.274439" lon="151.290064">
  <ele>343.0</ele>
  <time>2026-09-01T01:11:23Z</time>
  <course>262.16</course>
  <speed>0.9176055797563569</speed>
  <fix>3d</fix>
</trkpt>
<trkpt lat="-27.274439" lon="151.290064">
  <ele>343.0</ele>
  <time>2026-09-01T01:11:23Z</time>
  <course>0.0</course>
  <speed>0.0</speed>
  <fix>3d</fix>
</trkpt>
<trkpt lat="-27.274439" lon="151.290064">
  <ele>343.0</ele>
  <time>2026-09-01T01:11:23Z</time>
  <course>256.4</course>
  <speed>0.9403190947758107</speed>
  <fix>3d</fix>
</trkpt>
<trkpt lat="-27.274439" lon="151.290064">
  <ele>343.0</ele>
  <time>2026-09-01T01:11:23Z</time>
  <course>0.0</course>
  <speed>0.0</speed>
  <fix>3d</fix>
</trkpt>
<trkpt lat="-27.274439" lon="151.290064">
  <ele>343.0</ele>
  <time>2026-09-01T01:11:23Z</time>
  <course>249.45</course>
  <speed>0.756042326857432</speed>
  <fix>3d</fix>
</trkpt>
<trkpt lat="-27.274439" lon="151.290064">
  <ele>343.0</ele>
  <time>2026-09-01T01:11:23Z</time>
  <course>0.0</course>
  <speed>0.0</speed>
  <fix>3d</fix>
</trkpt>
<trkpt lat="-27.274439" lon="151.290064">
  <ele>343.0</ele>
  <time>2026-09-01T01:11:23Z</time>
  <course>241.79</course>
  <speed>0.6596969000988256</speed>
  <fix>3d</fix>
</trkpt>
<trkpt lat="-27.274439" lon="151.290064">
  <ele>343.0</ele>
  <time>2026-09-01T01:11:23Z</time>
  <course>0.0</course>
  <speed>0.0</speed>
  <fix>3d</fix>
</trkpt>
<trkpt lat="-27.274439" lon="151.290064">
  <ele>343.0</ele>
  <time>2026-09-01T01:11:23Z</time>
  <course>233.59</course>
  <speed>0.6618912297349165</speed>
  <fix>3d</fix>
</trkpt>
<trkpt lat="-27.274439" lon="151.290064">
  <ele>343.0</ele>
  <time>2026-09-01T01:11:23Z</time>
  <course>0.0</course>
  <speed>0.0</speed>
  <fix>3d</fix>
</trkpt>
<trkpt lat="-27.274439" lon="151.290064">
  <ele>343.0</ele>
  <time>2026-09-01T01:11:23Z</time>
  <course>225.02</course>
  <speed>0.7034202158027589</speed>
  <fix>3d</fix>
</trkpt>
<trkpt lat="-27.274439" lon="151.290064">
  <ele>343.0</ele>
  <time>2026-09-01T01:11:23Z</time>
  <course>0.0</course>
  <speed>0.0</speed>
  <fix>3d</fix>
</trkpt>
<trkpt lat="-27.274439" lon="151.290064">
  <ele>343.0</ele>
  <time>2026-09-01T01:11:23Z</time>
  <course>207.13</course>
  <speed>0.8052949770115296</speed>
  <fix>3d</fix>
</trkpt>
<trkpt lat="-27.274439" lon="151.290064">
  <ele>343.0</ele>
  <time>2026-09-01T01:11:23Z</time>
  <course>0.0</course>
  <speed>0.0</speed>
  <fix>3d</fix>
</trkpt>
<trkpt lat="-27.274439" lon="151.290064">
  <ele>343.0</ele>
  <time>2026-09-01T01:11:23Z</time>
  <course>197.95</course>
  <speed>0.8453401682163222</speed>
  <fix>3d</fix>
</trkpt>
<trkpt lat="-27.274439" lon="151.290064">
  <ele>343.0</ele>
  <time>2026-09-01T01:11:23Z</time>
  <course>0.0</course>
  <speed>0.0</speed>
  <fix>3d</fix>
</trkpt>
<trkpt lat="-27.274439" lon="151.290064">
  <ele>343.0</ele>
  <time>2026-09-01T01:11:23Z</time>
  <course>188.67</course>
  <speed>0.878179936004006</speed>
  <fix>3d</fix>
</trkpt>
<trkpt lat="-27.274439" lon="151.290064">
  <ele>343.0</ele>
  <time>2026-09-01T01:11:23Z</time>
  <course>0.0</course>
  <speed>0.0</speed>
  <fix>3d</fix>
</trkpt>
<trkpt lat="-27.274439" lon="151.290064">
  <ele>343.0</ele>
  <time>2026-09-01T01:11:23Z</time>
  <course>179.31</course>
  <speed>0.8848163651289458</speed>
  <fix>3d</fix>
</trkpt>
<trkpt lat="-27.274439" lon="151.290064">
  <ele>343.0</ele>
  <time>2026-09-01T01:11:23Z</time>
  <course>0.0</course>
  <speed>0.0</speed>
  <fix>3d</fix>
</trkpt>
<trkpt lat="-27.274439" lon="151.290064">
  <ele>343.0</ele>
  <time>2026-09-01T01:11:23Z</time>
  <course>169.93</course>
  <speed>0.9140021881811882</speed>
  <fix>3d</fix>
</trkpt>
<trkpt lat="-27.274439" lon="151.290064">
  <ele>343.0</ele>
  <time>2026-09-01T01:11:23Z</time>
  <course>0.0</course>
  <speed>0.0</speed>
  <fix>3d</fix>
</trkpt>
<trkpt lat="-27.274439" lon="151.290064">
  <ele>343.0</ele>
  <time>2026-09-01T01:11:23Z</time>
  <course>161.9</course>
  <speed>0.9219544457292888</speed>
  <fix>3d</fix>
</trkpt>
<trkpt lat="-27.274439" lon="151.290064">
  <ele>343.0</ele>
  <time>2026-09-01T01:11:23Z</time>
  <course>0.0</course>
  <speed>0.0</speed>
  <fix>3d</fix>
</trkpt>
<trkpt lat="-27.274439" lon="151.290064">
  <ele>343.0</ele>
  <time>2026-09-01T01:11:23Z</time>
  <course>158.55</course>
  <speed>0.9411163583744573</speed>
  <fix>3d</fix>
</trkpt>
<trkpt lat="-27.274439" lon="151.290064">
  <ele>343.0</ele>
  <time>2026-09-01T01:11:23Z</time>
  <course>0.0</course>
  <speed>0.0</speed>
  <fix>3d</fix>
</trkpt>
<trkpt lat="-27.274439" lon="151.290064">
  <ele>343.0</ele>
  <time>2026-09-01T01:11:23Z</time>
  <course>149.72</course>
  <speed>0.4808326112068523</speed>
  <fix>3d</fix>
</trkpt>
<trkpt lat="-27.274439" lon="151.290064">
  <ele>343.0</ele>
  <time>2026-09-01T01:11:23Z</time>
  <course>0.0</course>
  <speed>0.0</speed>
  <fix>3d</fix>
</trkpt>
<trkpt lat="-27.274439" lon="151.290064">
  <ele>343.0</ele>
  <time>2026-09-01T01:11:23Z</time>
  <course>140.16</course>
  <speed>0.18027756377319945</speed>
  <fix>3d</fix>
</trkpt>
<trkpt lat="-27.274439" lon="151.290064">
  <ele>343.0</ele>
  <time>2026-09-01T01:11:23Z</time>
  <course>0.0</course>
  <speed>0.0</speed>
  <fix>3d</fix>
</trkpt>
<trkpt lat="-27.274439" lon="151.290064">
  <ele>343.0</ele>
  <time>2026-09-01T01:11:23Z</time>
  <course>130.68</course>
  <speed>0.10770329614269007</speed>
  <fix>3d</fix>
</trkpt>
<trkpt lat="-27.274439" lon="151.290064">
  <ele>343.0</ele>
  <time>2026-09-01T01:11:23Z</time>
  <course>0.0</course>
  <speed>0.0</speed>
  <fix>3d</fix>
</trkpt>
<trkpt lat="-27.274439" lon="151.290064">
  <ele>343.0</ele>
  <time>2026-09-01T01:11:23Z</time>
  <course>121.23</course>
  <speed>0.1044030650891055</speed>
  <fix>3d</fix>
</trkpt>
<trkpt lat="-27.274439" lon="151.290064">
  <ele>343.0</ele>
  <time>2026-09-01T01:11:23Z</time>
  <course>0.0</course>
  <speed>0.0</speed>
  <fix>3d</fix>
</trkpt>
<trkpt lat="-27.274439" lon="151.290064">
  <ele>343.0</ele>
  <time>2026-09-01T01:11:23Z</time>
  <course>325.88</course>
  <speed>0.0</speed>
  <fix>3d</fix>
</trkpt>
<trkpt lat="-27.274439" lon="151.290064">
  <ele>343.0</ele>
  <time>2026-09-01T01:11:23Z</time>
  <course>324.43</course>
  <speed>0.0</speed>
  <fix>3d</fix>
</trkpt>
<trkpt lat="-27.274439" lon="151.290064">
  <ele>343.0</ele>
  <time>2026-09-01T01:11:23Z</time>
  <course>321.86</course>
  <speed>0.0</speed>
  <fix>3d</fix>
</trkpt>
<trkpt lat="-27.274439" lon="151.290064">
  <ele>343.0</ele>
  <time>2026-09-01T01:11:23Z</time>
  <course>295.0</course>
  <speed>0.0</speed>
  <fix>3d</fix>
</trkpt>
<trkpt lat="-27.274439" lon="151.290064">
  <ele>343.0</ele>
  <time>2026-09-01T01:11:23Z</time>
  <course>290.72</course>
  <speed>0.0</speed>
  <fix>3d</fix>
</trkpt>
<trkpt lat="-27.274439" lon="151.290064">
  <ele>343.0</ele>
  <time>2026-09-01T01:11:23Z</time>
  <course>284.84</course>
  <speed>0.0</speed>
  <fix>3d</fix>
</trkpt>
<trkpt lat="-27.274439" lon="151.290064">
  <ele>343.0</ele>
  <time>2026-09-01T01:11:23Z</time>
  <course>277.79</course>
  <speed>0.0</speed>
  <fix>3d</fix>
</trkpt>
<trkpt lat="-27.274439" lon="151.290064">
  <ele>343.0</ele>
  <time>2026-09-01T01:11:23Z</time>
  <course>269.55</course>
  <speed>0.0</speed>
  <fix>3d</fix>
</trkpt>
<trkpt lat="-27.274439" lon="151.290064">
  <ele>343.0</ele>
  <time>2026-09-01T01:11:23Z</time>
  <course>262.16</course>
  <speed>0.9176055797563569</speed>
  <fix>3d</fix>
</trkpt>
<trkpt lat="-27.274439" lon="151.290064">
  <ele>343.0</ele>
  <time>2026-09-01T01:11:23Z</time>
  <course>0.0</course>
  <speed>0.0</speed>
  <fix>3d</fix>
</trkpt>
<trkpt lat="-27.274439" lon="151.290064">
  <ele>343.0</ele>
  <time>2026-09-01T01:11:23Z</time>
  <course>256.4</course>
  <speed>0.9403190947758107</speed>
  <fix>3d</fix>
</trkpt>
<trkpt lat="-27.274439" lon="151.290064">
  <ele>343.0</ele>
  <time>2026-09-01T01:11:23Z</time>
  <course>0.0</course>
  <speed>0.0</speed>
  <fix>3d</fix>
</trkpt>
<trkpt lat="-27.274439" lon="151.290064">
  <ele>343.0</ele>
  <time>2026-09-01T01:11:23Z</time>
  <course>249.45</course>
  <speed>0.756042326857432</speed>
  <fix>3d</fix>
</trkpt>
<trkpt lat="-27.274439" lon="151.290064">
  <ele>343.0</ele>
  <time>2026-09-01T01:11:23Z</time>
  <course>0.0</course>
  <speed>0.0</speed>
  <fix>3d</fix>
</trkpt>
<trkpt lat="-27.274439" lon="151.290064">
  <ele>343.0</ele>
  <time>2026-09-01T01:11:23Z</time>
  <course>241.79</course>
  <speed>0.6596969000988256</speed>
  <fix>3d</fix>
</trkpt>
<trkpt lat="-27.274439" lon="151.290064">
  <ele>343.0</ele>
  <time>2026-09-01T01:11:23Z</time>
  <course>0.0</course>
  <speed>0.0</speed>
  <fix>3d</fix>
</trkpt>
<trkpt lat="-27.274439" lon="151.290064">
  <ele>343.0</ele>
  <time>2026-09-01T01:11:23Z</time>
  <course>233.59</course>
  <speed>0.6618912297349165</speed>
  <fix>3d</fix>
</trkpt>
<trkpt lat="-27.274439" lon="151.290064">
  <ele>343.0</ele>
  <time>2026-09-01T01:11:23Z</time>
  <course>0.0</course>
  <speed>0.0</speed>
  <fix>3d</fix>
</trkpt>
<trkpt lat="-27.274439" lon="151.290064">
  <ele>343.0</ele>
  <time>2026-09-01T01:11:23Z</time>
  <course>240.93</course>
  <speed>0.7034202158027589</speed>
  <fix>3d</fix>
</trkpt>
<trkpt lat="-27.274439" lon="151.290064">
  <ele>343.0</ele>
  <time>2026-09-01T01:11:23Z</time>
  <course>0.0</course>
  <speed>0.0</speed>
  <fix>3d</fix>
</trkpt>
<trkpt lat="-27.274439" lon="151.290064">
  <ele>343.0</ele>
  <time>2026-09-01T01:11:23Z</time>
  <course>250.09</course>
  <speed>0.7368174807915459</speed>
  <fix>3d</fix>
</trkpt>
<trkpt lat="-27.274439" lon="151.290064">
  <ele>343.0</ele>
  <time>2026-09-01T01:11:23Z</time>
  <course>0.0</course>
  <speed>0.0</speed>
  <fix>3d</fix>
</trkpt>
<trkpt lat="-27.274439" lon="151.290064">
  <ele>343.0</ele>
  <time>2026-09-01T01:11:23Z</time>
  <course>259.01</course>
  <speed>0.7305477397131552</speed>
  <fix>3d</fix>
</trkpt>
<trkpt lat="-27.274439" lon="151.290064">
  <ele>343.0</ele>
  <time>2026-09-01T01:11:23Z</time>
  <course>0.0</course>
  <speed>0.0</speed>
  <fix>3d</fix>
</trkpt>
<trkpt lat="-27.274439" lon="151.290064">
  <ele>343.0</ele>
  <time>2026-09-01T01:11:23Z</time>
  <course>267.83</course>
  <speed>0.708801805866774</speed>
  <fix>3d</fix>
</trkpt>
<trkpt lat="-27.274439" lon="151.290064">
  <ele>343.0</ele>
  <time>2026-09-01T01:11:23Z</time>
  <course>0.0</course>
  <speed>0.0</speed>
  <fix>3d</fix>
</trkpt>
<trkpt lat="-27.274439" lon="151.290064">
  <ele>343.0</ele>
  <time>2026-09-01T01:11:23Z</time>
  <course>276.52</course>
  <speed>0.6768308503607087</speed>
  <fix>3d</fix>
</trkpt>
<trkpt lat="-27.274439" lon="151.290064">
  <ele>343.0</ele>
  <time>2026-09-01T01:11:23Z</time>
  <course>0.0</course>
  <speed>0.0</speed>
  <fix>3d</fix>
</trkpt>
<trkpt lat="-27.274439" lon="151.290064">
  <ele>343.0</ele>
  <time>2026-09-01T01:11:23Z</time>
  <course>285.18</course>
  <speed>0.6413267497929586</speed>
  <fix>3d</fix>
</trkpt>
<trkpt lat="-27.274439" lon="151.290064">
  <ele>343.0</ele>
  <time>2026-09-01T01:11:23Z</time>
  <course>0.0</course>
  <speed>0.0</speed>
  <fix>3d</fix>
</trkpt>
<trkpt lat="-27.274439" lon="151.290064">
  <ele>343.0</ele>
  <time>2026-09-01T01:11:23Z</time>
  <course>293.82</course>
  <speed>0.6319810123729984</speed>
  <fix>3d</fix>
</trkpt>
<trkpt lat="-27.274439" lon="151.290064">
  <ele>343.0</ele>
  <time>2026-09-01T01:11:23Z</time>
  <course>0.0</course>
  <speed>0.0</speed>
  <fix>3d</fix>
</trkpt>
<trkpt lat="-27.274439" lon="151.290064">
  <ele>343.0</ele>
  <time>2026-09-01T01:11:23Z</time>
  <course>302.46</course>
  <speed>0.63</speed>
  <fix>3d</fix>
</trkpt>
<trkpt lat="-27.274439" lon="151.290064">
  <ele>343.0</ele>
  <time>2026-09-01T01:11:23Z</time>
  <course>0.0</course>
  <speed>0.0</speed>
  <fix>3d</fix>
</trkpt>
<trkpt lat="-27.274439" lon="151.290064">
  <ele>343.0</ele>
  <time>2026-09-01T01:11:23Z</time>
  <course>311.15</course>
  <speed>0.6449806198638839</speed>
  <fix>3d</fix>
</trkpt>
<trkpt lat="-27.274439" lon="151.290064">
  <ele>343.0</ele>
  <time>2026-09-01T01:11:23Z</time>
  <course>0.0</course>
  <speed>0.0</speed>
  <fix>3d</fix>
</trkpt>
<trkpt lat="-27.274439" lon="151.290064">
  <ele>343.0</ele>
  <time>2026-09-01T01:11:23Z</time>
  <course>319.84</course>
  <speed>0.6573431371817918</speed>
  <fix>3d</fix>
</trkpt>
<trkpt lat="-27.274439" lon="151.290064">
  <ele>343.0</ele>
  <time>2026-09-01T01:11:23Z</time>
  <course>0.0</course>
  <speed>0.0</speed>
  <fix>3d</fix>
</trkpt>
<trkpt lat="-27.274439" lon="151.290064">
  <ele>343.0</ele>
  <time>2026-09-01T01:11:23Z</time>
  <course>328.6</course>
  <speed>0.6609841147864296</speed>
  <fix>3d</fix>
</trkpt>
<trkpt lat="-27.274439" lon="151.290064">
  <ele>343.0</ele>
  <time>2026-09-01T01:11:23Z</time>
  <course>0.0</course>
  <speed>0.0</speed>
  <fix>3d</fix>
</trkpt>
<trkpt lat="-27.274439" lon="151.290064">
  <ele>343.0</ele>
  <time>2026-09-01T01:11:23Z</time>
  <course>337.39</course>
  <speed>0.6451356446515725</speed>
  <fix>3d</fix>
</trkpt>
<trkpt lat="-27.274439" lon="151.290064">
  <ele>343.0</ele>
  <time>2026-09-01T01:11:23Z</time>
  <course>0.0</course>
  <speed>0.0</speed>
  <fix>3d</fix>
</trkpt>
<trkpt lat="-27.274439" lon="151.290064">
  <ele>343.0</ele>
  <time>2026-09-01T01:11:23Z</time>
  <course>346.24</course>
  <speed>0.6315853069855251</speed>
  <fix>3d</fix>
</trkpt>
<trkpt lat="-27.274439" lon="151.290064">
  <ele>343.0</ele>
  <time>2026-09-01T01:11:23Z</time>
  <course>0.0</course>
  <speed>0.0</speed>
  <fix>3d</fix>
</trkpt>
<trkpt lat="-27.274439" lon="151.290064">
  <ele>343.0</ele>
  <time>2026-09-01T01:11:23Z</time>
  <course>355.12</course>
  <speed>0.6352952069707436</speed>
  <fix>3d</fix>
</trkpt>
<trkpt lat="-27.274439" lon="151.290064">
  <ele>343.0</ele>
  <time>2026-09-01T01:11:23Z</time>
  <course>0.0</course>
  <speed>0.0</speed>
  <fix>3d</fix>
</trkpt>
<trkpt lat="-27.274439" lon="151.290064">
  <ele>343.0</ele>
  <time>2026-09-01T01:11:23Z</time>
  <course>4.03</course>
  <speed>0.6545991139621257</speed>
  <fix>3d</fix>
</trkpt>
<trkpt lat="-27.274439" lon="151.290064">
  <ele>343.0</ele>
  <time>2026-09-01T01:11:23Z</time>
  <course>0.0</course>
  <speed>0.0</speed>
  <fix>3d</fix>
</trkpt>
<trkpt lat="-27.274439" lon="151.290064">
  <ele>343.0</ele>
  <time>2026-09-01T01:11:23Z</time>
  <course>12.98</course>
  <speed>0.6529931086925803</speed>
  <fix>3d</fix>
</trkpt>
<trkpt lat="-27.274439" lon="151.290064">
  <ele>343.0</ele>
  <time>2026-09-01T01:11:23Z</time>
  <course>0.0</course>
  <speed>0.0</speed>
  <fix>3d</fix>
</trkpt>
<trkpt lat="-27.274439" lon="151.290064">
  <ele>343.0</ele>
  <time>2026-09-01T01:11:23Z</time>
  <course>19.66</course>
  <speed>0.6435060217278468</speed>
  <fix>3d</fix>
</trkpt>
<trkpt lat="-27.274439" lon="151.290064">
  <ele>343.0</ele>
  <time>2026-09-01T01:11:23Z</time>
  <course>0.0</course>
  <speed>0.0</speed>
  <fix>3d</fix>
</trkpt>
<trkpt lat="-27.274439" lon="151.290064">
  <ele>343.0</ele>
  <time>2026-09-01T01:11:23Z</time>
  <course>10.9</course>
  <speed>0.6453681120105021</speed>
  <fix>3d</fix>
</trkpt>
<trkpt lat="-27.274439" lon="151.290064">
  <ele>343.0</ele>
  <time>2026-09-01T01:11:23Z</time>
  <course>0.0</course>
  <speed>0.0</speed>
  <fix>3d</fix>
</trkpt>
<trkpt lat="-27.274439" lon="151.290064">
  <ele>343.0</ele>
  <time>2026-09-01T01:11:23Z</time>
  <course>7.28</course>
  <speed>0.660302960768767</speed>
  <fix>3d</fix>
</trkpt>
<trkpt lat="-27.274439" lon="151.290064">
  <ele>343.0</ele>
  <time>2026-09-01T01:11:23Z</time>
  <course>0.0</course>
  <speed>0.0</speed>
  <fix>3d</fix>
</trkpt>
<trkpt lat="-27.274439" lon="151.290064">
  <ele>343.0</ele>
  <time>2026-09-01T01:11:23Z</time>
  <course>7.03</course>
  <speed>0.6847627326307996</speed>
  <fix>3d</fix>
</trkpt>
<trkpt lat="-27.274439" lon="151.290064">
  <ele>343.0</ele>
  <time>2026-09-01T01:11:23Z</time>
  <course>0.0</course>
  <speed>0.0</speed>
  <fix>3d</fix>
</trkpt>
<trkpt lat="-27.274439" lon="151.290064">
  <ele>343.0</ele>
  <time>2026-09-01T01:11:23Z</time>
  <course>7.65</course>
  <speed>0.7261542535852834</speed>
  <fix>3d</fix>
</trkpt>
<trkpt lat="-27.274439" lon="151.290064">
  <ele>343.0</ele>
  <time>2026-09-01T01:11:23Z</time>
  <course>0.0</course>
  <speed>0.0</speed>
  <fix>3d</fix>
</trkpt>
<trkpt lat="-27.274439" lon="151.290064">
  <ele>343.0</ele>
  <time>2026-09-01T01:11:23Z</time>
  <course>8.3</course>
  <speed>0.7749193506423749</speed>
  <fix>3d</fix>
</trkpt>
<trkpt lat="-27.274439" lon="151.290064">
  <ele>343.0</ele>
  <time>2026-09-01T01:11:23Z</time>
  <course>0.0</course>
  <speed>0.0</speed>
  <fix>3d</fix>
</trkpt>
<trkpt lat="-27.274439" lon="151.290064">
  <ele>343.0</ele>
  <time>2026-09-01T01:11:24Z</time>
  <course>8.8</course>
  <speed>0.8319855767980596</speed>
  <fix>3d</fix>
</trkpt>
<trkpt lat="-27.274439" lon="151.290064">
  <ele>343.0</ele>
  <time>2026-09-01T01:11:24Z</time>
  <course>0.0</course>
  <speed>0.0</speed>
  <fix>3d</fix>
</trkpt>
<trkpt lat="-27.274439" lon="151.290064">
  <ele>343.0</ele>
  <time>2026-09-01T01:11:24Z</time>
  <course>9.1</course>
  <speed>0.8910667763978185</speed>
  <fix>3d</fix>
</trkpt>
<trkpt lat="-27.274439" lon="151.290064">
  <ele>343.0</ele>
  <time>2026-09-01T01:11:24Z</time>
  <course>0.0</course>
  <speed>0.0</speed>
  <fix>3d</fix>
</trkpt>
<trkpt lat="-27.274439" lon="151.290064">
  <ele>343.0</ele>
  <time>2026-09-01T01:11:24Z</time>
  <course>9.25</course>
  <speed>0.9442986815621421</speed>
  <fix>3d</fix>
</trkpt>
<trkpt lat="-27.274439" lon="151.290064">
  <ele>343.0</ele>
  <time>2026-09-01T01:11:24Z</time>
  <course>0.0</course>
  <speed>0.0</speed>
  <fix>3d</fix>
</trkpt>
<trkpt lat="-27.274439" lon="151.290064">
  <ele>343.0</ele>
  <time>2026-09-01T01:11:24Z</time>
  <course>9.28</course>
  <speed>1.0107917688624102</speed>
  <fix>3d</fix>
</trkpt>
<trkpt lat="-27.274439" lon="151.290064">
  <ele>343.0</ele>
  <time>2026-09-01T01:11:24Z</time>
  <course>0.0</course>
  <speed>0.0</speed>
  <fix>3d</fix>
</trkpt>
<trkpt lat="-27.2744395" lon="151.290063">
  <ele>343.02</ele>
  <time>2026-09-01T01:11:24Z</time>
  <course>9.38</course>
  <speed>0.13152946437965907</speed>
  <fix>3d</fix>
</trkpt>
<trkpt lat="-27.274439" lon="151.290064">
  <ele>343.0</ele>
  <time>2026-09-01T01:11:24Z</time>
  <course>0.0</course>
  <speed>0.0</speed>
  <fix>3d</fix>
</trkpt>
<trkpt lat="-27.2744394" lon="151.2900642">
  <ele>343.03</ele>
  <time>2026-09-01T01:11:24Z</time>
  <course>9.2</course>
  <speed>0.21377558326431947</speed>
  <fix>3d</fix>
</trkpt>
<trkpt lat="-27.274439" lon="151.290064">
  <ele>343.0</ele>
  <time>2026-09-01T01:11:24Z</time>
  <course>0.0</course>
  <speed>0.0</speed>
  <fix>3d</fix>
</trkpt>
<trkpt lat="-27.2744393" lon="151.2900644">
  <ele>343.02</ele>
  <time>2026-09-01T01:11:24Z</time>
  <course>8.95</course>
  <speed>0.14560219778561037</speed>
  <fix>3d</fix>
</trkpt>
<trkpt lat="-27.274439" lon="151.290064">
  <ele>343.0</ele>
  <time>2026-09-01T01:11:24Z</time>
  <course>0.0</course>
  <speed>0.0</speed>
  <fix>3d</fix>
</trkpt>
<trkpt lat="-27.2744393" lon="151.2900643">
  <ele>343.04</ele>
  <time>2026-09-01T01:11:24Z</time>
  <course>9.04</course>
  <speed>0.09433981132056603</speed>
  <fix>3d</fix>
</trkpt>
<trkpt lat="-27.274439" lon="151.290064">
  <ele>343.0</ele>
  <time>2026-09-01T01:11:24Z</time>
  <course>0.0</course>
  <speed>0.0</speed>
  <fix>3d</fix>
</trkpt>
<trkpt lat="-27.2744393" lon="151.2900642">
  <ele>343.07</ele>
  <time>2026-09-01T01:11:24Z</time>
  <course>9.24</course>
  <speed>0.07071067811865475</speed>
  <fix>3d</fix>
</trkpt>
<trkpt lat="-27.274439" lon="151.290064">
  <ele>343.0</ele>
  <time>2026-09-01T01:11:24Z</time>
  <course>0.0</course>
  <speed>0.0</speed>
  <fix>3d</fix>
</trkpt>
<trkpt lat="-27.2744393" lon="151.2900642">
  <ele>343.07</ele>
  <time>2026-09-01T01:11:24Z</time>
  <course>9.48</course>
  <speed>0.06403124237432849</speed>
  <fix>3d</fix>
</trkpt>
<trkpt lat="-27.274439" lon="151.290064">
  <ele>343.0</ele>
  <time>2026-09-01T01:11:24Z</time>
  <course>0.0</course>
  <speed>0.0</speed>
  <fix>3d</fix>
</trkpt>
<trkpt lat="-27.2744393" lon="151.2900642">
  <ele>343.06</ele>
  <time>2026-09-01T01:11:24Z</time>
  <course>9.68</course>
  <speed>0.05830951894845301</speed>
  <fix>3d</fix>
</trkpt>
<trkpt lat="-27.274439" lon="151.290064">
  <ele>343.0</ele>
  <time>2026-09-01T01:11:24Z</time>
  <course>0.0</course>
  <speed>0.0</speed>
  <fix>3d</fix>
</trkpt>
<trkpt lat="-27.2744394" lon="151.2900643">
  <ele>343.06</ele>
  <time>2026-09-01T01:11:24Z</time>
  <course>7.77</course>
  <speed>0.07211102550927978</speed>
  <fix>3d</fix>
</trkpt>
<trkpt lat="-27.274439" lon="151.290064">
  <ele>343.0</ele>
  <time>2026-09-01T01:11:24Z</time>
  <course>0.0</course>
  <speed>0.0</speed>
  <fix>3d</fix>
</trkpt>
<trkpt lat="-27.2744394" lon="151.2900644">
  <ele>343.07</ele>
  <time>2026-09-01T01:11:24Z</time>
  <course>4.93</course>
  <speed>0.06403124237432849</speed>
  <fix>3d</fix>
</trkpt>
<trkpt lat="-27.274439" lon="151.290064">
  <ele>343.0</ele>
  <time>2026-09-01T01:11:24Z</time>
  <course>0.0</course>
  <speed>0.0</speed>
  <fix>3d</fix>
</trkpt>
<trkpt lat="-27.2744394" lon="151.2900644">
  <ele>343.08</ele>
  <time>2026-09-01T01:11:24Z</time>
  <course>2.62</course>
  <speed>0.06403124237432849</speed>
  <fix>3d</fix>
</trkpt>
<trkpt lat="-27.274439" lon="151.290064">
  <ele>343.0</ele>
  <time>2026-09-01T01:11:24Z</time>
  <course>0.0</course>
  <speed>0.0</speed>
  <fix>3d</fix>
</trkpt>
<trkpt lat="-27.2744393" lon="151.2900644">
  <ele>343.06</ele>
  <time>2026-09-01T01:11:24Z</time>
  <course>1.1</course>
  <speed>0.0565685424949238</speed>
  <fix>3d</fix>
</trkpt>
<trkpt lat="-27.274439" lon="151.290064">
  <ele>343.0</ele>
  <time>2026-09-01T01:11:24Z</time>
  <course>0.0</course>
  <speed>0.0</speed>
  <fix>3d</fix>
</trkpt>
<trkpt lat="-27.2744393" lon="151.2900644">
  <ele>343.07</ele>
  <time>2026-09-01T01:11:24Z</time>
  <course>0.27</course>
  <speed>0.04242640687119285</speed>
  <fix>3d</fix>
</trkpt>
<trkpt lat="-27.274439" lon="151.290064">
  <ele>343.0</ele>
  <time>2026-09-01T01:11:24Z</time>
  <course>0.0</course>
  <speed>0.0</speed>
  <fix>3d</fix>
</trkpt>
<trkpt lat="-27.2744393" lon="151.2900644">
  <ele>343.06</ele>
  <time>2026-09-01T01:11:24Z</time>
  <course>359.93</course>
  <speed>0.03605551275463989</speed>
  <fix>3d</fix>
</trkpt>
<trkpt lat="-27.274439" lon="151.290064">
  <ele>343.0</ele>
  <time>2026-09-01T01:11:24Z</time>
  <course>0.0</course>
  <speed>0.0</speed>
  <fix>3d</fix>
</trkpt>
<trkpt lat="-27.2744392" lon="151.2900643">
  <ele>343.08</ele>
  <time>2026-09-01T01:11:24Z</time>
  <course>359.88</course>
  <speed>0.0282842712474619</speed>
  <fix>3d</fix>
</trkpt>
<trkpt lat="-27.274439" lon="151.290064">
  <ele>343.0</ele>
  <time>2026-09-01T01:11:24Z</time>
  <course>0.0</course>
  <speed>0.0</speed>
  <fix>3d</fix>
</trkpt>
<trkpt lat="-27.2744392" lon="151.2900643">
  <ele>343.06</ele>
  <time>2026-09-01T01:11:24Z</time>
  <course>359.88</course>
  <speed>0.022360679774997897</speed>
  <fix>3d</fix>
</trkpt>
<trkpt lat="-27.274439" lon="151.290064">
  <ele>343.0</ele>
  <time>2026-09-01T01:11:24Z</time>
  <course>0.0</course>
  <speed>0.0</speed>
  <fix>3d</fix>
</trkpt>
<trkpt lat="-27.2744392" lon="151.2900643">
  <ele>343.06</ele>
  <time>2026-09-01T01:11:24Z</time>
  <course>359.9</course>
  <speed>0.01414213562373095</speed>
  <fix>3d</fix>
</trkpt>
<trkpt lat="-27.274439" lon="151.290064">
  <ele>343.0</ele>
  <time>2026-09-01T01:11:24Z</time>
  <course>0.0</course>
  <speed>0.0</speed>
  <fix>3d</fix>
</trkpt>
<trkpt lat="-27.2744391" lon="151.2900642">
  <ele>343.04</ele>
  <time>2026-09-01T01:11:24Z</time>
  <course>359.95</course>
  <speed>0.01</speed>
  <fix>3d</fix>
</trkpt>
<trkpt lat="-27.274439" lon="151.290064">
  <ele>343.0</ele>
  <time>2026-09-01T01:11:24Z</time>
  <course>0.0</course>
  <speed>0.0</speed>
  <fix>3d</fix>
</trkpt>
<trkpt lat="-27.2744391" lon="151.2900642">
  <ele>343.05</ele>
  <time>2026-09-01T01:11:24Z</time>
  <course>0.0</course>
  <speed>0.01</speed>
  <fix>3d</fix>
</trkpt>
<trkpt lat="-27.274439" lon="151.290064">
  <ele>343.0</ele>
  <time>2026-09-01T01:11:24Z</time>
  <course>0.0</course>
  <speed>0.0</speed>
  <fix>3d</fix>
</trkpt>
<trkpt lat="-27.2744391" lon="151.2900642">
  <ele>343.07</ele>
  <time>2026-09-01T01:11:24Z</time>
  <course>0.04</course>
  <speed>0.01</speed>
  <fix>3d</fix>
</trkpt>
<trkpt lat="-27.274439" lon="151.290064">
  <ele>343.0</ele>
  <time>2026-09-01T01:11:24Z</time>
  <course>0.0</course>
  <speed>0.0</speed>
  <fix>3d</fix>
</trkpt>
<trkpt lat="-27.2744391" lon="151.2900642">
  <ele>343.07</ele>
  <time>2026-09-01T01:11:24Z</time>
  <course>0.1</course>
  <speed>0.01</speed>
  <fix>3d</fix>
</trkpt>
<trkpt lat="-27.274439" lon="151.290064">
  <ele>343.0</ele>
  <time>2026-09-01T01:11:24Z</time>
  <course>0.0</course>
  <speed>0.0</speed>
  <fix>3d</fix>
</trkpt>
<trkpt lat="-27.2744391" lon="151.2900642">
  <ele>343.07</ele>
  <time>2026-09-01T01:11:24Z</time>
  <course>0.03</course>
  <speed>0.0</speed>
  <fix>3d</fix>
</trkpt>
<trkpt lat="-27.274439" lon="151.290064">
  <ele>343.0</ele>
  <time>2026-09-01T01:11:24Z</time>
  <course>0.0</course>
  <speed>0.0</speed>
  <fix>3d</fix>
</trkpt>
<trkpt lat="-27.2744391" lon="151.2900641">
  <ele>343.07</ele>
  <time>2026-09-01T01:11:24Z</time>
  <course>359.95</course>
  <speed>0.0</speed>
  <fix>3d</fix>
</trkpt>
<trkpt lat="-27.274439" lon="151.290064">
  <ele>343.0</ele>
  <time>2026-09-01T01:11:24Z</time>
  <course>0.0</course>
  <speed>0.0</speed>
  <fix>3d</fix>
</trkpt>
<trkpt lat="-27.2744391" lon="151.2900641">
  <ele>343.05</ele>
  <time>2026-09-01T01:11:24Z</time>
  <course>359.96</course>
  <speed>0.0</speed>
  <fix>3d</fix>
</trkpt>
<trkpt lat="-27.274439" lon="151.290064">
  <ele>343.0</ele>
  <time>2026-09-01T01:11:24Z</time>
  <course>0.0</course>
  <speed>0.0</speed>
  <fix>3d</fix>
</trkpt>
<trkpt lat="-27.2744391" lon="151.2900641">
  <ele>343.04</ele>
  <time>2026-09-01T01:11:24Z</time>
  <course>0.0</course>
  <speed>0.0</speed>
  <fix>3d</fix>
</trkpt>
<trkpt lat="-27.274439" lon="151.290064">
  <ele>343.0</ele>
  <time>2026-09-01T01:11:24Z</time>
  <course>0.0</course>
  <speed>0.0</speed>
  <fix>3d</fix>
</trkpt>
<trkpt lat="-27.2744391" lon="151.2900641">
  <ele>343.06</ele>
  <time>2026-09-01T01:11:24Z</time>
  <course>0.03</course>
  <speed>0.0</speed>
  <fix>3d</fix>
</trkpt>
<trkpt lat="-27.274439" lon="151.290064">
  <ele>343.0</ele>
  <time>2026-09-01T01:11:24Z</time>
  <course>0.0</course>
  <speed>0.0</speed>
  <fix>3d</fix>
</trkpt>
<trkpt lat="-27.2744391" lon="151.2900641">
  <ele>343.05</ele>
  <time>2026-09-01T01:11:24Z</time>
  <course>0.07</course>
  <speed>0.0</speed>
  <fix>3d</fix>
</trkpt>
<trkpt lat="-27.274439" lon="151.290064">
  <ele>343.0</ele>
  <time>2026-09-01T01:11:24Z</time>
  <course>0.0</course>
  <speed>0.0</speed>
  <fix>3d</fix>
</trkpt>
<trkpt lat="-27.2744391" lon="151.2900641">
  <ele>343.06</ele>
  <time>2026-09-01T01:11:24Z</time>
  <course>0.12</course>
  <speed>0.01</speed>
  <fix>3d</fix>
</trkpt>
<trkpt lat="-27.274439" lon="151.290064">
  <ele>343.0</ele>
  <time>2026-09-01T01:11:24Z</time>
  <course>0.0</course>
  <speed>0.0</speed>
  <fix>3d</fix>
</trkpt>
<trkpt lat="-27.2744391" lon="151.2900641">
  <ele>343.03</ele>
  <time>2026-09-01T01:11:24Z</time>
  <course>0.16</course>
  <speed>0.01</speed>
  <fix>3d</fix>
</trkpt>
<trkpt lat="-27.274439" lon="151.290064">
  <ele>343.0</ele>
  <time>2026-09-01T01:11:24Z</time>
  <course>0.0</course>
  <speed>0.0</speed>
  <fix>3d</fix>
</trkpt>
<trkpt lat="-27.2744391" lon="151.2900641">
  <ele>343.02</ele>
  <time>2026-09-01T01:11:24Z</time>
  <course>0.1</course>
  <speed>0.01</speed>
  <fix>3d</fix>
</trkpt>
<trkpt lat="-27.274439" lon="151.290064">
  <ele>343.0</ele>
  <time>2026-09-01T01:11:24Z</time>
  <course>0.0</course>
  <speed>0.0</speed>
  <fix>3d</fix>
</trkpt>
<trkpt lat="-27.2744391" lon="151.2900641">
  <ele>343.02</ele>
  <time>2026-09-01T01:11:24Z</time>
  <course>359.99</course>
  <speed>0.01</speed>
  <fix>3d</fix>
</trkpt>
<trkpt lat="-27.274439" lon="151.290064">
  <ele>343.0</ele>
  <time>2026-09-01T01:11:24Z</time>
  <course>0.0</course>
  <speed>0.0</speed>
  <fix>3d</fix>
</trkpt>
<trkpt lat="-27.2744391" lon="151.2900641">
  <ele>343.02</ele>
  <time>2026-09-01T01:11:24Z</time>
  <course>359.97</course>
  <speed>0.01</speed>
  <fix>3d</fix>
</trkpt>
<trkpt lat="-27.274439" lon="151.290064">
  <ele>343.0</ele>
  <time>2026-09-01T01:11:24Z</time>
  <course>0.0</course>
  <speed>0.0</speed>
  <fix>3d</fix>
</trkpt>
<trkpt lat="-27.2744391" lon="151.2900641">
  <ele>343.0</ele>
  <time>2026-09-01T01:11:24Z</time>
  <course>359.98</course>
  <speed>0.01</speed>
  <fix>3d</fix>
</trkpt>
<trkpt lat="-27.274439" lon="151.290064">
  <ele>343.0</ele>
  <time>2026-09-01T01:11:24Z</time>
  <course>0.0</course>
  <speed>0.0</speed>
  <fix>3d</fix>
</trkpt>
<trkpt lat="-27.2744391" lon="151.290064">
  <ele>342.99</ele>
  <time>2026-09-01T01:11:24Z</time>
  <course>0.0</course>
  <speed>0.01</speed>
  <fix>3d</fix>
</trkpt>
<trkpt lat="-27.274439" lon="151.290064">
  <ele>343.0</ele>
  <time>2026-09-01T01:11:24Z</time>
  <course>0.0</course>
  <speed>0.0</speed>
  <fix>3d</fix>
</trkpt>
<trkpt lat="-27.2744391" lon="151.290064">
  <ele>343.01</ele>
  <time>2026-09-01T01:11:24Z</time>
  <course>0.02</course>
  <speed>0.01</speed>
  <fix>3d</fix>
</trkpt>
<trkpt lat="-27.274439" lon="151.290064">
  <ele>343.0</ele>
  <time>2026-09-01T01:11:24Z</time>
  <course>0.0</course>
  <speed>0.0</speed>
  <fix>3d</fix>
</trkpt>
<trkpt lat="-27.2744391" lon="151.290064">
  <ele>342.98</ele>
  <time>2026-09-01T01:11:24Z</time>
  <course>0.05</course>
  <speed>0.01</speed>
  <fix>3d</fix>
</trkpt>
<trkpt lat="-27.274439" lon="151.290064">
  <ele>343.0</ele>
  <time>2026-09-01T01:11:24Z</time>
  <course>0.0</course>
  <speed>0.0</speed>
  <fix>3d</fix>
</trkpt>
<trkpt lat="-27.2744391" lon="151.290064">
  <ele>342.98</ele>
  <time>2026-09-01T01:11:24Z</time>
  <course>0.08</course>
  <speed>0.01</speed>
  <fix>3d</fix>
</trkpt>
<trkpt lat="-27.274439" lon="151.290064">
  <ele>343.0</ele>
  <time>2026-09-01T01:11:24Z</time>
  <course>0.0</course>
  <speed>0.0</speed>
  <fix>3d</fix>
</trkpt>
<trkpt lat="-27.2744391" lon="151.290064">
  <ele>342.98</ele>
  <time>2026-09-01T01:11:24Z</time>
  <course>0.1</course>
  <speed>0.01</speed>
  <fix>3d</fix>
</trkpt>
<trkpt lat="-27.274439" lon="151.290064">
  <ele>343.0</ele>
  <time>2026-09-01T01:11:24Z</time>
  <course>0.0</course>
  <speed>0.0</speed>
  <fix>3d</fix>
</trkpt>
<trkpt lat="-27.2744391" lon="151.290064">
  <ele>343.0</ele>
  <time>2026-09-01T01:11:24Z</time>
  <course>0.12</course>
  <speed>0.01</speed>
  <fix>3d</fix>
</trkpt>
<trkpt lat="-27.274439" lon="151.290064">
  <ele>343.0</ele>
  <time>2026-09-01T01:11:24Z</time>
  <course>0.0</course>
  <speed>0.0</speed>
  <fix>3d</fix>
</trkpt>
<trkpt lat="-27.2744391" lon="151.290064">
  <ele>343.0</ele>
  <time>2026-09-01T01:11:24Z</time>
  <course>0.15</course>
  <speed>0.01</speed>
  <fix>3d</fix>
</trkpt>
<trkpt lat="-27.274439" lon="151.290064">
  <ele>343.0</ele>
  <time>2026-09-01T01:11:24Z</time>
  <course>0.0</course>
  <speed>0.0</speed>
  <fix>3d</fix>
</trkpt>
<trkpt lat="-27.2744391" lon="151.290064">
  <ele>343.01</ele>
  <time>2026-09-01T01:11:24Z</time>
  <course>0.0</course>
  <speed>0.01</speed>
  <fix>3d</fix>
</trkpt>
<trkpt lat="-27.274439" lon="151.290064">
  <ele>343.0</ele>
  <time>2026-09-01T01:11:24Z</time>
  <course>0.0</course>
  <speed>0.0</speed>
  <fix>3d</fix>
</trkpt>
<trkpt lat="-27.2744391" lon="151.290064">
  <ele>343.0</ele>
  <time>2026-09-01T01:11:24Z</time>
  <course>0.0</course>
  <speed>0.01</speed>
  <fix>3d</fix>
</trkpt>
<trkpt lat="-27.274439" lon="151.290064">
  <ele>343.0</ele>
  <time>2026-09-01T01:11:24Z</time>
  <course>0.0</course>
  <speed>0.0</speed>
  <fix>3d</fix>
</trkpt>
<trkpt lat="-27.2744391" lon="151.290064">
  <ele>343.01</ele>
  <time>2026-09-01T01:11:24Z</time>
  <course>0.0</course>
  <speed>0.01</speed>
  <fix>3d</fix>
</trkpt>
<trkpt lat="-27.274439" lon="151.290064">
  <ele>343.0</ele>
  <time>2026-09-01T01:11:24Z</time>
  <course>0.0</course>
  <speed>0.0</speed>
  <fix>3d</fix>
</trkpt>
<trkpt lat="-27.2744391" lon="151.290064">
  <ele>343.04</ele>
  <time>2026-09-01T01:11:24Z</time>
  <course>0.0</course>
  <speed>0.01</speed>
  <fix>3d</fix>
</trkpt>
<trkpt lat="-27.274439" lon="151.290064">
  <ele>343.0</ele>
  <time>2026-09-01T01:11:24Z</time>
  <course>0.0</course>
  <speed>0.0</speed>
  <fix>3d</fix>
</trkpt>
<trkpt lat="-27.2744391" lon="151.290064">
  <ele>343.01</ele>
  <time>2026-09-01T01:11:24Z</time>
  <course>0.01</course>
  <speed>0.01</speed>
  <fix>3d</fix>
</trkpt>
<trkpt lat="-27.274439" lon="151.290064">
  <ele>343.0</ele>
  <time>2026-09-01T01:11:24Z</time>
  <course>0.0</course>
  <speed>0.0</speed>
  <fix>3d</fix>
</trkpt>
<trkpt lat="-27.2744391" lon="151.290064">
  <ele>343.02</ele>
  <time>2026-09-01T01:11:24Z</time>
  <course>7.49</course>
  <speed>0.01</speed>
  <fix>3d</fix>
</trkpt>
<trkpt lat="-27.274439" lon="151.290064">
  <ele>343.0</ele>
  <time>2026-09-01T01:11:24Z</time>
  <course>0.0</course>
  <speed>0.0</speed>
  <fix>3d</fix>
</trkpt>
<trkpt lat="-27.2744391" lon="151.290064">
  <ele>343.02</ele>
  <time>2026-09-01T01:11:24Z</time>
  <course>16.5</course>
  <speed>0.02</speed>
  <fix>3d</fix>
</trkpt>
<trkpt lat="-27.274439" lon="151.290064">
  <ele>343.0</ele>
  <time>2026-09-01T01:11:24Z</time>
  <course>0.0</course>
  <speed>0.0</speed>
  <fix>3d</fix>
</trkpt>
<trkpt lat="-27.2744391" lon="151.290064">
  <ele>343.02</ele>
  <time>2026-09-01T01:11:24Z</time>
  <course>25.5</course>
  <speed>0.02</speed>
  <fix>3d</fix>
</trkpt>
<trkpt lat="-27.274439" lon="151.290064">
  <ele>343.0</ele>
  <time>2026-09-01T01:11:24Z</time>
  <course>0.0</course>
  <speed>0.0</speed>
  <fix>3d</fix>
</trkpt>
<trkpt lat="-27.2744392" lon="151.290064">
  <ele>343.02</ele>
  <time>2026-09-01T01:11:24Z</time>
  <course>34.5</course>
  <speed>0.02</speed>
  <fix>3d</fix>
</trkpt>
<trkpt lat="-27.274439" lon="151.290064">
  <ele>343.0</ele>
  <time>2026-09-01T01:11:24Z</time>
  <course>0.0</course>
  <speed>0.0</speed>
  <fix>3d</fix>
</trkpt>
<trkpt lat="-27.2744391" lon="151.290064">
  <ele>343.01</ele>
  <time>2026-09-01T01:11:24Z</time>
  <course>42.36</course>
  <speed>0.02</speed>
  <fix>3d</fix>
</trkpt>
<trkpt lat="-27.274439" lon="151.290064">
  <ele>343.0</ele>
  <time>2026-09-01T01:11:24Z</time>
  <course>0.0</course>
  <speed>0.0</speed>
  <fix>3d</fix>
</trkpt>
<trkpt lat="-27.2744391" lon="151.290064">
  <ele>343.03</ele>
  <time>2026-09-01T01:11:24Z</time>
  <course>45.49</course>
  <speed>0.02</speed>
  <fix>3d</fix>
</trkpt>
<trkpt lat="-27.274439" lon="151.290064">
  <ele>343.0</ele>
  <time>2026-09-01T01:11:24Z</time>
  <course>0.0</course>
  <speed>0.0</speed>
  <fix>3d</fix>
</trkpt>
<trkpt lat="-27.2744391" lon="151.290064">
  <ele>343.02</ele>
  <time>2026-09-01T01:11:24Z</time>
  <course>46.34</course>
  <speed>0.01</speed>
  <fix>3d</fix>
</trkpt>
<trkpt lat="-27.274439" lon="151.290064">
  <ele>343.0</ele>
  <time>2026-09-01T01:11:24Z</time>
  <course>0.0</course>
  <speed>0.0</speed>
  <fix>3d</fix>
</trkpt>
<trkpt lat="-27.2744391" lon="151.290064">
  <ele>343.01</ele>
  <time>2026-09-01T01:11:24Z</time>
  <course>46.21</course>
  <speed>0.01</speed>
  <fix>3d</fix>
</trkpt>
<trkpt lat="-27.274439" lon="151.290064">
  <ele>343.0</ele>
  <time>2026-09-01T01:11:24Z</time>
  <course>0.0</course>
  <speed>0.0</speed>
  <fix>3d</fix>
</trkpt>
<trkpt lat="-27.2744391" lon="151.290064">
  <ele>343.04</ele>
  <time>2026-09-01T01:11:24Z</time>
  <course>45.82</course>
  <speed>0.02</speed>
  <fix>3d</fix>
</trkpt>
<trkpt lat="-27.274439" lon="151.290064">
  <ele>343.0</ele>
  <time>2026-09-01T01:11:24Z</time>
  <course>0.0</course>
  <speed>0.0</speed>
  <fix>3d</fix>
</trkpt>
<trkpt lat="-27.2744391" lon="151.290064">
  <ele>343.03</ele>
  <time>2026-09-01T01:11:24Z</time>
  <course>45.44</course>
  <speed>0.02</speed>
  <fix>3d</fix>
</trkpt>
<trkpt lat="-27.274439" lon="151.290064">
  <ele>343.0</ele>
  <time>2026-09-01T01:11:24Z</time>
  <course>0.0</course>
  <speed>0.0</speed>
  <fix>3d</fix>
</trkpt>
<trkpt lat="-27.2744392" lon="151.290064">
  <ele>343.01</ele>
  <time>2026-09-01T01:11:24Z</time>
  <course>45.17</course>
  <speed>0.03</speed>
  <fix>3d</fix>
</trkpt>
<trkpt lat="-27.274439" lon="151.290064">
  <ele>343.0</ele>
  <time>2026-09-01T01:11:24Z</time>
  <course>0.0</course>
  <speed>0.0</speed>
  <fix>3d</fix>
</trkpt>
<trkpt lat="-27.2744392" lon="151.290064">
  <ele>343.01</ele>
  <time>2026-09-01T01:11:24Z</time>
  <course>44.97</course>
  <speed>0.03</speed>
  <fix>3d</fix>
</trkpt>
<trkpt lat="-27.274439" lon="151.290064">
  <ele>343.0</ele>
  <time>2026-09-01T01:11:24Z</time>
  <course>0.0</course>
  <speed>0.0</speed>
  <fix>3d</fix>
</trkpt>
<trkpt lat="-27.2744392" lon="151.290064">
  <ele>343.0</ele>
  <time>2026-09-01T01:11:24Z</time>
  <course>44.92</course>
  <speed>0.03</speed>
  <fix>3d</fix>
</trkpt>
<trkpt lat="-27.274439" lon="151.290064">
  <ele>343.0</ele>
  <time>2026-09-01T01:11:24Z</time>
  <course>0.0</course>
  <speed>0.0</speed>
  <fix>3d</fix>
</trkpt>
<trkpt lat="-27.2744392" lon="151.290064">
  <ele>343.01</ele>
  <time>2026-09-01T01:11:24Z</time>
  <course>45.0</course>
  <speed>0.03</speed>
  <fix>3d</fix>
</trkpt>
<trkpt lat="-27.274439" lon="151.290064">
  <ele>343.0</ele>
  <time>2026-09-01T01:11:24Z</time>
  <course>0.0</course>
  <speed>0.0</speed>
  <fix>3d</fix>
</trkpt>
<trkpt lat="-27.2744393" lon="151.290064">
  <ele>343.0</ele>
  <time>2026-09-01T01:11:24Z</time>
  <course>45.0</course>
  <speed>0.03</speed>
  <fix>3d</fix>
</trkpt>
<trkpt lat="-27.274439" lon="151.290064">
  <ele>343.0</ele>
  <time>2026-09-01T01:11:24Z</time>
  <course>0.0</course>
  <speed>0.0</speed>
  <fix>3d</fix>
</trkpt>
<trkpt lat="-27.2744392" lon="151.290064">
  <ele>343.01</ele>
  <time>2026-09-01T01:11:24Z</time>
  <course>37.12</course>
  <speed>0.03</speed>
  <fix>3d</fix>
</trkpt>
<trkpt lat="-27.274439" lon="151.290064">
  <ele>343.0</ele>
  <time>2026-09-01T01:11:24Z</time>
  <course>0.0</course>
  <speed>0.0</speed>
  <fix>3d</fix>
</trkpt>
<trkpt lat="-27.2744392" lon="151.290064">
  <ele>343.07</ele>
  <time>2026-09-01T01:11:24Z</time>
  <course>28.0</course>
  <speed>0.02</speed>
  <fix>3d</fix>
</trkpt>
<trkpt lat="-27.274439" lon="151.290064">
  <ele>343.0</ele>
  <time>2026-09-01T01:11:24Z</time>
  <course>0.0</course>
  <speed>0.0</speed>
  <fix>3d</fix>
</trkpt>
<trkpt lat="-27.2744392" lon="151.290064">
  <ele>343.12</ele>
  <time>2026-09-01T01:11:24Z</time>
  <course>18.9</course>
  <speed>0.02</speed>
  <fix>3d</fix>
</trkpt>
<trkpt lat="-27.274439" lon="151.290064">
  <ele>343.0</ele>
  <time>2026-09-01T01:11:24Z</time>
  <course>0.0</course>
  <speed>0.0</speed>
  <fix>3d</fix>
</trkpt>
<trkpt lat="-27.2744392" lon="151.290064">
  <ele>343.15</ele>
  <time>2026-09-01T01:11:24Z</time>
  <course>9.85</course>
  <speed>0.01</speed>
  <fix>3d</fix>
</trkpt>
<trkpt lat="-27.274439" lon="151.290064">
  <ele>343.0</ele>
  <time>2026-09-01T01:11:24Z</time>
  <course>0.0</course>
  <speed>0.0</speed>
  <fix>3d</fix>
</trkpt>
<trkpt lat="-27.274439" lon="151.290064">
  <ele>343.0</ele>
  <time>2026-09-01T01:11:25Z</time>
  <course>325.88</course>
  <speed>0.0</speed>
  <fix>3d</fix>
</trkpt>
<trkpt lat="-27.274439" lon="151.290064">
  <ele>343.0</ele>
  <time>2026-09-01T01:11:25Z</time>
  <course>324.43</course>
  <speed>0.0</speed>
  <fix>3d</fix>
</trkpt>
<trkpt lat="-27.274439" lon="151.290064">
  <ele>343.0</ele>
  <time>2026-09-01T01:11:25Z</time>
  <course>321.86</course>
  <speed>0.0</speed>
  <fix>3d</fix>
</trkpt>
<trkpt lat="-27.274439" lon="151.290064">
  <ele>343.0</ele>
  <time>2026-09-01T01:11:25Z</time>
  <course>295.0</course>
  <speed>0.0</speed>
  <fix>3d</fix>
</trkpt>
<trkpt lat="-27.274439" lon="151.290064">
  <ele>343.0</ele>
  <time>2026-09-01T01:11:25Z</time>
  <course>290.72</course>
  <speed>0.0</speed>
  <fix>3d</fix>
</trkpt>
<trkpt lat="-27.274439" lon="151.290064">
  <ele>343.0</ele>
  <time>2026-09-01T01:11:25Z</time>
  <course>284.84</course>
  <speed>0.0</speed>
  <fix>3d</fix>
</trkpt>
<trkpt lat="-27.274439" lon="151.290064">
  <ele>343.0</ele>
  <time>2026-09-01T01:11:25Z</time>
  <course>277.79</course>
  <speed>0.0</speed>
  <fix>3d</fix>
</trkpt>
<trkpt lat="-27.274439" lon="151.290064">
  <ele>343.0</ele>
  <time>2026-09-01T01:11:25Z</time>
  <course>269.55</course>
  <speed>0.0</speed>
  <fix>3d</fix>
</trkpt>
<trkpt lat="-27.274439" lon="151.290064">
  <ele>343.0</ele>
  <time>2026-09-01T01:11:25Z</time>
  <course>262.16</course>
  <speed>0.9176055797563569</speed>
  <fix>3d</fix>
</trkpt>
<trkpt lat="-27.274439" lon="151.290064">
  <ele>343.0</ele>
  <time>2026-09-01T01:11:25Z</time>
  <course>0.0</course>
  <speed>0.0</speed>
  <fix>3d</fix>
</trkpt>
<trkpt lat="-27.274439" lon="151.290064">
  <ele>343.0</ele>
  <time>2026-09-01T01:11:25Z</time>
  <course>256.4</course>
  <speed>0.9403190947758107</speed>
  <fix>3d</fix>
</trkpt>
<trkpt lat="-27.274439" lon="151.290064">
  <ele>343.0</ele>
  <time>2026-09-01T01:11:25Z</time>
  <course>0.0</course>
  <speed>0.0</speed>
  <fix>3d</fix>
</trkpt>
<trkpt lat="-27.274439" lon="151.290064">
  <ele>343.0</ele>
  <time>2026-09-01T01:11:25Z</time>
  <course>249.45</course>
  <speed>0.756042326857432</speed>
  <fix>3d</fix>
</trkpt>
<trkpt lat="-27.274439" lon="151.290064">
  <ele>343.0</ele>
  <time>2026-09-01T01:11:25Z</time>
  <course>0.0</course>
  <speed>0.0</speed>
  <fix>3d</fix>
</trkpt>
<trkpt lat="-27.274439" lon="151.290064">
  <ele>343.0</ele>
  <time>2026-09-01T01:11:25Z</time>
  <course>241.79</course>
  <speed>0.6596969000988256</speed>
  <fix>3d</fix>
</trkpt>
<trkpt lat="-27.274439" lon="151.290064">
  <ele>343.0</ele>
  <time>2026-09-01T01:11:25Z</time>
  <course>0.0</course>
  <speed>0.0</speed>
  <fix>3d</fix>
</trkpt>
<trkpt lat="-27.274439" lon="151.290064">
  <ele>343.0</ele>
  <time>2026-09-01T01:11:25Z</time>
  <course>233.59</course>
  <speed>0.6618912297349165</speed>
  <fix>3d</fix>
</trkpt>
<trkpt lat="-27.274439" lon="151.290064">
  <ele>343.0</ele>
  <time>2026-09-01T01:11:25Z</time>
  <course>0.0</course>
  <speed>0.0</speed>
  <fix>3d</fix>
</trkpt>
<trkpt lat="-27.274439" lon="151.290064">
  <ele>343.0</ele>
  <time>2026-09-01T01:11:25Z</time>
  <course>225.02</course>
  <speed>0.7034202158027589</speed>
  <fix>3d</fix>
</trkpt>
<trkpt lat="-27.274439" lon="151.290064">
  <ele>343.0</ele>
  <time>2026-09-01T01:11:25Z</time>
  <course>0.0</course>
  <speed>0.0</speed>
  <fix>3d</fix>
</trkpt>
<trkpt lat="-27.274439" lon="151.290064">
  <ele>343.0</ele>
  <time>2026-09-01T01:11:25Z</time>
  <course>207.13</course>
  <speed>0.8052949770115296</speed>
  <fix>3d</fix>
</trkpt>
<trkpt lat="-27.274439" lon="151.290064">
  <ele>343.0</ele>
  <time>2026-09-01T01:11:25Z</time>
  <course>0.0</course>
  <speed>0.0</speed>
  <fix>3d</fix>
</trkpt>
<trkpt lat="-27.274439" lon="151.290064">
  <ele>343.0</ele>
  <time>2026-09-01T01:11:25Z</time>
  <course>197.95</course>
  <speed>0.8453401682163222</speed>
  <fix>3d</fix>
</trkpt>
<trkpt lat="-27.274439" lon="151.290064">
  <ele>343.0</ele>
  <time>2026-09-01T01:11:25Z</time>
  <course>0.0</course>
  <speed>0.0</speed>
  <fix>3d</fix>
</trkpt>
<trkpt lat="-27.274439" lon="151.290064">
  <ele>343.0</ele>
  <time>2026-09-01T01:11:25Z</time>
  <course>188.67</course>
  <speed>0.878179936004006</speed>
  <fix>3d</fix>
</trkpt>
<trkpt lat="-27.274439" lon="151.290064">
  <ele>343.0</ele>
  <time>2026-09-01T01:11:25Z</time>
  <course>0.0</course>
  <speed>0.0</speed>
  <fix>3d</fix>
</trkpt>
<trkpt lat="-27.274439" lon="151.290064">
  <ele>343.0</ele>
  <time>2026-09-01T01:11:25Z</time>
  <course>179.31</course>
  <speed>0.8848163651289458</speed>
  <fix>3d</fix>
</trkpt>
<trkpt lat="-27.274439" lon="151.290064">
  <ele>343.0</ele>
  <time>2026-09-01T01:11:25Z</time>
  <course>0.0</course>
  <speed>0.0</speed>
  <fix>3d</fix>
</trkpt>
<trkpt lat="-27.274439" lon="151.290064">
  <ele>343.0</ele>
  <time>2026-09-01T01:11:25Z</time>
  <course>169.93</course>
  <speed>0.9140021881811882</speed>
  <fix>3d</fix>
</trkpt>
<trkpt lat="-27.274439" lon="151.290064">
  <ele>343.0</ele>
  <time>2026-09-01T01:11:25Z</time>
  <course>0.0</course>
  <speed>0.0</speed>
  <fix>3d</fix>
</trkpt>
<trkpt lat="-27.274439" lon="151.290064">
  <ele>343.0</ele>
  <time>2026-09-01T01:11:25Z</time>
  <course>161.9</course>
  <speed>0.9219544457292888</speed>
  <fix>3d</fix>
</trkpt>
<trkpt lat="-27.274439" lon="151.290064">
  <ele>343.0</ele>
  <time>2026-09-01T01:11:25Z</time>
  <course>0.0</course>
  <speed>0.0</speed>
  <fix>3d</fix>
</trkpt>
<trkpt lat="-27.274439" lon="151.290064">
  <ele>343.0</ele>
  <time>2026-09-01T01:11:25Z</time>
  <course>158.55</course>
  <speed>0.9411163583744573</speed>
  <fix>3d</fix>
</trkpt>
<trkpt lat="-27.274439" lon="151.290064">
  <ele>343.0</ele>
  <time>2026-09-01T01:11:25Z</time>
  <course>0.0</course>
  <speed>0.0</speed>
  <fix>3d</fix>
</trkpt>
<trkpt lat="-27.274439" lon="151.290064">
  <ele>343.0</ele>
  <time>2026-09-01T01:11:25Z</time>
  <course>165.98</course>
  <speed>0.9546203433826455</speed>
  <fix>3d</fix>
</trkpt>
<trkpt lat="-27.274439" lon="151.290064">
  <ele>343.0</ele>
  <time>2026-09-01T01:11:25Z</time>
  <course>0.0</course>
  <speed>0.0</speed>
  <fix>3d</fix>
</trkpt>
<trkpt lat="-27.274439" lon="151.290064">
  <ele>343.0</ele>
  <time>2026-09-01T01:11:25Z</time>
  <course>173.21</course>
  <speed>0.9567131231461183</speed>
  <fix>3d</fix>
</trkpt>
<trkpt lat="-27.274439" lon="151.290064">
  <ele>343.0</ele>
  <time>2026-09-01T01:11:25Z</time>
  <course>0.0</course>
  <speed>0.0</speed>
  <fix>3d</fix>
</trkpt>
<trkpt lat="-27.274439" lon="151.290064">
  <ele>343.0</ele>
  <time>2026-09-01T01:11:25Z</time>
  <course>175.87</course>
  <speed>0.9640020746865642</speed>
  <fix>3d</fix>
</trkpt>
<trkpt lat="-27.274439" lon="151.290064">
  <ele>343.0</ele>
  <time>2026-09-01T01:11:25Z</time>
  <course>0.0</course>
  <speed>0.0</speed>
  <fix>3d</fix>
</trkpt>
<trkpt lat="-27.274439" lon="151.290064">
  <ele>343.0</ele>
  <time>2026-09-01T01:11:25Z</time>
  <course>176.68</course>
  <speed>0.9596353474106714</speed>
  <fix>3d</fix>
</trkpt>
<trkpt lat="-27.274439" lon="151.290064">
  <ele>343.0</ele>
  <time>2026-09-01T01:11:25Z</time>
  <course>0.0</course>
  <speed>0.0</speed>
  <fix>3d</fix>
</trkpt>
<trkpt lat="-27.274439" lon="151.290064">
  <ele>343.0</ele>
  <time>2026-09-01T01:11:25Z</time>
  <course>184.73</course>
  <speed>0.9656603957913983</speed>
  <fix>3d</fix>
</trkpt>
<trkpt lat="-27.274439" lon="151.290064">
  <ele>343.0</ele>
  <time>2026-09-01T01:11:25Z</time>
  <course>0.0</course>
  <speed>0.0</speed>
  <fix>3d</fix>
</trkpt>
<trkpt lat="-27.274439" lon="151.290064">
  <ele>343.0</ele>
  <time>2026-09-01T01:11:25Z</time>
  <course>193.62</course>
  <speed>0.9794386147176352</speed>
  <fix>3d</fix>
</trkpt>
<trkpt lat="-27.274439" lon="151.290064">
  <ele>343.0</ele>
  <time>2026-09-01T01:11:25Z</time>
  <course>0.0</course>
  <speed>0.0</speed>
  <fix>3d</fix>
</trkpt>
<trkpt lat="-27.274439" lon="151.290064">
  <ele>343.0</ele>
  <time>2026-09-01T01:11:25Z</time>
  <course>202.5</course>
  <speed>0.9741663102366043</speed>
  <fix>3d</fix>
</trkpt>
<trkpt lat="-27.274439" lon="151.290064">
  <ele>343.0</ele>
  <time>2026-09-01T01:11:25Z</time>
  <course>0.0</course>
  <speed>0.0</speed>
  <fix>3d</fix>
</trkpt>
<trkpt lat="-27.274439" lon="151.290064">
  <ele>343.0</ele>
  <time>2026-09-01T01:11:25Z</time>
  <course>211.38</course>
  <speed>0.9501578816175763</speed>
  <fix>3d</fix>
</trkpt>
<trkpt lat="-27.274439" lon="151.290064">
  <ele>343.0</ele>
  <time>2026-09-01T01:11:25Z</time>
  <course>0.0</course>
  <speed>0.0</speed>
  <fix>3d</fix>
</trkpt>
<trkpt lat="-27.274439" lon="151.290064">
  <ele>343.0</ele>
  <time>2026-09-01T01:11:25Z</time>
  <course>220.25</course>
  <speed>0.885889383614004</speed>
  <fix>3d</fix>
</trkpt>
<trkpt lat="-27.274439" lon="151.290064">
  <ele>343.0</ele>
  <time>2026-09-01T01:11:25Z</time>
  <course>0.0</course>
  <speed>0.0</speed>
  <fix>3d</fix>
</trkpt>
<trkpt lat="-27.274439" lon="151.290064">
  <ele>343.0</ele>
  <time>2026-09-01T01:11:25Z</time>
  <course>227.7</course>
  <speed>0.8139410298049853</speed>
  <fix>3d</fix>
</trkpt>
<trkpt lat="-27.274439" lon="151.290064">
  <ele>343.0</ele>
  <time>2026-09-01T01:11:25Z</time>
  <course>0.0</course>
  <speed>0.0</speed>
  <fix>3d</fix>
</trkpt>
<trkpt lat="-27.274439" lon="151.290064">
  <ele>343.0</ele>
  <time>2026-09-01T01:11:25Z</time>
  <course>230.53</course>
  <speed>0.7382411530116699</speed>
  <fix>3d</fix>
</trkpt>
<trkpt lat="-27.274439" lon="151.290064">
  <ele>343.0</ele>
  <time>2026-09-01T01:11:25Z</time>
  <course>0.0</course>
  <speed>0.0</speed>
  <fix>3d</fix>
</trkpt>
<trkpt lat="-27.274439" lon="151.290064">
  <ele>343.0</ele>
  <time>2026-09-01T01:11:25Z</time>
  <course>231.4</course>
  <speed>0.6762396025078685</speed>
  <fix>3d</fix>
</trkpt>
<trkpt lat="-27.274439" lon="151.290064">
  <ele>343.0</ele>
  <time>2026-09-01T01:11:25Z</time>
  <course>0.0</course>
  <speed>0.0</speed>
  <fix>3d</fix>
</trkpt>
<trkpt lat="-27.274439" lon="151.290064">
  <ele>343.0</ele>
  <time>2026-09-01T01:11:25Z</time>
  <course>231.54</course>
  <speed>0.5923681287847955</speed>
  <fix>3d</fix>
</trkpt>
<trkpt lat="-27.274439" lon="151.290064">
  <ele>343.0</ele>
  <time>2026-09-01T01:11:25Z</time>
  <course>0.0</course>
  <speed>0.0</speed>
  <fix>3d</fix>
</trkpt>
<trkpt lat="-27.274439" lon="151.290064">
  <ele>343.0</ele>
  <time>2026-09-01T01:11:25Z</time>
  <course>231.44</course>
  <speed>0.5348831648126533</speed>
  <fix>3d</fix>
</trkpt>
<trkpt lat="-27.274439" lon="151.290064">
  <ele>343.0</ele>
  <time>2026-09-01T01:11:25Z</time>
  <course>0.0</course>
  <speed>0.0</speed>
  <fix>3d</fix>
</trkpt>
<trkpt lat="-27.274439" lon="151.290064">
  <ele>343.0</ele>
  <time>2026-09-01T01:11:25Z</time>
  <course>231.25</course>
  <speed>0.48466483264210536</speed>
  <fix>3d</fix>
</trkpt>
<trkpt lat="-27.274439" lon="151.290064">
  <ele>343.0</ele>
  <time>2026-09-01T01:11:25Z</time>
  <course>0.0</course>
  <speed>0.0</speed>
  <fix>3d</fix>
</trkpt>
<trkpt lat="-27.274439" lon="151.290064">
  <ele>343.0</ele>
  <time>2026-09-01T01:11:25Z</time>
  <course>231.03</course>
  <speed>0.44944410108488464</speed>
  <fix>3d</fix>
</trkpt>
<trkpt lat="-27.274439" lon="151.290064">
  <ele>343.0</ele>
  <time>2026-09-01T01:11:25Z</time>
  <course>0.0</course>
  <speed>0.0</speed>
  <fix>3d</fix>
</trkpt>
<trkpt lat="-27.274439" lon="151.290064">
  <ele>343.0</ele>
  <time>2026-09-01T01:11:25Z</time>
  <course>230.82</course>
  <speed>0.41785164831552357</speed>
  <fix>3d</fix>
</trkpt>
<trkpt lat="-27.274439" lon="151.290064">
  <ele>343.0</ele>
  <time>2026-09-01T01:11:25Z</time>
  <course>0.0</course>
  <speed>0.0</speed>
  <fix>3d</fix>
</trkpt>
<trkpt lat="-27.2744392" lon="151.2900647">
  <ele>343.04</ele>
  <time>2026-09-01T01:11:25Z</time>
  <course>230.61</course>
  <speed>0.0</speed>
  <fix>3d</fix>
</trkpt>
<trkpt lat="-27.274439" lon="151.290064">
  <ele>343.0</ele>
  <time>2026-09-01T01:11:25Z</time>
  <course>0.0</course>
  <speed>0.0</speed>
  <fix>3d</fix>
</trkpt>
<trkpt lat="-27.2744393" lon="151.2900648">
  <ele>343.03</ele>
  <time>2026-09-01T01:11:25Z</time>
  <course>230.42</course>
  <speed>0.03605551275463989</speed>
  <fix>3d</fix>
</trkpt>
<trkpt lat="-27.274439" lon="151.290064">
  <ele>343.0</ele>
  <time>2026-09-01T01:11:25Z</time>
  <course>0.0</course>
  <speed>0.0</speed>
  <fix>3d</fix>
</trkpt>
<trkpt lat="-27.2744391" lon="151.2900643">
  <ele>343.01</ele>
  <time>2026-09-01T01:11:25Z</time>
  <course>230.21</course>
  <speed>0.03605551275463989</speed>
  <fix>3d</fix>
</trkpt>
<trkpt lat="-27.274439" lon="151.290064">
  <ele>343.0</ele>
  <time>2026-09-01T01:11:25Z</time>
  <course>0.0</course>
  <speed>0.0</speed>
  <fix>3d</fix>
</trkpt>
<trkpt lat="-27.274439" lon="151.2900642">
  <ele>343.02</ele>
  <time>2026-09-01T01:11:25Z</time>
  <course>230.0</course>
  <speed>0.022360679774997897</speed>
  <fix>3d</fix>
</trkpt>
<trkpt lat="-27.274439" lon="151.290064">
  <ele>343.0</ele>
  <time>2026-09-01T01:11:25Z</time>
  <course>0.0</course>
  <speed>0.0</speed>
  <fix>3d</fix>
</trkpt>
<trkpt lat="-27.274439" lon="151.2900641">
  <ele>343.05</ele>
  <time>2026-09-01T01:11:25Z</time>
  <course>229.79</course>
  <speed>0.02</speed>
  <fix>3d</fix>
</trkpt>
<trkpt lat="-27.274439" lon="151.290064">
  <ele>343.0</ele>
  <time>2026-09-01T01:11:25Z</time>
  <course>0.0</course>
  <speed>0.0</speed>
  <fix>3d</fix>
</trkpt>
<trkpt lat="-27.274439" lon="151.2900641">
  <ele>343.04</ele>
  <time>2026-09-01T01:11:25Z</time>
  <course>229.61</course>
  <speed>0.02</speed>
  <fix>3d</fix>
</trkpt>
<trkpt lat="-27.274439" lon="151.290064">
  <ele>343.0</ele>
  <time>2026-09-01T01:11:25Z</time>
  <course>0.0</course>
  <speed>0.0</speed>
  <fix>3d</fix>
</trkpt>
<trkpt lat="-27.2744389" lon="151.2900641">
  <ele>343.03</ele>
  <time>2026-09-01T01:11:25Z</time>
  <course>229.42</course>
  <speed>0.02</speed>
  <fix>3d</fix>
</trkpt>
<trkpt lat="-27.274439" lon="151.290064">
  <ele>343.0</ele>
  <time>2026-09-01T01:11:25Z</time>
  <course>0.0</course>
  <speed>0.0</speed>
  <fix>3d</fix>
</trkpt>
<trkpt lat="-27.2744389" lon="151.2900641">
  <ele>343.03</ele>
  <time>2026-09-01T01:11:25Z</time>
  <course>229.25</course>
  <speed>0.022360679774997897</speed>
  <fix>3d</fix>
</trkpt>
<trkpt lat="-27.274439" lon="151.290064">
  <ele>343.0</ele>
  <time>2026-09-01T01:11:25Z</time>
  <course>0.0</course>
  <speed>0.0</speed>
  <fix>3d</fix>
</trkpt>
<trkpt lat="-27.2744388" lon="151.2900641">
  <ele>343.04</ele>
  <time>2026-09-01T01:11:25Z</time>
  <course>229.08</course>
  <speed>0.0316227766016838</speed>
  <fix>3d</fix>
</trkpt>
<trkpt lat="-27.274439" lon="151.290064">
  <ele>343.0</ele>
  <time>2026-09-01T01:11:25Z</time>
  <course>0.0</course>
  <speed>0.0</speed>
  <fix>3d</fix>
</trkpt>
<trkpt lat="-27.2744388" lon="151.2900641">
  <ele>343.03</ele>
  <time>2026-09-01T01:11:26Z</time>
  <course>228.78</course>
  <speed>0.022360679774997897</speed>
  <fix>3d</fix>
</trkpt>
<trkpt lat="-27.274439" lon="151.290064">
  <ele>343.0</ele>
  <time>2026-09-01T01:11:26Z</time>
  <course>0.0</course>
  <speed>0.0</speed>
  <fix>3d</fix>
</trkpt>
<trkpt lat="-27.2744388" lon="151.2900641">
  <ele>343.04</ele>
  <time>2026-09-01T01:11:26Z</time>
  <course>228.63</course>
  <speed>0.0282842712474619</speed>
  <fix>3d</fix>
</trkpt>
<trkpt lat="-27.274439" lon="151.290064">
  <ele>343.0</ele>
  <time>2026-09-01T01:11:26Z</time>
  <course>0.0</course>
  <speed>0.0</speed>
  <fix>3d</fix>
</trkpt>
<trkpt lat="-27.2744388" lon="151.2900641">
  <ele>343.03</ele>
  <time>2026-09-01T01:11:26Z</time>
  <course>236.59</course>
  <speed>0.0282842712474619</speed>
  <fix>3d</fix>
</trkpt>
<trkpt lat="-27.274439" lon="151.290064">
  <ele>343.0</ele>
  <time>2026-09-01T01:11:26Z</time>
  <course>0.0</course>
  <speed>0.0</speed>
  <fix>3d</fix>
</trkpt>
<trkpt lat="-27.2744389" lon="151.2900641">
  <ele>343.05</ele>
  <time>2026-09-01T01:11:26Z</time>
  <course>245.47</course>
  <speed>0.0282842712474619</speed>
  <fix>3d</fix>
</trkpt>
<trkpt lat="-27.274439" lon="151.290064">
  <ele>343.0</ele>
  <time>2026-09-01T01:11:26Z</time>
  <course>0.0</course>
  <speed>0.0</speed>
  <fix>3d</fix>
</trkpt>
<trkpt lat="-27.2744389" lon="151.2900641">
  <ele>343.04</ele>
  <time>2026-09-01T01:11:26Z</time>
  <course>254.36</course>
  <speed>0.022360679774997897</speed>
  <fix>3d</fix>
</trkpt>
<trkpt lat="-27.274439" lon="151.290064">
  <ele>343.0</ele>
  <time>2026-09-01T01:11:26Z</time>
  <course>0.0</course>
  <speed>0.0</speed>
  <fix>3d</fix>
</trkpt>
<trkpt lat="-27.2744389" lon="151.2900641">
  <ele>343.03</ele>
  <time>2026-09-01T01:11:26Z</time>
  <course>263.29</course>
  <speed>0.01414213562373095</speed>
  <fix>3d</fix>
</trkpt>
<trkpt lat="-27.274439" lon="151.290064">
  <ele>343.0</ele>
  <time>2026-09-01T01:11:26Z</time>
  <course>0.0</course>
  <speed>0.0</speed>
  <fix>3d</fix>
</trkpt>
<trkpt lat="-27.2744389" lon="151.2900641">
  <ele>343.01</ele>
  <time>2026-09-01T01:11:26Z</time>
  <course>269.54</course>
  <speed>0.01</speed>
  <fix>3d</fix>
</trkpt>
<trkpt lat="-27.274439" lon="151.290064">
  <ele>343.0</ele>
  <time>2026-09-01T01:11:26Z</time>
  <course>0.0</course>
  <speed>0.0</speed>
  <fix>3d</fix>
</trkpt>
<trkpt lat="-27.2744389" lon="151.2900641">
  <ele>343.02</ele>
  <time>2026-09-01T01:11:26Z</time>
  <course>278.08</course>
  <speed>0.0</speed>
  <fix>3d</fix>
</trkpt>
<trkpt lat="-27.274439" lon="151.290064">
  <ele>343.0</ele>
  <time>2026-09-01T01:11:26Z</time>
  <course>0.0</course>
  <speed>0.0</speed>
  <fix>3d</fix>
</trkpt>
<trkpt lat="-27.2744389" lon="151.2900641">
  <ele>343.05</ele>
  <time>2026-09-01T01:11:26Z</time>
  <course>287.07</course>
  <speed>0.0</speed>
  <fix>3d</fix>
</trkpt>
<trkpt lat="-27.274439" lon="151.290064">
  <ele>343.0</ele>
  <time>2026-09-01T01:11:26Z</time>
  <course>0.0</course>
  <speed>0.0</speed>
  <fix>3d</fix>
</trkpt>
<trkpt lat="-27.2744389" lon="151.2900641">
  <ele>343.05</ele>
  <time>2026-09-01T01:11:26Z</time>
  <course>296.1</course>
  <speed>0.0</speed>
  <fix>3d</fix>
</trkpt>
<trkpt lat="-27.274439" lon="151.290064">
  <ele>343.0</ele>
  <time>2026-09-01T01:11:26Z</time>
  <course>0.0</course>
  <speed>0.0</speed>
  <fix>3d</fix>
</trkpt>
<trkpt lat="-27.2744389" lon="151.2900641">
  <ele>343.05</ele>
  <time>2026-09-01T01:11:26Z</time>
  <course>288.77</course>
  <speed>0.0</speed>
  <fix>3d</fix>
</trkpt>
<trkpt lat="-27.274439" lon="151.290064">
  <ele>343.0</ele>
  <time>2026-09-01T01:11:26Z</time>
  <course>0.0</course>
  <speed>0.0</speed>
  <fix>3d</fix>
</trkpt>
<trkpt lat="-27.2744389" lon="151.2900641">
  <ele>343.05</ele>
  <time>2026-09-01T01:11:26Z</time>
  <course>279.58</course>
  <speed>0.01</speed>
  <fix>3d</fix>
</trkpt>
<trkpt lat="-27.274439" lon="151.290064">
  <ele>343.0</ele>
  <time>2026-09-01T01:11:26Z</time>
  <course>0.0</course>
  <speed>0.0</speed>
  <fix>3d</fix>
</trkpt>
<trkpt lat="-27.2744389" lon="151.2900641">
  <ele>343.03</ele>
  <time>2026-09-01T01:11:26Z</time>
  <course>270.39</course>
  <speed>0.03605551275463989</speed>
  <fix>3d</fix>
</trkpt>
<trkpt lat="-27.274439" lon="151.290064">
  <ele>343.0</ele>
  <time>2026-09-01T01:11:26Z</time>
  <course>0.0</course>
  <speed>0.0</speed>
  <fix>3d</fix>
</trkpt>
<trkpt lat="-27.2744389" lon="151.2900642">
  <ele>343.02</ele>
  <time>2026-09-01T01:11:26Z</time>
  <course>261.23</course>
  <speed>0.04242640687119285</speed>
  <fix>3d</fix>
</trkpt>
<trkpt lat="-27.274439" lon="151.290064">
  <ele>343.0</ele>
  <time>2026-09-01T01:11:26Z</time>
  <course>0.0</course>
  <speed>0.0</speed>
  <fix>3d</fix>
</trkpt>
<trkpt lat="-27.2744387" lon="151.2900643">
  <ele>343.04</ele>
  <time>2026-09-01T01:11:26Z</time>
  <course>252.11</course>
  <speed>0.0565685424949238</speed>
  <fix>3d</fix>
</trkpt>
<trkpt lat="-27.274439" lon="151.290064">
  <ele>343.0</ele>
  <time>2026-09-01T01:11:26Z</time>
  <course>0.0</course>
  <speed>0.0</speed>
  <fix>3d</fix>
</trkpt>
<trkpt lat="-27.2744387" lon="151.2900643">
  <ele>343.03</ele>
  <time>2026-09-01T01:11:26Z</time>
  <course>242.99</course>
  <speed>0.05830951894845301</speed>
  <fix>3d</fix>
</trkpt>
<trkpt lat="-27.274439" lon="151.290064">
  <ele>343.0</ele>
  <time>2026-09-01T01:11:26Z</time>
  <course>0.0</course>
  <speed>0.0</speed>
  <fix>3d</fix>
</trkpt>
<trkpt lat="-27.2744386" lon="151.2900643">
  <ele>343.04</ele>
  <time>2026-09-01T01:11:26Z</time>
  <course>233.87</course>
  <speed>0.05830951894845301</speed>
  <fix>3d</fix>
</trkpt>
<trkpt lat="-27.274439" lon="151.290064">
  <ele>343.0</ele>
  <time>2026-09-01T01:11:26Z</time>
  <course>0.0</course>
  <speed>0.0</speed>
  <fix>3d</fix>
</trkpt>
<trkpt lat="-27.2744387" lon="151.2900642">
  <ele>343.02</ele>
  <time>2026-09-01T01:11:26Z</time>
  <course>224.71</course>
  <speed>0.044721359549995794</speed>
  <fix>3d</fix>
</trkpt>
<trkpt lat="-27.274439" lon="151.290064">
  <ele>343.0</ele>
  <time>2026-09-01T01:11:26Z</time>
  <course>0.0</course>
  <speed>0.0</speed>
  <fix>3d</fix>
</trkpt>
<trkpt lat="-27.2744387" lon="151.2900642">
  <ele>343.01</ele>
  <time>2026-09-01T01:11:26Z</time>
  <course>215.55</course>
  <speed>0.0412310562561766</speed>
  <fix>3d</fix>
</trkpt>
<trkpt lat="-27.274439" lon="151.290064">
  <ele>343.0</ele>
  <time>2026-09-01T01:11:26Z</time>
  <course>0.0</course>
  <speed>0.0</speed>
  <fix>3d</fix>
</trkpt>
<trkpt lat="-27.2744388" lon="151.2900641">
  <ele>343.02</ele>
  <time>2026-09-01T01:11:26Z</time>
  <course>222.77</course>
  <speed>0.03</speed>
  <fix>3d</fix>
</trkpt>
<trkpt lat="-27.274439" lon="151.290064">
  <ele>343.0</ele>
  <time>2026-09-01T01:11:26Z</time>
  <course>0.0</course>
  <speed>0.0</speed>
  <fix>3d</fix>
</trkpt>
<trkpt lat="-27.2744388" lon="151.290064">
  <ele>343.02</ele>
  <time>2026-09-01T01:11:26Z</time>
  <course>231.87</course>
  <speed>0.03</speed>
  <fix>3d</fix>
</trkpt>
<trkpt lat="-27.274439" lon="151.290064">
  <ele>343.0</ele>
  <time>2026-09-01T01:11:26Z</time>
  <course>0.0</course>
  <speed>0.0</speed>
  <fix>3d</fix>
</trkpt>
<trkpt lat="-27.2744388" lon="151.290064">
  <ele>343.0</ele>
  <time>2026-09-01T01:11:26Z</time>
  <course>240.98</course>
  <speed>0.03</speed>
  <fix>3d</fix>
</trkpt>
<trkpt lat="-27.274439" lon="151.290064">
  <ele>343.0</ele>
  <time>2026-09-01T01:11:26Z</time>
  <course>0.0</course>
  <speed>0.0</speed>
  <fix>3d</fix>
</trkpt>
<trkpt lat="-27.2744388" lon="151.290064">
  <ele>343.0</ele>
  <time>2026-09-01T01:11:26Z</time>
  <course>233.61</course>
  <speed>0.03</speed>
  <fix>3d</fix>
</trkpt>
<trkpt lat="-27.274439" lon="151.290064">
  <ele>343.0</ele>
  <time>2026-09-01T01:11:26Z</time>
  <course>0.0</course>
  <speed>0.0</speed>
  <fix>3d</fix>
</trkpt>
<trkpt lat="-27.2744388" lon="151.290064">
  <ele>343.01</ele>
  <time>2026-09-01T01:11:26Z</time>
  <course>224.33</course>
  <speed>0.03</speed>
  <fix>3d</fix>
</trkpt>
<trkpt lat="-27.274439" lon="151.290064">
  <ele>343.0</ele>
  <time>2026-09-01T01:11:26Z</time>
  <course>0.0</course>
  <speed>0.0</speed>
  <fix>3d</fix>
</trkpt>
<trkpt lat="-27.2744387" lon="151.290064">
  <ele>342.99</ele>
  <time>2026-09-01T01:11:26Z</time>
  <course>215.0</course>
  <speed>0.03</speed>
  <fix>3d</fix>
</trkpt>
<trkpt lat="-27.274439" lon="151.290064">
  <ele>343.0</ele>
  <time>2026-09-01T01:11:26Z</time>
  <course>0.0</course>
  <speed>0.0</speed>
  <fix>3d</fix>
</trkpt>
<trkpt lat="-27.2744387" lon="151.290064">
  <ele>342.99</ele>
  <time>2026-09-01T01:11:26Z</time>
  <course>205.75</course>
  <speed>0.03</speed>
  <fix>3d</fix>
</trkpt>
<trkpt lat="-27.274439" lon="151.290064">
  <ele>343.0</ele>
  <time>2026-09-01T01:11:26Z</time>
  <course>0.0</course>
  <speed>0.0</speed>
  <fix>3d</fix>
</trkpt>
<trkpt lat="-27.2744387" lon="151.290064">
  <ele>342.99</ele>
  <time>2026-09-01T01:11:26Z</time>
  <course>196.54</course>
  <speed>0.0316227766016838</speed>
  <fix>3d</fix>
</trkpt>
<trkpt lat="-27.274439" lon="151.290064">
  <ele>343.0</ele>
  <time>2026-09-01T01:11:26Z</time>
  <course>0.0</course>
  <speed>0.0</speed>
  <fix>3d</fix>
</trkpt>
<trkpt lat="-27.2744388" lon="151.2900639">
  <ele>343.01</ele>
  <time>2026-09-01T01:11:26Z</time>
  <course>187.39</course>
  <speed>0.0316227766016838</speed>
  <fix>3d</fix>
</trkpt>
<trkpt lat="-27.274439" lon="151.290064">
  <ele>343.0</ele>
  <time>2026-09-01T01:11:26Z</time>
  <course>0.0</course>
  <speed>0.0</speed>
  <fix>3d</fix>
</trkpt>
<trkpt lat="-27.2744388" lon="151.2900639">
  <ele>343.01</ele>
  <time>2026-09-01T01:11:26Z</time>
  <course>178.2</course>
  <speed>0.022360679774997897</speed>
  <fix>3d</fix>
</trkpt>
<trkpt lat="-27.274439" lon="151.290064">
  <ele>343.0</ele>
  <time>2026-09-01T01:11:26Z</time>
  <course>0.0</course>
  <speed>0.0</speed>
  <fix>3d</fix>
</trkpt>
<trkpt lat="-27.2744388" lon="151.2900639">
  <ele>343.02</ele>
  <time>2026-09-01T01:11:26Z</time>
  <course>172.88</course>
  <speed>0.022360679774997897</speed>
  <fix>3d</fix>
</trkpt>
<trkpt lat="-27.274439" lon="151.290064">
  <ele>343.0</ele>
  <time>2026-09-01T01:11:26Z</time>
  <course>0.0</course>
  <speed>0.0</speed>
  <fix>3d</fix>
</trkpt>
<trkpt lat="-27.2744388" lon="151.2900639">
  <ele>343.01</ele>
  <time>2026-09-01T01:11:26Z</time>
  <course>170.94</course>
  <speed>0.0282842712474619</speed>
  <fix>3d</fix>
</trkpt>
<trkpt lat="-27.274439" lon="151.290064">
  <ele>343.0</ele>
  <time>2026-09-01T01:11:26Z</time>
  <course>0.0</course>
  <speed>0.0</speed>
  <fix>3d</fix>
</trkpt>
<trkpt lat="-27.2744388" lon="151.2900638">
  <ele>343.03</ele>
  <time>2026-09-01T01:11:26Z</time>
  <course>170.23</course>
  <speed>0.0282842712474619</speed>
  <fix>3d</fix>
</trkpt>
<trkpt lat="-27.274439" lon="151.290064">
  <ele>343.0</ele>
  <time>2026-09-01T01:11:26Z</time>
  <course>0.0</course>
  <speed>0.0</speed>
  <fix>3d</fix>
</trkpt>
<trkpt lat="-27.2744388" lon="151.2900638">
  <ele>343.03</ele>
  <time>2026-09-01T01:11:26Z</time>
  <course>169.84</course>
  <speed>0.0316227766016838</speed>
  <fix>3d</fix>
</trkpt>
<trkpt lat="-27.274439" lon="151.290064">
  <ele>343.0</ele>
  <time>2026-09-01T01:11:26Z</time>
  <course>0.0</course>
  <speed>0.0</speed>
  <fix>3d</fix>
</trkpt>
<trkpt lat="-27.2744388" lon="151.2900638">
  <ele>343.04</ele>
  <time>2026-09-01T01:11:26Z</time>
  <course>169.79</course>
  <speed>0.0316227766016838</speed>
  <fix>3d</fix>
</trkpt>
<trkpt lat="-27.274439" lon="151.290064">
  <ele>343.0</ele>
  <time>2026-09-01T01:11:26Z</time>
  <course>0.0</course>
  <speed>0.0</speed>
  <fix>3d</fix>
</trkpt>
<trkpt lat="-27.2744388" lon="151.2900637">
  <ele>343.04</ele>
  <time>2026-09-01T01:11:26Z</time>
  <course>169.75</course>
  <speed>0.03605551275463989</speed>
  <fix>3d</fix>
</trkpt>
<trkpt lat="-27.274439" lon="151.290064">
  <ele>343.0</ele>
  <time>2026-09-01T01:11:26Z</time>
  <course>0.0</course>
  <speed>0.0</speed>
  <fix>3d</fix>
</trkpt>
<trkpt lat="-27.2744388" lon="151.2900637">
  <ele>343.03</ele>
  <time>2026-09-01T01:11:26Z</time>
  <course>169.72</course>
  <speed>0.03605551275463989</speed>
  <fix>3d</fix>
</trkpt>
<trkpt lat="-27.274439" lon="151.290064">
  <ele>343.0</ele>
  <time>2026-09-01T01:11:26Z</time>
  <course>0.0</course>
  <speed>0.0</speed>
  <fix>3d</fix>
</trkpt>
<trkpt lat="-27.2744388" lon="151.2900637">
  <ele>343.03</ele>
  <time>2026-09-01T01:11:26Z</time>
  <course>169.69</course>
  <speed>0.044721359549995794</speed>
  <fix>3d</fix>
</trkpt>
<trkpt lat="-27.274439" lon="151.290064">
  <ele>343.0</ele>
  <time>2026-09-01T01:11:26Z</time>
  <course>0.0</course>
  <speed>0.0</speed>
  <fix>3d</fix>
</trkpt>
<trkpt lat="-27.2744388" lon="151.2900637">
  <ele>343.02</ele>
  <time>2026-09-01T01:11:26Z</time>
  <course>169.65</course>
  <speed>0.03605551275463989</speed>
  <fix>3d</fix>
</trkpt>
<trkpt lat="-27.274439" lon="151.290064">
  <ele>343.0</ele>
  <time>2026-09-01T01:11:26Z</time>
  <course>0.0</course>
  <speed>0.0</speed>
  <fix>3d</fix>
</trkpt>
<trkpt lat="-27.2744388" lon="151.2900636">
  <ele>343.04</ele>
  <time>2026-09-01T01:11:26Z</time>
  <course>178.22</course>
  <speed>0.0412310562561766</speed>
  <fix>3d</fix>
</trkpt>
<trkpt lat="-27.274439" lon="151.290064">
  <ele>343.0</ele>
  <time>2026-09-01T01:11:26Z</time>
  <course>0.0</course>
  <speed>0.0</speed>
  <fix>3d</fix>
</trkpt>
<trkpt lat="-27.2744388" lon="151.2900637">
  <ele>343.03</ele>
  <time>2026-09-01T01:11:26Z</time>
  <course>187.64</course>
  <speed>0.0412310562561766</speed>
  <fix>3d</fix>
</trkpt>
<trkpt lat="-27.274439" lon="151.290064">
  <ele>343.0</ele>
  <time>2026-09-01T01:11:26Z</time>
  <course>0.0</course>
  <speed>0.0</speed>
  <fix>3d</fix>
</trkpt>
<trkpt lat="-27.2744388" lon="151.2900637">
  <ele>343.02</ele>
  <time>2026-09-01T01:11:26Z</time>
  <course>196.97</course>
  <speed>0.0316227766016838</speed>
  <fix>3d</fix>
</trkpt>
<trkpt lat="-27.274439" lon="151.290064">
  <ele>343.0</ele>
  <time>2026-09-01T01:11:26Z</time>
  <course>0.0</course>
  <speed>0.0</speed>
  <fix>3d</fix>
</trkpt>
<trkpt lat="-27.2744388" lon="151.2900637">
  <ele>343.05</ele>
  <time>2026-09-01T01:11:26Z</time>
  <course>206.23</course>
  <speed>0.0282842712474619</speed>
  <fix>3d</fix>
</trkpt>
<trkpt lat="-27.274439" lon="151.290064">
  <ele>343.0</ele>
  <time>2026-09-01T01:11:26Z</time>
  <course>0.0</course>
  <speed>0.0</speed>
  <fix>3d</fix>
</trkpt>
<trkpt lat="-27.2744388" lon="151.2900637">
  <ele>343.03</ele>
  <time>2026-09-01T01:11:26Z</time>
  <course>215.44</course>
  <speed>0.0282842712474619</speed>
  <fix>3d</fix>
</trkpt>
<trkpt lat="-27.274439" lon="151.290064">
  <ele>343.0</ele>
  <time>2026-09-01T01:11:26Z</time>
  <course>0.0</course>
  <speed>0.0</speed>
  <fix>3d</fix>
</trkpt>
<trkpt lat="-27.2744388" lon="151.2900638">
  <ele>343.01</ele>
  <time>2026-09-01T01:11:26Z</time>
  <course>224.6</course>
  <speed>0.022360679774997897</speed>
  <fix>3d</fix>
</trkpt>
<trkpt lat="-27.274439" lon="151.290064">
  <ele>343.0</ele>
  <time>2026-09-01T01:11:26Z</time>
  <course>0.0</course>
  <speed>0.0</speed>
  <fix>3d</fix>
</trkpt>
<trkpt lat="-27.2744388" lon="151.2900638">
  <ele>343.01</ele>
  <time>2026-09-01T01:11:26Z</time>
  <course>233.71</course>
  <speed>0.02</speed>
  <fix>3d</fix>
</trkpt>
<trkpt lat="-27.274439" lon="151.290064">
  <ele>343.0</ele>
  <time>2026-09-01T01:11:26Z</time>
  <course>0.0</course>
  <speed>0.0</speed>
  <fix>3d</fix>
</trkpt>
<trkpt lat="-27.2744388" lon="151.2900639">
  <ele>342.99</ele>
  <time>2026-09-01T01:11:26Z</time>
  <course>242.8</course>
  <speed>0.02</speed>
  <fix>3d</fix>
</trkpt>
<trkpt lat="-27.274439" lon="151.290064">
  <ele>343.0</ele>
  <time>2026-09-01T01:11:26Z</time>
  <course>0.0</course>
  <speed>0.0</speed>
  <fix>3d</fix>
</trkpt>
<trkpt lat="-27.2744388" lon="151.290064">
  <ele>343.01</ele>
  <time>2026-09-01T01:11:26Z</time>
  <course>251.93</course>
  <speed>0.02</speed>
  <fix>3d</fix>
</trkpt>
<trkpt lat="-27.274439" lon="151.290064">
  <ele>343.0</ele>
  <time>2026-09-01T01:11:26Z</time>
  <course>0.0</course>
  <speed>0.0</speed>
  <fix>3d</fix>
</trkpt>
<trkpt lat="-27.2744388" lon="151.2900641">
  <ele>342.99</ele>
  <time>2026-09-01T01:11:26Z</time>
  <course>267.55</course>
  <speed>0.01414213562373095</speed>
  <fix>3d</fix>
</trkpt>
<trkpt lat="-27.274439" lon="151.290064">
  <ele>343.0</ele>
  <time>2026-09-01T01:11:26Z</time>
  <course>0.0</course>
  <speed>0.0</speed>
  <fix>3d</fix>
</trkpt>
<trkpt lat="-27.2744388" lon="151.2900641">
  <ele>342.99</ele>
  <time>2026-09-01T01:11:26Z</time>
  <course>269.93</course>
  <speed>0.01414213562373095</speed>
  <fix>3d</fix>
</trkpt>
<trkpt lat="-27.274439" lon="151.290064">
  <ele>343.0</ele>
  <time>2026-09-01T01:11:26Z</time>
  <course>0.0</course>
  <speed>0.0</speed>
  <fix>3d</fix>
</trkpt>
<trkpt lat="-27.2744389" lon="151.2900641">
  <ele>343.01</ele>
  <time>2026-09-01T01:11:26Z</time>
  <course>270.79</course>
  <speed>0.01414213562373095</speed>
  <fix>3d</fix>
</trkpt>
<trkpt lat="-27.274439" lon="151.290064">
  <ele>343.0</ele>
  <time>2026-09-01T01:11:26Z</time>
  <course>0.0</course>
  <speed>0.0</speed>
  <fix>3d</fix>
</trkpt>
<trkpt lat="-27.2744389" lon="151.2900641">
  <ele>343.01</ele>
  <time>2026-09-01T01:11:26Z</time>
  <course>271.09</course>
  <speed>0.01414213562373095</speed>
  <fix>3d</fix>
</trkpt>
<trkpt lat="-27.274439" lon="151.290064">
  <ele>343.0</ele>
  <time>2026-09-01T01:11:26Z</time>
  <course>0.0</course>
  <speed>0.0</speed>
  <fix>3d</fix>
</trkpt>
<trkpt lat="-27.2744389" lon="151.2900641">
  <ele>343.01</ele>
  <time>2026-09-01T01:11:26Z</time>
  <course>271.2</course>
  <speed>0.01414213562373095</speed>
  <fix>3d</fix>
</trkpt>
<trkpt lat="-27.274439" lon="151.290064">
  <ele>343.0</ele>
  <time>2026-09-01T01:11:26Z</time>
  <course>0.0</course>
  <speed>0.0</speed>
  <fix>3d</fix>
</trkpt>
<trkpt lat="-27.2744389" lon="151.2900641">
  <ele>343.0</ele>
  <time>2026-09-01T01:11:26Z</time>
  <course>271.23</course>
  <speed>0.01414213562373095</speed>
  <fix>3d</fix>
</trkpt>
<trkpt lat="-27.274439" lon="151.290064">
  <ele>343.0</ele>
  <time>2026-09-01T01:11:26Z</time>
  <course>0.0</course>
  <speed>0.0</speed>
  <fix>3d</fix>
</trkpt>
<trkpt lat="-27.2744389" lon="151.2900641">
  <ele>342.99</ele>
  <time>2026-09-01T01:11:26Z</time>
  <course>271.23</course>
  <speed>0.01414213562373095</speed>
  <fix>3d</fix>
</trkpt>
<trkpt lat="-27.274439" lon="151.290064">
  <ele>343.0</ele>
  <time>2026-09-01T01:11:26Z</time>
  <course>0.0</course>
  <speed>0.0</speed>
  <fix>3d</fix>
</trkpt>
<trkpt lat="-27.2744389" lon="151.2900641">
  <ele>343.0</ele>
  <time>2026-09-01T01:11:26Z</time>
  <course>271.23</course>
  <speed>0.022360679774997897</speed>
  <fix>3d</fix>
</trkpt>
<trkpt lat="-27.274439" lon="151.290064">
  <ele>343.0</ele>
  <time>2026-09-01T01:11:26Z</time>
  <course>0.0</course>
  <speed>0.0</speed>
  <fix>3d</fix>
</trkpt>
<trkpt lat="-27.2744389" lon="151.2900641">
  <ele>343.02</ele>
  <time>2026-09-01T01:11:27Z</time>
  <course>271.22</course>
  <speed>0.01414213562373095</speed>
  <fix>3d</fix>
</trkpt>
<trkpt lat="-27.274439" lon="151.290064">
  <ele>343.0</ele>
  <time>2026-09-01T01:11:27Z</time>
  <course>0.0</course>
  <speed>0.0</speed>
  <fix>3d</fix>
</trkpt>
<trkpt lat="-27.2744389" lon="151.2900641">
  <ele>343.01</ele>
  <time>2026-09-01T01:11:27Z</time>
  <course>271.21</course>
  <speed>0.022360679774997897</speed>
  <fix>3d</fix>
</trkpt>
<trkpt lat="-27.274439" lon="151.290064">
  <ele>343.0</ele>
  <time>2026-09-01T01:11:27Z</time>
  <course>0.0</course>
  <speed>0.0</speed>
  <fix>3d</fix>
</trkpt>
<trkpt lat="-27.274439" lon="151.290064">
  <ele>343.0</ele>
  <time>2026-09-01T01:11:27Z</time>
  <course>325.88</course>
  <speed>0.0</speed>
  <fix>3d</fix>
</trkpt>
<trkpt lat="-27.274439" lon="151.290064">
  <ele>343.0</ele>
  <time>2026-09-01T01:11:27Z</time>
  <course>324.43</course>
  <speed>0.0</speed>
  <fix>3d</fix>
</trkpt>
<trkpt lat="-27.274439" lon="151.290064">
  <ele>343.0</ele>
  <time>2026-09-01T01:11:27Z</time>
  <course>321.85</course>
  <speed>0.0</speed>
  <fix>3d</fix>
</trkpt>
<trkpt lat="-27.274439" lon="151.290064">
  <ele>343.0</ele>
  <time>2026-09-01T01:11:27Z</time>
  <course>295.0</course>
  <speed>0.0</speed>
  <fix>3d</fix>
</trkpt>
<trkpt lat="-27.274439" lon="151.290064">
  <ele>343.0</ele>
  <time>2026-09-01T01:11:27Z</time>
  <course>290.72</course>
  <speed>0.0</speed>
  <fix>3d</fix>
</trkpt>
<trkpt lat="-27.274439" lon="151.290064">
  <ele>343.0</ele>
  <time>2026-09-01T01:11:27Z</time>
  <course>284.85</course>
  <speed>0.0</speed>
  <fix>3d</fix>
</trkpt>
<trkpt lat="-27.274439" lon="151.290064">
  <ele>343.0</ele>
  <time>2026-09-01T01:11:27Z</time>
  <course>277.8</course>
  <speed>0.0</speed>
  <fix>3d</fix>
</trkpt>
<trkpt lat="-27.274439" lon="151.290064">
  <ele>343.0</ele>
  <time>2026-09-01T01:11:27Z</time>
  <course>269.53</course>
  <speed>0.0</speed>
  <fix>3d</fix>
</trkpt>
<trkpt lat="-27.274439" lon="151.290064">
  <ele>343.0</ele>
  <time>2026-09-01T01:11:27Z</time>
  <course>262.12</course>
  <speed>0.93637599285757</speed>
  <fix>3d</fix>
</trkpt>
<trkpt lat="-27.274439" lon="151.290064">
  <ele>343.0</ele>
  <time>2026-09-01T01:11:27Z</time>
  <course>0.0</course>
  <speed>0.0</speed>
  <fix>3d</fix>
</trkpt>
<trkpt lat="-27.274439" lon="151.290064">
  <ele>343.0</ele>
  <time>2026-09-01T01:11:27Z</time>
  <course>256.38</course>
  <speed>0.9097252332435327</speed>
  <fix>3d</fix>
</trkpt>
<trkpt lat="-27.274439" lon="151.290064">
  <ele>343.0</ele>
  <time>2026-09-01T01:11:27Z</time>
  <course>0.0</course>
  <speed>0.0</speed>
  <fix>3d</fix>
</trkpt>
<trkpt lat="-27.274439" lon="151.290064">
  <ele>343.0</ele>
  <time>2026-09-01T01:11:27Z</time>
  <course>249.46</course>
  <speed>0.7360027173862879</speed>
  <fix>3d</fix>
</trkpt>
<trkpt lat="-27.274439" lon="151.290064">
  <ele>343.0</ele>
  <time>2026-09-01T01:11:27Z</time>
  <course>0.0</course>
  <speed>0.0</speed>
  <fix>3d</fix>
</trkpt>
<trkpt lat="-27.274439" lon="151.290064">
  <ele>343.0</ele>
  <time>2026-09-01T01:11:27Z</time>
  <course>241.81</course>
  <speed>0.6670832032063168</speed>
  <fix>3d</fix>
</trkpt>
<trkpt lat="-27.274439" lon="151.290064">
  <ele>343.0</ele>
  <time>2026-09-01T01:11:27Z</time>
  <course>0.0</course>
  <speed>0.0</speed>
  <fix>3d</fix>
</trkpt>
<trkpt lat="-27.274439" lon="151.290064">
  <ele>343.0</ele>
  <time>2026-09-01T01:11:27Z</time>
  <course>233.61</course>
  <speed>0.6612110101926616</speed>
  <fix>3d</fix>
</trkpt>
<trkpt lat="-27.274439" lon="151.290064">
  <ele>343.0</ele>
  <time>2026-09-01T01:11:27Z</time>
  <course>0.0</course>
  <speed>0.0</speed>
  <fix>3d</fix>
</trkpt>
<trkpt lat="-27.274439" lon="151.290064">
  <ele>343.0</ele>
  <time>2026-09-01T01:11:27Z</time>
  <course>225.03</course>
  <speed>0.6937578828380979</speed>
  <fix>3d</fix>
</trkpt>
<trkpt lat="-27.274439" lon="151.290064">
  <ele>343.0</ele>
  <time>2026-09-01T01:11:27Z</time>
  <course>0.0</course>
  <speed>0.0</speed>
  <fix>3d</fix>
</trkpt>
<trkpt lat="-27.274439" lon="151.290064">
  <ele>343.0</ele>
  <time>2026-09-01T01:11:27Z</time>
  <course>216.19</course>
  <speed>0.7689603370785778</speed>
  <fix>3d</fix>
</trkpt>
<trkpt lat="-27.274439" lon="151.290064">
  <ele>343.0</ele>
  <time>2026-09-01T01:11:27Z</time>
  <course>0.0</course>
  <speed>0.0</speed>
  <fix>3d</fix>
</trkpt>
<trkpt lat="-27.274439" lon="151.290064">
  <ele>343.0</ele>
  <time>2026-09-01T01:11:28Z</time>
  <course>261.98</course>
  <speed>1.283627671873741</speed>
  <fix>3d</fix>
</trkpt>
<trkpt lat="-27.274439" lon="151.290064">
  <ele>343.0</ele>
  <time>2026-09-01T01:11:28Z</time>
  <course>0.0</course>
  <speed>0.0</speed>
  <fix>3d</fix>
</trkpt>
<trkpt lat="-27.274439" lon="151.290064">
  <ele>343.0</ele>
  <time>2026-09-01T01:11:28Z</time>
  <course>255.57</course>
  <speed>1.5463828762631846</speed>
  <fix>3d</fix>
</trkpt>
<trkpt lat="-27.274439" lon="151.290064">
  <ele>343.0</ele>
  <time>2026-09-01T01:11:28Z</time>
  <course>0.0</course>
  <speed>0.0</speed>
  <fix>3d</fix>
</trkpt>
<trkpt lat="-27.274439" lon="151.290064">
  <ele>343.0</ele>
  <time>2026-09-01T01:11:28Z</time>
  <course>247.73</course>
  <speed>1.486371420607918</speed>
  <fix>3d</fix>
</trkpt>
<trkpt lat="-27.274439" lon="151.290064">
  <ele>343.0</ele>
  <time>2026-09-01T01:11:28Z</time>
  <course>0.0</course>
  <speed>0.0</speed>
  <fix>3d</fix>
</trkpt>
<trkpt lat="-27.274439" lon="151.290064">
  <ele>343.0</ele>
  <time>2026-09-01T01:11:28Z</time>
  <course>239.18</course>
  <speed>1.3601470508735443</speed>
  <fix>3d</fix>
</trkpt>
<trkpt lat="-27.274439" lon="151.290064">
  <ele>343.0</ele>
  <time>2026-09-01T01:11:28Z</time>
  <course>0.0</course>
  <speed>0.0</speed>
  <fix>3d</fix>
</trkpt>
<trkpt lat="-27.274439" lon="151.290064">
  <ele>343.0</ele>
  <time>2026-09-01T01:11:28Z</time>
  <course>220.8</course>
  <speed>1.115437134042076</speed>
  <fix>3d</fix>
</trkpt>
<trkpt lat="-27.274439" lon="151.290064">
  <ele>343.0</ele>
  <time>2026-09-01T01:11:28Z</time>
  <course>0.0</course>
  <speed>0.0</speed>
  <fix>3d</fix>
</trkpt>
<trkpt lat="-27.274439" lon="151.290064">
  <ele>343.0</ele>
  <time>2026-09-01T01:11:28Z</time>
  <course>211.27</course>
  <speed>1.035857133006285</speed>
  <fix>3d</fix>
</trkpt>
<trkpt lat="-27.274439" lon="151.290064">
  <ele>343.0</ele>
  <time>2026-09-01T01:11:28Z</time>
  <course>0.0</course>
  <speed>0.0</speed>
  <fix>3d</fix>
</trkpt>
<trkpt lat="-27.274439" lon="151.290064">
  <ele>343.0</ele>
  <time>2026-09-01T01:11:28Z</time>
  <course>201.62</course>
  <speed>0.9832598842625484</speed>
  <fix>3d</fix>
</trkpt>
<trkpt lat="-27.274439" lon="151.290064">
  <ele>343.0</ele>
  <time>2026-09-01T01:11:28Z</time>
  <course>0.0</course>
  <speed>0.0</speed>
  <fix>3d</fix>
</trkpt>
<trkpt lat="-27.274439" lon="151.290064">
  <ele>343.0</ele>
  <time>2026-09-01T01:11:28Z</time>
  <course>191.86</course>
  <speed>0.9504735661763561</speed>
  <fix>3d</fix>
</trkpt>
<trkpt lat="-27.274439" lon="151.290064">
  <ele>343.0</ele>
  <time>2026-09-01T01:11:28Z</time>
  <course>0.0</course>
  <speed>0.0</speed>
  <fix>3d</fix>
</trkpt>
<trkpt lat="-27.274439" lon="151.290064">
  <ele>343.0</ele>
  <time>2026-09-01T01:11:28Z</time>
  <course>182.03</course>
  <speed>0.9000555538409837</speed>
  <fix>3d</fix>
</trkpt>
<trkpt lat="-27.274439" lon="151.290064">
  <ele>343.0</ele>
  <time>2026-09-01T01:11:28Z</time>
  <course>0.0</course>
  <speed>0.0</speed>
  <fix>3d</fix>
</trkpt>
<trkpt lat="-27.274439" lon="151.290064">
  <ele>343.0</ele>
  <time>2026-09-01T01:11:28Z</time>
  <course>172.16</course>
  <speed>0.8209750300709517</speed>
  <fix>3d</fix>
</trkpt>
<trkpt lat="-27.274439" lon="151.290064">
  <ele>343.0</ele>
  <time>2026-09-01T01:11:28Z</time>
  <course>0.0</course>
  <speed>0.0</speed>
  <fix>3d</fix>
</trkpt>
<trkpt lat="-27.274439" lon="151.290064">
  <ele>343.0</ele>
  <time>2026-09-01T01:11:28Z</time>
  <course>162.31</course>
  <speed>0.7752418977325722</speed>
  <fix>3d</fix>
</trkpt>
<trkpt lat="-27.274439" lon="151.290064">
  <ele>343.0</ele>
  <time>2026-09-01T01:11:28Z</time>
  <course>0.0</course>
  <speed>0.0</speed>
  <fix>3d</fix>
</trkpt>
<trkpt lat="-27.274439" lon="151.290064">
  <ele>343.0</ele>
  <time>2026-09-01T01:11:28Z</time>
  <course>169.53</course>
  <speed>0.71386273190299</speed>
  <fix>3d</fix>
</trkpt>
<trkpt lat="-27.274439" lon="151.290064">
  <ele>343.0</ele>
  <time>2026-09-01T01:11:28Z</time>
  <course>0.0</course>
  <speed>0.0</speed>
  <fix>3d</fix>
</trkpt>
<trkpt lat="-27.274439" lon="151.290064">
  <ele>343.0</ele>
  <time>2026-09-01T01:11:28Z</time>
  <course>178.58</course>
  <speed>0.6580273550544841</speed>
  <fix>3d</fix>
</trkpt>
<trkpt lat="-27.274439" lon="151.290064">
  <ele>343.0</ele>
  <time>2026-09-01T01:11:28Z</time>
  <course>0.0</course>
  <speed>0.0</speed>
  <fix>3d</fix>
</trkpt>
<trkpt lat="-27.274439" lon="151.290064">
  <ele>343.0</ele>
  <time>2026-09-01T01:11:28Z</time>
  <course>187.53</course>
  <speed>0.5961543424315552</speed>
  <fix>3d</fix>
</trkpt>
<trkpt lat="-27.274439" lon="151.290064">
  <ele>343.0</ele>
  <time>2026-09-01T01:11:28Z</time>
  <course>0.0</course>
  <speed>0.0</speed>
  <fix>3d</fix>
</trkpt>
<trkpt lat="-27.274439" lon="151.290064">
  <ele>343.0</ele>
  <time>2026-09-01T01:11:28Z</time>
  <course>196.49</course>
  <speed>0.5110772935672255</speed>
  <fix>3d</fix>
</trkpt>
<trkpt lat="-27.274439" lon="151.290064">
  <ele>343.0</ele>
  <time>2026-09-01T01:11:28Z</time>
  <course>0.0</course>
  <speed>0.0</speed>
  <fix>3d</fix>
</trkpt>
<trkpt lat="-27.274439" lon="151.290064">
  <ele>343.0</ele>
  <time>2026-09-01T01:11:28Z</time>
  <course>205.42</course>
  <speed>0.41773197148410846</speed>
  <fix>3d</fix>
</trkpt>
<trkpt lat="-27.274439" lon="151.290064">
  <ele>343.0</ele>
  <time>2026-09-01T01:11:28Z</time>
  <course>0.0</course>
  <speed>0.0</speed>
  <fix>3d</fix>
</trkpt>
<trkpt lat="-27.274439" lon="151.290064">
  <ele>343.0</ele>
  <time>2026-09-01T01:11:28Z</time>
  <course>214.34</course>
  <speed>0.36235341863986875</speed>
  <fix>3d</fix>
</trkpt>
<trkpt lat="-27.274439" lon="151.290064">
  <ele>343.0</ele>
  <time>2026-09-01T01:11:28Z</time>
  <course>0.0</course>
  <speed>0.0</speed>
  <fix>3d</fix>
</trkpt>
<trkpt lat="-27.274439" lon="151.290064">
  <ele>343.0</ele>
  <time>2026-09-01T01:11:28Z</time>
  <course>223.18</course>
  <speed>0.3649657518178932</speed>
  <fix>3d</fix>
</trkpt>
<trkpt lat="-27.274439" lon="151.290064">
  <ele>343.0</ele>
  <time>2026-09-01T01:11:28Z</time>
  <course>0.0</course>
  <speed>0.0</speed>
  <fix>3d</fix>
</trkpt>
<trkpt lat="-27.274439" lon="151.290064">
  <ele>343.0</ele>
  <time>2026-09-01T01:11:28Z</time>
  <course>232.0</course>
  <speed>0.41012193308819755</speed>
  <fix>3d</fix>
</trkpt>
<trkpt lat="-27.274439" lon="151.290064">
  <ele>343.0</ele>
  <time>2026-09-01T01:11:28Z</time>
  <course>0.0</course>
  <speed>0.0</speed>
  <fix>3d</fix>
</trkpt>
<trkpt lat="-27.274439" lon="151.290064">
  <ele>343.0</ele>
  <time>2026-09-01T01:11:28Z</time>
  <course>240.83</course>
  <speed>0.4491102314577124</speed>
  <fix>3d</fix>
</trkpt>
<trkpt lat="-27.274439" lon="151.290064">
  <ele>343.0</ele>
  <time>2026-09-01T01:11:28Z</time>
  <course>0.0</course>
  <speed>0.0</speed>
  <fix>3d</fix>
</trkpt>
<trkpt lat="-27.274439" lon="151.290064">
  <ele>343.0</ele>
  <time>2026-09-01T01:11:28Z</time>
  <course>249.7</course>
  <speed>0.4884669896727925</speed>
  <fix>3d</fix>
</trkpt>
<trkpt lat="-27.274439" lon="151.290064">
  <ele>343.0</ele>
  <time>2026-09-01T01:11:28Z</time>
  <course>0.0</course>
  <speed>0.0</speed>
  <fix>3d</fix>
</trkpt>
<trkpt lat="-27.274439" lon="151.290064">
  <ele>343.0</ele>
  <time>2026-09-01T01:11:28Z</time>
  <course>258.56</course>
  <speed>0.524785670536077</speed>
  <fix>3d</fix>
</trkpt>
<trkpt lat="-27.274439" lon="151.290064">
  <ele>343.0</ele>
  <time>2026-09-01T01:11:28Z</time>
  <course>0.0</course>
  <speed>0.0</speed>
  <fix>3d</fix>
</trkpt>
<trkpt lat="-27.274439" lon="151.290064">
  <ele>343.0</ele>
  <time>2026-09-01T01:11:28Z</time>
  <course>267.44</course>
  <speed>0.5560575509783138</speed>
  <fix>3d</fix>
</trkpt>
<trkpt lat="-27.274439" lon="151.290064">
  <ele>343.0</ele>
  <time>2026-09-01T01:11:28Z</time>
  <course>0.0</course>
  <speed>0.0</speed>
  <fix>3d</fix>
</trkpt>
<trkpt lat="-27.274439" lon="151.290064">
  <ele>343.0</ele>
  <time>2026-09-01T01:11:28Z</time>
  <course>276.32</course>
  <speed>0.5685068161420758</speed>
  <fix>3d</fix>
</trkpt>
<trkpt lat="-27.274439" lon="151.290064">
  <ele>343.0</ele>
  <time>2026-09-01T01:11:28Z</time>
  <course>0.0</course>
  <speed>0.0</speed>
  <fix>3d</fix>
</trkpt>
<trkpt lat="-27.274439" lon="151.290064">
  <ele>343.0</ele>
  <time>2026-09-01T01:11:28Z</time>
  <course>285.2</course>
  <speed>0.5762811813689563</speed>
  <fix>3d</fix>
</trkpt>
<trkpt lat="-27.274439" lon="151.290064">
  <ele>343.0</ele>
  <time>2026-09-01T01:11:28Z</time>
  <course>0.0</course>
  <speed>0.0</speed>
  <fix>3d</fix>
</trkpt>
<trkpt lat="-27.274439" lon="151.290064">
  <ele>343.0</ele>
  <time>2026-09-01T01:11:28Z</time>
  <course>294.09</course>
  <speed>0.5663920903402518</speed>
  <fix>3d</fix>
</trkpt>
<trkpt lat="-27.274439" lon="151.290064">
  <ele>343.0</ele>
  <time>2026-09-01T01:11:28Z</time>
  <course>0.0</course>
  <speed>0.0</speed>
  <fix>3d</fix>
</trkpt>
<trkpt lat="-27.274439" lon="151.290064">
  <ele>343.0</ele>
  <time>2026-09-01T01:11:28Z</time>
  <course>298.67</course>
  <speed>0.5663920903402518</speed>
  <fix>3d</fix>
</trkpt>
<trkpt lat="-27.274439" lon="151.290064">
  <ele>343.0</ele>
  <time>2026-09-01T01:11:28Z</time>
  <course>0.0</course>
  <speed>0.0</speed>
  <fix>3d</fix>
</trkpt>
<trkpt lat="-27.274439" lon="151.290064">
  <ele>343.0</ele>
  <time>2026-09-01T01:11:28Z</time>
  <course>289.59</course>
  <speed>0.5663920903402518</speed>
  <fix>3d</fix>
</trkpt>
<trkpt lat="-27.274439" lon="151.290064">
  <ele>343.0</ele>
  <time>2026-09-01T01:11:28Z</time>
  <course>0.0</course>
  <speed>0.0</speed>
  <fix>3d</fix>
</trkpt>
<trkpt lat="-27.274439" lon="151.290064">
  <ele>343.0</ele>
  <time>2026-09-01T01:11:28Z</time>
  <course>280.51</course>
  <speed>0.5731491952362839</speed>
  <fix>3d</fix>
</trkpt>
<trkpt lat="-27.274439" lon="151.290064">
  <ele>343.0</ele>
  <time>2026-09-01T01:11:28Z</time>
  <course>0.0</course>
  <speed>0.0</speed>
  <fix>3d</fix>
</trkpt>
<trkpt lat="-27.274439" lon="151.290064">
  <ele>343.0</ele>
  <time>2026-09-01T01:11:28Z</time>
  <course>271.42</course>
  <speed>0.58</speed>
  <fix>3d</fix>
</trkpt>
<trkpt lat="-27.274439" lon="151.290064">
  <ele>343.0</ele>
  <time>2026-09-01T01:11:28Z</time>
  <course>0.0</course>
  <speed>0.0</speed>
  <fix>3d</fix>
</trkpt>
<trkpt lat="-27.274439" lon="151.290064">
  <ele>343.0</ele>
  <time>2026-09-01T01:11:28Z</time>
  <course>262.31</course>
  <speed>0.5966573556070519</speed>
  <fix>3d</fix>
</trkpt>
<trkpt lat="-27.274439" lon="151.290064">
  <ele>343.0</ele>
  <time>2026-09-01T01:11:28Z</time>
  <course>0.0</course>
  <speed>0.0</speed>
  <fix>3d</fix>
</trkpt>
<trkpt lat="-27.274439" lon="151.290064">
  <ele>343.0</ele>
  <time>2026-09-01T01:11:28Z</time>
  <course>253.21</course>
  <speed>0.6161168720299746</speed>
  <fix>3d</fix>
</trkpt>
<trkpt lat="-27.274439" lon="151.290064">
  <ele>343.0</ele>
  <time>2026-09-01T01:11:28Z</time>
  <course>0.0</course>
  <speed>0.0</speed>
  <fix>3d</fix>
</trkpt>
<trkpt lat="-27.274439" lon="151.290064">
  <ele>343.0</ele>
  <time>2026-09-01T01:11:28Z</time>
  <course>244.1</course>
  <speed>0.641404708432983</speed>
  <fix>3d</fix>
</trkpt>
<trkpt lat="-27.274439" lon="151.290064">
  <ele>343.0</ele>
  <time>2026-09-01T01:11:28Z</time>
  <course>0.0</course>
  <speed>0.0</speed>
  <fix>3d</fix>
</trkpt>
<trkpt lat="-27.274439" lon="151.290064">
  <ele>343.0</ele>
  <time>2026-09-01T01:11:28Z</time>
  <course>234.96</course>
  <speed>0.6574191965557441</speed>
  <fix>3d</fix>
</trkpt>
<trkpt lat="-27.274439" lon="151.290064">
  <ele>343.0</ele>
  <time>2026-09-01T01:11:28Z</time>
  <course>0.0</course>
  <speed>0.0</speed>
  <fix>3d</fix>
</trkpt>
<trkpt lat="-27.274439" lon="151.290064">
  <ele>343.0</ele>
  <time>2026-09-01T01:11:28Z</time>
  <course>225.79</course>
  <speed>0.6777905281132217</speed>
  <fix>3d</fix>
</trkpt>
<trkpt lat="-27.274439" lon="151.290064">
  <ele>343.0</ele>
  <time>2026-09-01T01:11:28Z</time>
  <course>0.0</course>
  <speed>0.0</speed>
  <fix>3d</fix>
</trkpt>
<trkpt lat="-27.274439" lon="151.290064">
  <ele>343.0</ele>
  <time>2026-09-01T01:11:28Z</time>
  <course>216.64</course>
  <speed>0.6926037828369117</speed>
  <fix>3d</fix>
</trkpt>
<trkpt lat="-27.274439" lon="151.290064">
  <ele>343.0</ele>
  <time>2026-09-01T01:11:28Z</time>
  <course>0.0</course>
  <speed>0.0</speed>
  <fix>3d</fix>
</trkpt>
<trkpt lat="-27.274439" lon="151.290064">
  <ele>343.0</ele>
  <time>2026-09-01T01:11:28Z</time>
  <course>207.47</course>
  <speed>0.7158910531638176</speed>
  <fix>3d</fix>
</trkpt>
<trkpt lat="-27.274439" lon="151.290064">
  <ele>343.0</ele>
  <time>2026-09-01T01:11:28Z</time>
  <course>0.0</course>
  <speed>0.0</speed>
  <fix>3d</fix>
</trkpt>
<trkpt lat="-27.274439" lon="151.290064">
  <ele>343.0</ele>
  <time>2026-09-01T01:11:28Z</time>
  <course>198.27</course>
  <speed>0.7256031973468694</speed>
  <fix>3d</fix>
</trkpt>
<trkpt lat="-27.274439" lon="151.290064">
  <ele>343.0</ele>
  <time>2026-09-01T01:11:28Z</time>
  <course>0.0</course>
  <speed>0.0</speed>
  <fix>3d</fix>
</trkpt>
<trkpt lat="-27.274439" lon="151.290064">
  <ele>343.0</ele>
  <time>2026-09-01T01:11:28Z</time>
  <course>189.05</course>
  <speed>0.7202777242147643</speed>
  <fix>3d</fix>
</trkpt>
<trkpt lat="-27.274439" lon="151.290064">
  <ele>343.0</ele>
  <time>2026-09-01T01:11:28Z</time>
  <course>0.0</course>
  <speed>0.0</speed>
  <fix>3d</fix>
</trkpt>
<trkpt lat="-27.2744396" lon="151.2900638">
  <ele>343.07</ele>
  <time>2026-09-01T01:11:28Z</time>
  <course>181.28</course>
  <speed>0.022360679774997897</speed>
  <fix>3d</fix>
</trkpt>
<trkpt lat="-27.274439" lon="151.290064">
  <ele>343.0</ele>
  <time>2026-09-01T01:11:28Z</time>
  <course>0.0</course>
  <speed>0.0</speed>
  <fix>3d</fix>
</trkpt>
<trkpt lat="-27.2744396" lon="151.2900633">
  <ele>343.05</ele>
  <time>2026-09-01T01:11:28Z</time>
  <course>174.6</course>
  <speed>0.1131370849898476</speed>
  <fix>3d</fix>
</trkpt>
<trkpt lat="-27.274439" lon="151.290064">
  <ele>343.0</ele>
  <time>2026-09-01T01:11:28Z</time>
  <course>0.0</course>
  <speed>0.0</speed>
  <fix>3d</fix>
</trkpt>
<trkpt lat="-27.274439" lon="151.2900632">
  <ele>343.08</ele>
  <time>2026-09-01T01:11:28Z</time>
  <course>165.16</course>
  <speed>0.1345362404707371</speed>
  <fix>3d</fix>
</trkpt>
<trkpt lat="-27.274439" lon="151.290064">
  <ele>343.0</ele>
  <time>2026-09-01T01:11:28Z</time>
  <course>0.0</course>
  <speed>0.0</speed>
  <fix>3d</fix>
</trkpt>
<trkpt lat="-27.2744388" lon="151.2900633">
  <ele>343.09</ele>
  <time>2026-09-01T01:11:28Z</time>
  <course>155.62</course>
  <speed>0.09899494936611665</speed>
  <fix>3d</fix>
</trkpt>
<trkpt lat="-27.274439" lon="151.290064">
  <ele>343.0</ele>
  <time>2026-09-01T01:11:28Z</time>
  <course>0.0</course>
  <speed>0.0</speed>
  <fix>3d</fix>
</trkpt>
<trkpt lat="-27.2744388" lon="151.2900635">
  <ele>343.12</ele>
  <time>2026-09-01T01:11:28Z</time>
  <course>146.13</course>
  <speed>0.05830951894845301</speed>
  <fix>3d</fix>
</trkpt>
<trkpt lat="-27.274439" lon="151.290064">
  <ele>343.0</ele>
  <time>2026-09-01T01:11:28Z</time>
  <course>0.0</course>
  <speed>0.0</speed>
  <fix>3d</fix>
</trkpt>
<trkpt lat="-27.2744389" lon="151.2900637">
  <ele>343.1</ele>
  <time>2026-09-01T01:11:28Z</time>
  <course>139.2</course>
  <speed>0.0412310562561766</speed>
  <fix>3d</fix>
</trkpt>
<trkpt lat="-27.274439" lon="151.290064">
  <ele>343.0</ele>
  <time>2026-09-01T01:11:28Z</time>
  <course>0.0</course>
  <speed>0.0</speed>
  <fix>3d</fix>
</trkpt>
<trkpt lat="-27.274439" lon="151.2900637">
  <ele>343.09</ele>
  <time>2026-09-01T01:11:28Z</time>
  <course>136.66</course>
  <speed>0.03</speed>
  <fix>3d</fix>
</trkpt>
<trkpt lat="-27.274439" lon="151.290064">
  <ele>343.0</ele>
  <time>2026-09-01T01:11:28Z</time>
  <course>0.0</course>
  <speed>0.0</speed>
  <fix>3d</fix>
</trkpt>
<trkpt lat="-27.2744391" lon="151.2900637">
  <ele>343.06</ele>
  <time>2026-09-01T01:11:28Z</time>
  <course>137.82</course>
  <speed>0.0316227766016838</speed>
  <fix>3d</fix>
</trkpt>
<trkpt lat="-27.274439" lon="151.290064">
  <ele>343.0</ele>
  <time>2026-09-01T01:11:28Z</time>
  <course>0.0</course>
  <speed>0.0</speed>
  <fix>3d</fix>
</trkpt>
<trkpt lat="-27.2744391" lon="151.2900637">
  <ele>343.07</ele>
  <time>2026-09-01T01:11:28Z</time>
  <course>147.12</course>
  <speed>0.044721359549995794</speed>
  <fix>3d</fix>
</trkpt>
<trkpt lat="-27.274439" lon="151.290064">
  <ele>343.0</ele>
  <time>2026-09-01T01:11:28Z</time>
  <course>0.0</course>
  <speed>0.0</speed>
  <fix>3d</fix>
</trkpt>
<trkpt lat="-27.2744391" lon="151.2900636">
  <ele>343.09</ele>
  <time>2026-09-01T01:11:28Z</time>
  <course>156.34</course>
  <speed>0.05099019513592785</speed>
  <fix>3d</fix>
</trkpt>
<trkpt lat="-27.274439" lon="151.290064">
  <ele>343.0</ele>
  <time>2026-09-01T01:11:28Z</time>
  <course>0.0</course>
  <speed>0.0</speed>
  <fix>3d</fix>
</trkpt>
<trkpt lat="-27.274439" lon="151.2900636">
  <ele>343.08</ele>
  <time>2026-09-01T01:11:28Z</time>
  <course>165.47</course>
  <speed>0.06</speed>
  <fix>3d</fix>
</trkpt>
<trkpt lat="-27.274439" lon="151.290064">
  <ele>343.0</ele>
  <time>2026-09-01T01:11:28Z</time>
  <course>0.0</course>
  <speed>0.0</speed>
  <fix>3d</fix>
</trkpt>
<trkpt lat="-27.274439" lon="151.2900635">
  <ele>343.07</ele>
  <time>2026-09-01T01:11:28Z</time>
  <course>174.58</course>
  <speed>0.06082762530298219</speed>
  <fix>3d</fix>
</trkpt>
<trkpt lat="-27.274439" lon="151.290064">
  <ele>343.0</ele>
  <time>2026-09-01T01:11:28Z</time>
  <course>0.0</course>
  <speed>0.0</speed>
  <fix>3d</fix>
</trkpt>
<trkpt lat="-27.2744388" lon="151.2900635">
  <ele>343.05</ele>
  <time>2026-09-01T01:11:29Z</time>
  <course>192.73</course>
  <speed>0.05830951894845301</speed>
  <fix>3d</fix>
</trkpt>
<trkpt lat="-27.274439" lon="151.290064">
  <ele>343.0</ele>
  <time>2026-09-01T01:11:29Z</time>
  <course>0.0</course>
  <speed>0.0</speed>
  <fix>3d</fix>
</trkpt>
<trkpt lat="-27.2744388" lon="151.2900636">
  <ele>343.04</ele>
  <time>2026-09-01T01:11:29Z</time>
  <course>201.79</course>
  <speed>0.04242640687119285</speed>
  <fix>3d</fix>
</trkpt>
<trkpt lat="-27.274439" lon="151.290064">
  <ele>343.0</ele>
  <time>2026-09-01T01:11:29Z</time>
  <course>0.0</course>
  <speed>0.0</speed>
  <fix>3d</fix>
</trkpt>
<trkpt lat="-27.2744388" lon="151.2900637">
  <ele>343.06</ele>
  <time>2026-09-01T01:11:29Z</time>
  <course>210.83</course>
  <speed>0.03605551275463989</speed>
  <fix>3d</fix>
</trkpt>
<trkpt lat="-27.274439" lon="151.290064">
  <ele>343.0</ele>
  <time>2026-09-01T01:11:29Z</time>
  <course>0.0</course>
  <speed>0.0</speed>
  <fix>3d</fix>
</trkpt>
<trkpt lat="-27.2744388" lon="151.2900638">
  <ele>343.06</ele>
  <time>2026-09-01T01:11:29Z</time>
  <course>209.09</course>
  <speed>0.0316227766016838</speed>
  <fix>3d</fix>
</trkpt>
<trkpt lat="-27.274439" lon="151.290064">
  <ele>343.0</ele>
  <time>2026-09-01T01:11:29Z</time>
  <course>0.0</course>
  <speed>0.0</speed>
  <fix>3d</fix>
</trkpt>
<trkpt lat="-27.2744388" lon="151.2900639">
  <ele>343.07</ele>
  <time>2026-09-01T01:11:29Z</time>
  <course>200.08</course>
  <speed>0.02</speed>
  <fix>3d</fix>
</trkpt>
<trkpt lat="-27.274439" lon="151.290064">
  <ele>343.0</ele>
  <time>2026-09-01T01:11:29Z</time>
  <course>0.0</course>
  <speed>0.0</speed>
  <fix>3d</fix>
</trkpt>
<trkpt lat="-27.2744388" lon="151.2900639">
  <ele>343.05</ele>
  <time>2026-09-01T01:11:29Z</time>
  <course>191.08</course>
  <speed>0.02</speed>
  <fix>3d</fix>
</trkpt>
<trkpt lat="-27.274439" lon="151.290064">
  <ele>343.0</ele>
  <time>2026-09-01T01:11:29Z</time>
  <course>0.0</course>
  <speed>0.0</speed>
  <fix>3d</fix>
</trkpt>
<trkpt lat="-27.2744388" lon="151.2900639">
  <ele>343.04</ele>
  <time>2026-09-01T01:11:29Z</time>
  <course>182.1</course>
  <speed>0.02</speed>
  <fix>3d</fix>
</trkpt>
<trkpt lat="-27.274439" lon="151.290064">
  <ele>343.0</ele>
  <time>2026-09-01T01:11:29Z</time>
  <course>0.0</course>
  <speed>0.0</speed>
  <fix>3d</fix>
</trkpt>
<trkpt lat="-27.2744388" lon="151.2900639">
  <ele>343.05</ele>
  <time>2026-09-01T01:11:29Z</time>
  <course>173.09</course>
  <speed>0.01</speed>
  <fix>3d</fix>
</trkpt>
<trkpt lat="-27.274439" lon="151.290064">
  <ele>343.0</ele>
  <time>2026-09-01T01:11:29Z</time>
  <course>0.0</course>
  <speed>0.0</speed>
  <fix>3d</fix>
</trkpt>
<trkpt lat="-27.2744388" lon="151.2900639">
  <ele>342.97</ele>
  <time>2026-09-01T01:11:29Z</time>
  <course>164.12</course>
  <speed>0.01</speed>
  <fix>3d</fix>
</trkpt>
<trkpt lat="-27.274439" lon="151.290064">
  <ele>343.0</ele>
  <time>2026-09-01T01:11:29Z</time>
  <course>0.0</course>
  <speed>0.0</speed>
  <fix>3d</fix>
</trkpt>
<trkpt lat="-27.2744388" lon="151.2900639">
  <ele>342.9</ele>
  <time>2026-09-01T01:11:29Z</time>
  <course>155.13</course>
  <speed>0.01</speed>
  <fix>3d</fix>
</trkpt>
<trkpt lat="-27.274439" lon="151.290064">
  <ele>343.0</ele>
  <time>2026-09-01T01:11:29Z</time>
  <course>0.0</course>
  <speed>0.0</speed>
  <fix>3d</fix>
</trkpt>
<trkpt lat="-27.2744389" lon="151.2900639">
  <ele>342.85</ele>
  <time>2026-09-01T01:11:29Z</time>
  <course>146.13</course>
  <speed>0.01</speed>
  <fix>3d</fix>
</trkpt>
<trkpt lat="-27.274439" lon="151.290064">
  <ele>343.0</ele>
  <time>2026-09-01T01:11:29Z</time>
  <course>0.0</course>
  <speed>0.0</speed>
  <fix>3d</fix>
</trkpt>
<trkpt lat="-27.2744389" lon="151.2900639">
  <ele>342.83</ele>
  <time>2026-09-01T01:11:29Z</time>
  <course>137.13</course>
  <speed>0.0</speed>
  <fix>3d</fix>
</trkpt>
<trkpt lat="-27.274439" lon="151.290064">
  <ele>343.0</ele>
  <time>2026-09-01T01:11:29Z</time>
  <course>0.0</course>
  <speed>0.0</speed>
  <fix>3d</fix>
</trkpt>
<trkpt lat="-27.274439" lon="151.290064">
  <ele>343.0</ele>
  <time>2026-09-01T01:11:29Z</time>
  <course>325.88</course>
  <speed>0.0</speed>
  <fix>3d</fix>
</trkpt>
<trkpt lat="-27.274439" lon="151.290064">
  <ele>343.0</ele>
  <time>2026-09-01T01:11:29Z</time>
  <course>324.43</course>
  <speed>0.0</speed>
  <fix>3d</fix>
</trkpt>
<trkpt lat="-27.274439" lon="151.290064">
  <ele>343.0</ele>
  <time>2026-09-01T01:11:29Z</time>
  <course>321.86</course>
  <speed>0.0</speed>
  <fix>3d</fix>
</trkpt>
<trkpt lat="-27.274439" lon="151.290064">
  <ele>343.0</ele>
  <time>2026-09-01T01:11:29Z</time>
  <course>295.0</course>
  <speed>0.0</speed>
  <fix>3d</fix>
</trkpt>
<trkpt lat="-27.274439" lon="151.290064">
  <ele>343.0</ele>
  <time>2026-09-01T01:11:29Z</time>
  <course>290.72</course>
  <speed>0.0</speed>
  <fix>3d</fix>
</trkpt>
<trkpt lat="-27.274439" lon="151.290064">
  <ele>343.0</ele>
  <time>2026-09-01T01:11:29Z</time>
  <course>284.84</course>
  <speed>0.0</speed>
  <fix>3d</fix>
</trkpt>
<trkpt lat="-27.274439" lon="151.290064">
  <ele>343.0</ele>
  <time>2026-09-01T01:11:29Z</time>
  <course>277.79</course>
  <speed>0.0</speed>
  <fix>3d</fix>
</trkpt>
<trkpt lat="-27.274439" lon="151.290064">
  <ele>343.0</ele>
  <time>2026-09-01T01:11:29Z</time>
  <course>269.55</course>
  <speed>0.0</speed>
  <fix>3d</fix>
</trkpt>
<trkpt lat="-27.274439" lon="151.290064">
  <ele>343.0</ele>
  <time>2026-09-01T01:11:29Z</time>
  <course>262.16</course>
  <speed>0.9176055797563569</speed>
  <fix>3d</fix>
</trkpt>
<trkpt lat="-27.274439" lon="151.290064">
  <ele>343.0</ele>
  <time>2026-09-01T01:11:29Z</time>
  <course>0.0</course>
  <speed>0.0</speed>
  <fix>3d</fix>
</trkpt>
<trkpt lat="-27.274439" lon="151.290064">
  <ele>343.0</ele>
  <time>2026-09-01T01:11:29Z</time>
  <course>256.4</course>
  <speed>0.9403190947758107</speed>
  <fix>3d</fix>
</trkpt>
<trkpt lat="-27.274439" lon="151.290064">
  <ele>343.0</ele>
  <time>2026-09-01T01:11:29Z</time>
  <course>0.0</course>
  <speed>0.0</speed>
  <fix>3d</fix>
</trkpt>
<trkpt lat="-27.274439" lon="151.290064">
  <ele>343.0</ele>
  <time>2026-09-01T01:11:29Z</time>
  <course>249.45</course>
  <speed>0.756042326857432</speed>
  <fix>3d</fix>
</trkpt>
<trkpt lat="-27.274439" lon="151.290064">
  <ele>343.0</ele>
  <time>2026-09-01T01:11:29Z</time>
  <course>0.0</course>
  <speed>0.0</speed>
  <fix>3d</fix>
</trkpt>
<trkpt lat="-27.274439" lon="151.290064">
  <ele>343.0</ele>
  <time>2026-09-01T01:11:29Z</time>
  <course>241.79</course>
  <speed>0.6596969000988256</speed>
  <fix>3d</fix>
</trkpt>
<trkpt lat="-27.274439" lon="151.290064">
  <ele>343.0</ele>
  <time>2026-09-01T01:11:29Z</time>
  <course>0.0</course>
  <speed>0.0</speed>
  <fix>3d</fix>
</trkpt>
<trkpt lat="-27.274439" lon="151.290064">
  <ele>343.0</ele>
  <time>2026-09-01T01:11:29Z</time>
  <course>233.59</course>
  <speed>0.6618912297349165</speed>
  <fix>3d</fix>
</trkpt>
<trkpt lat="-27.274439" lon="151.290064">
  <ele>343.0</ele>
  <time>2026-09-01T01:11:29Z</time>
  <course>0.0</course>
  <speed>0.0</speed>
  <fix>3d</fix>
</trkpt>
<trkpt lat="-27.274439" lon="151.290064">
  <ele>343.0</ele>
  <time>2026-09-01T01:11:29Z</time>
  <course>225.02</course>
  <speed>0.7034202158027589</speed>
  <fix>3d</fix>
</trkpt>
<trkpt lat="-27.274439" lon="151.290064">
  <ele>343.0</ele>
  <time>2026-09-01T01:11:29Z</time>
  <course>0.0</course>
  <speed>0.0</speed>
  <fix>3d</fix>
</trkpt>
<trkpt lat="-27.274439" lon="151.290064">
  <ele>343.0</ele>
  <time>2026-09-01T01:11:29Z</time>
  <course>216.17</course>
  <speed>0.7539230729988305</speed>
  <fix>3d</fix>
</trkpt>
<trkpt lat="-27.274439" lon="151.290064">
  <ele>343.0</ele>
  <time>2026-09-01T01:11:29Z</time>
  <course>0.0</course>
  <speed>0.0</speed>
  <fix>3d</fix>
</trkpt>
<trkpt lat="-27.274439" lon="151.290064">
  <ele>343.0</ele>
  <time>2026-09-01T01:11:29Z</time>
  <course>207.13</course>
  <speed>0.8052949770115296</speed>
  <fix>3d</fix>
</trkpt>
<trkpt lat="-27.274439" lon="151.290064">
  <ele>343.0</ele>
  <time>2026-09-01T01:11:29Z</time>
  <course>0.0</course>
  <speed>0.0</speed>
  <fix>3d</fix>
</trkpt>
<trkpt lat="-27.274439" lon="151.290064">
  <ele>343.0</ele>
  <time>2026-09-01T01:11:29Z</time>
  <course>197.95</course>
  <speed>0.8453401682163222</speed>
  <fix>3d</fix>
</trkpt>
<trkpt lat="-27.274439" lon="151.290064">
  <ele>343.0</ele>
  <time>2026-09-01T01:11:29Z</time>
  <course>0.0</course>
  <speed>0.0</speed>
  <fix>3d</fix>
</trkpt>
<trkpt lat="-27.274439" lon="151.290064">
  <ele>343.0</ele>
  <time>2026-09-01T01:11:29Z</time>
  <course>188.48</course>
  <speed>0.4167733196834941</speed>
  <fix>3d</fix>
</trkpt>
<trkpt lat="-27.274439" lon="151.290064">
  <ele>343.0</ele>
  <time>2026-09-01T01:11:29Z</time>
  <course>0.0</course>
  <speed>0.0</speed>
  <fix>3d</fix>
</trkpt>
<trkpt lat="-27.274439" lon="151.290064">
  <ele>343.0</ele>
  <time>2026-09-01T01:11:29Z</time>
  <course>178.91</course>
  <speed>0.130384048104053</speed>
  <fix>3d</fix>
</trkpt>
<trkpt lat="-27.274439" lon="151.290064">
  <ele>343.0</ele>
  <time>2026-09-01T01:11:29Z</time>
  <course>0.0</course>
  <speed>0.0</speed>
  <fix>3d</fix>
</trkpt>
<trkpt lat="-27.274439" lon="151.290064">
  <ele>343.0</ele>
  <time>2026-09-01T01:11:29Z</time>
  <course>169.43</course>
  <speed>0.10816653826391968</speed>
  <fix>3d</fix>
</trkpt>
<trkpt lat="-27.274439" lon="151.290064">
  <ele>343.0</ele>
  <time>2026-09-01T01:11:29Z</time>
  <course>0.0</course>
  <speed>0.0</speed>
  <fix>3d</fix>
</trkpt>
<trkpt lat="-27.274439" lon="151.290064">
  <ele>343.0</ele>
  <time>2026-09-01T01:11:29Z</time>
  <course>160.0</course>
  <speed>0.13601470508735444</speed>
  <fix>3d</fix>
</trkpt>
<trkpt lat="-27.274439" lon="151.290064">
  <ele>343.0</ele>
  <time>2026-09-01T01:11:29Z</time>
  <course>0.0</course>
  <speed>0.0</speed>
  <fix>3d</fix>
</trkpt>
<trkpt lat="-27.274439" lon="151.290064">
  <ele>343.0</ele>
  <time>2026-09-01T01:11:29Z</time>
  <course>325.88</course>
  <speed>0.0</speed>
  <fix>3d</fix>
</trkpt>
<trkpt lat="-27.274439" lon="151.290064">
  <ele>343.0</ele>
  <time>2026-09-01T01:11:29Z</time>
  <course>324.43</course>
  <speed>0.0</speed>
  <fix>3d</fix>
</trkpt>
<trkpt lat="-27.274439" lon="151.290064">
  <ele>343.0</ele>
  <time>2026-09-01T01:11:29Z</time>
  <course>321.86</course>
  <speed>0.0</speed>
  <fix>3d</fix>
</trkpt>
<trkpt lat="-27.274439" lon="151.290064">
  <ele>343.0</ele>
  <time>2026-09-01T01:11:29Z</time>
  <course>295.0</course>
  <speed>0.0</speed>
  <fix>3d</fix>
</trkpt>
<trkpt lat="-27.274439" lon="151.290064">
  <ele>343.0</ele>
  <time>2026-09-01T01:11:29Z</time>
  <course>290.72</course>
  <speed>0.0</speed>
  <fix>3d</fix>
</trkpt>
<trkpt lat="-27.274439" lon="151.290064">
  <ele>343.0</ele>
  <time>2026-09-01T01:11:29Z</time>
  <course>284.84</course>
  <speed>0.0</speed>
  <fix>3d</fix>
</trkpt>
<trkpt lat="-27.274439" lon="151.290064">
  <ele>343.0</ele>
  <time>2026-09-01T01:11:29Z</time>
  <course>277.79</course>
  <speed>0.0</speed>
  <fix>3d</fix>
</trkpt>
<trkpt lat="-27.274439" lon="151.290064">
  <ele>343.0</ele>
  <time>2026-09-01T01:11:29Z</time>
  <course>269.55</course>
  <speed>0.0</speed>
  <fix>3d</fix>
</trkpt>
<trkpt lat="-27.274439" lon="151.290064">
  <ele>343.0</ele>
  <time>2026-09-01T01:11:29Z</time>
  <course>262.16</course>
  <speed>0.9176055797563569</speed>
  <fix>3d</fix>
</trkpt>
<trkpt lat="-27.274439" lon="151.290064">
  <ele>343.0</ele>
  <time>2026-09-01T01:11:29Z</time>
  <course>0.0</course>
  <speed>0.0</speed>
  <fix>3d</fix>
</trkpt>
<trkpt lat="-27.274439" lon="151.290064">
  <ele>343.0</ele>
  <time>2026-09-01T01:11:29Z</time>
  <course>256.4</course>
  <speed>0.9403190947758107</speed>
  <fix>3d</fix>
</trkpt>
<trkpt lat="-27.274439" lon="151.290064">
  <ele>343.0</ele>
  <time>2026-09-01T01:11:29Z</time>
  <course>0.0</course>
  <speed>0.0</speed>
  <fix>3d</fix>
</trkpt>
<trkpt lat="-27.274439" lon="151.290064">
  <ele>343.0</ele>
  <time>2026-09-01T01:11:29Z</time>
  <course>249.45</course>
  <speed>0.756042326857432</speed>
  <fix>3d</fix>
</trkpt>
<trkpt lat="-27.274439" lon="151.290064">
  <ele>343.0</ele>
  <time>2026-09-01T01:11:29Z</time>
  <course>0.0</course>
  <speed>0.0</speed>
  <fix>3d</fix>
</trkpt>
<trkpt lat="-27.274439" lon="151.290064">
  <ele>343.0</ele>
  <time>2026-09-01T01:11:29Z</time>
  <course>241.79</course>
  <speed>0.6596969000988256</speed>
  <fix>3d</fix>
</trkpt>
<trkpt lat="-27.274439" lon="151.290064">
  <ele>343.0</ele>
  <time>2026-09-01T01:11:29Z</time>
  <course>0.0</course>
  <speed>0.0</speed>
  <fix>3d</fix>
</trkpt>
<trkpt lat="-27.274439" lon="151.290064">
  <ele>343.0</ele>
  <time>2026-09-01T01:11:29Z</time>
  <course>233.59</course>
  <speed>0.6618912297349165</speed>
  <fix>3d</fix>
</trkpt>
<trkpt lat="-27.274439" lon="151.290064">
  <ele>343.0</ele>
  <time>2026-09-01T01:11:29Z</time>
  <course>0.0</course>
  <speed>0.0</speed>
  <fix>3d</fix>
</trkpt>
<trkpt lat="-27.274439" lon="151.290064">
  <ele>343.0</ele>
  <time>2026-09-01T01:11:29Z</time>
  <course>216.17</course>
  <speed>0.7539230729988305</speed>
  <fix>3d</fix>
</trkpt>
<trkpt lat="-27.274439" lon="151.290064">
  <ele>343.0</ele>
  <time>2026-09-01T01:11:29Z</time>
  <course>0.0</course>
  <speed>0.0</speed>
  <fix>3d</fix>
</trkpt>
<trkpt lat="-27.274439" lon="151.290064">
  <ele>343.0</ele>
  <time>2026-09-01T01:11:29Z</time>
  <course>207.13</course>
  <speed>0.8052949770115296</speed>
  <fix>3d</fix>
</trkpt>
<trkpt lat="-27.274439" lon="151.290064">
  <ele>343.0</ele>
  <time>2026-09-01T01:11:29Z</time>
  <course>0.0</course>
  <speed>0.0</speed>
  <fix>3d</fix>
</trkpt>
<trkpt lat="-27.274439" lon="151.290064">
  <ele>343.0</ele>
  <time>2026-09-01T01:11:29Z</time>
  <course>197.95</course>
  <speed>0.8453401682163222</speed>
  <fix>3d</fix>
</trkpt>
<trkpt lat="-27.274439" lon="151.290064">
  <ele>343.0</ele>
  <time>2026-09-01T01:11:29Z</time>
  <course>0.0</course>
  <speed>0.0</speed>
  <fix>3d</fix>
</trkpt>
<trkpt lat="-27.274439" lon="151.290064">
  <ele>343.0</ele>
  <time>2026-09-01T01:11:29Z</time>
  <course>188.67</course>
  <speed>0.878179936004006</speed>
  <fix>3d</fix>
</trkpt>
<trkpt lat="-27.274439" lon="151.290064">
  <ele>343.0</ele>
  <time>2026-09-01T01:11:29Z</time>
  <course>0.0</course>
  <speed>0.0</speed>
  <fix>3d</fix>
</trkpt>
<trkpt lat="-27.274439" lon="151.290064">
  <ele>343.0</ele>
  <time>2026-09-01T01:11:29Z</time>
  <course>179.31</course>
  <speed>0.8848163651289458</speed>
  <fix>3d</fix>
</trkpt>
<trkpt lat="-27.274439" lon="151.290064">
  <ele>343.0</ele>
  <time>2026-09-01T01:11:29Z</time>
  <course>0.0</course>
  <speed>0.0</speed>
  <fix>3d</fix>
</trkpt>
<trkpt lat="-27.274439" lon="151.290064">
  <ele>343.0</ele>
  <time>2026-09-01T01:11:30Z</time>
  <course>169.93</course>
  <speed>0.9140021881811882</speed>
  <fix>3d</fix>
</trkpt>
<trkpt lat="-27.274439" lon="151.290064">
  <ele>343.0</ele>
  <time>2026-09-01T01:11:30Z</time>
  <course>0.0</course>
  <speed>0.0</speed>
  <fix>3d</fix>
</trkpt>
<trkpt lat="-27.274439" lon="151.290064">
  <ele>343.0</ele>
  <time>2026-09-01T01:11:30Z</time>
  <course>161.9</course>
  <speed>0.9219544457292888</speed>
  <fix>3d</fix>
</trkpt>
<trkpt lat="-27.274439" lon="151.290064">
  <ele>343.0</ele>
  <time>2026-09-01T01:11:30Z</time>
  <course>0.0</course>
  <speed>0.0</speed>
  <fix>3d</fix>
</trkpt>
<trkpt lat="-27.274438" lon="151.2900657">
  <ele>342.99</ele>
  <time>2026-09-01T01:11:30Z</time>
  <course>159.69</course>
  <speed>0.9479451460923254</speed>
  <fix>3d</fix>
</trkpt>
<trkpt lat="-27.274438" lon="151.2900657">
  <ele>342.99</ele>
  <time>2026-09-01T01:11:30Z</time>
  <course>329.26</course>
  <speed>0.0</speed>
  <fix>3d</fix>
</trkpt>
<trkpt lat="-27.274438" lon="151.2900657">
  <ele>342.99</ele>
  <time>2026-09-01T01:11:30Z</time>
  <course>160.02</course>
  <speed>0.9900505037623081</speed>
  <fix>3d</fix>
</trkpt>
<trkpt lat="-27.274438" lon="151.2900657">
  <ele>342.99</ele>
  <time>2026-09-01T01:11:30Z</time>
  <course>327.72</course>
  <speed>0.0</speed>
  <fix>3d</fix>
</trkpt>
<trkpt lat="-27.2744379" lon="151.2900656">
  <ele>342.99</ele>
  <time>2026-09-01T01:11:30Z</time>
  <course>153.39</course>
  <speed>0.5467174773134658</speed>
  <fix>3d</fix>
</trkpt>
<trkpt lat="-27.2744378" lon="151.2900655">
  <ele>342.99</ele>
  <time>2026-09-01T01:11:30Z</time>
  <course>321.2</course>
  <speed>0.03</speed>
  <fix>3d</fix>
</trkpt>
<trkpt lat="-27.2744377" lon="151.2900654">
  <ele>342.99</ele>
  <time>2026-09-01T01:11:30Z</time>
  <course>145.61</course>
  <speed>0.24596747752497689</speed>
  <fix>3d</fix>
</trkpt>
<trkpt lat="-27.2744376" lon="151.2900653">
  <ele>342.99</ele>
  <time>2026-09-01T01:11:30Z</time>
  <course>312.17</course>
  <speed>0.03</speed>
  <fix>3d</fix>
</trkpt>
<trkpt lat="-27.2744375" lon="151.2900651">
  <ele>342.99</ele>
  <time>2026-09-01T01:11:30Z</time>
  <course>137.95</course>
  <speed>0.14560219778561037</speed>
  <fix>3d</fix>
</trkpt>
<trkpt lat="-27.2744374" lon="151.2900651">
  <ele>342.99</ele>
  <time>2026-09-01T01:11:30Z</time>
  <course>303.09</course>
  <speed>0.03</speed>
  <fix>3d</fix>
</trkpt>
<trkpt lat="-27.2744373" lon="151.2900648">
  <ele>342.99</ele>
  <time>2026-09-01T01:11:30Z</time>
  <course>130.33</course>
  <speed>0.13601470508735444</speed>
  <fix>3d</fix>
</trkpt>
<trkpt lat="-27.2744373" lon="151.2900648">
  <ele>342.99</ele>
  <time>2026-09-01T01:11:30Z</time>
  <course>293.99</course>
  <speed>0.03</speed>
  <fix>3d</fix>
</trkpt>
<trkpt lat="-27.274439" lon="151.290064">
  <ele>343.0</ele>
  <time>2026-09-01T01:11:30Z</time>
  <course>325.88</course>
  <speed>0.0</speed>
  <fix>3d</fix>
</trkpt>
<trkpt lat="-27.274439" lon="151.290064">
  <ele>343.0</ele>
  <time>2026-09-01T01:11:30Z</time>
  <course>324.43</course>
  <speed>0.0</speed>
  <fix>3d</fix>
</trkpt>
<trkpt lat="-27.274439" lon="151.290064">
  <ele>343.0</ele>
  <time>2026-09-01T01:11:30Z</time>
  <course>321.86</course>
  <speed>0.0</speed>
  <fix>3d</fix>
</trkpt>
<trkpt lat="-27.274439" lon="151.290064">
  <ele>343.0</ele>
  <time>2026-09-01T01:11:30Z</time>
  <course>318.37</course>
  <speed>0.0</speed>
  <fix>3d</fix>
</trkpt>
<trkpt lat="-27.274439" lon="151.290064">
  <ele>343.0</ele>
  <time>2026-09-01T01:11:30Z</time>
  <course>314.12</course>
  <speed>0.0</speed>
  <fix>3d</fix>
</trkpt>
<trkpt lat="-27.274439" lon="151.290064">
  <ele>343.0</ele>
  <time>2026-09-01T01:11:30Z</time>
  <course>309.23</course>
  <speed>0.0</speed>
  <fix>3d</fix>
</trkpt>
<trkpt lat="-27.274439" lon="151.290064">
  <ele>343.0</ele>
  <time>2026-09-01T01:11:30Z</time>
  <course>303.85</course>
  <speed>0.0</speed>
  <fix>3d</fix>
</trkpt>
<trkpt lat="-27.274439" lon="151.290064">
  <ele>343.0</ele>
  <time>2026-09-01T01:11:30Z</time>
  <course>298.09</course>
  <speed>0.0</speed>
  <fix>3d</fix>
</trkpt>
<trkpt lat="-27.274439" lon="151.290064">
  <ele>343.0</ele>
  <time>2026-09-01T01:11:30Z</time>
  <course>292.03</course>
  <speed>0.0</speed>
  <fix>3d</fix>
</trkpt>
<trkpt lat="-27.2744407" lon="151.2900645">
  <ele>-0.14</ele>
  <time>2026-09-01T01:11:30Z</time>
  <course>285.91</course>
  <speed>0.03</speed>
  <fix>3d</fix>
</trkpt>
<trkpt lat="-27.2744407" lon="151.2900645">
  <ele>342.99</ele>
  <time>2026-09-01T01:11:30Z</time>
  <course>73.33</course>
  <speed>0.03</speed>
  <fix>3d</fix>
</trkpt>
<trkpt lat="-27.2744406" lon="151.2900648">
  <ele>-0.06</ele>
  <time>2026-09-01T01:11:30Z</time>
  <course>280.34</course>
  <speed>0.022360679774997897</speed>
  <fix>3d</fix>
</trkpt>
<trkpt lat="-27.2744405" lon="151.2900649">
  <ele>342.99</ele>
  <time>2026-09-01T01:11:30Z</time>
  <course>62.5</course>
  <speed>0.03</speed>
  <fix>3d</fix>
</trkpt>
<trkpt lat="-27.2744404" lon="151.2900651">
  <ele>342.99</ele>
  <time>2026-09-01T01:11:30Z</time>
  <course>0.0</course>
  <speed>0.2640075756488817</speed>
  <fix>3d</fix>
</trkpt>
<trkpt lat="-27.2744404" lon="151.2900651">
  <ele>342.99</ele>
  <time>2026-09-01T01:11:30Z</time>
  <course>55.27</course>
  <speed>0.03</speed>
  <fix>3d</fix>
</trkpt>
<trkpt lat="-27.2744402" lon="151.2900653">
  <ele>342.99</ele>
  <time>2026-09-01T01:11:30Z</time>
  <course>230.64</course>
  <speed>0.3138470965295043</speed>
  <fix>3d</fix>
</trkpt>
<trkpt lat="-27.2744402" lon="151.2900654">
  <ele>342.99</ele>
  <time>2026-09-01T01:11:30Z</time>
  <course>44.41</course>
  <speed>0.03</speed>
  <fix>3d</fix>
</trkpt>
<trkpt lat="-27.27444" lon="151.2900656">
  <ele>342.99</ele>
  <time>2026-09-01T01:11:30Z</time>
  <course>226.13</course>
  <speed>0.7647875521999558</speed>
  <fix>3d</fix>
</trkpt>
<trkpt lat="-27.27444" lon="151.2900656">
  <ele>342.99</ele>
  <time>2026-09-01T01:11:30Z</time>
  <course>37.16</course>
  <speed>0.03</speed>
  <fix>3d</fix>
</trkpt>
<trkpt lat="-27.2744398" lon="151.2900657">
  <ele>342.99</ele>
  <time>2026-09-01T01:11:30Z</time>
  <course>215.84</course>
  <speed>1.4937536610833797</speed>
  <fix>3d</fix>
</trkpt>
<trkpt lat="-27.2744397" lon="151.2900658">
  <ele>342.99</ele>
  <time>2026-09-01T01:11:30Z</time>
  <course>26.26</course>
  <speed>0.03</speed>
  <fix>3d</fix>
</trkpt>
<trkpt lat="-27.2744395" lon="151.2900659">
  <ele>342.99</ele>
  <time>2026-09-01T01:11:30Z</time>
  <course>202.56</course>
  <speed>2.4738633753705965</speed>
  <fix>3d</fix>
</trkpt>
<trkpt lat="-27.2744395" lon="151.2900659">
  <ele>342.99</ele>
  <time>2026-09-01T01:11:30Z</time>
  <course>18.98</course>
  <speed>0.03</speed>
  <fix>3d</fix>
</trkpt>
<trkpt lat="-27.2744393" lon="151.2900659">
  <ele>342.99</ele>
  <time>2026-09-01T01:11:30Z</time>
  <course>190.96</course>
  <speed>3.3148906467634793</speed>
  <fix>3d</fix>
</trkpt>
<trkpt lat="-27.2744392" lon="151.290066">
  <ele>342.99</ele>
  <time>2026-09-01T01:11:30Z</time>
  <course>8.04</course>
  <speed>0.03</speed>
  <fix>3d</fix>
</trkpt>
<trkpt lat="-27.274439" lon="151.290066">
  <ele>342.99</ele>
  <time>2026-09-01T01:11:30Z</time>
  <course>180.01</course>
  <speed>3.4461137532008426</speed>
  <fix>3d</fix>
</trkpt>
<trkpt lat="-27.274439" lon="151.290066">
  <ele>342.99</ele>
  <time>2026-09-01T01:11:30Z</time>
  <course>0.72</course>
  <speed>0.03</speed>
  <fix>3d</fix>
</trkpt>
<trkpt lat="-27.2744387" lon="151.290066">
  <ele>342.99</ele>
  <time>2026-09-01T01:11:30Z</time>
  <course>170.21</course>
  <speed>2.820815484926301</speed>
  <fix>3d</fix>
</trkpt>
<trkpt lat="-27.2744386" lon="151.2900659">
  <ele>342.99</ele>
  <time>2026-09-01T01:11:30Z</time>
  <course>349.73</course>
  <speed>0.03</speed>
  <fix>3d</fix>
</trkpt>
<trkpt lat="-27.2744384" lon="151.2900659">
  <ele>342.99</ele>
  <time>2026-09-01T01:11:30Z</time>
  <course>160.69</course>
  <speed>1.9504102132628407</speed>
  <fix>3d</fix>
</trkpt>
<trkpt lat="-27.2744384" lon="151.2900659">
  <ele>342.99</ele>
  <time>2026-09-01T01:11:30Z</time>
  <course>342.39</course>
  <speed>0.03</speed>
  <fix>3d</fix>
</trkpt>
<trkpt lat="-27.2744382" lon="151.2900658">
  <ele>342.99</ele>
  <time>2026-09-01T01:11:30Z</time>
  <course>152.95</course>
  <speed>1.2360016181219182</speed>
  <fix>3d</fix>
</trkpt>
<trkpt lat="-27.2744382" lon="151.2900658">
  <ele>342.99</ele>
  <time>2026-09-01T01:11:30Z</time>
  <course>333.77</course>
  <speed>0.02</speed>
  <fix>3d</fix>
</trkpt>
<trkpt lat="-27.274438" lon="151.2900657">
  <ele>342.99</ele>
  <time>2026-09-01T01:11:30Z</time>
  <course>149.77</course>
  <speed>0.7636753236814714</speed>
  <fix>3d</fix>
</trkpt>
<trkpt lat="-27.274438" lon="151.2900657">
  <ele>342.99</ele>
  <time>2026-09-01T01:11:30Z</time>
  <course>329.51</course>
  <speed>0.0</speed>
  <fix>3d</fix>
</trkpt>
<trkpt lat="-27.274438" lon="151.2900657">
  <ele>342.99</ele>
  <time>2026-09-01T01:11:30Z</time>
  <course>148.35</course>
  <speed>0.5682429058070149</speed>
  <fix>3d</fix>
</trkpt>
<trkpt lat="-27.274438" lon="151.2900657">
  <ele>342.99</ele>
  <time>2026-09-01T01:11:30Z</time>
  <course>327.82</course>
  <speed>0.0</speed>
  <fix>3d</fix>
</trkpt>
<trkpt lat="-27.274438" lon="151.2900656">
  <ele>342.99</ele>
  <time>2026-09-01T01:11:30Z</time>
  <course>147.61</course>
  <speed>0.5756735185849702</speed>
  <fix>3d</fix>
</trkpt>
<trkpt lat="-27.274438" lon="151.2900656">
  <ele>342.99</ele>
  <time>2026-09-01T01:11:30Z</time>
  <course>327.12</course>
  <speed>0.0</speed>
  <fix>3d</fix>
</trkpt>
<trkpt lat="-27.274438" lon="151.2900656">
  <ele>342.99</ele>
  <time>2026-09-01T01:11:30Z</time>
  <course>147.24</course>
  <speed>0.5608921464952064</speed>
  <fix>3d</fix>
</trkpt>
<trkpt lat="-27.274438" lon="151.2900656">
  <ele>342.99</ele>
  <time>2026-09-01T01:11:30Z</time>
  <course>326.81</course>
  <speed>0.0</speed>
  <fix>3d</fix>
</trkpt>
<trkpt lat="-27.274438" lon="151.2900656">
  <ele>342.99</ele>
  <time>2026-09-01T01:11:30Z</time>
  <course>146.99</course>
  <speed>0.5277309920783505</speed>
  <fix>3d</fix>
</trkpt>
<trkpt lat="-27.274438" lon="151.2900656">
  <ele>342.99</ele>
  <time>2026-09-01T01:11:30Z</time>
  <course>326.68</course>
  <speed>0.0</speed>
  <fix>3d</fix>
</trkpt>
<trkpt lat="-27.274438" lon="151.2900656">
  <ele>342.99</ele>
  <time>2026-09-01T01:11:30Z</time>
  <course>146.86</course>
  <speed>0.4219004621945798</speed>
  <fix>3d</fix>
</trkpt>
<trkpt lat="-27.274438" lon="151.2900656">
  <ele>342.99</ele>
  <time>2026-09-01T01:11:30Z</time>
  <course>326.62</course>
  <speed>0.0</speed>
  <fix>3d</fix>
</trkpt>
<trkpt lat="-27.274438" lon="151.2900656">
  <ele>342.99</ele>
  <time>2026-09-01T01:11:30Z</time>
  <course>146.78</course>
  <speed>0.3014962686336267</speed>
  <fix>3d</fix>
</trkpt>
<trkpt lat="-27.274438" lon="151.2900656">
  <ele>342.99</ele>
  <time>2026-09-01T01:11:30Z</time>
  <course>326.59</course>
  <speed>0.0</speed>
  <fix>3d</fix>
</trkpt>
<trkpt lat="-27.274438" lon="151.2900656">
  <ele>343.0</ele>
  <time>2026-09-01T01:11:30Z</time>
  <course>146.73</course>
  <speed>0.20124611797498107</speed>
  <fix>3d</fix>
</trkpt>
<trkpt lat="-27.274438" lon="151.2900656">
  <ele>343.0</ele>
  <time>2026-09-01T01:11:30Z</time>
  <course>326.58</course>
  <speed>0.0</speed>
  <fix>3d</fix>
</trkpt>
<trkpt lat="-27.274438" lon="151.2900656">
  <ele>343.0</ele>
  <time>2026-09-01T01:11:30Z</time>
  <course>146.69</course>
  <speed>0.16552945357246848</speed>
  <fix>3d</fix>
</trkpt>
<trkpt lat="-27.274438" lon="151.2900656">
  <ele>343.0</ele>
  <time>2026-09-01T01:11:30Z</time>
  <course>326.58</course>
  <speed>0.0</speed>
  <fix>3d</fix>
</trkpt>
<trkpt lat="-27.274438" lon="151.2900656">
  <ele>343.0</ele>
  <time>2026-09-01T01:11:30Z</time>
  <course>146.67</course>
  <speed>0.2009975124224178</speed>
  <fix>3d</fix>
</trkpt>
<trkpt lat="-27.274438" lon="151.2900656">
  <ele>343.0</ele>
  <time>2026-09-01T01:11:30Z</time>
  <course>326.58</course>
  <speed>0.0</speed>
  <fix>3d</fix>
</trkpt>
<trkpt lat="-27.274438" lon="151.2900656">
  <ele>343.0</ele>
  <time>2026-09-01T01:11:30Z</time>
  <course>146.65</course>
  <speed>0.26</speed>
  <fix>3d</fix>
</trkpt>
<trkpt lat="-27.274438" lon="151.2900656">
  <ele>343.0</ele>
  <time>2026-09-01T01:11:30Z</time>
  <course>326.58</course>
  <speed>0.0</speed>
  <fix>3d</fix>
</trkpt>
<trkpt lat="-27.274438" lon="151.2900656">
  <ele>343.0</ele>
  <time>2026-09-01T01:11:30Z</time>
  <course>146.63</course>
  <speed>0.2968164415931166</speed>
  <fix>3d</fix>
</trkpt>
<trkpt lat="-27.274438" lon="151.2900656">
  <ele>343.0</ele>
  <time>2026-09-01T01:11:30Z</time>
  <course>326.58</course>
  <speed>0.0</speed>
  <fix>3d</fix>
</trkpt>
<trkpt lat="-27.274438" lon="151.2900656">
  <ele>343.0</ele>
  <time>2026-09-01T01:11:30Z</time>
  <course>146.64</course>
  <speed>0.35805027579936316</speed>
  <fix>3d</fix>
</trkpt>
<trkpt lat="-27.274438" lon="151.2900656">
  <ele>343.0</ele>
  <time>2026-09-01T01:11:30Z</time>
  <course>326.58</course>
  <speed>0.0</speed>
  <fix>3d</fix>
</trkpt>
<trkpt lat="-27.274438" lon="151.2900656">
  <ele>343.0</ele>
  <time>2026-09-01T01:11:30Z</time>
  <course>146.63</course>
  <speed>0.3687817782917155</speed>
  <fix>3d</fix>
</trkpt>
<trkpt lat="-27.274438" lon="151.2900656">
  <ele>343.0</ele>
  <time>2026-09-01T01:11:30Z</time>
  <course>326.58</course>
  <speed>0.0</speed>
  <fix>3d</fix>
</trkpt>
<trkpt lat="-27.2744386" lon="151.2900636">
  <ele>342.9</ele>
  <time>2026-09-01T01:11:30Z</time>
  <course>146.64</course>
  <speed>0.07280109889280519</speed>
  <fix>3d</fix>
</trkpt>
<trkpt lat="-27.274438" lon="151.2900656">
  <ele>343.0</ele>
  <time>2026-09-01T01:11:30Z</time>
  <course>326.58</course>
  <speed>0.0</speed>
  <fix>3d</fix>
</trkpt>
<trkpt lat="-27.2744387" lon="151.2900639">
  <ele>342.89</ele>
  <time>2026-09-01T01:11:30Z</time>
  <course>146.74</course>
  <speed>0.05</speed>
  <fix>3d</fix>
</trkpt>
<trkpt lat="-27.274439" lon="151.290064">
  <ele>343.0</ele>
  <time>2026-09-01T01:11:30Z</time>
  <course>0.0</course>
  <speed>0.0</speed>
  <fix>3d</fix>
</trkpt>
<trkpt lat="-27.2744388" lon="151.2900642">
  <ele>342.87</ele>
  <time>2026-09-01T01:11:30Z</time>
  <course>146.21</course>
  <speed>0.02</speed>
  <fix>3d</fix>
</trkpt>
<trkpt lat="-27.274439" lon="151.290064">
  <ele>343.0</ele>
  <time>2026-09-01T01:11:30Z</time>
  <course>0.0</course>
  <speed>0.0</speed>
  <fix>3d</fix>
</trkpt>
<trkpt lat="-27.2744389" lon="151.2900642">
  <ele>343.0</ele>
  <time>2026-09-01T01:11:30Z</time>
  <course>138.32</course>
  <speed>0.02</speed>
  <fix>3d</fix>
</trkpt>
<trkpt lat="-27.274439" lon="151.290064">
  <ele>343.0</ele>
  <time>2026-09-01T01:11:30Z</time>
  <course>0.0</course>
  <speed>0.0</speed>
  <fix>3d</fix>
</trkpt>
<trkpt lat="-27.2744389" lon="151.2900641">
  <ele>343.04</ele>
  <time>2026-09-01T01:11:30Z</time>
  <course>129.32</course>
  <speed>0.0</speed>
  <fix>3d</fix>
</trkpt>
<trkpt lat="-27.274439" lon="151.290064">
  <ele>343.0</ele>
  <time>2026-09-01T01:11:30Z</time>
  <course>0.0</course>
  <speed>0.0</speed>
  <fix>3d</fix>
</trkpt>
<trkpt lat="-27.274439" lon="151.290064">
  <ele>343.07</ele>
  <time>2026-09-01T01:11:30Z</time>
  <course>120.3</course>
  <speed>0.0</speed>
  <fix>3d</fix>
</trkpt>
<trkpt lat="-27.274439" lon="151.290064">
  <ele>343.0</ele>
  <time>2026-09-01T01:11:30Z</time>
  <course>0.0</course>
  <speed>0.0</speed>
  <fix>3d</fix>
</trkpt>
<trkpt lat="-27.274439" lon="151.2900639">
  <ele>343.1</ele>
  <time>2026-09-01T01:11:30Z</time>
  <course>111.27</course>
  <speed>0.01414213562373095</speed>
  <fix>3d</fix>
</trkpt>
<trkpt lat="-27.274439" lon="151.290064">
  <ele>343.0</ele>
  <time>2026-09-01T01:11:30Z</time>
  <course>0.0</course>
  <speed>0.0</speed>
  <fix>3d</fix>
</trkpt>
<trkpt lat="-27.2744381" lon="151.2900657">
  <ele>342.99</ele>
  <time>2026-09-01T01:11:31Z</time>
  <course>325.88</course>
  <speed>0.0</speed>
  <fix>3d</fix>
</trkpt>
<trkpt lat="-27.2744381" lon="151.2900657">
  <ele>342.99</ele>
  <time>2026-09-01T01:11:31Z</time>
  <course>324.43</course>
  <speed>0.0</speed>
  <fix>3d</fix>
</trkpt>
<trkpt lat="-27.2744381" lon="151.2900657">
  <ele>342.99</ele>
  <time>2026-09-01T01:11:31Z</time>
  <course>321.86</course>
  <speed>0.0</speed>
  <fix>3d</fix>
</trkpt>
<trkpt lat="-27.2744381" lon="151.2900657">
  <ele>342.99</ele>
  <time>2026-09-01T01:11:31Z</time>
  <course>295.0</course>
  <speed>0.0</speed>
  <fix>3d</fix>
</trkpt>
<trkpt lat="-27.2744381" lon="151.2900657">
  <ele>342.99</ele>
  <time>2026-09-01T01:11:31Z</time>
  <course>290.72</course>
  <speed>0.0</speed>
  <fix>3d</fix>
</trkpt>
<trkpt lat="-27.2744381" lon="151.2900657">
  <ele>342.99</ele>
  <time>2026-09-01T01:11:31Z</time>
  <course>284.84</course>
  <speed>0.0</speed>
  <fix>3d</fix>
</trkpt>
<trkpt lat="-27.2744381" lon="151.2900657">
  <ele>342.99</ele>
  <time>2026-09-01T01:11:31Z</time>
  <course>277.79</course>
  <speed>0.0</speed>
  <fix>3d</fix>
</trkpt>
<trkpt lat="-27.2744381" lon="151.2900657">
  <ele>342.99</ele>
  <time>2026-09-01T01:11:31Z</time>
  <course>269.55</course>
  <speed>0.0</speed>
  <fix>3d</fix>
</trkpt>
<trkpt lat="-27.274439" lon="151.290064">
  <ele>343.0</ele>
  <time>2026-09-01T01:11:31Z</time>
  <course>262.16</course>
  <speed>0.9176055797563569</speed>
  <fix>3d</fix>
</trkpt>
<trkpt lat="-27.274439" lon="151.290064">
  <ele>343.0</ele>
  <time>2026-09-01T01:11:31Z</time>
  <course>0.0</course>
  <speed>0.0</speed>
  <fix>3d</fix>
</trkpt>
<trkpt lat="-27.274439" lon="151.290064">
  <ele>343.0</ele>
  <time>2026-09-01T01:11:31Z</time>
  <course>256.4</course>
  <speed>0.9403190947758107</speed>
  <fix>3d</fix>
</trkpt>
<trkpt lat="-27.274439" lon="151.290064">
  <ele>343.0</ele>
  <time>2026-09-01T01:11:31Z</time>
  <course>0.0</course>
  <speed>0.0</speed>
  <fix>3d</fix>
</trkpt>
<trkpt lat="-27.274439" lon="151.290064">
  <ele>343.0</ele>
  <time>2026-09-01T01:11:31Z</time>
  <course>249.45</course>
  <speed>0.756042326857432</speed>
  <fix>3d</fix>
</trkpt>
<trkpt lat="-27.274439" lon="151.290064">
  <ele>343.0</ele>
  <time>2026-09-01T01:11:31Z</time>
  <course>0.0</course>
  <speed>0.0</speed>
  <fix>3d</fix>
</trkpt>
<trkpt lat="-27.274439" lon="151.290064">
  <ele>343.0</ele>
  <time>2026-09-01T01:11:31Z</time>
  <course>241.79</course>
  <speed>0.6596969000988256</speed>
  <fix>3d</fix>
</trkpt>
<trkpt lat="-27.274439" lon="151.290064">
  <ele>343.0</ele>
  <time>2026-09-01T01:11:31Z</time>
  <course>0.0</course>
  <speed>0.0</speed>
  <fix>3d</fix>
</trkpt>
<trkpt lat="-27.274439" lon="151.290064">
  <ele>343.0</ele>
  <time>2026-09-01T01:11:31Z</time>
  <course>233.59</course>
  <speed>0.6618912297349165</speed>
  <fix>3d</fix>
</trkpt>
<trkpt lat="-27.274439" lon="151.290064">
  <ele>343.0</ele>
  <time>2026-09-01T01:11:31Z</time>
  <course>0.0</course>
  <speed>0.0</speed>
  <fix>3d</fix>
</trkpt>
<trkpt lat="-27.274439" lon="151.290064">
  <ele>343.0</ele>
  <time>2026-09-01T01:11:31Z</time>
  <course>225.02</course>
  <speed>0.7034202158027589</speed>
  <fix>3d</fix>
</trkpt>
<trkpt lat="-27.274439" lon="151.290064">
  <ele>343.0</ele>
  <time>2026-09-01T01:11:31Z</time>
  <course>0.0</course>
  <speed>0.0</speed>
  <fix>3d</fix>
</trkpt>
<trkpt lat="-27.274439" lon="151.290064">
  <ele>343.0</ele>
  <time>2026-09-01T01:11:31Z</time>
  <course>207.13</course>
  <speed>0.8052949770115296</speed>
  <fix>3d</fix>
</trkpt>
<trkpt lat="-27.274439" lon="151.290064">
  <ele>343.0</ele>
  <time>2026-09-01T01:11:31Z</time>
  <course>0.0</course>
  <speed>0.0</speed>
  <fix>3d</fix>
</trkpt>
<trkpt lat="-27.274439" lon="151.290064">
  <ele>343.0</ele>
  <time>2026-09-01T01:11:31Z</time>
  <course>197.95</course>
  <speed>0.8453401682163222</speed>
  <fix>3d</fix>
</trkpt>
<trkpt lat="-27.274439" lon="151.290064">
  <ele>343.0</ele>
  <time>2026-09-01T01:11:31Z</time>
  <course>0.0</course>
  <speed>0.0</speed>
  <fix>3d</fix>
</trkpt>
<trkpt lat="-27.274439" lon="151.290064">
  <ele>343.0</ele>
  <time>2026-09-01T01:11:31Z</time>
  <course>188.67</course>
  <speed>0.878179936004006</speed>
  <fix>3d</fix>
</trkpt>
<trkpt lat="-27.274439" lon="151.290064">
  <ele>343.0</ele>
  <time>2026-09-01T01:11:31Z</time>
  <course>0.0</course>
  <speed>0.0</speed>
  <fix>3d</fix>
</trkpt>
<trkpt lat="-27.274439" lon="151.290064">
  <ele>343.0</ele>
  <time>2026-09-01T01:11:31Z</time>
  <course>179.31</course>
  <speed>0.8848163651289458</speed>
  <fix>3d</fix>
</trkpt>
<trkpt lat="-27.274439" lon="151.290064">
  <ele>343.0</ele>
  <time>2026-09-01T01:11:31Z</time>
  <course>0.0</course>
  <speed>0.0</speed>
  <fix>3d</fix>
</trkpt>
<trkpt lat="-27.274439" lon="151.290064">
  <ele>343.0</ele>
  <time>2026-09-01T01:11:31Z</time>
  <course>169.93</course>
  <speed>0.9140021881811882</speed>
  <fix>3d</fix>
</trkpt>
<trkpt lat="-27.274439" lon="151.290064">
  <ele>343.0</ele>
  <time>2026-09-01T01:11:31Z</time>
  <course>0.0</course>
  <speed>0.0</speed>
  <fix>3d</fix>
</trkpt>
<trkpt lat="-27.274439" lon="151.290064">
  <ele>343.0</ele>
  <time>2026-09-01T01:11:31Z</time>
  <course>161.9</course>
  <speed>0.9219544457292888</speed>
  <fix>3d</fix>
</trkpt>
<trkpt lat="-27.274439" lon="151.290064">
  <ele>343.0</ele>
  <time>2026-09-01T01:11:31Z</time>
  <course>0.0</course>
  <speed>0.0</speed>
  <fix>3d</fix>
</trkpt>
<trkpt lat="-27.274439" lon="151.290064">
  <ele>343.0</ele>
  <time>2026-09-01T01:11:31Z</time>
  <course>158.55</course>
  <speed>0.9411163583744573</speed>
  <fix>3d</fix>
</trkpt>
<trkpt lat="-27.274439" lon="151.290064">
  <ele>343.0</ele>
  <time>2026-09-01T01:11:31Z</time>
  <course>0.0</course>
  <speed>0.0</speed>
  <fix>3d</fix>
</trkpt>
<trkpt lat="-27.274439" lon="151.290064">
  <ele>343.0</ele>
  <time>2026-09-01T01:11:31Z</time>
  <course>157.2</course>
  <speed>0.9546203433826455</speed>
  <fix>3d</fix>
</trkpt>
<trkpt lat="-27.274439" lon="151.290064">
  <ele>343.0</ele>
  <time>2026-09-01T01:11:31Z</time>
  <course>0.0</course>
  <speed>0.0</speed>
  <fix>3d</fix>
</trkpt>
<trkpt lat="-27.274439" lon="151.290064">
  <ele>343.0</ele>
  <time>2026-09-01T01:11:31Z</time>
  <course>156.57</course>
  <speed>0.9642613753542137</speed>
  <fix>3d</fix>
</trkpt>
<trkpt lat="-27.274439" lon="151.290064">
  <ele>343.0</ele>
  <time>2026-09-01T01:11:31Z</time>
  <course>0.0</course>
  <speed>0.0</speed>
  <fix>3d</fix>
</trkpt>
<trkpt lat="-27.274439" lon="151.290064">
  <ele>343.0</ele>
  <time>2026-09-01T01:11:31Z</time>
  <course>156.21</course>
  <speed>0.9602083107326242</speed>
  <fix>3d</fix>
</trkpt>
<trkpt lat="-27.274439" lon="151.290064">
  <ele>343.0</ele>
  <time>2026-09-01T01:11:31Z</time>
  <course>0.0</course>
  <speed>0.0</speed>
  <fix>3d</fix>
</trkpt>
<trkpt lat="-27.274439" lon="151.290064">
  <ele>343.0</ele>
  <time>2026-09-01T01:11:31Z</time>
  <course>155.95</course>
  <speed>0.9689685237405805</speed>
  <fix>3d</fix>
</trkpt>
<trkpt lat="-27.274439" lon="151.290064">
  <ele>343.0</ele>
  <time>2026-09-01T01:11:31Z</time>
  <course>0.0</course>
  <speed>0.0</speed>
  <fix>3d</fix>
</trkpt>
<trkpt lat="-27.274439" lon="151.290064">
  <ele>343.0</ele>
  <time>2026-09-01T01:11:31Z</time>
  <course>155.71</course>
  <speed>0.9800510190801294</speed>
  <fix>3d</fix>
</trkpt>
<trkpt lat="-27.274439" lon="151.290064">
  <ele>343.0</ele>
  <time>2026-09-01T01:11:31Z</time>
  <course>0.0</course>
  <speed>0.0</speed>
  <fix>3d</fix>
</trkpt>
<trkpt lat="-27.274439" lon="151.290064">
  <ele>343.0</ele>
  <time>2026-09-01T01:11:31Z</time>
  <course>155.49</course>
  <speed>0.9972963451251589</speed>
  <fix>3d</fix>
</trkpt>
<trkpt lat="-27.274439" lon="151.290064">
  <ele>343.0</ele>
  <time>2026-09-01T01:11:31Z</time>
  <course>0.0</course>
  <speed>0.0</speed>
  <fix>3d</fix>
</trkpt>
<trkpt lat="-27.274439" lon="151.290064">
  <ele>343.0</ele>
  <time>2026-09-01T01:11:31Z</time>
  <course>155.27</course>
  <speed>1.0113357503816425</speed>
  <fix>3d</fix>
</trkpt>
<trkpt lat="-27.274439" lon="151.290064">
  <ele>343.0</ele>
  <time>2026-09-01T01:11:31Z</time>
  <course>0.0</course>
  <speed>0.0</speed>
  <fix>3d</fix>
</trkpt>
<trkpt lat="-27.274439" lon="151.290064">
  <ele>343.0</ele>
  <time>2026-09-01T01:11:31Z</time>
  <course>155.07</course>
  <speed>1.010198000393982</speed>
  <fix>3d</fix>
</trkpt>
<trkpt lat="-27.274439" lon="151.290064">
  <ele>343.0</ele>
  <time>2026-09-01T01:11:31Z</time>
  <course>0.0</course>
  <speed>0.0</speed>
  <fix>3d</fix>
</trkpt>
<trkpt lat="-27.274439" lon="151.290064">
  <ele>343.0</ele>
  <time>2026-09-01T01:11:31Z</time>
  <course>154.88</course>
  <speed>0.9962429422585637</speed>
  <fix>3d</fix>
</trkpt>
<trkpt lat="-27.274439" lon="151.290064">
  <ele>343.0</ele>
  <time>2026-09-01T01:11:31Z</time>
  <course>0.0</course>
  <speed>0.0</speed>
  <fix>3d</fix>
</trkpt>
<trkpt lat="-27.274439" lon="151.290064">
  <ele>343.0</ele>
  <time>2026-09-01T01:11:31Z</time>
  <course>154.68</course>
  <speed>0.9751410154434076</speed>
  <fix>3d</fix>
</trkpt>
<trkpt lat="-27.274439" lon="151.290064">
  <ele>343.0</ele>
  <time>2026-09-01T01:11:31Z</time>
  <course>0.0</course>
  <speed>0.0</speed>
  <fix>3d</fix>
</trkpt>
<trkpt lat="-27.274439" lon="151.290064">
  <ele>343.0</ele>
  <time>2026-09-01T01:11:31Z</time>
  <course>154.49</course>
  <speed>0.951892851112981</speed>
  <fix>3d</fix>
</trkpt>
<trkpt lat="-27.274439" lon="151.290064">
  <ele>343.0</ele>
  <time>2026-09-01T01:11:31Z</time>
  <course>0.0</course>
  <speed>0.0</speed>
  <fix>3d</fix>
</trkpt>
<trkpt lat="-27.274439" lon="151.290064">
  <ele>343.0</ele>
  <time>2026-09-01T01:11:31Z</time>
  <course>154.29</course>
  <speed>0.9243916918709297</speed>
  <fix>3d</fix>
</trkpt>
<trkpt lat="-27.274439" lon="151.290064">
  <ele>343.0</ele>
  <time>2026-09-01T01:11:31Z</time>
  <course>0.0</course>
  <speed>0.0</speed>
  <fix>3d</fix>
</trkpt>
<trkpt lat="-27.274439" lon="151.290064">
  <ele>343.0</ele>
  <time>2026-09-01T01:11:31Z</time>
  <course>154.09</course>
  <speed>0.8900561780022652</speed>
  <fix>3d</fix>
</trkpt>
<trkpt lat="-27.274439" lon="151.290064">
  <ele>343.0</ele>
  <time>2026-09-01T01:11:31Z</time>
  <course>0.0</course>
  <speed>0.0</speed>
  <fix>3d</fix>
</trkpt>
<trkpt lat="-27.274439" lon="151.290064">
  <ele>343.0</ele>
  <time>2026-09-01T01:11:31Z</time>
  <course>153.88</course>
  <speed>0.8514693182963201</speed>
  <fix>3d</fix>
</trkpt>
<trkpt lat="-27.274439" lon="151.290064">
  <ele>343.0</ele>
  <time>2026-09-01T01:11:31Z</time>
  <course>0.0</course>
  <speed>0.0</speed>
  <fix>3d</fix>
</trkpt>
<trkpt lat="-27.274439" lon="151.290064">
  <ele>343.0</ele>
  <time>2026-09-01T01:11:31Z</time>
  <course>145.67</course>
  <speed>0.3764306044943742</speed>
  <fix>3d</fix>
</trkpt>
<trkpt lat="-27.274439" lon="151.290064">
  <ele>343.0</ele>
  <time>2026-09-01T01:11:31Z</time>
  <course>0.0</course>
  <speed>0.0</speed>
  <fix>3d</fix>
</trkpt>
<trkpt lat="-27.274439" lon="151.290064">
  <ele>343.0</ele>
  <time>2026-09-01T01:11:31Z</time>
  <course>136.2</course>
  <speed>0.17029386365926402</speed>
  <fix>3d</fix>
</trkpt>
<trkpt lat="-27.274439" lon="151.290064">
  <ele>343.0</ele>
  <time>2026-09-01T01:11:31Z</time>
  <course>0.0</course>
  <speed>0.0</speed>
  <fix>3d</fix>
</trkpt>
<trkpt lat="-27.274439" lon="151.290064">
  <ele>343.0</ele>
  <time>2026-09-01T01:11:31Z</time>
  <course>126.79</course>
  <speed>0.12165525060596438</speed>
  <fix>3d</fix>
</trkpt>
<trkpt lat="-27.274439" lon="151.290064">
  <ele>343.0</ele>
  <time>2026-09-01T01:11:31Z</time>
  <course>0.0</course>
  <speed>0.0</speed>
  <fix>3d</fix>
</trkpt>
<trkpt lat="-27.274439" lon="151.2900643">
  <ele>343.09</ele>
  <time>2026-09-01T01:11:31Z</time>
  <course>117.42</course>
  <speed>0.01</speed>
  <fix>3d</fix>
</trkpt>
<trkpt lat="-27.274439" lon="151.290064">
  <ele>343.0</ele>
  <time>2026-09-01T01:11:31Z</time>
  <course>0.0</course>
  <speed>0.0</speed>
  <fix>3d</fix>
</trkpt>
<trkpt lat="-27.274439" lon="151.290064">
  <ele>343.0</ele>
  <time>2026-09-01T01:11:31Z</time>
  <course>325.88</course>
  <speed>0.0</speed>
  <fix>3d</fix>
</trkpt>
<trkpt lat="-27.274439" lon="151.290064">
  <ele>343.0</ele>
  <time>2026-09-01T01:11:31Z</time>
  <course>324.43</course>
  <speed>0.0</speed>
  <fix>3d</fix>
</trkpt>
<trkpt lat="-27.274439" lon="151.290064">
  <ele>343.0</ele>
  <time>2026-09-01T01:11:31Z</time>
  <course>321.86</course>
  <speed>0.0</speed>
  <fix>3d</fix>
</trkpt>
<trkpt lat="-27.274439" lon="151.290064">
  <ele>343.0</ele>
  <time>2026-09-01T01:11:31Z</time>
  <course>295.0</course>
  <speed>0.0</speed>
  <fix>3d</fix>
</trkpt>
<trkpt lat="-27.274439" lon="151.290064">
  <ele>343.0</ele>
  <time>2026-09-01T01:11:31Z</time>
  <course>290.72</course>
  <speed>0.0</speed>
  <fix>3d</fix>
</trkpt>
<trkpt lat="-27.274439" lon="151.290064">
  <ele>343.0</ele>
  <time>2026-09-01T01:11:31Z</time>
  <course>284.84</course>
  <speed>0.0</speed>
  <fix>3d</fix>
</trkpt>
<trkpt lat="-27.274439" lon="151.290064">
  <ele>343.0</ele>
  <time>2026-09-01T01:11:31Z</time>
  <course>277.79</course>
  <speed>0.0</speed>
  <fix>3d</fix>
</trkpt>
<trkpt lat="-27.274439" lon="151.290064">
  <ele>343.0</ele>
  <time>2026-09-01T01:11:31Z</time>
  <course>269.55</course>
  <speed>0.0</speed>
  <fix>3d</fix>
</trkpt>
<trkpt lat="-27.274439" lon="151.290064">
  <ele>343.0</ele>
  <time>2026-09-01T01:11:31Z</time>
  <course>262.16</course>
  <speed>0.9176055797563569</speed>
  <fix>3d</fix>
</trkpt>
<trkpt lat="-27.274439" lon="151.290064">
  <ele>343.0</ele>
  <time>2026-09-01T01:11:31Z</time>
  <course>0.0</course>
  <speed>0.0</speed>
  <fix>3d</fix>
</trkpt>
<trkpt lat="-27.274439" lon="151.290064">
  <ele>343.0</ele>
  <time>2026-09-01T01:11:31Z</time>
  <course>256.4</course>
  <speed>0.9403190947758107</speed>
  <fix>3d</fix>
</trkpt>
<trkpt lat="-27.274439" lon="151.290064">
  <ele>343.0</ele>
  <time>2026-09-01T01:11:31Z</time>
  <course>0.0</course>
  <speed>0.0</speed>
  <fix>3d</fix>
</trkpt>
<trkpt lat="-27.274439" lon="151.290064">
  <ele>343.0</ele>
  <time>2026-09-01T01:11:31Z</time>
  <course>249.45</course>
  <speed>0.756042326857432</speed>
  <fix>3d</fix>
</trkpt>
<trkpt lat="-27.274439" lon="151.290064">
  <ele>343.0</ele>
  <time>2026-09-01T01:11:31Z</time>
  <course>0.0</course>
  <speed>0.0</speed>
  <fix>3d</fix>
</trkpt>
<trkpt lat="-27.274439" lon="151.290064">
  <ele>343.0</ele>
  <time>2026-09-01T01:11:31Z</time>
  <course>241.79</course>
  <speed>0.6596969000988256</speed>
  <fix>3d</fix>
</trkpt>
<trkpt lat="-27.274439" lon="151.290064">
  <ele>343.0</ele>
  <time>2026-09-01T01:11:31Z</time>
  <course>0.0</course>
  <speed>0.0</speed>
  <fix>3d</fix>
</trkpt>
<trkpt lat="-27.274439" lon="151.290064">
  <ele>343.0</ele>
  <time>2026-09-01T01:11:31Z</time>
  <course>233.59</course>
  <speed>0.6618912297349165</speed>
  <fix>3d</fix>
</trkpt>
<trkpt lat="-27.274439" lon="151.290064">
  <ele>343.0</ele>
  <time>2026-09-01T01:11:31Z</time>
  <course>0.0</course>
  <speed>0.0</speed>
  <fix>3d</fix>
</trkpt>
<trkpt lat="-27.274439" lon="151.290064">
  <ele>343.0</ele>
  <time>2026-09-01T01:11:32Z</time>
  <course>225.02</course>
  <speed>0.7034202158027589</speed>
  <fix>3d</fix>
</trkpt>
<trkpt lat="-27.274439" lon="151.290064">
  <ele>343.0</ele>
  <time>2026-09-01T01:11:32Z</time>
  <course>0.0</course>
  <speed>0.0</speed>
  <fix>3d</fix>
</trkpt>
<trkpt lat="-27.274439" lon="151.290064">
  <ele>343.0</ele>
  <time>2026-09-01T01:11:32Z</time>
  <course>216.17</course>
  <speed>0.7539230729988305</speed>
  <fix>3d</fix>
</trkpt>
<trkpt lat="-27.274439" lon="151.290064">
  <ele>343.0</ele>
  <time>2026-09-01T01:11:32Z</time>
  <course>0.0</course>
  <speed>0.0</speed>
  <fix>3d</fix>
</trkpt>
<trkpt lat="-27.274439" lon="151.290064">
  <ele>343.0</ele>
  <time>2026-09-01T01:11:32Z</time>
  <course>207.13</course>
  <speed>0.8052949770115296</speed>
  <fix>3d</fix>
</trkpt>
<trkpt lat="-27.274439" lon="151.290064">
  <ele>343.0</ele>
  <time>2026-09-01T01:11:32Z</time>
  <course>0.0</course>
  <speed>0.0</speed>
  <fix>3d</fix>
</trkpt>
<trkpt lat="-27.274439" lon="151.290064">
  <ele>343.0</ele>
  <time>2026-09-01T01:11:32Z</time>
  <course>197.74</course>
  <speed>0.39824615503479754</speed>
  <fix>3d</fix>
</trkpt>
<trkpt lat="-27.274439" lon="151.290064">
  <ele>343.0</ele>
  <time>2026-09-01T01:11:32Z</time>
  <course>0.0</course>
  <speed>0.0</speed>
  <fix>3d</fix>
</trkpt>
<trkpt lat="-27.274439" lon="151.290064">
  <ele>343.0</ele>
  <time>2026-09-01T01:11:32Z</time>
  <course>188.23</course>
  <speed>0.12529964086141668</speed>
  <fix>3d</fix>
</trkpt>
<trkpt lat="-27.274439" lon="151.290064">
  <ele>343.0</ele>
  <time>2026-09-01T01:11:32Z</time>
  <course>0.0</course>
  <speed>0.0</speed>
  <fix>3d</fix>
</trkpt>
<trkpt lat="-27.274439" lon="151.290064">
  <ele>343.0</ele>
  <time>2026-09-01T01:11:32Z</time>
  <course>178.75</course>
  <speed>0.1118033988749895</speed>
  <fix>3d</fix>
</trkpt>
<trkpt lat="-27.274439" lon="151.290064">
  <ele>343.0</ele>
  <time>2026-09-01T01:11:32Z</time>
  <course>0.0</course>
  <speed>0.0</speed>
  <fix>3d</fix>
</trkpt>
<trkpt lat="-27.274439" lon="151.290064">
  <ele>343.0</ele>
  <time>2026-09-01T01:11:32Z</time>
  <course>169.33</course>
  <speed>0.12529964086141668</speed>
  <fix>3d</fix>
</trkpt>
<trkpt lat="-27.274439" lon="151.290064">
  <ele>343.0</ele>
  <time>2026-09-01T01:11:32Z</time>
  <course>0.0</course>
  <speed>0.0</speed>
  <fix>3d</fix>
</trkpt>
<trkpt lat="-27.274439" lon="151.290064">
  <ele>343.0</ele>
  <time>2026-09-01T01:11:32Z</time>
  <course>325.88</course>
  <speed>0.0</speed>
  <fix>3d</fix>
</trkpt>
<trkpt lat="-27.274439" lon="151.290064">
  <ele>343.0</ele>
  <time>2026-09-01T01:11:32Z</time>
  <course>324.43</course>
  <speed>0.0</speed>
  <fix>3d</fix>
</trkpt>
<trkpt lat="-27.274439" lon="151.290064">
  <ele>343.0</ele>
  <time>2026-09-01T01:11:32Z</time>
  <course>321.86</course>
  <speed>0.0</speed>
  <fix>3d</fix>
</trkpt>
<trkpt lat="-27.274439" lon="151.290064">
  <ele>343.0</ele>
  <time>2026-09-01T01:11:32Z</time>
  <course>295.0</course>
  <speed>0.0</speed>
  <fix>3d</fix>
</trkpt>
<trkpt lat="-27.274439" lon="151.290064">
  <ele>343.0</ele>
  <time>2026-09-01T01:11:32Z</time>
  <course>290.72</course>
  <speed>0.0</speed>
  <fix>3d</fix>
</trkpt>
<trkpt lat="-27.274439" lon="151.290064">
  <ele>343.0</ele>
  <time>2026-09-01T01:11:32Z</time>
  <course>284.84</course>
  <speed>0.0</speed>
  <fix>3d</fix>
</trkpt>
<trkpt lat="-27.274439" lon="151.290064">
  <ele>343.0</ele>
  <time>2026-09-01T01:11:32Z</time>
  <course>277.79</course>
  <speed>0.0</speed>
  <fix>3d</fix>
</trkpt>
<trkpt lat="-27.274439" lon="151.290064">
  <ele>343.0</ele>
  <time>2026-09-01T01:11:32Z</time>
  <course>269.55</course>
  <speed>0.0</speed>
  <fix>3d</fix>
</trkpt>
<trkpt lat="-27.274439" lon="151.290064">
  <ele>343.0</ele>
  <time>2026-09-01T01:11:32Z</time>
  <course>262.16</course>
  <speed>0.9176055797563569</speed>
  <fix>3d</fix>
</trkpt>
<trkpt lat="-27.274439" lon="151.290064">
  <ele>343.0</ele>
  <time>2026-09-01T01:11:32Z</time>
  <course>0.0</course>
  <speed>0.0</speed>
  <fix>3d</fix>
</trkpt>
<trkpt lat="-27.274439" lon="151.290064">
  <ele>343.0</ele>
  <time>2026-09-01T01:11:32Z</time>
  <course>256.4</course>
  <speed>0.9403190947758107</speed>
  <fix>3d</fix>
</trkpt>
<trkpt lat="-27.274439" lon="151.290064">
  <ele>343.0</ele>
  <time>2026-09-01T01:11:32Z</time>
  <course>0.0</course>
  <speed>0.0</speed>
  <fix>3d</fix>
</trkpt>
<trkpt lat="-27.274439" lon="151.290064">
  <ele>343.0</ele>
  <time>2026-09-01T01:11:32Z</time>
  <course>249.45</course>
  <speed>0.756042326857432</speed>
  <fix>3d</fix>
</trkpt>
<trkpt lat="-27.274439" lon="151.290064">
  <ele>343.0</ele>
  <time>2026-09-01T01:11:32Z</time>
  <course>0.0</course>
  <speed>0.0</speed>
  <fix>3d</fix>
</trkpt>
<trkpt lat="-27.274439" lon="151.290064">
  <ele>343.0</ele>
  <time>2026-09-01T01:11:32Z</time>
  <course>241.79</course>
  <speed>0.6596969000988256</speed>
  <fix>3d</fix>
</trkpt>
<trkpt lat="-27.274439" lon="151.290064">
  <ele>343.0</ele>
  <time>2026-09-01T01:11:32Z</time>
  <course>0.0</course>
  <speed>0.0</speed>
  <fix>3d</fix>
</trkpt>
<trkpt lat="-27.274439" lon="151.290064">
  <ele>343.0</ele>
  <time>2026-09-01T01:11:32Z</time>
  <course>233.59</course>
  <speed>0.6618912297349165</speed>
  <fix>3d</fix>
</trkpt>
<trkpt lat="-27.274439" lon="151.290064">
  <ele>343.0</ele>
  <time>2026-09-01T01:11:32Z</time>
  <course>0.0</course>
  <speed>0.0</speed>
  <fix>3d</fix>
</trkpt>
<trkpt lat="-27.274439" lon="151.290064">
  <ele>343.0</ele>
  <time>2026-09-01T01:11:32Z</time>
  <course>225.02</course>
  <speed>0.7034202158027589</speed>
  <fix>3d</fix>
</trkpt>
<trkpt lat="-27.274439" lon="151.290064">
  <ele>343.0</ele>
  <time>2026-09-01T01:11:32Z</time>
  <course>0.0</course>
  <speed>0.0</speed>
  <fix>3d</fix>
</trkpt>
<trkpt lat="-27.274439" lon="151.290064">
  <ele>343.0</ele>
  <time>2026-09-01T01:11:32Z</time>
  <course>207.13</course>
  <speed>0.8052949770115296</speed>
  <fix>3d</fix>
</trkpt>
<trkpt lat="-27.274439" lon="151.290064">
  <ele>343.0</ele>
  <time>2026-09-01T01:11:32Z</time>
  <course>0.0</course>
  <speed>0.0</speed>
  <fix>3d</fix>
</trkpt>
<trkpt lat="-27.274439" lon="151.290064">
  <ele>343.0</ele>
  <time>2026-09-01T01:11:32Z</time>
  <course>197.95</course>
  <speed>0.8453401682163222</speed>
  <fix>3d</fix>
</trkpt>
<trkpt lat="-27.274439" lon="151.290064">
  <ele>343.0</ele>
  <time>2026-09-01T01:11:32Z</time>
  <course>0.0</course>
  <speed>0.0</speed>
  <fix>3d</fix>
</trkpt>
<trkpt lat="-27.274439" lon="151.290064">
  <ele>343.0</ele>
  <time>2026-09-01T01:11:32Z</time>
  <course>188.67</course>
  <speed>0.878179936004006</speed>
  <fix>3d</fix>
</trkpt>
<trkpt lat="-27.274439" lon="151.290064">
  <ele>343.0</ele>
  <time>2026-09-01T01:11:32Z</time>
  <course>0.0</course>
  <speed>0.0</speed>
  <fix>3d</fix>
</trkpt>
<trkpt lat="-27.274439" lon="151.290064">
  <ele>343.0</ele>
  <time>2026-09-01T01:11:32Z</time>
  <course>179.31</course>
  <speed>0.8848163651289458</speed>
  <fix>3d</fix>
</trkpt>
<trkpt lat="-27.274439" lon="151.290064">
  <ele>343.0</ele>
  <time>2026-09-01T01:11:32Z</time>
  <course>0.0</course>
  <speed>0.0</speed>
  <fix>3d</fix>
</trkpt>
<trkpt lat="-27.274439" lon="151.290064">
  <ele>343.0</ele>
  <time>2026-09-01T01:11:32Z</time>
  <course>169.93</course>
  <speed>0.9140021881811882</speed>
  <fix>3d</fix>
</trkpt>
<trkpt lat="-27.274439" lon="151.290064">
  <ele>343.0</ele>
  <time>2026-09-01T01:11:32Z</time>
  <course>0.0</course>
  <speed>0.0</speed>
  <fix>3d</fix>
</trkpt>
<trkpt lat="-27.274439" lon="151.290064">
  <ele>343.0</ele>
  <time>2026-09-01T01:11:32Z</time>
  <course>161.9</course>
  <speed>0.9219544457292888</speed>
  <fix>3d</fix>
</trkpt>
<trkpt lat="-27.274439" lon="151.290064">
  <ele>343.0</ele>
  <time>2026-09-01T01:11:32Z</time>
  <course>0.0</course>
  <speed>0.0</speed>
  <fix>3d</fix>
</trkpt>
<trkpt lat="-27.274439" lon="151.290064">
  <ele>343.0</ele>
  <time>2026-09-01T01:11:32Z</time>
  <course>158.55</course>
  <speed>0.9411163583744573</speed>
  <fix>3d</fix>
</trkpt>
<trkpt lat="-27.274439" lon="151.290064">
  <ele>343.0</ele>
  <time>2026-09-01T01:11:32Z</time>
  <course>0.0</course>
  <speed>0.0</speed>
  <fix>3d</fix>
</trkpt>
<trkpt lat="-27.274439" lon="151.290064">
  <ele>342.99</ele>
  <time>2026-09-01T01:11:32Z</time>
  <course>157.2</course>
  <speed>0.9546203433826455</speed>
  <fix>3d</fix>
</trkpt>
<trkpt lat="-27.274439" lon="151.290064">
  <ele>343.21</ele>
  <time>2026-09-01T01:11:32Z</time>
  <course>156.57</course>
  <speed>0.9642613753542137</speed>
  <fix>3d</fix>
</trkpt>
<trkpt lat="-27.274439" lon="151.290064">
  <ele>343.01</ele>
  <time>2026-09-01T01:11:32Z</time>
  <course>148.63</course>
  <speed>0.5300943312279428</speed>
  <fix>3d</fix>
</trkpt>
<trkpt lat="-27.274439" lon="151.290064">
  <ele>342.83</ele>
  <time>2026-09-01T01:11:32Z</time>
  <course>139.06</course>
  <speed>0.223606797749979</speed>
  <fix>3d</fix>
</trkpt>
<trkpt lat="-27.274439" lon="151.290064">
  <ele>342.98</ele>
  <time>2026-09-01T01:11:32Z</time>
  <course>129.57</course>
  <speed>0.1</speed>
  <fix>3d</fix>
</trkpt>
<trkpt lat="-27.274439" lon="151.290064">
  <ele>343.05</ele>
  <time>2026-09-01T01:11:32Z</time>
  <course>120.12</course>
  <speed>0.08062257748298549</speed>
  <fix>3d</fix>
</trkpt>
<trkpt lat="-27.274439" lon="151.290064">
  <ele>343.0</ele>
  <time>2026-09-01T01:11:32Z</time>
  <course>325.88</course>
  <speed>0.0</speed>
  <fix>3d</fix>
</trkpt>
<trkpt lat="-27.274439" lon="151.290064">
  <ele>343.0</ele>
  <time>2026-09-01T01:11:32Z</time>
  <course>324.43</course>
  <speed>0.0</speed>
  <fix>3d</fix>
</trkpt>
<trkpt lat="-27.274439" lon="151.290064">
  <ele>343.0</ele>
  <time>2026-09-01T01:11:32Z</time>
  <course>321.86</course>
  <speed>0.0</speed>
  <fix>3d</fix>
</trkpt>
<trkpt lat="-27.274439" lon="151.290064">
  <ele>343.0</ele>
  <time>2026-09-01T01:11:32Z</time>
  <course>294.93</course>
  <speed>0.0</speed>
  <fix>3d</fix>
</trkpt>
<trkpt lat="-27.274439" lon="151.290064">
  <ele>343.0</ele>
  <time>2026-09-01T01:11:32Z</time>
  <course>290.06</course>
  <speed>0.0</speed>
  <fix>3d</fix>
</trkpt>
<trkpt lat="-27.274439" lon="151.290064">
  <ele>343.0</ele>
  <time>2026-09-01T01:11:32Z</time>
  <course>284.12</course>
  <speed>0.0</speed>
  <fix>3d</fix>
</trkpt>
<trkpt lat="-27.274439" lon="151.290064">
  <ele>343.0</ele>
  <time>2026-09-01T01:11:32Z</time>
  <course>277.04</course>
  <speed>0.0</speed>
  <fix>3d</fix>
</trkpt>
<trkpt lat="-27.274439" lon="151.290064">
  <ele>343.0</ele>
  <time>2026-09-01T01:11:32Z</time>
  <course>268.85</course>
  <speed>0.0</speed>
  <fix>3d</fix>
</trkpt>
<trkpt lat="-27.274439" lon="151.290064">
  <ele>343.0</ele>
  <time>2026-09-01T01:11:32Z</time>
  <course>259.88</course>
  <speed>0.0</speed>
  <fix>3d</fix>
</trkpt>
<trkpt lat="-27.274439" lon="151.290064">
  <ele>343.0</ele>
  <time>2026-09-01T01:11:32Z</time>
  <course>250.47</course>
  <speed>0.0</speed>
  <fix>3d</fix>
</trkpt>
<trkpt lat="-27.274439" lon="151.290064">
  <ele>343.0</ele>
  <time>2026-09-01T01:11:32Z</time>
  <course>240.88</course>
  <speed>0.0</speed>
  <fix>3d</fix>
</trkpt>
<trkpt lat="-27.274439" lon="151.290064">
  <ele>343.0</ele>
  <time>2026-09-01T01:11:32Z</time>
  <course>231.22</course>
  <speed>0.0</speed>
  <fix>3d</fix>
</trkpt>
<trkpt lat="-27.274439" lon="151.290064">
  <ele>343.0</ele>
  <time>2026-09-01T01:11:32Z</time>
  <course>221.53</course>
  <speed>0.0</speed>
  <fix>3d</fix>
</trkpt>
<trkpt lat="-27.274439" lon="151.290064">
  <ele>343.0</ele>
  <time>2026-09-01T01:11:33Z</time>
  <course>211.86</course>
  <speed>0.0</speed>
  <fix>3d</fix>
</trkpt>
<trkpt lat="-27.274439" lon="151.290064">
  <ele>343.0</ele>
  <time>2026-09-01T01:11:33Z</time>
  <course>202.2</course>
  <speed>0.0</speed>
  <fix>3d</fix>
</trkpt>
<trkpt lat="-27.274439" lon="151.290064">
  <ele>343.0</ele>
  <time>2026-09-01T01:11:33Z</time>
  <course>192.58</course>
  <speed>0.0</speed>
  <fix>3d</fix>
</trkpt>
<trkpt lat="-27.274439" lon="151.290064">
  <ele>343.0</ele>
  <time>2026-09-01T01:11:33Z</time>
  <course>182.98</course>
  <speed>0.0</speed>
  <fix>3d</fix>
</trkpt>
<trkpt lat="-27.274439" lon="151.290064">
  <ele>343.0</ele>
  <time>2026-09-01T01:11:33Z</time>
  <course>173.41</course>
  <speed>0.0</speed>
  <fix>3d</fix>
</trkpt>
<trkpt lat="-27.274439" lon="151.290064">
  <ele>343.0</ele>
  <time>2026-09-01T01:11:33Z</time>
  <course>163.87</course>
  <speed>0.0</speed>
  <fix>3d</fix>
</trkpt>
<trkpt lat="-27.274439" lon="151.290064">
  <ele>343.0</ele>
  <time>2026-09-01T01:11:33Z</time>
  <course>154.31</course>
  <speed>0.0</speed>
  <fix>3d</fix>
</trkpt>
<trkpt lat="-27.274439" lon="151.290064">
  <ele>343.0</ele>
  <time>2026-09-01T01:11:33Z</time>
  <course>144.82</course>
  <speed>0.0</speed>
  <fix>3d</fix>
</trkpt>
<trkpt lat="-27.274439" lon="151.290064">
  <ele>343.0</ele>
  <time>2026-09-01T01:11:33Z</time>
  <course>135.4</course>
  <speed>0.0</speed>
  <fix>3d</fix>
</trkpt>
<trkpt lat="-27.274439" lon="151.290064">
  <ele>343.0</ele>
  <time>2026-09-01T01:11:33Z</time>
  <course>126.04</course>
  <speed>0.0</speed>
  <fix>3d</fix>
</trkpt>
<trkpt lat="-27.274439" lon="151.290064">
  <ele>343.0</ele>
  <time>2026-09-01T01:11:33Z</time>
  <course>325.88</course>
  <speed>0.0</speed>
  <fix>3d</fix>
</trkpt>
<trkpt lat="-27.274439" lon="151.290064">
  <ele>343.0</ele>
  <time>2026-09-01T01:11:33Z</time>
  <course>324.43</course>
  <speed>0.0</speed>
  <fix>3d</fix>
</trkpt>
<trkpt lat="-27.274439" lon="151.290064">
  <ele>343.0</ele>
  <time>2026-09-01T01:11:33Z</time>
  <course>321.86</course>
  <speed>0.0</speed>
  <fix>3d</fix>
</trkpt>
<trkpt lat="-27.274439" lon="151.290064">
  <ele>343.0</ele>
  <time>2026-09-01T01:11:33Z</time>
  <course>295.0</course>
  <speed>0.0</speed>
  <fix>3d</fix>
</trkpt>
<trkpt lat="-27.274439" lon="151.290064">
  <ele>343.0</ele>
  <time>2026-09-01T01:11:33Z</time>
  <course>290.72</course>
  <speed>0.0</speed>
  <fix>3d</fix>
</trkpt>
<trkpt lat="-27.274439" lon="151.290064">
  <ele>343.0</ele>
  <time>2026-09-01T01:11:33Z</time>
  <course>284.84</course>
  <speed>0.0</speed>
  <fix>3d</fix>
</trkpt>
<trkpt lat="-27.274439" lon="151.290064">
  <ele>343.0</ele>
  <time>2026-09-01T01:11:33Z</time>
  <course>277.79</course>
  <speed>0.0</speed>
  <fix>3d</fix>
</trkpt>
<trkpt lat="-27.274439" lon="151.290064">
  <ele>343.0</ele>
  <time>2026-09-01T01:11:33Z</time>
  <course>269.55</course>
  <speed>0.0</speed>
  <fix>3d</fix>
</trkpt>
<trkpt lat="-27.274439" lon="151.290064">
  <ele>343.0</ele>
  <time>2026-09-01T01:11:33Z</time>
  <course>262.16</course>
  <speed>0.9176055797563569</speed>
  <fix>3d</fix>
</trkpt>
<trkpt lat="-27.274439" lon="151.290064">
  <ele>343.0</ele>
  <time>2026-09-01T01:11:33Z</time>
  <course>0.0</course>
  <speed>0.0</speed>
  <fix>3d</fix>
</trkpt>
<trkpt lat="-27.274439" lon="151.290064">
  <ele>343.0</ele>
  <time>2026-09-01T01:11:33Z</time>
  <course>256.4</course>
  <speed>0.9403190947758107</speed>
  <fix>3d</fix>
</trkpt>
<trkpt lat="-27.274439" lon="151.290064">
  <ele>343.0</ele>
  <time>2026-09-01T01:11:33Z</time>
  <course>0.0</course>
  <speed>0.0</speed>
  <fix>3d</fix>
</trkpt>
<trkpt lat="-27.274439" lon="151.290064">
  <ele>343.0</ele>
  <time>2026-09-01T01:11:33Z</time>
  <course>249.45</course>
  <speed>0.756042326857432</speed>
  <fix>3d</fix>
</trkpt>
<trkpt lat="-27.274439" lon="151.290064">
  <ele>343.0</ele>
  <time>2026-09-01T01:11:33Z</time>
  <course>0.0</course>
  <speed>0.0</speed>
  <fix>3d</fix>
</trkpt>
<trkpt lat="-27.274439" lon="151.290064">
  <ele>343.0</ele>
  <time>2026-09-01T01:11:33Z</time>
  <course>241.79</course>
  <speed>0.6596969000988256</speed>
  <fix>3d</fix>
</trkpt>
<trkpt lat="-27.274439" lon="151.290064">
  <ele>343.0</ele>
  <time>2026-09-01T01:11:33Z</time>
  <course>0.0</course>
  <speed>0.0</speed>
  <fix>3d</fix>
</trkpt>
<trkpt lat="-27.274439" lon="151.290064">
  <ele>343.0</ele>
  <time>2026-09-01T01:11:33Z</time>
  <course>233.59</course>
  <speed>0.6618912297349165</speed>
  <fix>3d</fix>
</trkpt>
<trkpt lat="-27.274439" lon="151.290064">
  <ele>343.0</ele>
  <time>2026-09-01T01:11:33Z</time>
  <course>0.0</course>
  <speed>0.0</speed>
  <fix>3d</fix>
</trkpt>
<trkpt lat="-27.274439" lon="151.290064">
  <ele>343.0</ele>
  <time>2026-09-01T01:11:33Z</time>
  <course>225.02</course>
  <speed>0.7034202158027589</speed>
  <fix>3d</fix>
</trkpt>
<trkpt lat="-27.274439" lon="151.290064">
  <ele>343.0</ele>
  <time>2026-09-01T01:11:33Z</time>
  <course>0.0</course>
  <speed>0.0</speed>
  <fix>3d</fix>
</trkpt>
</trkseg>
</trk>
</gpx>
